<?xml version="1.0" encoding="UTF-8" standalone="no" ?>
<gpx xmlns="http://www.topografix.com/GPX/1/1" xmlns:xsi="http://www.w3.org/2001/XMLSchema-instance" xsi:schemaLocation="http://www.topografix.com/GPX/1/1 http://www.topografix.com/GPX/1/1/gpx.xsd" version="1.1" creator="VisuGPX - https://www.visugpx.com">
  <metadata>
    <name>le petit savoyard</name>
    <desc><![CDATA[le petit savoyard]]></desc>
  </metadata>
  <trk>
    <name><![CDATA[2012-05-26T07:01:22Z]]></name>
    <trkseg>
      <trkpt lat="45.52611" lon="6.09392">
        <ele>343.3278809</ele>
        <time>2012-05-26T07:01:22Z</time>
      </trkpt>
      <trkpt lat="45.52612" lon="6.09389">
        <ele>341.4052734</ele>
        <time>2012-05-26T07:01:26Z</time>
      </trkpt>
      <trkpt lat="45.5261" lon="6.09388">
        <ele>340.4440918</ele>
        <time>2012-05-26T07:01:30Z</time>
      </trkpt>
      <trkpt lat="45.52605" lon="6.09375">
        <ele>342.84729</ele>
        <time>2012-05-26T07:01:34Z</time>
      </trkpt>
      <trkpt lat="45.52596" lon="6.09361">
        <ele>344.2894287</ele>
        <time>2012-05-26T07:01:38Z</time>
      </trkpt>
      <trkpt lat="45.52591" lon="6.09352">
        <ele>344.2894287</ele>
        <time>2012-05-26T07:01:40Z</time>
      </trkpt>
      <trkpt lat="45.52585" lon="6.09343">
        <ele>344.2894287</ele>
        <time>2012-05-26T07:01:42Z</time>
      </trkpt>
      <trkpt lat="45.52583" lon="6.09339">
        <ele>344.2894287</ele>
        <time>2012-05-26T07:01:43Z</time>
      </trkpt>
      <trkpt lat="45.52575" lon="6.09325">
        <ele>348.1346436</ele>
        <time>2012-05-26T07:01:47Z</time>
      </trkpt>
      <trkpt lat="45.52572" lon="6.09322">
        <ele>349.0958252</ele>
        <time>2012-05-26T07:01:48Z</time>
      </trkpt>
      <trkpt lat="45.52564" lon="6.09312">
        <ele>352.4605713</ele>
        <time>2012-05-26T07:01:51Z</time>
      </trkpt>
      <trkpt lat="45.52562" lon="6.09309">
        <ele>353.421875</ele>
        <time>2012-05-26T07:01:52Z</time>
      </trkpt>
      <trkpt lat="45.52548" lon="6.09295">
        <ele>358.2283936</ele>
        <time>2012-05-26T07:01:57Z</time>
      </trkpt>
      <trkpt lat="45.52535" lon="6.09282">
        <ele>362.5543213</ele>
        <time>2012-05-26T07:02:02Z</time>
      </trkpt>
      <trkpt lat="45.52531" lon="6.09275">
        <ele>363.0350342</ele>
        <time>2012-05-26T07:02:04Z</time>
      </trkpt>
      <trkpt lat="45.52536" lon="6.09251">
        <ele>360.151123</ele>
        <time>2012-05-26T07:02:09Z</time>
      </trkpt>
      <trkpt lat="45.52541" lon="6.0924">
        <ele>357.7478027</ele>
        <time>2012-05-26T07:02:12Z</time>
      </trkpt>
      <trkpt lat="45.52551" lon="6.09217">
        <ele>353.9025879</ele>
        <time>2012-05-26T07:02:18Z</time>
      </trkpt>
      <trkpt lat="45.52562" lon="6.09196">
        <ele>351.0184326</ele>
        <time>2012-05-26T07:02:24Z</time>
      </trkpt>
      <trkpt lat="45.52571" lon="6.09179">
        <ele>349.0958252</ele>
        <time>2012-05-26T07:02:29Z</time>
      </trkpt>
      <trkpt lat="45.52585" lon="6.09163">
        <ele>347.1732178</ele>
        <time>2012-05-26T07:02:35Z</time>
      </trkpt>
      <trkpt lat="45.52599" lon="6.09152">
        <ele>344.2894287</ele>
        <time>2012-05-26T07:02:40Z</time>
      </trkpt>
      <trkpt lat="45.52613" lon="6.09144">
        <ele>344.7700195</ele>
        <time>2012-05-26T07:02:45Z</time>
      </trkpt>
      <trkpt lat="45.5263" lon="6.0914">
        <ele>345.7313232</ele>
        <time>2012-05-26T07:02:51Z</time>
      </trkpt>
      <trkpt lat="45.52641" lon="6.09138">
        <ele>345.2506104</ele>
        <time>2012-05-26T07:02:56Z</time>
      </trkpt>
      <trkpt lat="45.52658" lon="6.09137">
        <ele>346.692627</ele>
        <time>2012-05-26T07:03:02Z</time>
      </trkpt>
      <trkpt lat="45.5267" lon="6.09137">
        <ele>347.6539307</ele>
        <time>2012-05-26T07:03:06Z</time>
      </trkpt>
      <trkpt lat="45.52685" lon="6.09138">
        <ele>348.6152344</ele>
        <time>2012-05-26T07:03:11Z</time>
      </trkpt>
      <trkpt lat="45.52697" lon="6.09136">
        <ele>351.4991455</ele>
        <time>2012-05-26T07:03:16Z</time>
      </trkpt>
      <trkpt lat="45.52713" lon="6.09132">
        <ele>353.421875</ele>
        <time>2012-05-26T07:03:22Z</time>
      </trkpt>
      <trkpt lat="45.52724" lon="6.09128">
        <ele>354.3831787</ele>
        <time>2012-05-26T07:03:26Z</time>
      </trkpt>
      <trkpt lat="45.52738" lon="6.0912">
        <ele>355.8251953</ele>
        <time>2012-05-26T07:03:31Z</time>
      </trkpt>
      <trkpt lat="45.52748" lon="6.09115">
        <ele>357.2670898</ele>
        <time>2012-05-26T07:03:35Z</time>
      </trkpt>
      <trkpt lat="45.5276" lon="6.09106">
        <ele>355.8251953</ele>
        <time>2012-05-26T07:03:40Z</time>
      </trkpt>
      <trkpt lat="45.52772" lon="6.09096">
        <ele>355.3444824</ele>
        <time>2012-05-26T07:03:45Z</time>
      </trkpt>
      <trkpt lat="45.52778" lon="6.09085">
        <ele>353.9025879</ele>
        <time>2012-05-26T07:03:48Z</time>
      </trkpt>
      <trkpt lat="45.52773" lon="6.0907">
        <ele>357.2670898</ele>
        <time>2012-05-26T07:03:52Z</time>
      </trkpt>
      <trkpt lat="45.5276" lon="6.09049">
        <ele>358.7089844</ele>
        <time>2012-05-26T07:03:58Z</time>
      </trkpt>
      <trkpt lat="45.52751" lon="6.09032">
        <ele>358.7089844</ele>
        <time>2012-05-26T07:04:03Z</time>
      </trkpt>
      <trkpt lat="45.52742" lon="6.09009">
        <ele>360.6317139</ele>
        <time>2012-05-26T07:04:09Z</time>
      </trkpt>
      <trkpt lat="45.52734" lon="6.08985">
        <ele>365.4383545</ele>
        <time>2012-05-26T07:04:15Z</time>
      </trkpt>
      <trkpt lat="45.52725" lon="6.0896">
        <ele>370.7255859</ele>
        <time>2012-05-26T07:04:21Z</time>
      </trkpt>
      <trkpt lat="45.52716" lon="6.08934">
        <ele>370.7255859</ele>
        <time>2012-05-26T07:04:27Z</time>
      </trkpt>
      <trkpt lat="45.52708" lon="6.08913">
        <ele>370.7255859</ele>
        <time>2012-05-26T07:04:32Z</time>
      </trkpt>
      <trkpt lat="45.527" lon="6.08888">
        <ele>370.7255859</ele>
        <time>2012-05-26T07:04:38Z</time>
      </trkpt>
      <trkpt lat="45.52688" lon="6.0887">
        <ele>370.244873</ele>
        <time>2012-05-26T07:04:43Z</time>
      </trkpt>
      <trkpt lat="45.52679" lon="6.08857">
        <ele>369.7642822</ele>
        <time>2012-05-26T07:04:47Z</time>
      </trkpt>
      <trkpt lat="45.52665" lon="6.08848">
        <ele>372.6481934</ele>
        <time>2012-05-26T07:04:52Z</time>
      </trkpt>
      <trkpt lat="45.52649" lon="6.08838">
        <ele>376.4935303</ele>
        <time>2012-05-26T07:04:57Z</time>
      </trkpt>
      <trkpt lat="45.5263" lon="6.08826">
        <ele>376.0128174</ele>
        <time>2012-05-26T07:05:03Z</time>
      </trkpt>
      <trkpt lat="45.52613" lon="6.08812">
        <ele>373.6094971</ele>
        <time>2012-05-26T07:05:08Z</time>
      </trkpt>
      <trkpt lat="45.5261" lon="6.0881">
        <ele>373.1289063</ele>
        <time>2012-05-26T07:05:09Z</time>
      </trkpt>
      <trkpt lat="45.52607" lon="6.08808">
        <ele>372.6481934</ele>
        <time>2012-05-26T07:05:10Z</time>
      </trkpt>
      <trkpt lat="45.52587" lon="6.08795">
        <ele>375.0515137</ele>
        <time>2012-05-26T07:05:16Z</time>
      </trkpt>
      <trkpt lat="45.52563" lon="6.08785">
        <ele>375.0515137</ele>
        <time>2012-05-26T07:05:23Z</time>
      </trkpt>
      <trkpt lat="45.52546" lon="6.0878">
        <ele>373.6094971</ele>
        <time>2012-05-26T07:05:28Z</time>
      </trkpt>
      <trkpt lat="45.52529" lon="6.08777">
        <ele>373.6094971</ele>
        <time>2012-05-26T07:05:33Z</time>
      </trkpt>
      <trkpt lat="45.52506" lon="6.08768">
        <ele>374.0900879</ele>
        <time>2012-05-26T07:05:40Z</time>
      </trkpt>
      <trkpt lat="45.52494" lon="6.08759">
        <ele>374.5708008</ele>
        <time>2012-05-26T07:05:44Z</time>
      </trkpt>
      <trkpt lat="45.52494" lon="6.08733">
        <ele>371.2062988</ele>
        <time>2012-05-26T07:05:49Z</time>
      </trkpt>
      <trkpt lat="45.52495" lon="6.08713">
        <ele>367.8415527</ele>
        <time>2012-05-26T07:05:54Z</time>
      </trkpt>
      <trkpt lat="45.52487" lon="6.0869">
        <ele>367.3609619</ele>
        <time>2012-05-26T07:06:00Z</time>
      </trkpt>
      <trkpt lat="45.5248" lon="6.08671">
        <ele>366.880249</ele>
        <time>2012-05-26T07:06:06Z</time>
      </trkpt>
      <trkpt lat="45.52475" lon="6.08654">
        <ele>364.9576416</ele>
        <time>2012-05-26T07:06:11Z</time>
      </trkpt>
      <trkpt lat="45.52468" lon="6.08636">
        <ele>367.8415527</ele>
        <time>2012-05-26T07:06:17Z</time>
      </trkpt>
      <trkpt lat="45.52457" lon="6.0861">
        <ele>373.6094971</ele>
        <time>2012-05-26T07:06:25Z</time>
      </trkpt>
      <trkpt lat="45.5245" lon="6.08591">
        <ele>377.9354248</ele>
        <time>2012-05-26T07:06:31Z</time>
      </trkpt>
      <trkpt lat="45.52439" lon="6.08567">
        <ele>380.819458</ele>
        <time>2012-05-26T07:06:39Z</time>
      </trkpt>
      <trkpt lat="45.5243" lon="6.08545">
        <ele>383.2226563</ele>
        <time>2012-05-26T07:06:46Z</time>
      </trkpt>
      <trkpt lat="45.52424" lon="6.08534">
        <ele>385.1453857</ele>
        <time>2012-05-26T07:06:50Z</time>
      </trkpt>
      <trkpt lat="45.52414" lon="6.08522">
        <ele>385.1453857</ele>
        <time>2012-05-26T07:06:55Z</time>
      </trkpt>
      <trkpt lat="45.52402" lon="6.08511">
        <ele>389.4711914</ele>
        <time>2012-05-26T07:07:01Z</time>
      </trkpt>
      <trkpt lat="45.52389" lon="6.085">
        <ele>394.2779541</ele>
        <time>2012-05-26T07:07:07Z</time>
      </trkpt>
      <trkpt lat="45.52378" lon="6.08492">
        <ele>398.6037598</ele>
        <time>2012-05-26T07:07:12Z</time>
      </trkpt>
      <trkpt lat="45.52364" lon="6.08479">
        <ele>403.4104004</ele>
        <time>2012-05-26T07:07:19Z</time>
      </trkpt>
      <trkpt lat="45.52355" lon="6.08471">
        <ele>406.2943115</ele>
        <time>2012-05-26T07:07:23Z</time>
      </trkpt>
      <trkpt lat="45.52341" lon="6.08455">
        <ele>409.6590576</ele>
        <time>2012-05-26T07:07:29Z</time>
      </trkpt>
      <trkpt lat="45.52329" lon="6.08443">
        <ele>412.5428467</ele>
        <time>2012-05-26T07:07:34Z</time>
      </trkpt>
      <trkpt lat="45.52317" lon="6.08432">
        <ele>415.9074707</ele>
        <time>2012-05-26T07:07:39Z</time>
      </trkpt>
      <trkpt lat="45.52306" lon="6.08421">
        <ele>418.7915039</ele>
        <time>2012-05-26T07:07:44Z</time>
      </trkpt>
      <trkpt lat="45.52295" lon="6.08411">
        <ele>422.1560059</ele>
        <time>2012-05-26T07:07:49Z</time>
      </trkpt>
      <trkpt lat="45.52281" lon="6.084">
        <ele>424.0787354</ele>
        <time>2012-05-26T07:07:55Z</time>
      </trkpt>
      <trkpt lat="45.52267" lon="6.08385">
        <ele>428.4046631</ele>
        <time>2012-05-26T07:08:02Z</time>
      </trkpt>
      <trkpt lat="45.52258" lon="6.08363">
        <ele>424.5594482</ele>
        <time>2012-05-26T07:08:08Z</time>
      </trkpt>
      <trkpt lat="45.52247" lon="6.08344">
        <ele>422.6367188</ele>
        <time>2012-05-26T07:08:14Z</time>
      </trkpt>
      <trkpt lat="45.52235" lon="6.08331">
        <ele>423.1174316</ele>
        <time>2012-05-26T07:08:19Z</time>
      </trkpt>
      <trkpt lat="45.52219" lon="6.08313">
        <ele>422.1560059</ele>
        <time>2012-05-26T07:08:26Z</time>
      </trkpt>
      <trkpt lat="45.52203" lon="6.08298">
        <ele>424.5594482</ele>
        <time>2012-05-26T07:08:33Z</time>
      </trkpt>
      <trkpt lat="45.52191" lon="6.08286">
        <ele>425.520752</ele>
        <time>2012-05-26T07:08:38Z</time>
      </trkpt>
      <trkpt lat="45.52179" lon="6.08275">
        <ele>426.9627686</ele>
        <time>2012-05-26T07:08:43Z</time>
      </trkpt>
      <trkpt lat="45.52169" lon="6.08262">
        <ele>428.4046631</ele>
        <time>2012-05-26T07:08:48Z</time>
      </trkpt>
      <trkpt lat="45.52158" lon="6.0825">
        <ele>430.3272705</ele>
        <time>2012-05-26T07:08:53Z</time>
      </trkpt>
      <trkpt lat="45.52145" lon="6.08237">
        <ele>432.25</ele>
        <time>2012-05-26T07:08:59Z</time>
      </trkpt>
      <trkpt lat="45.52132" lon="6.08224">
        <ele>434.6533203</ele>
        <time>2012-05-26T07:09:05Z</time>
      </trkpt>
      <trkpt lat="45.5212" lon="6.08205">
        <ele>432.7307129</ele>
        <time>2012-05-26T07:09:12Z</time>
      </trkpt>
      <trkpt lat="45.52106" lon="6.08185">
        <ele>433.2113037</ele>
        <time>2012-05-26T07:09:19Z</time>
      </trkpt>
      <trkpt lat="45.52093" lon="6.08168">
        <ele>434.6533203</ele>
        <time>2012-05-26T07:09:25Z</time>
      </trkpt>
      <trkpt lat="45.52081" lon="6.08155">
        <ele>434.6533203</ele>
        <time>2012-05-26T07:09:30Z</time>
      </trkpt>
      <trkpt lat="45.52067" lon="6.08137">
        <ele>436.5759277</ele>
        <time>2012-05-26T07:09:36Z</time>
      </trkpt>
      <trkpt lat="45.52051" lon="6.08116">
        <ele>436.5759277</ele>
        <time>2012-05-26T07:09:43Z</time>
      </trkpt>
      <trkpt lat="45.52046" lon="6.08111">
        <ele>437.5371094</ele>
        <time>2012-05-26T07:09:45Z</time>
      </trkpt>
      <trkpt lat="45.52033" lon="6.08094">
        <ele>438.979126</ele>
        <time>2012-05-26T07:09:51Z</time>
      </trkpt>
      <trkpt lat="45.52024" lon="6.08073">
        <ele>439.4597168</ele>
        <time>2012-05-26T07:09:57Z</time>
      </trkpt>
      <trkpt lat="45.5202" lon="6.08042">
        <ele>435.614502</ele>
        <time>2012-05-26T07:10:04Z</time>
      </trkpt>
      <trkpt lat="45.52015" lon="6.08024">
        <ele>435.1339111</ele>
        <time>2012-05-26T07:10:09Z</time>
      </trkpt>
      <trkpt lat="45.5201" lon="6.08003">
        <ele>435.1339111</ele>
        <time>2012-05-26T07:10:15Z</time>
      </trkpt>
      <trkpt lat="45.52004" lon="6.07983">
        <ele>435.614502</ele>
        <time>2012-05-26T07:10:21Z</time>
      </trkpt>
      <trkpt lat="45.51998" lon="6.07963">
        <ele>436.0952148</ele>
        <time>2012-05-26T07:10:27Z</time>
      </trkpt>
      <trkpt lat="45.5199" lon="6.07943">
        <ele>435.614502</ele>
        <time>2012-05-26T07:10:33Z</time>
      </trkpt>
      <trkpt lat="45.51985" lon="6.07924">
        <ele>435.1339111</ele>
        <time>2012-05-26T07:10:39Z</time>
      </trkpt>
      <trkpt lat="45.51978" lon="6.07905">
        <ele>436.0952148</ele>
        <time>2012-05-26T07:10:45Z</time>
      </trkpt>
      <trkpt lat="45.51969" lon="6.07883">
        <ele>438.0178223</ele>
        <time>2012-05-26T07:10:52Z</time>
      </trkpt>
      <trkpt lat="45.51962" lon="6.07872">
        <ele>437.5371094</ele>
        <time>2012-05-26T07:10:56Z</time>
      </trkpt>
      <trkpt lat="45.51945" lon="6.07859">
        <ele>438.0178223</ele>
        <time>2012-05-26T07:11:02Z</time>
      </trkpt>
      <trkpt lat="45.51933" lon="6.0784">
        <ele>438.0178223</ele>
        <time>2012-05-26T07:11:08Z</time>
      </trkpt>
      <trkpt lat="45.51919" lon="6.07829">
        <ele>437.5371094</ele>
        <time>2012-05-26T07:11:13Z</time>
      </trkpt>
      <trkpt lat="45.51906" lon="6.07816">
        <ele>435.614502</ele>
        <time>2012-05-26T07:11:18Z</time>
      </trkpt>
      <trkpt lat="45.51892" lon="6.07797">
        <ele>433.2113037</ele>
        <time>2012-05-26T07:11:24Z</time>
      </trkpt>
      <trkpt lat="45.51878" lon="6.07778">
        <ele>431.769165</ele>
        <time>2012-05-26T07:11:30Z</time>
      </trkpt>
      <trkpt lat="45.51866" lon="6.07763">
        <ele>430.3272705</ele>
        <time>2012-05-26T07:11:35Z</time>
      </trkpt>
      <trkpt lat="45.51853" lon="6.07749">
        <ele>430.8079834</ele>
        <time>2012-05-26T07:11:40Z</time>
      </trkpt>
      <trkpt lat="45.51844" lon="6.07738">
        <ele>431.769165</ele>
        <time>2012-05-26T07:11:44Z</time>
      </trkpt>
      <trkpt lat="45.51846" lon="6.07721">
        <ele>429.3659668</ele>
        <time>2012-05-26T07:11:48Z</time>
      </trkpt>
      <trkpt lat="45.51852" lon="6.07716">
        <ele>426.4820557</ele>
        <time>2012-05-26T07:11:51Z</time>
      </trkpt>
      <trkpt lat="45.51858" lon="6.07714">
        <ele>424.0787354</ele>
        <time>2012-05-26T07:11:54Z</time>
      </trkpt>
      <trkpt lat="45.51862" lon="6.07704">
        <ele>423.5980225</ele>
        <time>2012-05-26T07:11:59Z</time>
      </trkpt>
      <trkpt lat="45.51862" lon="6.07701">
        <ele>424.0787354</ele>
        <time>2012-05-26T07:12:00Z</time>
      </trkpt>
      <trkpt lat="45.51859" lon="6.0769">
        <ele>426.9627686</ele>
        <time>2012-05-26T07:12:04Z</time>
      </trkpt>
      <trkpt lat="45.51856" lon="6.07676">
        <ele>429.8465576</ele>
        <time>2012-05-26T07:12:10Z</time>
      </trkpt>
      <trkpt lat="45.5185" lon="6.07667">
        <ele>430.3272705</ele>
        <time>2012-05-26T07:12:15Z</time>
      </trkpt>
      <trkpt lat="45.51843" lon="6.07657">
        <ele>430.8079834</ele>
        <time>2012-05-26T07:12:20Z</time>
      </trkpt>
      <trkpt lat="45.51834" lon="6.07643">
        <ele>432.7307129</ele>
        <time>2012-05-26T07:12:26Z</time>
      </trkpt>
      <trkpt lat="45.51826" lon="6.07632">
        <ele>432.7307129</ele>
        <time>2012-05-26T07:12:31Z</time>
      </trkpt>
      <trkpt lat="45.51812" lon="6.07618">
        <ele>431.769165</ele>
        <time>2012-05-26T07:12:36Z</time>
      </trkpt>
      <trkpt lat="45.51803" lon="6.076">
        <ele>432.7307129</ele>
        <time>2012-05-26T07:12:42Z</time>
      </trkpt>
      <trkpt lat="45.51796" lon="6.07581">
        <ele>431.769165</ele>
        <time>2012-05-26T07:12:48Z</time>
      </trkpt>
      <trkpt lat="45.51788" lon="6.07562">
        <ele>431.2885742</ele>
        <time>2012-05-26T07:12:54Z</time>
      </trkpt>
      <trkpt lat="45.51781" lon="6.07544">
        <ele>431.769165</ele>
        <time>2012-05-26T07:13:00Z</time>
      </trkpt>
      <trkpt lat="45.51772" lon="6.07523">
        <ele>432.25</ele>
        <time>2012-05-26T07:13:07Z</time>
      </trkpt>
      <trkpt lat="45.51762" lon="6.07506">
        <ele>432.7307129</ele>
        <time>2012-05-26T07:13:13Z</time>
      </trkpt>
      <trkpt lat="45.51752" lon="6.07496">
        <ele>432.25</ele>
        <time>2012-05-26T07:13:17Z</time>
      </trkpt>
      <trkpt lat="45.51739" lon="6.07484">
        <ele>432.25</ele>
        <time>2012-05-26T07:13:22Z</time>
      </trkpt>
      <trkpt lat="45.51727" lon="6.07471">
        <ele>432.7307129</ele>
        <time>2012-05-26T07:13:27Z</time>
      </trkpt>
      <trkpt lat="45.51716" lon="6.07464">
        <ele>432.7307129</ele>
        <time>2012-05-26T07:13:31Z</time>
      </trkpt>
      <trkpt lat="45.51709" lon="6.07465">
        <ele>431.769165</ele>
        <time>2012-05-26T07:13:34Z</time>
      </trkpt>
      <trkpt lat="45.517" lon="6.07467">
        <ele>429.8465576</ele>
        <time>2012-05-26T07:13:38Z</time>
      </trkpt>
      <trkpt lat="45.51696" lon="6.07463">
        <ele>428.4046631</ele>
        <time>2012-05-26T07:13:40Z</time>
      </trkpt>
      <trkpt lat="45.51689" lon="6.0744">
        <ele>426.9627686</ele>
        <time>2012-05-26T07:13:46Z</time>
      </trkpt>
      <trkpt lat="45.51679" lon="6.07418">
        <ele>427.9239502</ele>
        <time>2012-05-26T07:13:52Z</time>
      </trkpt>
      <trkpt lat="45.5167" lon="6.074">
        <ele>429.3659668</ele>
        <time>2012-05-26T07:13:57Z</time>
      </trkpt>
      <trkpt lat="45.51662" lon="6.07382">
        <ele>430.3272705</ele>
        <time>2012-05-26T07:14:02Z</time>
      </trkpt>
      <trkpt lat="45.51654" lon="6.07359">
        <ele>432.7307129</ele>
        <time>2012-05-26T07:14:09Z</time>
      </trkpt>
      <trkpt lat="45.51639" lon="6.07344">
        <ele>431.769165</ele>
        <time>2012-05-26T07:14:15Z</time>
      </trkpt>
      <trkpt lat="45.51628" lon="6.07334">
        <ele>430.3272705</ele>
        <time>2012-05-26T07:14:19Z</time>
      </trkpt>
      <trkpt lat="45.51616" lon="6.07322">
        <ele>429.8465576</ele>
        <time>2012-05-26T07:14:24Z</time>
      </trkpt>
      <trkpt lat="45.51606" lon="6.07314">
        <ele>431.769165</ele>
        <time>2012-05-26T07:14:28Z</time>
      </trkpt>
      <trkpt lat="45.51592" lon="6.07302">
        <ele>433.2113037</ele>
        <time>2012-05-26T07:14:34Z</time>
      </trkpt>
      <trkpt lat="45.51578" lon="6.07291">
        <ele>434.6533203</ele>
        <time>2012-05-26T07:14:40Z</time>
      </trkpt>
      <trkpt lat="45.51566" lon="6.07283">
        <ele>436.0952148</ele>
        <time>2012-05-26T07:14:45Z</time>
      </trkpt>
      <trkpt lat="45.51553" lon="6.07271">
        <ele>436.0952148</ele>
        <time>2012-05-26T07:14:51Z</time>
      </trkpt>
      <trkpt lat="45.51546" lon="6.07262">
        <ele>436.5759277</ele>
        <time>2012-05-26T07:14:58Z</time>
      </trkpt>
      <trkpt lat="45.51536" lon="6.07258">
        <ele>437.0565186</ele>
        <time>2012-05-26T07:15:02Z</time>
      </trkpt>
      <trkpt lat="45.51522" lon="6.07253">
        <ele>437.5371094</ele>
        <time>2012-05-26T07:15:07Z</time>
      </trkpt>
      <trkpt lat="45.51505" lon="6.07247">
        <ele>436.0952148</ele>
        <time>2012-05-26T07:15:13Z</time>
      </trkpt>
      <trkpt lat="45.51487" lon="6.07237">
        <ele>437.0565186</ele>
        <time>2012-05-26T07:15:19Z</time>
      </trkpt>
      <trkpt lat="45.51474" lon="6.07225">
        <ele>438.0178223</ele>
        <time>2012-05-26T07:15:25Z</time>
      </trkpt>
      <trkpt lat="45.51461" lon="6.07212">
        <ele>440.4212646</ele>
        <time>2012-05-26T07:15:31Z</time>
      </trkpt>
      <trkpt lat="45.5145" lon="6.07204">
        <ele>441.3824463</ele>
        <time>2012-05-26T07:15:36Z</time>
      </trkpt>
      <trkpt lat="45.51448" lon="6.07203">
        <ele>440.9018555</ele>
        <time>2012-05-26T07:15:37Z</time>
      </trkpt>
      <trkpt lat="45.51449" lon="6.07192">
        <ele>437.0565186</ele>
        <time>2012-05-26T07:15:41Z</time>
      </trkpt>
      <trkpt lat="45.51456" lon="6.07187">
        <ele>433.2113037</ele>
        <time>2012-05-26T07:15:45Z</time>
      </trkpt>
      <trkpt lat="45.51463" lon="6.07182">
        <ele>427.9239502</ele>
        <time>2012-05-26T07:15:50Z</time>
      </trkpt>
      <trkpt lat="45.51465" lon="6.07181">
        <ele>427.4433594</ele>
        <time>2012-05-26T07:15:51Z</time>
      </trkpt>
      <trkpt lat="45.51471" lon="6.07178">
        <ele>422.6367188</ele>
        <time>2012-05-26T07:15:56Z</time>
      </trkpt>
      <trkpt lat="45.51478" lon="6.07172">
        <ele>418.310791</ele>
        <time>2012-05-26T07:16:02Z</time>
      </trkpt>
      <trkpt lat="45.51479" lon="6.07171">
        <ele>417.8302002</ele>
        <time>2012-05-26T07:16:03Z</time>
      </trkpt>
      <trkpt lat="45.5148" lon="6.07151">
        <ele>417.3496094</ele>
        <time>2012-05-26T07:16:09Z</time>
      </trkpt>
      <trkpt lat="45.51481" lon="6.07128">
        <ele>417.8302002</ele>
        <time>2012-05-26T07:16:14Z</time>
      </trkpt>
      <trkpt lat="45.51485" lon="6.071">
        <ele>426.4820557</ele>
        <time>2012-05-26T07:16:21Z</time>
      </trkpt>
      <trkpt lat="45.51483" lon="6.07073">
        <ele>433.2113037</ele>
        <time>2012-05-26T07:16:27Z</time>
      </trkpt>
      <trkpt lat="45.51483" lon="6.07051">
        <ele>436.5759277</ele>
        <time>2012-05-26T07:16:32Z</time>
      </trkpt>
      <trkpt lat="45.51487" lon="6.07029">
        <ele>443.3050537</ele>
        <time>2012-05-26T07:16:37Z</time>
      </trkpt>
      <trkpt lat="45.51492" lon="6.07011">
        <ele>450.5150146</ele>
        <time>2012-05-26T07:16:42Z</time>
      </trkpt>
      <trkpt lat="45.51495" lon="6.06996">
        <ele>456.282959</ele>
        <time>2012-05-26T07:16:46Z</time>
      </trkpt>
      <trkpt lat="45.51495" lon="6.06986">
        <ele>457.2442627</ele>
        <time>2012-05-26T07:16:50Z</time>
      </trkpt>
      <trkpt lat="45.51484" lon="6.06977">
        <ele>449.5537109</ele>
        <time>2012-05-26T07:16:56Z</time>
      </trkpt>
      <trkpt lat="45.51481" lon="6.06975">
        <ele>448.5924072</ele>
        <time>2012-05-26T07:16:57Z</time>
      </trkpt>
      <trkpt lat="45.51469" lon="6.06962">
        <ele>443.3050537</ele>
        <time>2012-05-26T07:17:02Z</time>
      </trkpt>
      <trkpt lat="45.51457" lon="6.06948">
        <ele>439.9404297</ele>
        <time>2012-05-26T07:17:07Z</time>
      </trkpt>
      <trkpt lat="45.51444" lon="6.06926">
        <ele>436.5759277</ele>
        <time>2012-05-26T07:17:13Z</time>
      </trkpt>
      <trkpt lat="45.51432" lon="6.06909">
        <ele>433.6918945</ele>
        <time>2012-05-26T07:17:18Z</time>
      </trkpt>
      <trkpt lat="45.5143" lon="6.06906">
        <ele>433.2113037</ele>
        <time>2012-05-26T07:17:19Z</time>
      </trkpt>
      <trkpt lat="45.51414" lon="6.06887">
        <ele>429.8465576</ele>
        <time>2012-05-26T07:17:25Z</time>
      </trkpt>
      <trkpt lat="45.51393" lon="6.06868">
        <ele>423.5980225</ele>
        <time>2012-05-26T07:17:32Z</time>
      </trkpt>
      <trkpt lat="45.51375" lon="6.06854">
        <ele>420.7141113</ele>
        <time>2012-05-26T07:17:38Z</time>
      </trkpt>
      <trkpt lat="45.51366" lon="6.06845">
        <ele>418.310791</ele>
        <time>2012-05-26T07:17:41Z</time>
      </trkpt>
      <trkpt lat="45.51367" lon="6.06829">
        <ele>415.4268799</ele>
        <time>2012-05-26T07:17:45Z</time>
      </trkpt>
      <trkpt lat="45.51374" lon="6.06819">
        <ele>411.1009521</ele>
        <time>2012-05-26T07:17:50Z</time>
      </trkpt>
      <trkpt lat="45.51377" lon="6.06802">
        <ele>399.0843506</ele>
        <time>2012-05-26T07:17:56Z</time>
      </trkpt>
      <trkpt lat="45.51377" lon="6.06792">
        <ele>393.3165283</ele>
        <time>2012-05-26T07:18:00Z</time>
      </trkpt>
      <trkpt lat="45.51376" lon="6.06777">
        <ele>389.9519043</ele>
        <time>2012-05-26T07:18:05Z</time>
      </trkpt>
      <trkpt lat="45.51372" lon="6.06761">
        <ele>390.4326172</ele>
        <time>2012-05-26T07:18:10Z</time>
      </trkpt>
      <trkpt lat="45.51367" lon="6.06744">
        <ele>392.3553467</ele>
        <time>2012-05-26T07:18:15Z</time>
      </trkpt>
      <trkpt lat="45.51364" lon="6.06725">
        <ele>393.3165283</ele>
        <time>2012-05-26T07:18:20Z</time>
      </trkpt>
      <trkpt lat="45.51364" lon="6.06705">
        <ele>394.7585449</ele>
        <time>2012-05-26T07:18:25Z</time>
      </trkpt>
      <trkpt lat="45.51366" lon="6.06679">
        <ele>396.2005615</ele>
        <time>2012-05-26T07:18:32Z</time>
      </trkpt>
      <trkpt lat="45.51369" lon="6.06658">
        <ele>397.6424561</ele>
        <time>2012-05-26T07:18:38Z</time>
      </trkpt>
      <trkpt lat="45.51373" lon="6.06638">
        <ele>399.0843506</ele>
        <time>2012-05-26T07:18:44Z</time>
      </trkpt>
      <trkpt lat="45.51376" lon="6.06616">
        <ele>398.6037598</ele>
        <time>2012-05-26T07:18:51Z</time>
      </trkpt>
      <trkpt lat="45.51377" lon="6.06595">
        <ele>399.0843506</ele>
        <time>2012-05-26T07:18:57Z</time>
      </trkpt>
      <trkpt lat="45.51376" lon="6.06577">
        <ele>400.0458984</ele>
        <time>2012-05-26T07:19:02Z</time>
      </trkpt>
      <trkpt lat="45.51375" lon="6.06561">
        <ele>401.9685059</ele>
        <time>2012-05-26T07:19:07Z</time>
      </trkpt>
      <trkpt lat="45.51372" lon="6.06542">
        <ele>402.9296875</ele>
        <time>2012-05-26T07:19:13Z</time>
      </trkpt>
      <trkpt lat="45.51368" lon="6.06525">
        <ele>403.4104004</ele>
        <time>2012-05-26T07:19:19Z</time>
      </trkpt>
      <trkpt lat="45.51362" lon="6.06503">
        <ele>404.3717041</ele>
        <time>2012-05-26T07:19:26Z</time>
      </trkpt>
      <trkpt lat="45.51357" lon="6.06485">
        <ele>406.2943115</ele>
        <time>2012-05-26T07:19:32Z</time>
      </trkpt>
      <trkpt lat="45.51352" lon="6.06468">
        <ele>407.2556152</ele>
        <time>2012-05-26T07:19:38Z</time>
      </trkpt>
      <trkpt lat="45.51347" lon="6.06451">
        <ele>409.1783447</ele>
        <time>2012-05-26T07:19:44Z</time>
      </trkpt>
      <trkpt lat="45.51342" lon="6.06438">
        <ele>411.1009521</ele>
        <time>2012-05-26T07:19:49Z</time>
      </trkpt>
      <trkpt lat="45.51333" lon="6.06423">
        <ele>412.0622559</ele>
        <time>2012-05-26T07:19:55Z</time>
      </trkpt>
      <trkpt lat="45.51323" lon="6.06406">
        <ele>413.5042725</ele>
        <time>2012-05-26T07:20:01Z</time>
      </trkpt>
      <trkpt lat="45.51311" lon="6.06388">
        <ele>414.4654541</ele>
        <time>2012-05-26T07:20:07Z</time>
      </trkpt>
      <trkpt lat="45.51302" lon="6.06369">
        <ele>415.4268799</ele>
        <time>2012-05-26T07:20:13Z</time>
      </trkpt>
      <trkpt lat="45.51296" lon="6.06349">
        <ele>416.8688965</ele>
        <time>2012-05-26T07:20:19Z</time>
      </trkpt>
      <trkpt lat="45.51289" lon="6.06328">
        <ele>418.310791</ele>
        <time>2012-05-26T07:20:26Z</time>
      </trkpt>
      <trkpt lat="45.51283" lon="6.06308">
        <ele>420.2333984</ele>
        <time>2012-05-26T07:20:32Z</time>
      </trkpt>
      <trkpt lat="45.51276" lon="6.0629">
        <ele>422.1560059</ele>
        <time>2012-05-26T07:20:38Z</time>
      </trkpt>
      <trkpt lat="45.51271" lon="6.06276">
        <ele>421.1948242</ele>
        <time>2012-05-26T07:20:42Z</time>
      </trkpt>
      <trkpt lat="45.5127" lon="6.06273">
        <ele>420.7141113</ele>
        <time>2012-05-26T07:20:43Z</time>
      </trkpt>
      <trkpt lat="45.51264" lon="6.06256">
        <ele>420.7141113</ele>
        <time>2012-05-26T07:20:48Z</time>
      </trkpt>
      <trkpt lat="45.51263" lon="6.06253">
        <ele>420.7141113</ele>
        <time>2012-05-26T07:20:49Z</time>
      </trkpt>
      <trkpt lat="45.51254" lon="6.06229">
        <ele>421.1948242</ele>
        <time>2012-05-26T07:20:56Z</time>
      </trkpt>
      <trkpt lat="45.51246" lon="6.06211">
        <ele>421.1948242</ele>
        <time>2012-05-26T07:21:02Z</time>
      </trkpt>
      <trkpt lat="45.51238" lon="6.06191">
        <ele>422.1560059</ele>
        <time>2012-05-26T07:21:08Z</time>
      </trkpt>
      <trkpt lat="45.51233" lon="6.0617">
        <ele>423.1174316</ele>
        <time>2012-05-26T07:21:14Z</time>
      </trkpt>
      <trkpt lat="45.5123" lon="6.06152">
        <ele>422.6367188</ele>
        <time>2012-05-26T07:21:19Z</time>
      </trkpt>
      <trkpt lat="45.51229" lon="6.0613">
        <ele>421.675415</ele>
        <time>2012-05-26T07:21:25Z</time>
      </trkpt>
      <trkpt lat="45.51228" lon="6.06109">
        <ele>422.1560059</ele>
        <time>2012-05-26T07:21:31Z</time>
      </trkpt>
      <trkpt lat="45.51228" lon="6.0609">
        <ele>423.5980225</ele>
        <time>2012-05-26T07:21:37Z</time>
      </trkpt>
      <trkpt lat="45.51228" lon="6.06074">
        <ele>424.0787354</ele>
        <time>2012-05-26T07:21:42Z</time>
      </trkpt>
      <trkpt lat="45.51228" lon="6.06062">
        <ele>424.5594482</ele>
        <time>2012-05-26T07:21:46Z</time>
      </trkpt>
      <trkpt lat="45.51224" lon="6.06047">
        <ele>424.5594482</ele>
        <time>2012-05-26T07:21:52Z</time>
      </trkpt>
      <trkpt lat="45.51223" lon="6.06044">
        <ele>424.5594482</ele>
        <time>2012-05-26T07:21:53Z</time>
      </trkpt>
      <trkpt lat="45.51218" lon="6.06033">
        <ele>425.520752</ele>
        <time>2012-05-26T07:21:57Z</time>
      </trkpt>
      <trkpt lat="45.51211" lon="6.06016">
        <ele>426.0013428</ele>
        <time>2012-05-26T07:22:03Z</time>
      </trkpt>
      <trkpt lat="45.51207" lon="6.06008">
        <ele>426.4820557</ele>
        <time>2012-05-26T07:22:06Z</time>
      </trkpt>
      <trkpt lat="45.51201" lon="6.05991">
        <ele>422.6367188</ele>
        <time>2012-05-26T07:22:12Z</time>
      </trkpt>
      <trkpt lat="45.51195" lon="6.05982">
        <ele>423.1174316</ele>
        <time>2012-05-26T07:22:16Z</time>
      </trkpt>
      <trkpt lat="45.51185" lon="6.05968">
        <ele>423.5980225</ele>
        <time>2012-05-26T07:22:21Z</time>
      </trkpt>
      <trkpt lat="45.51173" lon="6.05961">
        <ele>425.0401611</ele>
        <time>2012-05-26T07:22:27Z</time>
      </trkpt>
      <trkpt lat="45.51171" lon="6.05959">
        <ele>424.5594482</ele>
        <time>2012-05-26T07:22:28Z</time>
      </trkpt>
      <trkpt lat="45.51158" lon="6.05953">
        <ele>429.3659668</ele>
        <time>2012-05-26T07:22:35Z</time>
      </trkpt>
      <trkpt lat="45.51149" lon="6.05943">
        <ele>432.7307129</ele>
        <time>2012-05-26T07:22:40Z</time>
      </trkpt>
      <trkpt lat="45.51148" lon="6.05941">
        <ele>432.7307129</ele>
        <time>2012-05-26T07:22:41Z</time>
      </trkpt>
      <trkpt lat="45.51144" lon="6.0593">
        <ele>432.7307129</ele>
        <time>2012-05-26T07:22:46Z</time>
      </trkpt>
      <trkpt lat="45.51144" lon="6.05927">
        <ele>431.2885742</ele>
        <time>2012-05-26T07:22:47Z</time>
      </trkpt>
      <trkpt lat="45.51139" lon="6.05911">
        <ele>431.2885742</ele>
        <time>2012-05-26T07:22:53Z</time>
      </trkpt>
      <trkpt lat="45.51133" lon="6.05897">
        <ele>434.1726074</ele>
        <time>2012-05-26T07:22:59Z</time>
      </trkpt>
      <trkpt lat="45.51129" lon="6.05886">
        <ele>438.0178223</ele>
        <time>2012-05-26T07:23:03Z</time>
      </trkpt>
      <trkpt lat="45.5112" lon="6.05875">
        <ele>439.9404297</ele>
        <time>2012-05-26T07:23:09Z</time>
      </trkpt>
      <trkpt lat="45.51117" lon="6.0587">
        <ele>441.3824463</ele>
        <time>2012-05-26T07:23:11Z</time>
      </trkpt>
      <trkpt lat="45.51107" lon="6.05859">
        <ele>444.2664795</ele>
        <time>2012-05-26T07:23:17Z</time>
      </trkpt>
      <trkpt lat="45.51104" lon="6.05856">
        <ele>444.2664795</ele>
        <time>2012-05-26T07:23:19Z</time>
      </trkpt>
      <trkpt lat="45.51093" lon="6.05844">
        <ele>444.2664795</ele>
        <time>2012-05-26T07:23:25Z</time>
      </trkpt>
      <trkpt lat="45.51086" lon="6.05832">
        <ele>446.6696777</ele>
        <time>2012-05-26T07:23:29Z</time>
      </trkpt>
      <trkpt lat="45.51075" lon="6.05815">
        <ele>447.1502686</ele>
        <time>2012-05-26T07:23:35Z</time>
      </trkpt>
      <trkpt lat="45.51061" lon="6.058">
        <ele>449.5537109</ele>
        <time>2012-05-26T07:23:42Z</time>
      </trkpt>
      <trkpt lat="45.51052" lon="6.05786">
        <ele>449.072998</ele>
        <time>2012-05-26T07:23:48Z</time>
      </trkpt>
      <trkpt lat="45.51047" lon="6.05776">
        <ele>448.1118164</ele>
        <time>2012-05-26T07:23:52Z</time>
      </trkpt>
      <trkpt lat="45.51038" lon="6.05761">
        <ele>448.5924072</ele>
        <time>2012-05-26T07:23:58Z</time>
      </trkpt>
      <trkpt lat="45.5103" lon="6.0575">
        <ele>450.5150146</ele>
        <time>2012-05-26T07:24:03Z</time>
      </trkpt>
      <trkpt lat="45.51029" lon="6.05749">
        <ele>450.5150146</ele>
        <time>2012-05-26T07:24:04Z</time>
      </trkpt>
      <trkpt lat="45.51021" lon="6.05737">
        <ele>452.4376221</ele>
        <time>2012-05-26T07:24:10Z</time>
      </trkpt>
      <trkpt lat="45.51014" lon="6.05725">
        <ele>453.8796387</ele>
        <time>2012-05-26T07:24:15Z</time>
      </trkpt>
      <trkpt lat="45.51004" lon="6.05713">
        <ele>456.7635498</ele>
        <time>2012-05-26T07:24:21Z</time>
      </trkpt>
      <trkpt lat="45.50995" lon="6.05702">
        <ele>457.7249756</ele>
        <time>2012-05-26T07:24:26Z</time>
      </trkpt>
      <trkpt lat="45.50984" lon="6.05689">
        <ele>455.3215332</ele>
        <time>2012-05-26T07:24:32Z</time>
      </trkpt>
      <trkpt lat="45.50972" lon="6.05677">
        <ele>453.3989258</ele>
        <time>2012-05-26T07:24:37Z</time>
      </trkpt>
      <trkpt lat="45.50954" lon="6.05666">
        <ele>451.4763184</ele>
        <time>2012-05-26T07:24:43Z</time>
      </trkpt>
      <trkpt lat="45.50942" lon="6.05653">
        <ele>447.6309814</ele>
        <time>2012-05-26T07:24:47Z</time>
      </trkpt>
      <trkpt lat="45.5093" lon="6.05631">
        <ele>443.3050537</ele>
        <time>2012-05-26T07:24:53Z</time>
      </trkpt>
      <trkpt lat="45.50923" lon="6.05611">
        <ele>439.4597168</ele>
        <time>2012-05-26T07:24:58Z</time>
      </trkpt>
      <trkpt lat="45.50916" lon="6.05593">
        <ele>435.1339111</ele>
        <time>2012-05-26T07:25:03Z</time>
      </trkpt>
      <trkpt lat="45.50912" lon="6.05582">
        <ele>432.7307129</ele>
        <time>2012-05-26T07:25:07Z</time>
      </trkpt>
      <trkpt lat="45.50911" lon="6.05569">
        <ele>433.6918945</ele>
        <time>2012-05-26T07:25:14Z</time>
      </trkpt>
      <trkpt lat="45.50913" lon="6.05566">
        <ele>433.6918945</ele>
        <time>2012-05-26T07:25:18Z</time>
      </trkpt>
      <trkpt lat="45.50914" lon="6.05568">
        <ele>433.6918945</ele>
        <time>2012-05-26T07:25:20Z</time>
      </trkpt>
      <trkpt lat="45.5092" lon="6.05576">
        <ele>434.1726074</ele>
        <time>2012-05-26T07:25:28Z</time>
      </trkpt>
      <trkpt lat="45.50922" lon="6.05578">
        <ele>434.6533203</ele>
        <time>2012-05-26T07:25:30Z</time>
      </trkpt>
      <trkpt lat="45.50927" lon="6.05588">
        <ele>436.5759277</ele>
        <time>2012-05-26T07:25:37Z</time>
      </trkpt>
      <trkpt lat="45.50931" lon="6.05595">
        <ele>437.5371094</ele>
        <time>2012-05-26T07:25:44Z</time>
      </trkpt>
      <trkpt lat="45.50935" lon="6.05603">
        <ele>438.4985352</ele>
        <time>2012-05-26T07:25:50Z</time>
      </trkpt>
      <trkpt lat="45.50938" lon="6.05602">
        <ele>439.4597168</ele>
        <time>2012-05-26T07:25:54Z</time>
      </trkpt>
      <trkpt lat="45.50939" lon="6.0559">
        <ele>441.8631592</ele>
        <time>2012-05-26T07:26:02Z</time>
      </trkpt>
      <trkpt lat="45.5094" lon="6.05583">
        <ele>441.8631592</ele>
        <time>2012-05-26T07:26:06Z</time>
      </trkpt>
      <trkpt lat="45.50939" lon="6.05569">
        <ele>444.7470703</ele>
        <time>2012-05-26T07:26:14Z</time>
      </trkpt>
      <trkpt lat="45.50937" lon="6.05559">
        <ele>447.1502686</ele>
        <time>2012-05-26T07:26:20Z</time>
      </trkpt>
      <trkpt lat="45.50934" lon="6.05546">
        <ele>449.5537109</ele>
        <time>2012-05-26T07:26:27Z</time>
      </trkpt>
      <trkpt lat="45.5093" lon="6.0553">
        <ele>451.9570313</ele>
        <time>2012-05-26T07:26:37Z</time>
      </trkpt>
      <trkpt lat="45.50926" lon="6.05522">
        <ele>456.282959</ele>
        <time>2012-05-26T07:26:43Z</time>
      </trkpt>
      <trkpt lat="45.50923" lon="6.05504">
        <ele>458.2055664</ele>
        <time>2012-05-26T07:26:53Z</time>
      </trkpt>
      <trkpt lat="45.50922" lon="6.05492">
        <ele>459.647583</ele>
        <time>2012-05-26T07:26:58Z</time>
      </trkpt>
      <trkpt lat="45.50924" lon="6.05476">
        <ele>462.0507813</ele>
        <time>2012-05-26T07:27:07Z</time>
      </trkpt>
      <trkpt lat="45.50925" lon="6.05466">
        <ele>463.012085</ele>
        <time>2012-05-26T07:27:13Z</time>
      </trkpt>
      <trkpt lat="45.50925" lon="6.05465">
        <ele>463.4927979</ele>
        <time>2012-05-26T07:27:14Z</time>
      </trkpt>
      <trkpt lat="45.50929" lon="6.05462">
        <ele>462.5313721</ele>
        <time>2012-05-26T07:27:19Z</time>
      </trkpt>
      <trkpt lat="45.50929" lon="6.05463">
        <ele>463.012085</ele>
        <time>2012-05-26T07:27:20Z</time>
      </trkpt>
      <trkpt lat="45.50934" lon="6.05479">
        <ele>463.9733887</ele>
        <time>2012-05-26T07:27:27Z</time>
      </trkpt>
      <trkpt lat="45.50937" lon="6.05489">
        <ele>466.376709</ele>
        <time>2012-05-26T07:27:31Z</time>
      </trkpt>
      <trkpt lat="45.50943" lon="6.055">
        <ele>466.376709</ele>
        <time>2012-05-26T07:27:36Z</time>
      </trkpt>
      <trkpt lat="45.5095" lon="6.05511">
        <ele>466.8574219</ele>
        <time>2012-05-26T07:27:42Z</time>
      </trkpt>
      <trkpt lat="45.50956" lon="6.05517">
        <ele>468.2993164</ele>
        <time>2012-05-26T07:27:47Z</time>
      </trkpt>
      <trkpt lat="45.50964" lon="6.05525">
        <ele>469.741333</ele>
        <time>2012-05-26T07:27:54Z</time>
      </trkpt>
      <trkpt lat="45.50975" lon="6.05537">
        <ele>471.1833496</ele>
        <time>2012-05-26T07:28:04Z</time>
      </trkpt>
      <trkpt lat="45.50981" lon="6.05547">
        <ele>471.6639404</ele>
        <time>2012-05-26T07:28:11Z</time>
      </trkpt>
      <trkpt lat="45.50983" lon="6.0555">
        <ele>472.1446533</ele>
        <time>2012-05-26T07:28:13Z</time>
      </trkpt>
      <trkpt lat="45.50986" lon="6.05548">
        <ele>473.5866699</ele>
        <time>2012-05-26T07:28:18Z</time>
      </trkpt>
      <trkpt lat="45.50987" lon="6.0554">
        <ele>476.9512939</ele>
        <time>2012-05-26T07:28:26Z</time>
      </trkpt>
      <trkpt lat="45.50986" lon="6.05534">
        <ele>478.3931885</ele>
        <time>2012-05-26T07:28:31Z</time>
      </trkpt>
      <trkpt lat="45.50985" lon="6.05531">
        <ele>478.8739014</ele>
        <time>2012-05-26T07:28:33Z</time>
      </trkpt>
      <trkpt lat="45.50988" lon="6.05528">
        <ele>479.835083</ele>
        <time>2012-05-26T07:28:38Z</time>
      </trkpt>
      <trkpt lat="45.50989" lon="6.05528">
        <ele>479.835083</ele>
        <time>2012-05-26T07:28:39Z</time>
      </trkpt>
      <trkpt lat="45.50994" lon="6.05531">
        <ele>480.7966309</ele>
        <time>2012-05-26T07:28:47Z</time>
      </trkpt>
      <trkpt lat="45.50995" lon="6.05528">
        <ele>483.1998291</ele>
        <time>2012-05-26T07:28:52Z</time>
      </trkpt>
      <trkpt lat="45.50994" lon="6.05526">
        <ele>483.6804199</ele>
        <time>2012-05-26T07:28:53Z</time>
      </trkpt>
      <trkpt lat="45.50992" lon="6.05514">
        <ele>487.0450439</ele>
        <time>2012-05-26T07:29:00Z</time>
      </trkpt>
      <trkpt lat="45.50988" lon="6.05505">
        <ele>489.4483643</ele>
        <time>2012-05-26T07:29:06Z</time>
      </trkpt>
      <trkpt lat="45.50983" lon="6.05489">
        <ele>492.3323975</ele>
        <time>2012-05-26T07:29:16Z</time>
      </trkpt>
      <trkpt lat="45.5098" lon="6.05474">
        <ele>494.2550049</ele>
        <time>2012-05-26T07:29:24Z</time>
      </trkpt>
      <trkpt lat="45.50979" lon="6.05464">
        <ele>496.6583252</ele>
        <time>2012-05-26T07:29:29Z</time>
      </trkpt>
      <trkpt lat="45.5098" lon="6.05452">
        <ele>499.0615234</ele>
        <time>2012-05-26T07:29:35Z</time>
      </trkpt>
      <trkpt lat="45.50981" lon="6.05449">
        <ele>499.0615234</ele>
        <time>2012-05-26T07:29:37Z</time>
      </trkpt>
      <trkpt lat="45.50986" lon="6.05443">
        <ele>496.1777344</ele>
        <time>2012-05-26T07:29:44Z</time>
      </trkpt>
      <trkpt lat="45.50986" lon="6.05442">
        <ele>495.6968994</ele>
        <time>2012-05-26T07:29:45Z</time>
      </trkpt>
      <trkpt lat="45.50983" lon="6.05434">
        <ele>496.6583252</ele>
        <time>2012-05-26T07:29:50Z</time>
      </trkpt>
      <trkpt lat="45.50982" lon="6.05432">
        <ele>498.1003418</ele>
        <time>2012-05-26T07:29:51Z</time>
      </trkpt>
      <trkpt lat="45.50975" lon="6.05416">
        <ele>502.4261475</ele>
        <time>2012-05-26T07:29:57Z</time>
      </trkpt>
      <trkpt lat="45.50971" lon="6.05401">
        <ele>504.348877</ele>
        <time>2012-05-26T07:30:03Z</time>
      </trkpt>
      <trkpt lat="45.50969" lon="6.05389">
        <ele>506.2714844</ele>
        <time>2012-05-26T07:30:10Z</time>
      </trkpt>
      <trkpt lat="45.50966" lon="6.05372">
        <ele>508.6746826</ele>
        <time>2012-05-26T07:30:19Z</time>
      </trkpt>
      <trkpt lat="45.50963" lon="6.05357">
        <ele>510.59729</ele>
        <time>2012-05-26T07:30:27Z</time>
      </trkpt>
      <trkpt lat="45.50963" lon="6.05346">
        <ele>511.5587158</ele>
        <time>2012-05-26T07:30:31Z</time>
      </trkpt>
      <trkpt lat="45.50966" lon="6.05339">
        <ele>512.0394287</ele>
        <time>2012-05-26T07:30:36Z</time>
      </trkpt>
      <trkpt lat="45.50961" lon="6.05329">
        <ele>513.4814453</ele>
        <time>2012-05-26T07:30:41Z</time>
      </trkpt>
      <trkpt lat="45.50958" lon="6.05322">
        <ele>513.4814453</ele>
        <time>2012-05-26T07:30:43Z</time>
      </trkpt>
      <trkpt lat="45.50956" lon="6.05302">
        <ele>514.9233398</ele>
        <time>2012-05-26T07:30:50Z</time>
      </trkpt>
      <trkpt lat="45.50952" lon="6.05289">
        <ele>517.3266602</ele>
        <time>2012-05-26T07:30:55Z</time>
      </trkpt>
      <trkpt lat="45.50952" lon="6.05285">
        <ele>517.3266602</ele>
        <time>2012-05-26T07:30:58Z</time>
      </trkpt>
      <trkpt lat="45.50951" lon="6.05271">
        <ele>515.4040527</ele>
        <time>2012-05-26T07:31:06Z</time>
      </trkpt>
      <trkpt lat="45.50952" lon="6.05257">
        <ele>513.9620361</ele>
        <time>2012-05-26T07:31:14Z</time>
      </trkpt>
      <trkpt lat="45.50951" lon="6.05243">
        <ele>514.442627</ele>
        <time>2012-05-26T07:31:21Z</time>
      </trkpt>
      <trkpt lat="45.50951" lon="6.05233">
        <ele>518.2878418</ele>
        <time>2012-05-26T07:31:26Z</time>
      </trkpt>
      <trkpt lat="45.50952" lon="6.05227">
        <ele>519.2492676</ele>
        <time>2012-05-26T07:31:30Z</time>
      </trkpt>
      <trkpt lat="45.50952" lon="6.05212">
        <ele>519.7298584</ele>
        <time>2012-05-26T07:31:39Z</time>
      </trkpt>
      <trkpt lat="45.50951" lon="6.05197">
        <ele>520.6912842</ele>
        <time>2012-05-26T07:31:45Z</time>
      </trkpt>
      <trkpt lat="45.50952" lon="6.0518">
        <ele>522.6138916</ele>
        <time>2012-05-26T07:31:50Z</time>
      </trkpt>
      <trkpt lat="45.50951" lon="6.05166">
        <ele>524.536499</ele>
        <time>2012-05-26T07:31:55Z</time>
      </trkpt>
      <trkpt lat="45.50951" lon="6.05165">
        <ele>525.4978027</ele>
        <time>2012-05-26T07:31:56Z</time>
      </trkpt>
      <trkpt lat="45.50951" lon="6.05155">
        <ele>526.9398193</ele>
        <time>2012-05-26T07:32:02Z</time>
      </trkpt>
      <trkpt lat="45.5095" lon="6.05149">
        <ele>528.3818359</ele>
        <time>2012-05-26T07:32:06Z</time>
      </trkpt>
      <trkpt lat="45.50949" lon="6.05145">
        <ele>528.3818359</ele>
        <time>2012-05-26T07:32:08Z</time>
      </trkpt>
      <trkpt lat="45.50947" lon="6.05131">
        <ele>530.3044434</ele>
        <time>2012-05-26T07:32:15Z</time>
      </trkpt>
      <trkpt lat="45.50949" lon="6.05122">
        <ele>533.6689453</ele>
        <time>2012-05-26T07:32:21Z</time>
      </trkpt>
      <trkpt lat="45.50951" lon="6.05115">
        <ele>534.6303711</ele>
        <time>2012-05-26T07:32:26Z</time>
      </trkpt>
      <trkpt lat="45.50953" lon="6.05108">
        <ele>535.1109619</ele>
        <time>2012-05-26T07:32:30Z</time>
      </trkpt>
      <trkpt lat="45.50952" lon="6.05095">
        <ele>537.9949951</ele>
        <time>2012-05-26T07:32:37Z</time>
      </trkpt>
      <trkpt lat="45.50952" lon="6.05083">
        <ele>540.8789063</ele>
        <time>2012-05-26T07:32:44Z</time>
      </trkpt>
      <trkpt lat="45.50949" lon="6.05073">
        <ele>545.6855469</ele>
        <time>2012-05-26T07:32:49Z</time>
      </trkpt>
      <trkpt lat="45.50944" lon="6.05061">
        <ele>547.6081543</ele>
        <time>2012-05-26T07:32:56Z</time>
      </trkpt>
      <trkpt lat="45.50944" lon="6.05053">
        <ele>549.5307617</ele>
        <time>2012-05-26T07:33:01Z</time>
      </trkpt>
      <trkpt lat="45.50943" lon="6.05042">
        <ele>545.6855469</ele>
        <time>2012-05-26T07:33:08Z</time>
      </trkpt>
      <trkpt lat="45.50944" lon="6.05037">
        <ele>544.2436523</ele>
        <time>2012-05-26T07:33:12Z</time>
      </trkpt>
      <trkpt lat="45.50943" lon="6.05031">
        <ele>547.6081543</ele>
        <time>2012-05-26T07:33:17Z</time>
      </trkpt>
      <trkpt lat="45.50939" lon="6.05024">
        <ele>553.3759766</ele>
        <time>2012-05-26T07:33:21Z</time>
      </trkpt>
      <trkpt lat="45.50931" lon="6.05012">
        <ele>558.1828613</ele>
        <time>2012-05-26T07:33:28Z</time>
      </trkpt>
      <trkpt lat="45.50929" lon="6.05006">
        <ele>560.1052246</ele>
        <time>2012-05-26T07:33:30Z</time>
      </trkpt>
      <trkpt lat="45.5092" lon="6.04994">
        <ele>562.0280762</ele>
        <time>2012-05-26T07:33:35Z</time>
      </trkpt>
      <trkpt lat="45.50922" lon="6.04979">
        <ele>559.6247559</ele>
        <time>2012-05-26T07:33:40Z</time>
      </trkpt>
      <trkpt lat="45.50923" lon="6.04973">
        <ele>558.1828613</ele>
        <time>2012-05-26T07:33:42Z</time>
      </trkpt>
      <trkpt lat="45.50928" lon="6.04956">
        <ele>555.7792969</ele>
        <time>2012-05-26T07:33:48Z</time>
      </trkpt>
      <trkpt lat="45.50934" lon="6.04941">
        <ele>556.2600098</ele>
        <time>2012-05-26T07:33:54Z</time>
      </trkpt>
      <trkpt lat="45.50935" lon="6.04939">
        <ele>556.2600098</ele>
        <time>2012-05-26T07:33:55Z</time>
      </trkpt>
      <trkpt lat="45.50941" lon="6.04928">
        <ele>556.7407227</ele>
        <time>2012-05-26T07:34:02Z</time>
      </trkpt>
      <trkpt lat="45.5095" lon="6.04919">
        <ele>556.2600098</ele>
        <time>2012-05-26T07:34:10Z</time>
      </trkpt>
      <trkpt lat="45.50957" lon="6.04915">
        <ele>557.2214355</ele>
        <time>2012-05-26T07:34:16Z</time>
      </trkpt>
      <trkpt lat="45.50963" lon="6.04911">
        <ele>558.6633301</ele>
        <time>2012-05-26T07:34:22Z</time>
      </trkpt>
      <trkpt lat="45.50964" lon="6.04914">
        <ele>562.0280762</ele>
        <time>2012-05-26T07:34:26Z</time>
      </trkpt>
      <trkpt lat="45.50959" lon="6.04918">
        <ele>567.3151855</ele>
        <time>2012-05-26T07:34:31Z</time>
      </trkpt>
      <trkpt lat="45.50955" lon="6.04921">
        <ele>572.6025391</ele>
        <time>2012-05-26T07:34:35Z</time>
      </trkpt>
      <trkpt lat="45.50953" lon="6.04931">
        <ele>577.8896484</ele>
        <time>2012-05-26T07:34:41Z</time>
      </trkpt>
      <trkpt lat="45.50952" lon="6.04932">
        <ele>579.331543</ele>
        <time>2012-05-26T07:34:42Z</time>
      </trkpt>
      <trkpt lat="45.50951" lon="6.04941">
        <ele>583.6574707</ele>
        <time>2012-05-26T07:34:48Z</time>
      </trkpt>
      <trkpt lat="45.50951" lon="6.04942">
        <ele>584.6188965</ele>
        <time>2012-05-26T07:34:49Z</time>
      </trkpt>
      <trkpt lat="45.50949" lon="6.04957">
        <ele>587.0219727</ele>
        <time>2012-05-26T07:34:57Z</time>
      </trkpt>
      <trkpt lat="45.50952" lon="6.04968">
        <ele>582.6962891</ele>
        <time>2012-05-26T07:35:04Z</time>
      </trkpt>
      <trkpt lat="45.50957" lon="6.04975">
        <ele>582.6962891</ele>
        <time>2012-05-26T07:35:10Z</time>
      </trkpt>
      <trkpt lat="45.50958" lon="6.04976">
        <ele>582.6962891</ele>
        <time>2012-05-26T07:35:11Z</time>
      </trkpt>
      <trkpt lat="45.50959" lon="6.04981">
        <ele>582.2155762</ele>
        <time>2012-05-26T07:35:15Z</time>
      </trkpt>
      <trkpt lat="45.50964" lon="6.04986">
        <ele>582.6962891</ele>
        <time>2012-05-26T07:35:21Z</time>
      </trkpt>
      <trkpt lat="45.50968" lon="6.04995">
        <ele>586.060791</ele>
        <time>2012-05-26T07:35:26Z</time>
      </trkpt>
      <trkpt lat="45.50969" lon="6.05">
        <ele>587.9833984</ele>
        <time>2012-05-26T07:35:29Z</time>
      </trkpt>
      <trkpt lat="45.50973" lon="6.05011">
        <ele>589.90625</ele>
        <time>2012-05-26T07:35:37Z</time>
      </trkpt>
      <trkpt lat="45.50974" lon="6.05014">
        <ele>589.4255371</ele>
        <time>2012-05-26T07:35:39Z</time>
      </trkpt>
      <trkpt lat="45.50977" lon="6.05021">
        <ele>591.8288574</ele>
        <time>2012-05-26T07:35:43Z</time>
      </trkpt>
      <trkpt lat="45.50985" lon="6.05026">
        <ele>591.3481445</ele>
        <time>2012-05-26T07:35:49Z</time>
      </trkpt>
      <trkpt lat="45.50993" lon="6.05033">
        <ele>592.7902832</ele>
        <time>2012-05-26T07:35:57Z</time>
      </trkpt>
      <trkpt lat="45.50996" lon="6.05038">
        <ele>594.7126465</ele>
        <time>2012-05-26T07:36:01Z</time>
      </trkpt>
      <trkpt lat="45.50997" lon="6.05039">
        <ele>594.2321777</ele>
        <time>2012-05-26T07:36:02Z</time>
      </trkpt>
      <trkpt lat="45.51005" lon="6.05048">
        <ele>596.1547852</ele>
        <time>2012-05-26T07:36:10Z</time>
      </trkpt>
      <trkpt lat="45.51009" lon="6.05052">
        <ele>596.635498</ele>
        <time>2012-05-26T07:36:14Z</time>
      </trkpt>
      <trkpt lat="45.51012" lon="6.05058">
        <ele>598.5578613</ele>
        <time>2012-05-26T07:36:17Z</time>
      </trkpt>
      <trkpt lat="45.51016" lon="6.05072">
        <ele>602.8837891</ele>
        <time>2012-05-26T07:36:26Z</time>
      </trkpt>
      <trkpt lat="45.51017" lon="6.05075">
        <ele>602.8837891</ele>
        <time>2012-05-26T07:36:28Z</time>
      </trkpt>
      <trkpt lat="45.51022" lon="6.05082">
        <ele>601.4418945</ele>
        <time>2012-05-26T07:36:34Z</time>
      </trkpt>
      <trkpt lat="45.51024" lon="6.05083">
        <ele>601.9226074</ele>
        <time>2012-05-26T07:36:35Z</time>
      </trkpt>
      <trkpt lat="45.51026" lon="6.05089">
        <ele>604.8066406</ele>
        <time>2012-05-26T07:36:39Z</time>
      </trkpt>
      <trkpt lat="45.51025" lon="6.05096">
        <ele>608.6518555</ele>
        <time>2012-05-26T07:36:44Z</time>
      </trkpt>
      <trkpt lat="45.51024" lon="6.05099">
        <ele>609.6132813</ele>
        <time>2012-05-26T07:36:46Z</time>
      </trkpt>
      <trkpt lat="45.51026" lon="6.05109">
        <ele>611.0551758</ele>
        <time>2012-05-26T07:36:52Z</time>
      </trkpt>
      <trkpt lat="45.51026" lon="6.05113">
        <ele>612.4970703</ele>
        <time>2012-05-26T07:36:54Z</time>
      </trkpt>
      <trkpt lat="45.51025" lon="6.05116">
        <ele>614.9003906</ele>
        <time>2012-05-26T07:36:56Z</time>
      </trkpt>
      <trkpt lat="45.51025" lon="6.05119">
        <ele>618.2648926</ele>
        <time>2012-05-26T07:36:58Z</time>
      </trkpt>
      <trkpt lat="45.51026" lon="6.05131">
        <ele>614.9003906</ele>
        <time>2012-05-26T07:37:05Z</time>
      </trkpt>
      <trkpt lat="45.51026" lon="6.05139">
        <ele>617.3037109</ele>
        <time>2012-05-26T07:37:10Z</time>
      </trkpt>
      <trkpt lat="45.5103" lon="6.0515">
        <ele>613.4584961</ele>
        <time>2012-05-26T07:37:18Z</time>
      </trkpt>
      <trkpt lat="45.51031" lon="6.05152">
        <ele>612.9777832</ele>
        <time>2012-05-26T07:37:19Z</time>
      </trkpt>
      <trkpt lat="45.51037" lon="6.05165">
        <ele>611.5358887</ele>
        <time>2012-05-26T07:37:28Z</time>
      </trkpt>
      <trkpt lat="45.51041" lon="6.05178">
        <ele>615.3811035</ele>
        <time>2012-05-26T07:37:34Z</time>
      </trkpt>
      <trkpt lat="45.51043" lon="6.05182">
        <ele>617.7841797</ele>
        <time>2012-05-26T07:37:36Z</time>
      </trkpt>
      <trkpt lat="45.51046" lon="6.0519">
        <ele>624.032959</ele>
        <time>2012-05-26T07:37:40Z</time>
      </trkpt>
      <trkpt lat="45.51046" lon="6.05194">
        <ele>626.4362793</ele>
        <time>2012-05-26T07:37:42Z</time>
      </trkpt>
      <trkpt lat="45.51049" lon="6.05202">
        <ele>625.9555664</ele>
        <time>2012-05-26T07:37:48Z</time>
      </trkpt>
      <trkpt lat="45.51051" lon="6.05206">
        <ele>627.8781738</ele>
        <time>2012-05-26T07:37:52Z</time>
      </trkpt>
      <trkpt lat="45.51055" lon="6.05216">
        <ele>629.8007813</ele>
        <time>2012-05-26T07:37:59Z</time>
      </trkpt>
      <trkpt lat="45.51058" lon="6.05223">
        <ele>631.2429199</ele>
        <time>2012-05-26T07:38:06Z</time>
      </trkpt>
      <trkpt lat="45.5106" lon="6.05228">
        <ele>633.6459961</ele>
        <time>2012-05-26T07:38:11Z</time>
      </trkpt>
      <trkpt lat="45.51065" lon="6.05231">
        <ele>634.6074219</ele>
        <time>2012-05-26T07:38:17Z</time>
      </trkpt>
      <trkpt lat="45.51066" lon="6.05232">
        <ele>634.6074219</ele>
        <time>2012-05-26T07:38:19Z</time>
      </trkpt>
      <trkpt lat="45.51069" lon="6.05234">
        <ele>635.5686035</ele>
        <time>2012-05-26T07:38:23Z</time>
      </trkpt>
      <trkpt lat="45.51074" lon="6.05234">
        <ele>635.0881348</ele>
        <time>2012-05-26T07:38:28Z</time>
      </trkpt>
      <trkpt lat="45.51077" lon="6.05234">
        <ele>635.5686035</ele>
        <time>2012-05-26T07:38:32Z</time>
      </trkpt>
      <trkpt lat="45.51083" lon="6.05237">
        <ele>636.5302734</ele>
        <time>2012-05-26T07:38:39Z</time>
      </trkpt>
      <trkpt lat="45.51086" lon="6.0524">
        <ele>637.4914551</ele>
        <time>2012-05-26T07:38:43Z</time>
      </trkpt>
      <trkpt lat="45.51088" lon="6.05242">
        <ele>637.972168</ele>
        <time>2012-05-26T07:38:46Z</time>
      </trkpt>
      <trkpt lat="45.51091" lon="6.05248">
        <ele>640.855957</ele>
        <time>2012-05-26T07:38:51Z</time>
      </trkpt>
      <trkpt lat="45.51095" lon="6.05254">
        <ele>642.2980957</ele>
        <time>2012-05-26T07:38:57Z</time>
      </trkpt>
      <trkpt lat="45.511" lon="6.05258">
        <ele>644.7011719</ele>
        <time>2012-05-26T07:39:02Z</time>
      </trkpt>
      <trkpt lat="45.51102" lon="6.05264">
        <ele>646.6240234</ele>
        <time>2012-05-26T07:39:07Z</time>
      </trkpt>
      <trkpt lat="45.51105" lon="6.05268">
        <ele>645.6625977</ele>
        <time>2012-05-26T07:39:10Z</time>
      </trkpt>
      <trkpt lat="45.51108" lon="6.05275">
        <ele>647.5852051</ele>
        <time>2012-05-26T07:39:15Z</time>
      </trkpt>
      <trkpt lat="45.51112" lon="6.05278">
        <ele>644.7011719</ele>
        <time>2012-05-26T07:39:20Z</time>
      </trkpt>
      <trkpt lat="45.51115" lon="6.05281">
        <ele>645.1818848</ele>
        <time>2012-05-26T07:39:23Z</time>
      </trkpt>
      <trkpt lat="45.5112" lon="6.05289">
        <ele>648.065918</ele>
        <time>2012-05-26T07:39:31Z</time>
      </trkpt>
      <trkpt lat="45.51121" lon="6.0529">
        <ele>649.0270996</ele>
        <time>2012-05-26T07:39:33Z</time>
      </trkpt>
      <trkpt lat="45.51125" lon="6.05296">
        <ele>653.3532715</ele>
        <time>2012-05-26T07:39:39Z</time>
      </trkpt>
      <trkpt lat="45.51129" lon="6.05298">
        <ele>656.2370605</ele>
        <time>2012-05-26T07:39:43Z</time>
      </trkpt>
      <trkpt lat="45.51133" lon="6.05303">
        <ele>660.5629883</ele>
        <time>2012-05-26T07:39:49Z</time>
      </trkpt>
      <trkpt lat="45.51135" lon="6.05304">
        <ele>662.4855957</ele>
        <time>2012-05-26T07:39:51Z</time>
      </trkpt>
      <trkpt lat="45.51136" lon="6.05306">
        <ele>663.9274902</ele>
        <time>2012-05-26T07:39:54Z</time>
      </trkpt>
      <trkpt lat="45.51141" lon="6.05309">
        <ele>668.734375</ele>
        <time>2012-05-26T07:40:00Z</time>
      </trkpt>
      <trkpt lat="45.51147" lon="6.05309">
        <ele>672.5795898</ele>
        <time>2012-05-26T07:40:07Z</time>
      </trkpt>
      <trkpt lat="45.51149" lon="6.05309">
        <ele>674.9829102</ele>
        <time>2012-05-26T07:40:10Z</time>
      </trkpt>
      <trkpt lat="45.51151" lon="6.05309">
        <ele>674.0214844</ele>
        <time>2012-05-26T07:40:14Z</time>
      </trkpt>
      <trkpt lat="45.51153" lon="6.05309">
        <ele>671.6181641</ele>
        <time>2012-05-26T07:40:17Z</time>
      </trkpt>
      <trkpt lat="45.51159" lon="6.05308">
        <ele>673.0603027</ele>
        <time>2012-05-26T07:40:21Z</time>
      </trkpt>
      <trkpt lat="45.51162" lon="6.05306">
        <ele>671.1376953</ele>
        <time>2012-05-26T07:40:24Z</time>
      </trkpt>
      <trkpt lat="45.51168" lon="6.05309">
        <ele>673.0603027</ele>
        <time>2012-05-26T07:40:29Z</time>
      </trkpt>
      <trkpt lat="45.5117" lon="6.05314">
        <ele>673.5410156</ele>
        <time>2012-05-26T07:40:34Z</time>
      </trkpt>
      <trkpt lat="45.51175" lon="6.05319">
        <ele>674.5021973</ele>
        <time>2012-05-26T07:40:41Z</time>
      </trkpt>
      <trkpt lat="45.51182" lon="6.05322">
        <ele>675.4633789</ele>
        <time>2012-05-26T07:40:48Z</time>
      </trkpt>
      <trkpt lat="45.51185" lon="6.05328">
        <ele>678.828125</ele>
        <time>2012-05-26T07:40:54Z</time>
      </trkpt>
      <trkpt lat="45.51187" lon="6.05332">
        <ele>678.828125</ele>
        <time>2012-05-26T07:40:58Z</time>
      </trkpt>
      <trkpt lat="45.5119" lon="6.05338">
        <ele>680.2700195</ele>
        <time>2012-05-26T07:41:03Z</time>
      </trkpt>
      <trkpt lat="45.51192" lon="6.0534">
        <ele>680.7507324</ele>
        <time>2012-05-26T07:41:06Z</time>
      </trkpt>
      <trkpt lat="45.51196" lon="6.05343">
        <ele>680.2700195</ele>
        <time>2012-05-26T07:41:11Z</time>
      </trkpt>
      <trkpt lat="45.51198" lon="6.05345">
        <ele>680.2700195</ele>
        <time>2012-05-26T07:41:13Z</time>
      </trkpt>
      <trkpt lat="45.51199" lon="6.05348">
        <ele>682.192627</ele>
        <time>2012-05-26T07:41:16Z</time>
      </trkpt>
      <trkpt lat="45.51201" lon="6.05348">
        <ele>683.1538086</ele>
        <time>2012-05-26T07:41:19Z</time>
      </trkpt>
      <trkpt lat="45.51204" lon="6.0535">
        <ele>683.6345215</ele>
        <time>2012-05-26T07:41:22Z</time>
      </trkpt>
      <trkpt lat="45.51209" lon="6.0535">
        <ele>684.1154785</ele>
        <time>2012-05-26T07:41:26Z</time>
      </trkpt>
      <trkpt lat="45.51214" lon="6.05352">
        <ele>686.5187988</ele>
        <time>2012-05-26T07:41:32Z</time>
      </trkpt>
      <trkpt lat="45.51217" lon="6.05355">
        <ele>689.8833008</ele>
        <time>2012-05-26T07:41:36Z</time>
      </trkpt>
      <trkpt lat="45.51219" lon="6.05356">
        <ele>690.8444824</ele>
        <time>2012-05-26T07:41:38Z</time>
      </trkpt>
      <trkpt lat="45.51223" lon="6.05359">
        <ele>695.1704102</ele>
        <time>2012-05-26T07:41:44Z</time>
      </trkpt>
      <trkpt lat="45.51225" lon="6.05362">
        <ele>697.5737305</ele>
        <time>2012-05-26T07:41:48Z</time>
      </trkpt>
      <trkpt lat="45.5123" lon="6.05366">
        <ele>700.9384766</ele>
        <time>2012-05-26T07:41:55Z</time>
      </trkpt>
      <trkpt lat="45.51232" lon="6.05366">
        <ele>701.8999023</ele>
        <time>2012-05-26T07:41:57Z</time>
      </trkpt>
      <trkpt lat="45.51234" lon="6.05368">
        <ele>699.9770508</ele>
        <time>2012-05-26T07:42:01Z</time>
      </trkpt>
      <trkpt lat="45.51239" lon="6.05368">
        <ele>700.4580078</ele>
        <time>2012-05-26T07:42:05Z</time>
      </trkpt>
      <trkpt lat="45.51247" lon="6.05368">
        <ele>701.8999023</ele>
        <time>2012-05-26T07:42:11Z</time>
      </trkpt>
      <trkpt lat="45.51254" lon="6.05368">
        <ele>707.1870117</ele>
        <time>2012-05-26T07:42:18Z</time>
      </trkpt>
      <trkpt lat="45.5126" lon="6.0537">
        <ele>708.6289063</ele>
        <time>2012-05-26T07:42:25Z</time>
      </trkpt>
      <trkpt lat="45.51264" lon="6.05366">
        <ele>709.1096191</ele>
        <time>2012-05-26T07:42:31Z</time>
      </trkpt>
      <trkpt lat="45.51269" lon="6.05368">
        <ele>712.954834</ele>
        <time>2012-05-26T07:42:36Z</time>
      </trkpt>
      <trkpt lat="45.51271" lon="6.05375">
        <ele>716.800293</ele>
        <time>2012-05-26T07:42:39Z</time>
      </trkpt>
      <trkpt lat="45.51276" lon="6.05377">
        <ele>717.2810059</ele>
        <time>2012-05-26T07:42:42Z</time>
      </trkpt>
      <trkpt lat="45.51282" lon="6.05378">
        <ele>717.2810059</ele>
        <time>2012-05-26T07:42:48Z</time>
      </trkpt>
      <trkpt lat="45.51286" lon="6.05381">
        <ele>718.2421875</ele>
        <time>2012-05-26T07:42:53Z</time>
      </trkpt>
      <trkpt lat="45.5129" lon="6.05382">
        <ele>716.3195801</ele>
        <time>2012-05-26T07:42:59Z</time>
      </trkpt>
      <trkpt lat="45.51292" lon="6.05384">
        <ele>718.2421875</ele>
        <time>2012-05-26T07:43:02Z</time>
      </trkpt>
      <trkpt lat="45.51296" lon="6.05387">
        <ele>719.2036133</ele>
        <time>2012-05-26T07:43:08Z</time>
      </trkpt>
      <trkpt lat="45.51298" lon="6.05387">
        <ele>719.6843262</ele>
        <time>2012-05-26T07:43:10Z</time>
      </trkpt>
      <trkpt lat="45.513" lon="6.05387">
        <ele>720.6455078</ele>
        <time>2012-05-26T07:43:13Z</time>
      </trkpt>
      <trkpt lat="45.51307" lon="6.05388">
        <ele>724.4907227</ele>
        <time>2012-05-26T07:43:19Z</time>
      </trkpt>
      <trkpt lat="45.51308" lon="6.0539">
        <ele>724.9714355</ele>
        <time>2012-05-26T07:43:20Z</time>
      </trkpt>
      <trkpt lat="45.51313" lon="6.05388">
        <ele>725.9326172</ele>
        <time>2012-05-26T07:43:24Z</time>
      </trkpt>
      <trkpt lat="45.51318" lon="6.05384">
        <ele>724.9714355</ele>
        <time>2012-05-26T07:43:30Z</time>
      </trkpt>
      <trkpt lat="45.51313" lon="6.05383">
        <ele>721.6066895</ele>
        <time>2012-05-26T07:43:34Z</time>
      </trkpt>
      <trkpt lat="45.51312" lon="6.05381">
        <ele>720.6455078</ele>
        <time>2012-05-26T07:43:36Z</time>
      </trkpt>
      <trkpt lat="45.51307" lon="6.05373">
        <ele>719.2036133</ele>
        <time>2012-05-26T07:43:41Z</time>
      </trkpt>
      <trkpt lat="45.51302" lon="6.05364">
        <ele>722.0874023</ele>
        <time>2012-05-26T07:43:46Z</time>
      </trkpt>
      <trkpt lat="45.51297" lon="6.05355">
        <ele>722.0874023</ele>
        <time>2012-05-26T07:43:51Z</time>
      </trkpt>
      <trkpt lat="45.51292" lon="6.05348">
        <ele>724.9714355</ele>
        <time>2012-05-26T07:43:56Z</time>
      </trkpt>
      <trkpt lat="45.51289" lon="6.05341">
        <ele>725.9326172</ele>
        <time>2012-05-26T07:44:01Z</time>
      </trkpt>
      <trkpt lat="45.51285" lon="6.05334">
        <ele>728.3359375</ele>
        <time>2012-05-26T07:44:06Z</time>
      </trkpt>
      <trkpt lat="45.51282" lon="6.05326">
        <ele>731.2199707</ele>
        <time>2012-05-26T07:44:11Z</time>
      </trkpt>
      <trkpt lat="45.51279" lon="6.05319">
        <ele>738.4299316</ele>
        <time>2012-05-26T07:44:19Z</time>
      </trkpt>
      <trkpt lat="45.51274" lon="6.05316">
        <ele>737.9492188</ele>
        <time>2012-05-26T07:44:22Z</time>
      </trkpt>
      <trkpt lat="45.51269" lon="6.05309">
        <ele>736.0266113</ele>
        <time>2012-05-26T07:44:28Z</time>
      </trkpt>
      <trkpt lat="45.51268" lon="6.05305">
        <ele>735.5458984</ele>
        <time>2012-05-26T07:44:30Z</time>
      </trkpt>
      <trkpt lat="45.51264" lon="6.05299">
        <ele>737.4685059</ele>
        <time>2012-05-26T07:44:36Z</time>
      </trkpt>
      <trkpt lat="45.51259" lon="6.05294">
        <ele>738.4299316</ele>
        <time>2012-05-26T07:44:41Z</time>
      </trkpt>
      <trkpt lat="45.51256" lon="6.05286">
        <ele>739.3911133</ele>
        <time>2012-05-26T07:44:46Z</time>
      </trkpt>
      <trkpt lat="45.51257" lon="6.05273">
        <ele>739.3911133</ele>
        <time>2012-05-26T07:44:52Z</time>
      </trkpt>
      <trkpt lat="45.51256" lon="6.05268">
        <ele>737.4685059</ele>
        <time>2012-05-26T07:44:55Z</time>
      </trkpt>
      <trkpt lat="45.51254" lon="6.0526">
        <ele>738.9106445</ele>
        <time>2012-05-26T07:45:01Z</time>
      </trkpt>
      <trkpt lat="45.51253" lon="6.05252">
        <ele>739.3911133</ele>
        <time>2012-05-26T07:45:07Z</time>
      </trkpt>
      <trkpt lat="45.51255" lon="6.05242">
        <ele>744.1977539</ele>
        <time>2012-05-26T07:45:13Z</time>
      </trkpt>
      <trkpt lat="45.51255" lon="6.05236">
        <ele>750.927002</ele>
        <time>2012-05-26T07:45:19Z</time>
      </trkpt>
      <trkpt lat="45.51247" lon="6.05231">
        <ele>749.4851074</ele>
        <time>2012-05-26T07:45:27Z</time>
      </trkpt>
      <trkpt lat="45.51243" lon="6.05223">
        <ele>752.3688965</ele>
        <time>2012-05-26T07:45:34Z</time>
      </trkpt>
      <trkpt lat="45.51242" lon="6.05218">
        <ele>753.8110352</ele>
        <time>2012-05-26T07:45:38Z</time>
      </trkpt>
      <trkpt lat="45.51241" lon="6.05215">
        <ele>756.6948242</ele>
        <time>2012-05-26T07:45:40Z</time>
      </trkpt>
      <trkpt lat="45.51237" lon="6.05206">
        <ele>762.9433594</ele>
        <time>2012-05-26T07:45:46Z</time>
      </trkpt>
      <trkpt lat="45.51235" lon="6.05202">
        <ele>765.3469238</ele>
        <time>2012-05-26T07:45:50Z</time>
      </trkpt>
      <trkpt lat="45.51231" lon="6.05192">
        <ele>765.8276367</ele>
        <time>2012-05-26T07:45:55Z</time>
      </trkpt>
      <trkpt lat="45.51225" lon="6.05185">
        <ele>763.4240723</ele>
        <time>2012-05-26T07:46:00Z</time>
      </trkpt>
      <trkpt lat="45.51225" lon="6.05183">
        <ele>762.9433594</ele>
        <time>2012-05-26T07:46:01Z</time>
      </trkpt>
      <trkpt lat="45.51221" lon="6.05173">
        <ele>765.3469238</ele>
        <time>2012-05-26T07:46:08Z</time>
      </trkpt>
      <trkpt lat="45.51221" lon="6.05171">
        <ele>765.3469238</ele>
        <time>2012-05-26T07:46:09Z</time>
      </trkpt>
      <trkpt lat="45.51224" lon="6.0516">
        <ele>763.4240723</ele>
        <time>2012-05-26T07:46:13Z</time>
      </trkpt>
      <trkpt lat="45.51223" lon="6.05158">
        <ele>764.385498</ele>
        <time>2012-05-26T07:46:15Z</time>
      </trkpt>
      <trkpt lat="45.51216" lon="6.05156">
        <ele>764.8662109</ele>
        <time>2012-05-26T07:46:21Z</time>
      </trkpt>
      <trkpt lat="45.51211" lon="6.05155">
        <ele>764.8662109</ele>
        <time>2012-05-26T07:46:23Z</time>
      </trkpt>
      <trkpt lat="45.51206" lon="6.05148">
        <ele>765.3469238</ele>
        <time>2012-05-26T07:46:28Z</time>
      </trkpt>
      <trkpt lat="45.51206" lon="6.05146">
        <ele>765.3469238</ele>
        <time>2012-05-26T07:46:29Z</time>
      </trkpt>
      <trkpt lat="45.51203" lon="6.05144">
        <ele>764.385498</ele>
        <time>2012-05-26T07:46:33Z</time>
      </trkpt>
      <trkpt lat="45.51203" lon="6.05143">
        <ele>766.3081055</ele>
        <time>2012-05-26T07:46:35Z</time>
      </trkpt>
      <trkpt lat="45.51207" lon="6.05145">
        <ele>768.2307129</ele>
        <time>2012-05-26T07:46:41Z</time>
      </trkpt>
      <trkpt lat="45.51215" lon="6.05143">
        <ele>770.6340332</ele>
        <time>2012-05-26T07:46:48Z</time>
      </trkpt>
      <trkpt lat="45.51217" lon="6.05143">
        <ele>772.5566406</ele>
        <time>2012-05-26T07:46:53Z</time>
      </trkpt>
      <trkpt lat="45.51223" lon="6.05143">
        <ele>780.7280273</ele>
        <time>2012-05-26T07:47:00Z</time>
      </trkpt>
      <trkpt lat="45.5123" lon="6.05146">
        <ele>785.0539551</ele>
        <time>2012-05-26T07:47:06Z</time>
      </trkpt>
      <trkpt lat="45.51235" lon="6.05152">
        <ele>789.3796387</ele>
        <time>2012-05-26T07:47:12Z</time>
      </trkpt>
      <trkpt lat="45.51238" lon="6.0516">
        <ele>789.8603516</ele>
        <time>2012-05-26T07:47:18Z</time>
      </trkpt>
      <trkpt lat="45.51246" lon="6.05163">
        <ele>785.5344238</ele>
        <time>2012-05-26T07:47:24Z</time>
      </trkpt>
      <trkpt lat="45.51252" lon="6.05172">
        <ele>791.782959</ele>
        <time>2012-05-26T07:47:32Z</time>
      </trkpt>
      <trkpt lat="45.51252" lon="6.05175">
        <ele>793.7055664</ele>
        <time>2012-05-26T07:47:36Z</time>
      </trkpt>
      <trkpt lat="45.51253" lon="6.05175">
        <ele>795.1474609</ele>
        <time>2012-05-26T07:47:38Z</time>
      </trkpt>
      <trkpt lat="45.51258" lon="6.05177">
        <ele>798.9929199</ele>
        <time>2012-05-26T07:47:42Z</time>
      </trkpt>
      <trkpt lat="45.51261" lon="6.0518">
        <ele>798.0317383</ele>
        <time>2012-05-26T07:47:46Z</time>
      </trkpt>
      <trkpt lat="45.51262" lon="6.05182">
        <ele>797.0703125</ele>
        <time>2012-05-26T07:47:49Z</time>
      </trkpt>
      <trkpt lat="45.51268" lon="6.05179">
        <ele>796.5898438</ele>
        <time>2012-05-26T07:47:54Z</time>
      </trkpt>
      <trkpt lat="45.51278" lon="6.05184">
        <ele>798.512207</ele>
        <time>2012-05-26T07:48:02Z</time>
      </trkpt>
      <trkpt lat="45.51276" lon="6.05179">
        <ele>795.6281738</ele>
        <time>2012-05-26T07:48:07Z</time>
      </trkpt>
      <trkpt lat="45.51275" lon="6.05174">
        <ele>795.1474609</ele>
        <time>2012-05-26T07:48:09Z</time>
      </trkpt>
      <trkpt lat="45.51266" lon="6.05162">
        <ele>794.666748</ele>
        <time>2012-05-26T07:48:15Z</time>
      </trkpt>
      <trkpt lat="45.51262" lon="6.05154">
        <ele>796.1091309</ele>
        <time>2012-05-26T07:48:19Z</time>
      </trkpt>
      <trkpt lat="45.51256" lon="6.05147">
        <ele>795.1474609</ele>
        <time>2012-05-26T07:48:26Z</time>
      </trkpt>
      <trkpt lat="45.51255" lon="6.05146">
        <ele>796.5898438</ele>
        <time>2012-05-26T07:48:27Z</time>
      </trkpt>
      <trkpt lat="45.51251" lon="6.05132">
        <ele>799.9543457</ele>
        <time>2012-05-26T07:48:36Z</time>
      </trkpt>
      <trkpt lat="45.51251" lon="6.05121">
        <ele>798.9929199</ele>
        <time>2012-05-26T07:48:42Z</time>
      </trkpt>
      <trkpt lat="45.51251" lon="6.05117">
        <ele>796.1091309</ele>
        <time>2012-05-26T07:48:48Z</time>
      </trkpt>
      <trkpt lat="45.51251" lon="6.05104">
        <ele>798.0317383</ele>
        <time>2012-05-26T07:48:55Z</time>
      </trkpt>
      <trkpt lat="45.51248" lon="6.051">
        <ele>803.7995605</ele>
        <time>2012-05-26T07:49:00Z</time>
      </trkpt>
      <trkpt lat="45.51247" lon="6.05098">
        <ele>806.6833496</ele>
        <time>2012-05-26T07:49:02Z</time>
      </trkpt>
      <trkpt lat="45.51238" lon="6.05097">
        <ele>810.5285645</ele>
        <time>2012-05-26T07:49:11Z</time>
      </trkpt>
      <trkpt lat="45.51236" lon="6.05097">
        <ele>811.4899902</ele>
        <time>2012-05-26T07:49:13Z</time>
      </trkpt>
      <trkpt lat="45.51233" lon="6.0509">
        <ele>808.1254883</ele>
        <time>2012-05-26T07:49:20Z</time>
      </trkpt>
      <trkpt lat="45.51236" lon="6.05084">
        <ele>805.722168</ele>
        <time>2012-05-26T07:49:24Z</time>
      </trkpt>
      <trkpt lat="45.51238" lon="6.05086">
        <ele>810.5285645</ele>
        <time>2012-05-26T07:49:28Z</time>
      </trkpt>
      <trkpt lat="45.51242" lon="6.05086">
        <ele>815.8161621</ele>
        <time>2012-05-26T07:49:35Z</time>
      </trkpt>
      <trkpt lat="45.51249" lon="6.05084">
        <ele>820.1418457</ele>
        <time>2012-05-26T07:49:40Z</time>
      </trkpt>
      <trkpt lat="45.51256" lon="6.05082">
        <ele>823.0258789</ele>
        <time>2012-05-26T07:49:46Z</time>
      </trkpt>
      <trkpt lat="45.51256" lon="6.05085">
        <ele>825.4289551</ele>
        <time>2012-05-26T07:49:52Z</time>
      </trkpt>
      <trkpt lat="45.51254" lon="6.05083">
        <ele>826.8710938</ele>
        <time>2012-05-26T07:49:55Z</time>
      </trkpt>
      <trkpt lat="45.51252" lon="6.05072">
        <ele>824.4677734</ele>
        <time>2012-05-26T07:50:02Z</time>
      </trkpt>
      <trkpt lat="45.51254" lon="6.05067">
        <ele>821.1032715</ele>
        <time>2012-05-26T07:50:07Z</time>
      </trkpt>
      <trkpt lat="45.51259" lon="6.05064">
        <ele>821.1032715</ele>
        <time>2012-05-26T07:50:11Z</time>
      </trkpt>
      <trkpt lat="45.51263" lon="6.05069">
        <ele>823.5065918</ele>
        <time>2012-05-26T07:50:17Z</time>
      </trkpt>
      <trkpt lat="45.51264" lon="6.05071">
        <ele>824.4677734</ele>
        <time>2012-05-26T07:50:19Z</time>
      </trkpt>
      <trkpt lat="45.51266" lon="6.05073">
        <ele>826.3903809</ele>
        <time>2012-05-26T07:50:22Z</time>
      </trkpt>
      <trkpt lat="45.51268" lon="6.05085">
        <ele>829.755127</ele>
        <time>2012-05-26T07:50:27Z</time>
      </trkpt>
      <trkpt lat="45.5127" lon="6.05088">
        <ele>830.7165527</ele>
        <time>2012-05-26T07:50:29Z</time>
      </trkpt>
      <trkpt lat="45.51271" lon="6.05092">
        <ele>831.1972656</ele>
        <time>2012-05-26T07:50:31Z</time>
      </trkpt>
      <trkpt lat="45.51274" lon="6.05095">
        <ele>832.1584473</ele>
        <time>2012-05-26T07:50:33Z</time>
      </trkpt>
      <trkpt lat="45.51275" lon="6.051">
        <ele>833.6003418</ele>
        <time>2012-05-26T07:50:37Z</time>
      </trkpt>
      <trkpt lat="45.51277" lon="6.05107">
        <ele>834.5617676</ele>
        <time>2012-05-26T07:50:43Z</time>
      </trkpt>
      <trkpt lat="45.51277" lon="6.05108">
        <ele>836.0036621</ele>
        <time>2012-05-26T07:50:44Z</time>
      </trkpt>
      <trkpt lat="45.51281" lon="6.0511">
        <ele>836.484375</ele>
        <time>2012-05-26T07:50:50Z</time>
      </trkpt>
      <trkpt lat="45.51282" lon="6.05115">
        <ele>840.3295898</ele>
        <time>2012-05-26T07:50:54Z</time>
      </trkpt>
      <trkpt lat="45.51286" lon="6.0512">
        <ele>843.6940918</ele>
        <time>2012-05-26T07:50:59Z</time>
      </trkpt>
      <trkpt lat="45.51292" lon="6.05122">
        <ele>846.0976563</ele>
        <time>2012-05-26T07:51:06Z</time>
      </trkpt>
      <trkpt lat="45.51299" lon="6.05125">
        <ele>850.9040527</ele>
        <time>2012-05-26T07:51:12Z</time>
      </trkpt>
      <trkpt lat="45.51301" lon="6.05128">
        <ele>852.8266602</ele>
        <time>2012-05-26T07:51:15Z</time>
      </trkpt>
      <trkpt lat="45.51303" lon="6.05132">
        <ele>856.1911621</ele>
        <time>2012-05-26T07:51:20Z</time>
      </trkpt>
      <trkpt lat="45.5131" lon="6.05131">
        <ele>855.7106934</ele>
        <time>2012-05-26T07:51:26Z</time>
      </trkpt>
      <trkpt lat="45.51313" lon="6.05134">
        <ele>856.1911621</ele>
        <time>2012-05-26T07:51:30Z</time>
      </trkpt>
      <trkpt lat="45.51319" lon="6.05135">
        <ele>857.6333008</ele>
        <time>2012-05-26T07:51:35Z</time>
      </trkpt>
      <trkpt lat="45.51321" lon="6.05136">
        <ele>859.0751953</ele>
        <time>2012-05-26T07:51:38Z</time>
      </trkpt>
      <trkpt lat="45.51323" lon="6.05141">
        <ele>860.0366211</ele>
        <time>2012-05-26T07:51:42Z</time>
      </trkpt>
      <trkpt lat="45.51326" lon="6.05142">
        <ele>859.5559082</ele>
        <time>2012-05-26T07:51:46Z</time>
      </trkpt>
      <trkpt lat="45.51332" lon="6.05142">
        <ele>857.6333008</ele>
        <time>2012-05-26T07:51:51Z</time>
      </trkpt>
      <trkpt lat="45.51342" lon="6.05147">
        <ele>857.1525879</ele>
        <time>2012-05-26T07:51:58Z</time>
      </trkpt>
      <trkpt lat="45.51344" lon="6.05152">
        <ele>860.0366211</ele>
        <time>2012-05-26T07:52:02Z</time>
      </trkpt>
      <trkpt lat="45.51345" lon="6.05152">
        <ele>860.0366211</ele>
        <time>2012-05-26T07:52:03Z</time>
      </trkpt>
      <trkpt lat="45.5135" lon="6.05153">
        <ele>860.517334</ele>
        <time>2012-05-26T07:52:07Z</time>
      </trkpt>
      <trkpt lat="45.51357" lon="6.05155">
        <ele>865.8046875</ele>
        <time>2012-05-26T07:52:14Z</time>
      </trkpt>
      <trkpt lat="45.51364" lon="6.05158">
        <ele>868.2077637</ele>
        <time>2012-05-26T07:52:19Z</time>
      </trkpt>
      <trkpt lat="45.51374" lon="6.05162">
        <ele>865.3239746</ele>
        <time>2012-05-26T07:52:24Z</time>
      </trkpt>
      <trkpt lat="45.51376" lon="6.05165">
        <ele>866.2851563</ele>
        <time>2012-05-26T07:52:26Z</time>
      </trkpt>
      <trkpt lat="45.51383" lon="6.05164">
        <ele>868.2077637</ele>
        <time>2012-05-26T07:52:32Z</time>
      </trkpt>
      <trkpt lat="45.51388" lon="6.05163">
        <ele>869.6499023</ele>
        <time>2012-05-26T07:52:37Z</time>
      </trkpt>
      <trkpt lat="45.51396" lon="6.05162">
        <ele>868.6884766</ele>
        <time>2012-05-26T07:52:43Z</time>
      </trkpt>
      <trkpt lat="45.514" lon="6.0516">
        <ele>867.246582</ele>
        <time>2012-05-26T07:52:47Z</time>
      </trkpt>
      <trkpt lat="45.51403" lon="6.05162">
        <ele>870.611084</ele>
        <time>2012-05-26T07:52:53Z</time>
      </trkpt>
      <trkpt lat="45.51408" lon="6.05167">
        <ele>870.611084</ele>
        <time>2012-05-26T07:53:00Z</time>
      </trkpt>
      <trkpt lat="45.51411" lon="6.05173">
        <ele>875.4174805</ele>
        <time>2012-05-26T07:53:06Z</time>
      </trkpt>
      <trkpt lat="45.51413" lon="6.05177">
        <ele>877.8210449</ele>
        <time>2012-05-26T07:53:11Z</time>
      </trkpt>
      <trkpt lat="45.5142" lon="6.05176">
        <ele>876.8598633</ele>
        <time>2012-05-26T07:53:18Z</time>
      </trkpt>
      <trkpt lat="45.51423" lon="6.05176">
        <ele>877.3405762</ele>
        <time>2012-05-26T07:53:21Z</time>
      </trkpt>
      <trkpt lat="45.51424" lon="6.05176">
        <ele>877.8210449</ele>
        <time>2012-05-26T07:53:22Z</time>
      </trkpt>
      <trkpt lat="45.51423" lon="6.05172">
        <ele>878.7824707</ele>
        <time>2012-05-26T07:53:25Z</time>
      </trkpt>
      <trkpt lat="45.51419" lon="6.05167">
        <ele>879.7436523</ele>
        <time>2012-05-26T07:53:32Z</time>
      </trkpt>
      <trkpt lat="45.51418" lon="6.05166">
        <ele>879.7436523</ele>
        <time>2012-05-26T07:53:34Z</time>
      </trkpt>
      <trkpt lat="45.51414" lon="6.05161">
        <ele>884.0695801</ele>
        <time>2012-05-26T07:53:41Z</time>
      </trkpt>
      <trkpt lat="45.51412" lon="6.05156">
        <ele>887.9147949</ele>
        <time>2012-05-26T07:53:46Z</time>
      </trkpt>
      <trkpt lat="45.5141" lon="6.0515">
        <ele>891.2792969</ele>
        <time>2012-05-26T07:53:51Z</time>
      </trkpt>
      <trkpt lat="45.51408" lon="6.05147">
        <ele>896.0861816</ele>
        <time>2012-05-26T07:53:55Z</time>
      </trkpt>
      <trkpt lat="45.51408" lon="6.05144">
        <ele>895.1247559</ele>
        <time>2012-05-26T07:53:57Z</time>
      </trkpt>
      <trkpt lat="45.51406" lon="6.05135">
        <ele>893.2021484</ele>
        <time>2012-05-26T07:54:06Z</time>
      </trkpt>
      <trkpt lat="45.51405" lon="6.05125">
        <ele>889.3566895</ele>
        <time>2012-05-26T07:54:12Z</time>
      </trkpt>
      <trkpt lat="45.51405" lon="6.05123">
        <ele>889.8374023</ele>
        <time>2012-05-26T07:54:14Z</time>
      </trkpt>
      <trkpt lat="45.51401" lon="6.05117">
        <ele>891.2792969</ele>
        <time>2012-05-26T07:54:19Z</time>
      </trkpt>
      <trkpt lat="45.514" lon="6.05108">
        <ele>889.8374023</ele>
        <time>2012-05-26T07:54:24Z</time>
      </trkpt>
      <trkpt lat="45.514" lon="6.05102">
        <ele>888.3955078</ele>
        <time>2012-05-26T07:54:27Z</time>
      </trkpt>
      <trkpt lat="45.51395" lon="6.05094">
        <ele>892.7216797</ele>
        <time>2012-05-26T07:54:34Z</time>
      </trkpt>
      <trkpt lat="45.5139" lon="6.05088">
        <ele>896.5668945</ele>
        <time>2012-05-26T07:54:40Z</time>
      </trkpt>
      <trkpt lat="45.51385" lon="6.05086">
        <ele>898.9699707</ele>
        <time>2012-05-26T07:54:46Z</time>
      </trkpt>
      <trkpt lat="45.51387" lon="6.05081">
        <ele>897.5280762</ele>
        <time>2012-05-26T07:54:47Z</time>
      </trkpt>
      <trkpt lat="45.51388" lon="6.05073">
        <ele>899.9313965</ele>
        <time>2012-05-26T07:54:52Z</time>
      </trkpt>
      <trkpt lat="45.51387" lon="6.05073">
        <ele>900.4121094</ele>
        <time>2012-05-26T07:54:53Z</time>
      </trkpt>
      <trkpt lat="45.51386" lon="6.05061">
        <ele>902.8151855</ele>
        <time>2012-05-26T07:55:01Z</time>
      </trkpt>
      <trkpt lat="45.51383" lon="6.05054">
        <ele>901.8540039</ele>
        <time>2012-05-26T07:55:06Z</time>
      </trkpt>
      <trkpt lat="45.51381" lon="6.05046">
        <ele>901.8540039</ele>
        <time>2012-05-26T07:55:12Z</time>
      </trkpt>
      <trkpt lat="45.51382" lon="6.05045">
        <ele>903.2958984</ele>
        <time>2012-05-26T07:55:16Z</time>
      </trkpt>
      <trkpt lat="45.51384" lon="6.05046">
        <ele>905.2185059</ele>
        <time>2012-05-26T07:55:18Z</time>
      </trkpt>
      <trkpt lat="45.5139" lon="6.0505">
        <ele>911.947998</ele>
        <time>2012-05-26T07:55:24Z</time>
      </trkpt>
      <trkpt lat="45.51391" lon="6.05052">
        <ele>911.947998</ele>
        <time>2012-05-26T07:55:26Z</time>
      </trkpt>
      <trkpt lat="45.51393" lon="6.05056">
        <ele>912.9091797</ele>
        <time>2012-05-26T07:55:31Z</time>
      </trkpt>
      <trkpt lat="45.51399" lon="6.05052">
        <ele>915.7932129</ele>
        <time>2012-05-26T07:55:37Z</time>
      </trkpt>
      <trkpt lat="45.51402" lon="6.05052">
        <ele>919.6384277</ele>
        <time>2012-05-26T07:55:42Z</time>
      </trkpt>
      <trkpt lat="45.51408" lon="6.05052">
        <ele>918.1962891</ele>
        <time>2012-05-26T07:55:48Z</time>
      </trkpt>
      <trkpt lat="45.51411" lon="6.05055">
        <ele>911.947998</ele>
        <time>2012-05-26T07:55:52Z</time>
      </trkpt>
      <trkpt lat="45.51416" lon="6.05056">
        <ele>913.3898926</ele>
        <time>2012-05-26T07:55:57Z</time>
      </trkpt>
      <trkpt lat="45.51421" lon="6.05054">
        <ele>911.947998</ele>
        <time>2012-05-26T07:56:02Z</time>
      </trkpt>
      <trkpt lat="45.51427" lon="6.05047">
        <ele>911.4672852</ele>
        <time>2012-05-26T07:56:06Z</time>
      </trkpt>
      <trkpt lat="45.51435" lon="6.05039">
        <ele>916.7543945</ele>
        <time>2012-05-26T07:56:11Z</time>
      </trkpt>
      <trkpt lat="45.51436" lon="6.05037">
        <ele>915.3125</ele>
        <time>2012-05-26T07:56:13Z</time>
      </trkpt>
      <trkpt lat="45.51441" lon="6.05031">
        <ele>917.7155762</ele>
        <time>2012-05-26T07:56:19Z</time>
      </trkpt>
      <trkpt lat="45.51451" lon="6.05022">
        <ele>922.5222168</ele>
        <time>2012-05-26T07:56:32Z</time>
      </trkpt>
      <trkpt lat="45.51453" lon="6.0502">
        <ele>920.5996094</ele>
        <time>2012-05-26T07:56:35Z</time>
      </trkpt>
      <trkpt lat="45.51454" lon="6.05021">
        <ele>918.677002</ele>
        <time>2012-05-26T07:56:38Z</time>
      </trkpt>
      <trkpt lat="45.51459" lon="6.05028">
        <ele>927.3291016</ele>
        <time>2012-05-26T07:56:44Z</time>
      </trkpt>
      <trkpt lat="45.51463" lon="6.05035">
        <ele>927.8095703</ele>
        <time>2012-05-26T07:56:49Z</time>
      </trkpt>
      <trkpt lat="45.51469" lon="6.05034">
        <ele>930.2128906</ele>
        <time>2012-05-26T07:56:53Z</time>
      </trkpt>
      <trkpt lat="45.51472" lon="6.0504">
        <ele>932.6162109</ele>
        <time>2012-05-26T07:56:57Z</time>
      </trkpt>
      <trkpt lat="45.51473" lon="6.05042">
        <ele>930.6936035</ele>
        <time>2012-05-26T07:56:59Z</time>
      </trkpt>
      <trkpt lat="45.51477" lon="6.05055">
        <ele>931.1743164</ele>
        <time>2012-05-26T07:57:06Z</time>
      </trkpt>
      <trkpt lat="45.51492" lon="6.05072">
        <ele>936.9418945</ele>
        <time>2012-05-26T07:57:13Z</time>
      </trkpt>
      <trkpt lat="45.51495" lon="6.05073">
        <ele>936.9418945</ele>
        <time>2012-05-26T07:57:14Z</time>
      </trkpt>
      <trkpt lat="45.51504" lon="6.05089">
        <ele>944.1520996</ele>
        <time>2012-05-26T07:57:20Z</time>
      </trkpt>
      <trkpt lat="45.51511" lon="6.05099">
        <ele>947.9973145</ele>
        <time>2012-05-26T07:57:25Z</time>
      </trkpt>
      <trkpt lat="45.51519" lon="6.05103">
        <ele>949.9199219</ele>
        <time>2012-05-26T07:57:30Z</time>
      </trkpt>
      <trkpt lat="45.51527" lon="6.05109">
        <ele>949.9199219</ele>
        <time>2012-05-26T07:57:35Z</time>
      </trkpt>
      <trkpt lat="45.51531" lon="6.05112">
        <ele>948.9584961</ele>
        <time>2012-05-26T07:57:38Z</time>
      </trkpt>
      <trkpt lat="45.51543" lon="6.05124">
        <ele>947.5166016</ele>
        <time>2012-05-26T07:57:45Z</time>
      </trkpt>
      <trkpt lat="45.51551" lon="6.05132">
        <ele>946.5554199</ele>
        <time>2012-05-26T07:57:50Z</time>
      </trkpt>
      <trkpt lat="45.51556" lon="6.05141">
        <ele>947.9973145</ele>
        <time>2012-05-26T07:57:55Z</time>
      </trkpt>
      <trkpt lat="45.51557" lon="6.05143">
        <ele>948.9584961</ele>
        <time>2012-05-26T07:57:56Z</time>
      </trkpt>
      <trkpt lat="45.51561" lon="6.05148">
        <ele>951.3618164</ele>
        <time>2012-05-26T07:58:03Z</time>
      </trkpt>
      <trkpt lat="45.51557" lon="6.05147">
        <ele>954.7263184</ele>
        <time>2012-05-26T07:58:09Z</time>
      </trkpt>
      <trkpt lat="45.51553" lon="6.05146">
        <ele>954.7263184</ele>
        <time>2012-05-26T07:58:12Z</time>
      </trkpt>
      <trkpt lat="45.51552" lon="6.05144">
        <ele>956.168457</ele>
        <time>2012-05-26T07:58:14Z</time>
      </trkpt>
      <trkpt lat="45.51551" lon="6.05143">
        <ele>956.6491699</ele>
        <time>2012-05-26T07:58:16Z</time>
      </trkpt>
      <trkpt lat="45.51549" lon="6.05131">
        <ele>954.2458496</ele>
        <time>2012-05-26T07:58:22Z</time>
      </trkpt>
      <trkpt lat="45.51547" lon="6.05124">
        <ele>951.8425293</ele>
        <time>2012-05-26T07:58:28Z</time>
      </trkpt>
      <trkpt lat="45.51544" lon="6.05121">
        <ele>951.8425293</ele>
        <time>2012-05-26T07:58:32Z</time>
      </trkpt>
      <trkpt lat="45.51541" lon="6.05114">
        <ele>952.322998</ele>
        <time>2012-05-26T07:58:37Z</time>
      </trkpt>
      <trkpt lat="45.51538" lon="6.05111">
        <ele>954.2458496</ele>
        <time>2012-05-26T07:58:41Z</time>
      </trkpt>
      <trkpt lat="45.51535" lon="6.05109">
        <ele>957.6105957</ele>
        <time>2012-05-26T07:58:44Z</time>
      </trkpt>
      <trkpt lat="45.51537" lon="6.05106">
        <ele>959.5332031</ele>
        <time>2012-05-26T07:58:48Z</time>
      </trkpt>
      <trkpt lat="45.51543" lon="6.05106">
        <ele>961.4558105</ele>
        <time>2012-05-26T07:58:52Z</time>
      </trkpt>
      <trkpt lat="45.51546" lon="6.05106">
        <ele>964.3395996</ele>
        <time>2012-05-26T07:58:55Z</time>
      </trkpt>
      <trkpt lat="45.51555" lon="6.05107">
        <ele>960.9750977</ele>
        <time>2012-05-26T07:59:03Z</time>
      </trkpt>
      <trkpt lat="45.5156" lon="6.0511">
        <ele>965.7817383</ele>
        <time>2012-05-26T07:59:07Z</time>
      </trkpt>
      <trkpt lat="45.51566" lon="6.05114">
        <ele>962.4169922</ele>
        <time>2012-05-26T07:59:13Z</time>
      </trkpt>
      <trkpt lat="45.51571" lon="6.05117">
        <ele>961.9365234</ele>
        <time>2012-05-26T07:59:18Z</time>
      </trkpt>
      <trkpt lat="45.51579" lon="6.05119">
        <ele>965.7817383</ele>
        <time>2012-05-26T07:59:25Z</time>
      </trkpt>
      <trkpt lat="45.51581" lon="6.05118">
        <ele>965.3010254</ele>
        <time>2012-05-26T07:59:26Z</time>
      </trkpt>
      <trkpt lat="45.51584" lon="6.05122">
        <ele>966.262207</ele>
        <time>2012-05-26T07:59:30Z</time>
      </trkpt>
      <trkpt lat="45.51586" lon="6.05126">
        <ele>967.2236328</ele>
        <time>2012-05-26T07:59:33Z</time>
      </trkpt>
      <trkpt lat="45.51589" lon="6.0513">
        <ele>966.262207</ele>
        <time>2012-05-26T07:59:39Z</time>
      </trkpt>
      <trkpt lat="45.5159" lon="6.05131">
        <ele>966.7429199</ele>
        <time>2012-05-26T07:59:42Z</time>
      </trkpt>
      <trkpt lat="45.51593" lon="6.05131">
        <ele>971.0688477</ele>
        <time>2012-05-26T07:59:46Z</time>
      </trkpt>
      <trkpt lat="45.51595" lon="6.05124">
        <ele>970.1074219</ele>
        <time>2012-05-26T07:59:49Z</time>
      </trkpt>
      <trkpt lat="45.51593" lon="6.05118">
        <ele>972.5109863</ele>
        <time>2012-05-26T07:59:56Z</time>
      </trkpt>
      <trkpt lat="45.51592" lon="6.05114">
        <ele>970.5881348</ele>
        <time>2012-05-26T08:00:02Z</time>
      </trkpt>
      <trkpt lat="45.51592" lon="6.05109">
        <ele>972.0302734</ele>
        <time>2012-05-26T08:00:07Z</time>
      </trkpt>
      <trkpt lat="45.51594" lon="6.05114">
        <ele>973.9528809</ele>
        <time>2012-05-26T08:00:11Z</time>
      </trkpt>
      <trkpt lat="45.51596" lon="6.0512">
        <ele>975.3947754</ele>
        <time>2012-05-26T08:00:15Z</time>
      </trkpt>
      <trkpt lat="45.51602" lon="6.05125">
        <ele>981.6433105</ele>
        <time>2012-05-26T08:00:22Z</time>
      </trkpt>
      <trkpt lat="45.51604" lon="6.05131">
        <ele>985.9692383</ele>
        <time>2012-05-26T08:00:30Z</time>
      </trkpt>
      <trkpt lat="45.51616" lon="6.05132">
        <ele>990.2954102</ele>
        <time>2012-05-26T08:00:37Z</time>
      </trkpt>
      <trkpt lat="45.51621" lon="6.05135">
        <ele>993.6599121</ele>
        <time>2012-05-26T08:00:41Z</time>
      </trkpt>
      <trkpt lat="45.51624" lon="6.05149">
        <ele>990.7758789</ele>
        <time>2012-05-26T08:00:46Z</time>
      </trkpt>
      <trkpt lat="45.51623" lon="6.05154">
        <ele>987.4111328</ele>
        <time>2012-05-26T08:00:48Z</time>
      </trkpt>
      <trkpt lat="45.51624" lon="6.05158">
        <ele>985.0080566</ele>
        <time>2012-05-26T08:00:50Z</time>
      </trkpt>
      <trkpt lat="45.51624" lon="6.05169">
        <ele>981.6433105</ele>
        <time>2012-05-26T08:00:54Z</time>
      </trkpt>
      <trkpt lat="45.51627" lon="6.05186">
        <ele>981.1628418</ele>
        <time>2012-05-26T08:00:59Z</time>
      </trkpt>
      <trkpt lat="45.51627" lon="6.05194">
        <ele>980.6821289</ele>
        <time>2012-05-26T08:01:02Z</time>
      </trkpt>
      <trkpt lat="45.51631" lon="6.05197">
        <ele>976.8369141</ele>
        <time>2012-05-26T08:01:08Z</time>
      </trkpt>
      <trkpt lat="45.51624" lon="6.05198">
        <ele>968.1848145</ele>
        <time>2012-05-26T08:01:13Z</time>
      </trkpt>
      <trkpt lat="45.51622" lon="6.05199">
        <ele>966.7429199</ele>
        <time>2012-05-26T08:01:15Z</time>
      </trkpt>
      <trkpt lat="45.5162" lon="6.05198">
        <ele>962.4169922</ele>
        <time>2012-05-26T08:01:18Z</time>
      </trkpt>
      <trkpt lat="45.51627" lon="6.05206">
        <ele>957.6105957</ele>
        <time>2012-05-26T08:01:22Z</time>
      </trkpt>
      <trkpt lat="45.51635" lon="6.05216">
        <ele>952.8037109</ele>
        <time>2012-05-26T08:01:26Z</time>
      </trkpt>
      <trkpt lat="45.5164" lon="6.05224">
        <ele>949.439209</ele>
        <time>2012-05-26T08:01:29Z</time>
      </trkpt>
      <trkpt lat="45.51637" lon="6.05244">
        <ele>947.0358887</ele>
        <time>2012-05-26T08:01:34Z</time>
      </trkpt>
      <trkpt lat="45.51636" lon="6.05263">
        <ele>947.5166016</ele>
        <time>2012-05-26T08:01:38Z</time>
      </trkpt>
      <trkpt lat="45.5164" lon="6.05279">
        <ele>946.5554199</ele>
        <time>2012-05-26T08:01:42Z</time>
      </trkpt>
      <trkpt lat="45.51645" lon="6.05298">
        <ele>945.5939941</ele>
        <time>2012-05-26T08:01:47Z</time>
      </trkpt>
      <trkpt lat="45.51647" lon="6.053">
        <ele>945.1132813</ele>
        <time>2012-05-26T08:01:48Z</time>
      </trkpt>
      <trkpt lat="45.51653" lon="6.05305">
        <ele>945.1132813</ele>
        <time>2012-05-26T08:01:50Z</time>
      </trkpt>
      <trkpt lat="45.51659" lon="6.05308">
        <ele>946.5554199</ele>
        <time>2012-05-26T08:01:52Z</time>
      </trkpt>
      <trkpt lat="45.51661" lon="6.0531">
        <ele>947.9973145</ele>
        <time>2012-05-26T08:01:53Z</time>
      </trkpt>
      <trkpt lat="45.51669" lon="6.05311">
        <ele>952.8037109</ele>
        <time>2012-05-26T08:01:56Z</time>
      </trkpt>
      <trkpt lat="45.51685" lon="6.0532">
        <ele>953.7651367</ele>
        <time>2012-05-26T08:02:03Z</time>
      </trkpt>
      <trkpt lat="45.51686" lon="6.05323">
        <ele>954.2458496</ele>
        <time>2012-05-26T08:02:04Z</time>
      </trkpt>
      <trkpt lat="45.51687" lon="6.05335">
        <ele>957.1298828</ele>
        <time>2012-05-26T08:02:07Z</time>
      </trkpt>
      <trkpt lat="45.51689" lon="6.0535">
        <ele>959.5332031</ele>
        <time>2012-05-26T08:02:12Z</time>
      </trkpt>
      <trkpt lat="45.51689" lon="6.05351">
        <ele>960.4943848</ele>
        <time>2012-05-26T08:02:13Z</time>
      </trkpt>
      <trkpt lat="45.51688" lon="6.05355">
        <ele>961.4558105</ele>
        <time>2012-05-26T08:02:15Z</time>
      </trkpt>
      <trkpt lat="45.51688" lon="6.05358">
        <ele>961.4558105</ele>
        <time>2012-05-26T08:02:16Z</time>
      </trkpt>
      <trkpt lat="45.51687" lon="6.05372">
        <ele>961.9365234</ele>
        <time>2012-05-26T08:02:21Z</time>
      </trkpt>
      <trkpt lat="45.5169" lon="6.05378">
        <ele>962.4169922</ele>
        <time>2012-05-26T08:02:25Z</time>
      </trkpt>
      <trkpt lat="45.51689" lon="6.05382">
        <ele>965.7817383</ele>
        <time>2012-05-26T08:02:27Z</time>
      </trkpt>
      <trkpt lat="45.51689" lon="6.0539">
        <ele>962.8977051</ele>
        <time>2012-05-26T08:02:32Z</time>
      </trkpt>
      <trkpt lat="45.51689" lon="6.05394">
        <ele>962.4169922</ele>
        <time>2012-05-26T08:02:34Z</time>
      </trkpt>
      <trkpt lat="45.51688" lon="6.05406">
        <ele>963.8588867</ele>
        <time>2012-05-26T08:02:40Z</time>
      </trkpt>
      <trkpt lat="45.51689" lon="6.05413">
        <ele>967.7041016</ele>
        <time>2012-05-26T08:02:44Z</time>
      </trkpt>
      <trkpt lat="45.51691" lon="6.05418">
        <ele>963.8588867</ele>
        <time>2012-05-26T08:02:47Z</time>
      </trkpt>
      <trkpt lat="45.51693" lon="6.05424">
        <ele>962.4169922</ele>
        <time>2012-05-26T08:02:51Z</time>
      </trkpt>
      <trkpt lat="45.51696" lon="6.0542">
        <ele>963.378418</ele>
        <time>2012-05-26T08:02:56Z</time>
      </trkpt>
      <trkpt lat="45.51697" lon="6.05415">
        <ele>963.378418</ele>
        <time>2012-05-26T08:02:59Z</time>
      </trkpt>
      <trkpt lat="45.51697" lon="6.0541">
        <ele>962.8977051</ele>
        <time>2012-05-26T08:03:03Z</time>
      </trkpt>
      <trkpt lat="45.51697" lon="6.05403">
        <ele>965.7817383</ele>
        <time>2012-05-26T08:03:09Z</time>
      </trkpt>
      <trkpt lat="45.51698" lon="6.05394">
        <ele>964.8203125</ele>
        <time>2012-05-26T08:03:18Z</time>
      </trkpt>
      <trkpt lat="45.51699" lon="6.05393">
        <ele>964.3395996</ele>
        <time>2012-05-26T08:03:19Z</time>
      </trkpt>
      <trkpt lat="45.517" lon="6.05394">
        <ele>963.378418</ele>
        <time>2012-05-26T08:03:21Z</time>
      </trkpt>
      <trkpt lat="45.51705" lon="6.05398">
        <ele>963.378418</ele>
        <time>2012-05-26T08:03:26Z</time>
      </trkpt>
      <trkpt lat="45.51709" lon="6.05407">
        <ele>965.7817383</ele>
        <time>2012-05-26T08:03:34Z</time>
      </trkpt>
      <trkpt lat="45.51708" lon="6.05416">
        <ele>967.7041016</ele>
        <time>2012-05-26T08:03:38Z</time>
      </trkpt>
      <trkpt lat="45.51707" lon="6.05426">
        <ele>970.5881348</ele>
        <time>2012-05-26T08:03:43Z</time>
      </trkpt>
      <trkpt lat="45.5171" lon="6.05433">
        <ele>972.9916992</ele>
        <time>2012-05-26T08:03:48Z</time>
      </trkpt>
      <trkpt lat="45.5171" lon="6.05434">
        <ele>972.9916992</ele>
        <time>2012-05-26T08:03:49Z</time>
      </trkpt>
      <trkpt lat="45.51711" lon="6.05441">
        <ele>975.3947754</ele>
        <time>2012-05-26T08:03:54Z</time>
      </trkpt>
      <trkpt lat="45.51712" lon="6.0545">
        <ele>973.4724121</ele>
        <time>2012-05-26T08:04:00Z</time>
      </trkpt>
      <trkpt lat="45.51714" lon="6.05459">
        <ele>973.4724121</ele>
        <time>2012-05-26T08:04:06Z</time>
      </trkpt>
      <trkpt lat="45.51717" lon="6.05462">
        <ele>976.3562012</ele>
        <time>2012-05-26T08:04:09Z</time>
      </trkpt>
      <trkpt lat="45.51721" lon="6.05459">
        <ele>978.7595215</ele>
        <time>2012-05-26T08:04:15Z</time>
      </trkpt>
      <trkpt lat="45.51721" lon="6.05458">
        <ele>979.2399902</ele>
        <time>2012-05-26T08:04:16Z</time>
      </trkpt>
      <trkpt lat="45.51721" lon="6.05451">
        <ele>980.201416</ele>
        <time>2012-05-26T08:04:21Z</time>
      </trkpt>
      <trkpt lat="45.51723" lon="6.05445">
        <ele>979.2399902</ele>
        <time>2012-05-26T08:04:27Z</time>
      </trkpt>
      <trkpt lat="45.51727" lon="6.05441">
        <ele>978.2788086</ele>
        <time>2012-05-26T08:04:34Z</time>
      </trkpt>
      <trkpt lat="45.51729" lon="6.05448">
        <ele>984.0466309</ele>
        <time>2012-05-26T08:04:39Z</time>
      </trkpt>
      <trkpt lat="45.51729" lon="6.05449">
        <ele>984.5273438</ele>
        <time>2012-05-26T08:04:40Z</time>
      </trkpt>
      <trkpt lat="45.51731" lon="6.05452">
        <ele>987.8918457</ele>
        <time>2012-05-26T08:04:43Z</time>
      </trkpt>
      <trkpt lat="45.51732" lon="6.05453">
        <ele>989.3339844</ele>
        <time>2012-05-26T08:04:45Z</time>
      </trkpt>
      <trkpt lat="45.51735" lon="6.05453">
        <ele>991.2565918</ele>
        <time>2012-05-26T08:04:48Z</time>
      </trkpt>
      <trkpt lat="45.5174" lon="6.05456">
        <ele>993.1791992</ele>
        <time>2012-05-26T08:04:53Z</time>
      </trkpt>
      <trkpt lat="45.51741" lon="6.05464">
        <ele>1004.2346191</ele>
        <time>2012-05-26T08:04:59Z</time>
      </trkpt>
      <trkpt lat="45.51742" lon="6.05466">
        <ele>1004.7150879</ele>
        <time>2012-05-26T08:05:01Z</time>
      </trkpt>
      <trkpt lat="45.51742" lon="6.05469">
        <ele>1006.1569824</ele>
        <time>2012-05-26T08:05:04Z</time>
      </trkpt>
      <trkpt lat="45.51748" lon="6.0548">
        <ele>1010.0021973</ele>
        <time>2012-05-26T08:05:16Z</time>
      </trkpt>
      <trkpt lat="45.51755" lon="6.05485">
        <ele>1006.6376953</ele>
        <time>2012-05-26T08:05:22Z</time>
      </trkpt>
      <trkpt lat="45.51755" lon="6.0549">
        <ele>1005.6765137</ele>
        <time>2012-05-26T08:05:24Z</time>
      </trkpt>
      <trkpt lat="45.51756" lon="6.05494">
        <ele>1004.2346191</ele>
        <time>2012-05-26T08:05:27Z</time>
      </trkpt>
      <trkpt lat="45.51757" lon="6.05506">
        <ele>1004.2346191</ele>
        <time>2012-05-26T08:05:34Z</time>
      </trkpt>
      <trkpt lat="45.51759" lon="6.05512">
        <ele>1005.1958008</ele>
        <time>2012-05-26T08:05:39Z</time>
      </trkpt>
      <trkpt lat="45.51762" lon="6.05518">
        <ele>1008.5603027</ele>
        <time>2012-05-26T08:05:43Z</time>
      </trkpt>
      <trkpt lat="45.51762" lon="6.05527">
        <ele>1010.4829102</ele>
        <time>2012-05-26T08:05:47Z</time>
      </trkpt>
      <trkpt lat="45.51764" lon="6.05523">
        <ele>1015.2895508</ele>
        <time>2012-05-26T08:05:51Z</time>
      </trkpt>
      <trkpt lat="45.51761" lon="6.05518">
        <ele>1018.6540527</ele>
        <time>2012-05-26T08:05:54Z</time>
      </trkpt>
      <trkpt lat="45.51763" lon="6.05513">
        <ele>1024.4221191</ele>
        <time>2012-05-26T08:05:58Z</time>
      </trkpt>
      <trkpt lat="45.51764" lon="6.05511">
        <ele>1023.4609375</ele>
        <time>2012-05-26T08:05:59Z</time>
      </trkpt>
      <trkpt lat="45.51766" lon="6.05505">
        <ele>1017.692627</ele>
        <time>2012-05-26T08:06:06Z</time>
      </trkpt>
      <trkpt lat="45.51767" lon="6.05502">
        <ele>1017.2121582</ele>
        <time>2012-05-26T08:06:10Z</time>
      </trkpt>
      <trkpt lat="45.51768" lon="6.05499">
        <ele>1013.3669434</ele>
        <time>2012-05-26T08:06:15Z</time>
      </trkpt>
      <trkpt lat="45.51768" lon="6.05495">
        <ele>1011.4443359</ele>
        <time>2012-05-26T08:06:19Z</time>
      </trkpt>
      <trkpt lat="45.51768" lon="6.05487">
        <ele>1013.8474121</ele>
        <time>2012-05-26T08:06:26Z</time>
      </trkpt>
      <trkpt lat="45.51768" lon="6.05484">
        <ele>1012.4055176</ele>
        <time>2012-05-26T08:06:29Z</time>
      </trkpt>
      <trkpt lat="45.51769" lon="6.05478">
        <ele>1010.963623</ele>
        <time>2012-05-26T08:06:34Z</time>
      </trkpt>
      <trkpt lat="45.5177" lon="6.05473">
        <ele>1012.8862305</ele>
        <time>2012-05-26T08:06:38Z</time>
      </trkpt>
      <trkpt lat="45.51771" lon="6.05467">
        <ele>1013.8474121</ele>
        <time>2012-05-26T08:06:42Z</time>
      </trkpt>
      <trkpt lat="45.51772" lon="6.05465">
        <ele>1014.328125</ele>
        <time>2012-05-26T08:06:43Z</time>
      </trkpt>
      <trkpt lat="45.51771" lon="6.05462">
        <ele>1014.8088379</ele>
        <time>2012-05-26T08:06:44Z</time>
      </trkpt>
      <trkpt lat="45.51771" lon="6.05459">
        <ele>1018.6540527</ele>
        <time>2012-05-26T08:06:47Z</time>
      </trkpt>
      <trkpt lat="45.51772" lon="6.05455">
        <ele>1020.5769043</ele>
        <time>2012-05-26T08:06:49Z</time>
      </trkpt>
      <trkpt lat="45.51773" lon="6.05445">
        <ele>1022.4995117</ele>
        <time>2012-05-26T08:06:56Z</time>
      </trkpt>
      <trkpt lat="45.51773" lon="6.05441">
        <ele>1021.0576172</ele>
        <time>2012-05-26T08:07:02Z</time>
      </trkpt>
      <trkpt lat="45.51766" lon="6.05439">
        <ele>1022.9802246</ele>
        <time>2012-05-26T08:07:11Z</time>
      </trkpt>
      <trkpt lat="45.51775" lon="6.05437">
        <ele>1023.4609375</ele>
        <time>2012-05-26T08:07:16Z</time>
      </trkpt>
      <trkpt lat="45.51777" lon="6.05437">
        <ele>1024.902832</ele>
        <time>2012-05-26T08:07:17Z</time>
      </trkpt>
      <trkpt lat="45.5178" lon="6.05438">
        <ele>1026.8254395</ele>
        <time>2012-05-26T08:07:20Z</time>
      </trkpt>
      <trkpt lat="45.5178" lon="6.05445">
        <ele>1030.6706543</ele>
        <time>2012-05-26T08:07:24Z</time>
      </trkpt>
      <trkpt lat="45.51781" lon="6.0545">
        <ele>1035.4770508</ele>
        <time>2012-05-26T08:07:28Z</time>
      </trkpt>
      <trkpt lat="45.51781" lon="6.05469">
        <ele>1041.7258301</ele>
        <time>2012-05-26T08:07:35Z</time>
      </trkpt>
      <trkpt lat="45.51784" lon="6.0548">
        <ele>1045.090332</ele>
        <time>2012-05-26T08:07:39Z</time>
      </trkpt>
      <trkpt lat="45.51784" lon="6.05482">
        <ele>1045.090332</ele>
        <time>2012-05-26T08:07:40Z</time>
      </trkpt>
      <trkpt lat="45.51785" lon="6.05483">
        <ele>1044.1291504</ele>
        <time>2012-05-26T08:07:41Z</time>
      </trkpt>
      <trkpt lat="45.51784" lon="6.05487">
        <ele>1044.6096191</ele>
        <time>2012-05-26T08:07:42Z</time>
      </trkpt>
      <trkpt lat="45.51785" lon="6.05494">
        <ele>1045.5710449</ele>
        <time>2012-05-26T08:07:46Z</time>
      </trkpt>
      <trkpt lat="45.5179" lon="6.05496">
        <ele>1045.5710449</ele>
        <time>2012-05-26T08:07:49Z</time>
      </trkpt>
      <trkpt lat="45.51792" lon="6.05497">
        <ele>1046.0517578</ele>
        <time>2012-05-26T08:07:50Z</time>
      </trkpt>
      <trkpt lat="45.51797" lon="6.05505">
        <ele>1047.4936523</ele>
        <time>2012-05-26T08:07:54Z</time>
      </trkpt>
      <trkpt lat="45.518" lon="6.05512">
        <ele>1045.5710449</ele>
        <time>2012-05-26T08:07:57Z</time>
      </trkpt>
      <trkpt lat="45.518" lon="6.05515">
        <ele>1043.1677246</ele>
        <time>2012-05-26T08:07:59Z</time>
      </trkpt>
      <trkpt lat="45.51801" lon="6.05522">
        <ele>1042.6872559</ele>
        <time>2012-05-26T08:08:02Z</time>
      </trkpt>
      <trkpt lat="45.51801" lon="6.05517">
        <ele>1040.2839355</ele>
        <time>2012-05-26T08:08:07Z</time>
      </trkpt>
      <trkpt lat="45.51801" lon="6.05515">
        <ele>1040.2839355</ele>
        <time>2012-05-26T08:08:08Z</time>
      </trkpt>
      <trkpt lat="45.51802" lon="6.0551">
        <ele>1039.3225098</ele>
        <time>2012-05-26T08:08:12Z</time>
      </trkpt>
      <trkpt lat="45.51802" lon="6.05505">
        <ele>1038.842041</ele>
        <time>2012-05-26T08:08:17Z</time>
      </trkpt>
      <trkpt lat="45.51803" lon="6.05491">
        <ele>1037.3999023</ele>
        <time>2012-05-26T08:08:24Z</time>
      </trkpt>
      <trkpt lat="45.51802" lon="6.05485">
        <ele>1039.3225098</ele>
        <time>2012-05-26T08:08:27Z</time>
      </trkpt>
      <trkpt lat="45.51803" lon="6.05474">
        <ele>1041.7258301</ele>
        <time>2012-05-26T08:08:33Z</time>
      </trkpt>
      <trkpt lat="45.51801" lon="6.0546">
        <ele>1042.206543</ele>
        <time>2012-05-26T08:08:43Z</time>
      </trkpt>
      <trkpt lat="45.51803" lon="6.0545">
        <ele>1045.090332</ele>
        <time>2012-05-26T08:08:48Z</time>
      </trkpt>
      <trkpt lat="45.51802" lon="6.0544">
        <ele>1047.0129395</ele>
        <time>2012-05-26T08:08:53Z</time>
      </trkpt>
      <trkpt lat="45.51801" lon="6.05439">
        <ele>1047.9743652</ele>
        <time>2012-05-26T08:08:54Z</time>
      </trkpt>
      <trkpt lat="45.51797" lon="6.05433">
        <ele>1050.8581543</ele>
        <time>2012-05-26T08:08:59Z</time>
      </trkpt>
      <trkpt lat="45.51796" lon="6.05423">
        <ele>1054.7036133</ele>
        <time>2012-05-26T08:09:06Z</time>
      </trkpt>
      <trkpt lat="45.51797" lon="6.05415">
        <ele>1055.1843262</ele>
        <time>2012-05-26T08:09:10Z</time>
      </trkpt>
      <trkpt lat="45.51802" lon="6.05417">
        <ele>1055.6650391</ele>
        <time>2012-05-26T08:09:14Z</time>
      </trkpt>
      <trkpt lat="45.51804" lon="6.0542">
        <ele>1056.6262207</ele>
        <time>2012-05-26T08:09:16Z</time>
      </trkpt>
      <trkpt lat="45.51806" lon="6.05435">
        <ele>1057.5876465</ele>
        <time>2012-05-26T08:09:22Z</time>
      </trkpt>
      <trkpt lat="45.5181" lon="6.05452">
        <ele>1054.2231445</ele>
        <time>2012-05-26T08:09:28Z</time>
      </trkpt>
      <trkpt lat="45.5181" lon="6.05454">
        <ele>1053.7424316</ele>
        <time>2012-05-26T08:09:29Z</time>
      </trkpt>
      <trkpt lat="45.51814" lon="6.05468">
        <ele>1056.6262207</ele>
        <time>2012-05-26T08:09:36Z</time>
      </trkpt>
      <trkpt lat="45.51814" lon="6.05471">
        <ele>1058.0683594</ele>
        <time>2012-05-26T08:09:37Z</time>
      </trkpt>
      <trkpt lat="45.51815" lon="6.05482">
        <ele>1060.9521484</ele>
        <time>2012-05-26T08:09:41Z</time>
      </trkpt>
      <trkpt lat="45.51819" lon="6.05487">
        <ele>1060.4714355</ele>
        <time>2012-05-26T08:09:44Z</time>
      </trkpt>
      <trkpt lat="45.51826" lon="6.05496">
        <ele>1060.9521484</ele>
        <time>2012-05-26T08:09:49Z</time>
      </trkpt>
      <trkpt lat="45.51831" lon="6.05506">
        <ele>1060.9521484</ele>
        <time>2012-05-26T08:09:53Z</time>
      </trkpt>
      <trkpt lat="45.51838" lon="6.05517">
        <ele>1063.8359375</ele>
        <time>2012-05-26T08:09:58Z</time>
      </trkpt>
      <trkpt lat="45.51845" lon="6.05524">
        <ele>1067.2006836</ele>
        <time>2012-05-26T08:10:03Z</time>
      </trkpt>
      <trkpt lat="45.51845" lon="6.05524">
        <ele>1066.7199707</ele>
        <time>2012-05-26T08:10:04Z</time>
      </trkpt>
      <trkpt lat="45.51849" lon="6.05531">
        <ele>1067.2006836</ele>
        <time>2012-05-26T08:10:08Z</time>
      </trkpt>
      <trkpt lat="45.51854" lon="6.05535">
        <ele>1067.6811523</ele>
        <time>2012-05-26T08:10:13Z</time>
      </trkpt>
      <trkpt lat="45.51863" lon="6.05541">
        <ele>1066.7199707</ele>
        <time>2012-05-26T08:10:19Z</time>
      </trkpt>
      <trkpt lat="45.51866" lon="6.05542">
        <ele>1067.2006836</ele>
        <time>2012-05-26T08:10:21Z</time>
      </trkpt>
      <trkpt lat="45.5187" lon="6.05546">
        <ele>1066.7199707</ele>
        <time>2012-05-26T08:10:25Z</time>
      </trkpt>
      <trkpt lat="45.51872" lon="6.05547">
        <ele>1067.6811523</ele>
        <time>2012-05-26T08:10:28Z</time>
      </trkpt>
      <trkpt lat="45.51876" lon="6.05549">
        <ele>1069.604248</ele>
        <time>2012-05-26T08:10:32Z</time>
      </trkpt>
      <trkpt lat="45.51877" lon="6.05551">
        <ele>1069.604248</ele>
        <time>2012-05-26T08:10:36Z</time>
      </trkpt>
      <trkpt lat="45.51882" lon="6.05552">
        <ele>1072.96875</ele>
        <time>2012-05-26T08:10:42Z</time>
      </trkpt>
      <trkpt lat="45.51886" lon="6.05553">
        <ele>1074.8913574</ele>
        <time>2012-05-26T08:10:47Z</time>
      </trkpt>
      <trkpt lat="45.51895" lon="6.05546">
        <ele>1074.4106445</ele>
        <time>2012-05-26T08:10:54Z</time>
      </trkpt>
      <trkpt lat="45.51905" lon="6.05535">
        <ele>1075.8525391</ele>
        <time>2012-05-26T08:10:58Z</time>
      </trkpt>
      <trkpt lat="45.51911" lon="6.05527">
        <ele>1075.3718262</ele>
        <time>2012-05-26T08:11:04Z</time>
      </trkpt>
      <trkpt lat="45.51915" lon="6.05521">
        <ele>1074.4106445</ele>
        <time>2012-05-26T08:11:08Z</time>
      </trkpt>
      <trkpt lat="45.51919" lon="6.05515">
        <ele>1075.3718262</ele>
        <time>2012-05-26T08:11:11Z</time>
      </trkpt>
      <trkpt lat="45.51922" lon="6.05511">
        <ele>1075.8525391</ele>
        <time>2012-05-26T08:11:16Z</time>
      </trkpt>
      <trkpt lat="45.51923" lon="6.05506">
        <ele>1073.4494629</ele>
        <time>2012-05-26T08:11:20Z</time>
      </trkpt>
      <trkpt lat="45.51923" lon="6.05503">
        <ele>1072.0073242</ele>
        <time>2012-05-26T08:11:22Z</time>
      </trkpt>
      <trkpt lat="45.51924" lon="6.05498">
        <ele>1072.0073242</ele>
        <time>2012-05-26T08:11:26Z</time>
      </trkpt>
      <trkpt lat="45.51922" lon="6.05492">
        <ele>1072.0073242</ele>
        <time>2012-05-26T08:11:30Z</time>
      </trkpt>
      <trkpt lat="45.51922" lon="6.0549">
        <ele>1072.4880371</ele>
        <time>2012-05-26T08:11:32Z</time>
      </trkpt>
      <trkpt lat="45.51921" lon="6.0549">
        <ele>1073.4494629</ele>
        <time>2012-05-26T08:11:33Z</time>
      </trkpt>
      <trkpt lat="45.51918" lon="6.05492">
        <ele>1076.8139648</ele>
        <time>2012-05-26T08:11:37Z</time>
      </trkpt>
      <trkpt lat="45.51914" lon="6.05496">
        <ele>1081.1398926</ele>
        <time>2012-05-26T08:11:42Z</time>
      </trkpt>
      <trkpt lat="45.51913" lon="6.05495">
        <ele>1081.1398926</ele>
        <time>2012-05-26T08:11:46Z</time>
      </trkpt>
      <trkpt lat="45.51913" lon="6.05494">
        <ele>1080.6591797</ele>
        <time>2012-05-26T08:11:47Z</time>
      </trkpt>
      <trkpt lat="45.51908" lon="6.05492">
        <ele>1080.1784668</ele>
        <time>2012-05-26T08:11:51Z</time>
      </trkpt>
      <trkpt lat="45.51906" lon="6.05491">
        <ele>1080.6591797</ele>
        <time>2012-05-26T08:11:54Z</time>
      </trkpt>
      <trkpt lat="45.51904" lon="6.05488">
        <ele>1083.0622559</ele>
        <time>2012-05-26T08:11:59Z</time>
      </trkpt>
      <trkpt lat="45.51897" lon="6.05483">
        <ele>1085.4658203</ele>
        <time>2012-05-26T08:12:06Z</time>
      </trkpt>
      <trkpt lat="45.51896" lon="6.05482">
        <ele>1085.4658203</ele>
        <time>2012-05-26T08:12:07Z</time>
      </trkpt>
      <trkpt lat="45.51894" lon="6.05481">
        <ele>1086.4272461</ele>
        <time>2012-05-26T08:12:09Z</time>
      </trkpt>
      <trkpt lat="45.51889" lon="6.05478">
        <ele>1088.3498535</ele>
        <time>2012-05-26T08:12:13Z</time>
      </trkpt>
      <trkpt lat="45.51878" lon="6.05476">
        <ele>1087.3884277</ele>
        <time>2012-05-26T08:12:19Z</time>
      </trkpt>
      <trkpt lat="45.51875" lon="6.05467">
        <ele>1084.5046387</ele>
        <time>2012-05-26T08:12:27Z</time>
      </trkpt>
      <trkpt lat="45.51874" lon="6.05464">
        <ele>1082.5817871</ele>
        <time>2012-05-26T08:12:30Z</time>
      </trkpt>
      <trkpt lat="45.51874" lon="6.05447">
        <ele>1078.7365723</ele>
        <time>2012-05-26T08:12:39Z</time>
      </trkpt>
      <trkpt lat="45.51874" lon="6.05439">
        <ele>1082.5817871</ele>
        <time>2012-05-26T08:12:43Z</time>
      </trkpt>
      <trkpt lat="45.51873" lon="6.05433">
        <ele>1084.0239258</ele>
        <time>2012-05-26T08:12:47Z</time>
      </trkpt>
      <trkpt lat="45.51871" lon="6.0542">
        <ele>1086.9077148</ele>
        <time>2012-05-26T08:12:53Z</time>
      </trkpt>
      <trkpt lat="45.51866" lon="6.054">
        <ele>1089.3110352</ele>
        <time>2012-05-26T08:13:00Z</time>
      </trkpt>
      <trkpt lat="45.51864" lon="6.05389">
        <ele>1088.3498535</ele>
        <time>2012-05-26T08:13:06Z</time>
      </trkpt>
      <trkpt lat="45.51862" lon="6.05383">
        <ele>1090.2724609</ele>
        <time>2012-05-26T08:13:09Z</time>
      </trkpt>
      <trkpt lat="45.51861" lon="6.0538">
        <ele>1088.3498535</ele>
        <time>2012-05-26T08:13:12Z</time>
      </trkpt>
      <trkpt lat="45.51862" lon="6.05371">
        <ele>1084.9853516</ele>
        <time>2012-05-26T08:13:18Z</time>
      </trkpt>
      <trkpt lat="45.51864" lon="6.05363">
        <ele>1086.4272461</ele>
        <time>2012-05-26T08:13:23Z</time>
      </trkpt>
      <trkpt lat="45.51864" lon="6.05363">
        <ele>1086.4272461</ele>
        <time>2012-05-26T08:13:24Z</time>
      </trkpt>
      <trkpt lat="45.51863" lon="6.05358">
        <ele>1086.9077148</ele>
        <time>2012-05-26T08:13:27Z</time>
      </trkpt>
      <trkpt lat="45.51863" lon="6.05343">
        <ele>1095.0788574</ele>
        <time>2012-05-26T08:13:34Z</time>
      </trkpt>
      <trkpt lat="45.51862" lon="6.05331">
        <ele>1098.4433594</ele>
        <time>2012-05-26T08:13:39Z</time>
      </trkpt>
      <trkpt lat="45.51862" lon="6.05325">
        <ele>1101.3276367</ele>
        <time>2012-05-26T08:13:43Z</time>
      </trkpt>
      <trkpt lat="45.51864" lon="6.0531">
        <ele>1105.6535645</ele>
        <time>2012-05-26T08:13:51Z</time>
      </trkpt>
      <trkpt lat="45.51867" lon="6.05304">
        <ele>1108.0568848</ele>
        <time>2012-05-26T08:13:57Z</time>
      </trkpt>
      <trkpt lat="45.51867" lon="6.05302">
        <ele>1108.5373535</ele>
        <time>2012-05-26T08:13:59Z</time>
      </trkpt>
      <trkpt lat="45.51865" lon="6.05295">
        <ele>1109.4987793</ele>
        <time>2012-05-26T08:14:06Z</time>
      </trkpt>
      <trkpt lat="45.51864" lon="6.05294">
        <ele>1110.9406738</ele>
        <time>2012-05-26T08:14:08Z</time>
      </trkpt>
      <trkpt lat="45.51863" lon="6.05282">
        <ele>1116.2280273</ele>
        <time>2012-05-26T08:14:16Z</time>
      </trkpt>
      <trkpt lat="45.51865" lon="6.05276">
        <ele>1118.1506348</ele>
        <time>2012-05-26T08:14:20Z</time>
      </trkpt>
      <trkpt lat="45.5187" lon="6.05267">
        <ele>1118.1506348</ele>
        <time>2012-05-26T08:14:28Z</time>
      </trkpt>
      <trkpt lat="45.5187" lon="6.05267">
        <ele>1118.6313477</ele>
        <time>2012-05-26T08:14:29Z</time>
      </trkpt>
      <trkpt lat="45.51871" lon="6.05262">
        <ele>1119.1120605</ele>
        <time>2012-05-26T08:14:33Z</time>
      </trkpt>
      <trkpt lat="45.51871" lon="6.05256">
        <ele>1117.6699219</ele>
        <time>2012-05-26T08:14:37Z</time>
      </trkpt>
      <trkpt lat="45.51872" lon="6.05255">
        <ele>1117.1894531</ele>
        <time>2012-05-26T08:14:39Z</time>
      </trkpt>
      <trkpt lat="45.51872" lon="6.05248">
        <ele>1118.1506348</ele>
        <time>2012-05-26T08:14:45Z</time>
      </trkpt>
      <trkpt lat="45.51872" lon="6.05245">
        <ele>1117.6699219</ele>
        <time>2012-05-26T08:14:48Z</time>
      </trkpt>
      <trkpt lat="45.51873" lon="6.05238">
        <ele>1118.6313477</ele>
        <time>2012-05-26T08:14:54Z</time>
      </trkpt>
      <trkpt lat="45.51875" lon="6.05236">
        <ele>1119.1120605</ele>
        <time>2012-05-26T08:14:56Z</time>
      </trkpt>
      <trkpt lat="45.51877" lon="6.05229">
        <ele>1119.5927734</ele>
        <time>2012-05-26T08:15:02Z</time>
      </trkpt>
      <trkpt lat="45.51874" lon="6.05226">
        <ele>1121.034668</ele>
        <time>2012-05-26T08:15:06Z</time>
      </trkpt>
      <trkpt lat="45.5187" lon="6.05221">
        <ele>1121.9958496</ele>
        <time>2012-05-26T08:15:12Z</time>
      </trkpt>
      <trkpt lat="45.51869" lon="6.05212">
        <ele>1122.4765625</ele>
        <time>2012-05-26T08:15:18Z</time>
      </trkpt>
      <trkpt lat="45.51868" lon="6.05211">
        <ele>1122.4765625</ele>
        <time>2012-05-26T08:15:20Z</time>
      </trkpt>
      <trkpt lat="45.51868" lon="6.05208">
        <ele>1121.9958496</ele>
        <time>2012-05-26T08:15:23Z</time>
      </trkpt>
      <trkpt lat="45.51867" lon="6.05207">
        <ele>1121.9958496</ele>
        <time>2012-05-26T08:15:25Z</time>
      </trkpt>
      <trkpt lat="45.51862" lon="6.05198">
        <ele>1124.8798828</ele>
        <time>2012-05-26T08:15:32Z</time>
      </trkpt>
      <trkpt lat="45.51859" lon="6.05188">
        <ele>1128.2443848</ele>
        <time>2012-05-26T08:15:39Z</time>
      </trkpt>
      <trkpt lat="45.51855" lon="6.05182">
        <ele>1130.6477051</ele>
        <time>2012-05-26T08:15:45Z</time>
      </trkpt>
      <trkpt lat="45.51851" lon="6.05179">
        <ele>1131.6088867</ele>
        <time>2012-05-26T08:15:50Z</time>
      </trkpt>
      <trkpt lat="45.51847" lon="6.0518">
        <ele>1136.4157715</ele>
        <time>2012-05-26T08:15:55Z</time>
      </trkpt>
      <trkpt lat="45.5184" lon="6.05178">
        <ele>1138.8190918</ele>
        <time>2012-05-26T08:16:01Z</time>
      </trkpt>
      <trkpt lat="45.51833" lon="6.05172">
        <ele>1139.2995605</ele>
        <time>2012-05-26T08:16:09Z</time>
      </trkpt>
      <trkpt lat="45.51826" lon="6.0517">
        <ele>1140.7414551</ele>
        <time>2012-05-26T08:16:15Z</time>
      </trkpt>
      <trkpt lat="45.51819" lon="6.05164">
        <ele>1145.5480957</ele>
        <time>2012-05-26T08:16:22Z</time>
      </trkpt>
      <trkpt lat="45.51816" lon="6.05158">
        <ele>1147.4707031</ele>
        <time>2012-05-26T08:16:28Z</time>
      </trkpt>
      <trkpt lat="45.51813" lon="6.05154">
        <ele>1146.9899902</ele>
        <time>2012-05-26T08:16:32Z</time>
      </trkpt>
      <trkpt lat="45.51813" lon="6.0514">
        <ele>1147.951416</ele>
        <time>2012-05-26T08:16:37Z</time>
      </trkpt>
      <trkpt lat="45.51811" lon="6.05131">
        <ele>1149.8742676</ele>
        <time>2012-05-26T08:16:42Z</time>
      </trkpt>
      <trkpt lat="45.51809" lon="6.05128">
        <ele>1152.7580566</ele>
        <time>2012-05-26T08:16:46Z</time>
      </trkpt>
      <trkpt lat="45.51803" lon="6.05122">
        <ele>1153.7194824</ele>
        <time>2012-05-26T08:16:53Z</time>
      </trkpt>
      <trkpt lat="45.51802" lon="6.0512">
        <ele>1152.7580566</ele>
        <time>2012-05-26T08:16:55Z</time>
      </trkpt>
      <trkpt lat="45.518" lon="6.05118">
        <ele>1152.2773438</ele>
        <time>2012-05-26T08:16:57Z</time>
      </trkpt>
      <trkpt lat="45.51799" lon="6.05118">
        <ele>1153.2387695</ele>
        <time>2012-05-26T08:16:58Z</time>
      </trkpt>
      <trkpt lat="45.51798" lon="6.05118">
        <ele>1154.2001953</ele>
        <time>2012-05-26T08:17:00Z</time>
      </trkpt>
      <trkpt lat="45.51793" lon="6.05118">
        <ele>1156.1225586</ele>
        <time>2012-05-26T08:17:05Z</time>
      </trkpt>
      <trkpt lat="45.51788" lon="6.05115">
        <ele>1159.9677734</ele>
        <time>2012-05-26T08:17:10Z</time>
      </trkpt>
      <trkpt lat="45.51783" lon="6.05113">
        <ele>1161.890625</ele>
        <time>2012-05-26T08:17:15Z</time>
      </trkpt>
      <trkpt lat="45.51779" lon="6.05113">
        <ele>1163.3325195</ele>
        <time>2012-05-26T08:17:19Z</time>
      </trkpt>
      <trkpt lat="45.51774" lon="6.05111">
        <ele>1164.2939453</ele>
        <time>2012-05-26T08:17:27Z</time>
      </trkpt>
      <trkpt lat="45.51771" lon="6.05108">
        <ele>1164.7746582</ele>
        <time>2012-05-26T08:17:31Z</time>
      </trkpt>
      <trkpt lat="45.51766" lon="6.05107">
        <ele>1166.2165527</ele>
        <time>2012-05-26T08:17:38Z</time>
      </trkpt>
      <trkpt lat="45.51765" lon="6.05107">
        <ele>1166.6972656</ele>
        <time>2012-05-26T08:17:39Z</time>
      </trkpt>
      <trkpt lat="45.51761" lon="6.05103">
        <ele>1168.1391602</ele>
        <time>2012-05-26T08:17:46Z</time>
      </trkpt>
      <trkpt lat="45.5176" lon="6.05102">
        <ele>1169.1005859</ele>
        <time>2012-05-26T08:17:47Z</time>
      </trkpt>
      <trkpt lat="45.51757" lon="6.05098">
        <ele>1170.5424805</ele>
        <time>2012-05-26T08:17:52Z</time>
      </trkpt>
      <trkpt lat="45.51758" lon="6.0509">
        <ele>1172.4650879</ele>
        <time>2012-05-26T08:17:58Z</time>
      </trkpt>
      <trkpt lat="45.51755" lon="6.05086">
        <ele>1174.3876953</ele>
        <time>2012-05-26T08:18:04Z</time>
      </trkpt>
      <trkpt lat="45.51754" lon="6.05081">
        <ele>1176.3103027</ele>
        <time>2012-05-26T08:18:10Z</time>
      </trkpt>
      <trkpt lat="45.51752" lon="6.05075">
        <ele>1177.2717285</ele>
        <time>2012-05-26T08:18:17Z</time>
      </trkpt>
      <trkpt lat="45.51749" lon="6.0507">
        <ele>1177.7521973</ele>
        <time>2012-05-26T08:18:23Z</time>
      </trkpt>
      <trkpt lat="45.51748" lon="6.05066">
        <ele>1178.713623</ele>
        <time>2012-05-26T08:18:27Z</time>
      </trkpt>
      <trkpt lat="45.51745" lon="6.05057">
        <ele>1181.5976563</ele>
        <time>2012-05-26T08:18:36Z</time>
      </trkpt>
      <trkpt lat="45.51745" lon="6.05055">
        <ele>1182.0783691</ele>
        <time>2012-05-26T08:18:38Z</time>
      </trkpt>
      <trkpt lat="45.51745" lon="6.05047">
        <ele>1183.0395508</ele>
        <time>2012-05-26T08:18:47Z</time>
      </trkpt>
      <trkpt lat="45.51749" lon="6.05041">
        <ele>1182.559082</ele>
        <time>2012-05-26T08:18:54Z</time>
      </trkpt>
      <trkpt lat="45.51748" lon="6.05033">
        <ele>1184.0009766</ele>
        <time>2012-05-26T08:18:59Z</time>
      </trkpt>
      <trkpt lat="45.51745" lon="6.05023">
        <ele>1186.8847656</ele>
        <time>2012-05-26T08:19:06Z</time>
      </trkpt>
      <trkpt lat="45.51742" lon="6.05015">
        <ele>1188.3269043</ele>
        <time>2012-05-26T08:19:12Z</time>
      </trkpt>
      <trkpt lat="45.51737" lon="6.05004">
        <ele>1188.8076172</ele>
        <time>2012-05-26T08:19:17Z</time>
      </trkpt>
      <trkpt lat="45.51736" lon="6.04994">
        <ele>1188.8076172</ele>
        <time>2012-05-26T08:19:22Z</time>
      </trkpt>
      <trkpt lat="45.51734" lon="6.04988">
        <ele>1189.2880859</ele>
        <time>2012-05-26T08:19:27Z</time>
      </trkpt>
      <trkpt lat="45.51728" lon="6.04976">
        <ele>1193.6140137</ele>
        <time>2012-05-26T08:19:36Z</time>
      </trkpt>
      <trkpt lat="45.51725" lon="6.04967">
        <ele>1196.0175781</ele>
        <time>2012-05-26T08:19:42Z</time>
      </trkpt>
      <trkpt lat="45.51723" lon="6.04963">
        <ele>1197.9401855</ele>
        <time>2012-05-26T08:19:45Z</time>
      </trkpt>
      <trkpt lat="45.5172" lon="6.04951">
        <ele>1203.2272949</ele>
        <time>2012-05-26T08:19:53Z</time>
      </trkpt>
      <trkpt lat="45.51717" lon="6.04944">
        <ele>1206.5917969</ele>
        <time>2012-05-26T08:19:59Z</time>
      </trkpt>
      <trkpt lat="45.51714" lon="6.04935">
        <ele>1208.5144043</ele>
        <time>2012-05-26T08:20:06Z</time>
      </trkpt>
      <trkpt lat="45.51714" lon="6.04923">
        <ele>1209.9562988</ele>
        <time>2012-05-26T08:20:12Z</time>
      </trkpt>
      <trkpt lat="45.51712" lon="6.04919">
        <ele>1210.9177246</ele>
        <time>2012-05-26T08:20:14Z</time>
      </trkpt>
      <trkpt lat="45.51711" lon="6.04904">
        <ele>1211.3984375</ele>
        <time>2012-05-26T08:20:21Z</time>
      </trkpt>
      <trkpt lat="45.51711" lon="6.04897">
        <ele>1211.3984375</ele>
        <time>2012-05-26T08:20:26Z</time>
      </trkpt>
      <trkpt lat="45.51711" lon="6.04884">
        <ele>1212.8405762</ele>
        <time>2012-05-26T08:20:32Z</time>
      </trkpt>
      <trkpt lat="45.51712" lon="6.04879">
        <ele>1212.3598633</ele>
        <time>2012-05-26T08:20:36Z</time>
      </trkpt>
      <trkpt lat="45.51716" lon="6.04879">
        <ele>1209.9562988</ele>
        <time>2012-05-26T08:20:43Z</time>
      </trkpt>
      <trkpt lat="45.51719" lon="6.04882">
        <ele>1208.5144043</ele>
        <time>2012-05-26T08:20:45Z</time>
      </trkpt>
      <trkpt lat="45.51721" lon="6.04886">
        <ele>1207.5532227</ele>
        <time>2012-05-26T08:20:50Z</time>
      </trkpt>
      <trkpt lat="45.51724" lon="6.04888">
        <ele>1205.6306152</ele>
        <time>2012-05-26T08:20:57Z</time>
      </trkpt>
      <trkpt lat="45.51725" lon="6.04888">
        <ele>1205.1499023</ele>
        <time>2012-05-26T08:20:58Z</time>
      </trkpt>
      <trkpt lat="45.51727" lon="6.04895">
        <ele>1203.2272949</ele>
        <time>2012-05-26T08:21:03Z</time>
      </trkpt>
      <trkpt lat="45.51728" lon="6.04897">
        <ele>1201.7854004</ele>
        <time>2012-05-26T08:21:06Z</time>
      </trkpt>
      <trkpt lat="45.5173" lon="6.04902">
        <ele>1199.862793</ele>
        <time>2012-05-26T08:21:12Z</time>
      </trkpt>
      <trkpt lat="45.51734" lon="6.04907">
        <ele>1198.4206543</ele>
        <time>2012-05-26T08:21:16Z</time>
      </trkpt>
      <trkpt lat="45.51735" lon="6.04911">
        <ele>1197.9401855</ele>
        <time>2012-05-26T08:21:18Z</time>
      </trkpt>
      <trkpt lat="45.51738" lon="6.04925">
        <ele>1196.0175781</ele>
        <time>2012-05-26T08:21:23Z</time>
      </trkpt>
      <trkpt lat="45.51742" lon="6.04917">
        <ele>1191.2106934</ele>
        <time>2012-05-26T08:21:29Z</time>
      </trkpt>
      <trkpt lat="45.51744" lon="6.04909">
        <ele>1188.8076172</ele>
        <time>2012-05-26T08:21:33Z</time>
      </trkpt>
      <trkpt lat="45.51742" lon="6.04897">
        <ele>1187.3654785</ele>
        <time>2012-05-26T08:21:37Z</time>
      </trkpt>
      <trkpt lat="45.51742" lon="6.04894">
        <ele>1185.4428711</ele>
        <time>2012-05-26T08:21:39Z</time>
      </trkpt>
      <trkpt lat="45.51742" lon="6.04893">
        <ele>1184.4816895</ele>
        <time>2012-05-26T08:21:40Z</time>
      </trkpt>
      <trkpt lat="45.51741" lon="6.04884">
        <ele>1182.0783691</ele>
        <time>2012-05-26T08:21:46Z</time>
      </trkpt>
      <trkpt lat="45.5174" lon="6.0488">
        <ele>1182.0783691</ele>
        <time>2012-05-26T08:21:50Z</time>
      </trkpt>
      <trkpt lat="45.51738" lon="6.04876">
        <ele>1184.0009766</ele>
        <time>2012-05-26T08:21:53Z</time>
      </trkpt>
      <trkpt lat="45.51737" lon="6.04872">
        <ele>1184.9624023</ele>
        <time>2012-05-26T08:21:55Z</time>
      </trkpt>
      <trkpt lat="45.51736" lon="6.0487">
        <ele>1185.4428711</ele>
        <time>2012-05-26T08:21:56Z</time>
      </trkpt>
      <trkpt lat="45.51733" lon="6.04858">
        <ele>1186.8847656</ele>
        <time>2012-05-26T08:22:00Z</time>
      </trkpt>
      <trkpt lat="45.51732" lon="6.04857">
        <ele>1186.8847656</ele>
        <time>2012-05-26T08:22:01Z</time>
      </trkpt>
      <trkpt lat="45.5173" lon="6.04854">
        <ele>1186.8847656</ele>
        <time>2012-05-26T08:22:05Z</time>
      </trkpt>
      <trkpt lat="45.51724" lon="6.04844">
        <ele>1186.8847656</ele>
        <time>2012-05-26T08:22:10Z</time>
      </trkpt>
      <trkpt lat="45.51721" lon="6.0484">
        <ele>1187.3654785</ele>
        <time>2012-05-26T08:22:12Z</time>
      </trkpt>
      <trkpt lat="45.51713" lon="6.04835">
        <ele>1186.4042969</ele>
        <time>2012-05-26T08:22:17Z</time>
      </trkpt>
      <trkpt lat="45.51712" lon="6.04828">
        <ele>1185.923584</ele>
        <time>2012-05-26T08:22:21Z</time>
      </trkpt>
      <trkpt lat="45.5171" lon="6.04824">
        <ele>1184.9624023</ele>
        <time>2012-05-26T08:22:26Z</time>
      </trkpt>
      <trkpt lat="45.51708" lon="6.04823">
        <ele>1184.9624023</ele>
        <time>2012-05-26T08:22:28Z</time>
      </trkpt>
      <trkpt lat="45.51706" lon="6.04822">
        <ele>1182.559082</ele>
        <time>2012-05-26T08:22:30Z</time>
      </trkpt>
      <trkpt lat="45.51703" lon="6.0482">
        <ele>1181.1171875</ele>
        <time>2012-05-26T08:22:31Z</time>
      </trkpt>
      <trkpt lat="45.51701" lon="6.04818">
        <ele>1180.1557617</ele>
        <time>2012-05-26T08:22:32Z</time>
      </trkpt>
      <trkpt lat="45.51691" lon="6.04806">
        <ele>1179.1940918</ele>
        <time>2012-05-26T08:22:36Z</time>
      </trkpt>
      <trkpt lat="45.5169" lon="6.04789">
        <ele>1175.348877</ele>
        <time>2012-05-26T08:22:40Z</time>
      </trkpt>
      <trkpt lat="45.51687" lon="6.04771">
        <ele>1175.348877</ele>
        <time>2012-05-26T08:22:44Z</time>
      </trkpt>
      <trkpt lat="45.51689" lon="6.04755">
        <ele>1177.2717285</ele>
        <time>2012-05-26T08:22:48Z</time>
      </trkpt>
      <trkpt lat="45.51692" lon="6.04733">
        <ele>1176.3103027</ele>
        <time>2012-05-26T08:22:53Z</time>
      </trkpt>
      <trkpt lat="45.517" lon="6.0471">
        <ele>1174.3876953</ele>
        <time>2012-05-26T08:22:59Z</time>
      </trkpt>
      <trkpt lat="45.51706" lon="6.04693">
        <ele>1174.8684082</ele>
        <time>2012-05-26T08:23:04Z</time>
      </trkpt>
      <trkpt lat="45.51707" lon="6.0469">
        <ele>1175.348877</ele>
        <time>2012-05-26T08:23:05Z</time>
      </trkpt>
      <trkpt lat="45.51722" lon="6.04679">
        <ele>1174.3876953</ele>
        <time>2012-05-26T08:23:11Z</time>
      </trkpt>
      <trkpt lat="45.51727" lon="6.04675">
        <ele>1173.4265137</ele>
        <time>2012-05-26T08:23:14Z</time>
      </trkpt>
      <trkpt lat="45.51734" lon="6.04663">
        <ele>1174.8684082</ele>
        <time>2012-05-26T08:23:19Z</time>
      </trkpt>
      <trkpt lat="45.51735" lon="6.04661">
        <ele>1174.8684082</ele>
        <time>2012-05-26T08:23:20Z</time>
      </trkpt>
      <trkpt lat="45.51742" lon="6.04642">
        <ele>1174.8684082</ele>
        <time>2012-05-26T08:23:26Z</time>
      </trkpt>
      <trkpt lat="45.51744" lon="6.04638">
        <ele>1174.3876953</ele>
        <time>2012-05-26T08:23:27Z</time>
      </trkpt>
      <trkpt lat="45.51747" lon="6.04617">
        <ele>1169.5812988</ele>
        <time>2012-05-26T08:23:32Z</time>
      </trkpt>
      <trkpt lat="45.51746" lon="6.04612">
        <ele>1166.6972656</ele>
        <time>2012-05-26T08:23:34Z</time>
      </trkpt>
      <trkpt lat="45.51745" lon="6.04606">
        <ele>1163.8129883</ele>
        <time>2012-05-26T08:23:36Z</time>
      </trkpt>
      <trkpt lat="45.51746" lon="6.04603">
        <ele>1162.3710938</ele>
        <time>2012-05-26T08:23:37Z</time>
      </trkpt>
      <trkpt lat="45.51749" lon="6.04592">
        <ele>1158.0454102</ele>
        <time>2012-05-26T08:23:41Z</time>
      </trkpt>
      <trkpt lat="45.51749" lon="6.04589">
        <ele>1157.0839844</ele>
        <time>2012-05-26T08:23:42Z</time>
      </trkpt>
      <trkpt lat="45.51749" lon="6.04587">
        <ele>1155.161377</ele>
        <time>2012-05-26T08:23:43Z</time>
      </trkpt>
      <trkpt lat="45.5175" lon="6.0458">
        <ele>1152.2773438</ele>
        <time>2012-05-26T08:23:45Z</time>
      </trkpt>
      <trkpt lat="45.51751" lon="6.04562">
        <ele>1148.4321289</ele>
        <time>2012-05-26T08:23:50Z</time>
      </trkpt>
      <trkpt lat="45.51751" lon="6.04559">
        <ele>1142.1835938</ele>
        <time>2012-05-26T08:23:52Z</time>
      </trkpt>
      <trkpt lat="45.51752" lon="6.04546">
        <ele>1137.857666</ele>
        <time>2012-05-26T08:23:58Z</time>
      </trkpt>
      <trkpt lat="45.51751" lon="6.04543">
        <ele>1136.8962402</ele>
        <time>2012-05-26T08:23:59Z</time>
      </trkpt>
      <trkpt lat="45.51756" lon="6.04535">
        <ele>1134.0124512</ele>
        <time>2012-05-26T08:24:03Z</time>
      </trkpt>
      <trkpt lat="45.51757" lon="6.04534">
        <ele>1133.5317383</ele>
        <time>2012-05-26T08:24:04Z</time>
      </trkpt>
      <trkpt lat="45.51756" lon="6.04524">
        <ele>1130.6477051</ele>
        <time>2012-05-26T08:24:08Z</time>
      </trkpt>
      <trkpt lat="45.51755" lon="6.04511">
        <ele>1136.8962402</ele>
        <time>2012-05-26T08:24:10Z</time>
      </trkpt>
      <trkpt lat="45.51758" lon="6.04506">
        <ele>1137.857666</ele>
        <time>2012-05-26T08:24:12Z</time>
      </trkpt>
      <trkpt lat="45.51759" lon="6.04503">
        <ele>1138.3383789</ele>
        <time>2012-05-26T08:24:13Z</time>
      </trkpt>
      <trkpt lat="45.5176" lon="6.04499">
        <ele>1139.2995605</ele>
        <time>2012-05-26T08:24:14Z</time>
      </trkpt>
      <trkpt lat="45.51766" lon="6.04483">
        <ele>1143.1447754</ele>
        <time>2012-05-26T08:24:18Z</time>
      </trkpt>
      <trkpt lat="45.51768" lon="6.0448">
        <ele>1142.1835938</ele>
        <time>2012-05-26T08:24:19Z</time>
      </trkpt>
      <trkpt lat="45.5177" lon="6.04475">
        <ele>1142.1835938</ele>
        <time>2012-05-26T08:24:20Z</time>
      </trkpt>
      <trkpt lat="45.51775" lon="6.04469">
        <ele>1142.6643066</ele>
        <time>2012-05-26T08:24:22Z</time>
      </trkpt>
      <trkpt lat="45.51778" lon="6.04468">
        <ele>1141.7028809</ele>
        <time>2012-05-26T08:24:23Z</time>
      </trkpt>
      <trkpt lat="45.51786" lon="6.04463">
        <ele>1134.973877</ele>
        <time>2012-05-26T08:24:26Z</time>
      </trkpt>
      <trkpt lat="45.518" lon="6.04458">
        <ele>1135.9350586</ele>
        <time>2012-05-26T08:24:31Z</time>
      </trkpt>
      <trkpt lat="45.51803" lon="6.04458">
        <ele>1134.0124512</ele>
        <time>2012-05-26T08:24:32Z</time>
      </trkpt>
      <trkpt lat="45.51808" lon="6.04455">
        <ele>1132.5705566</ele>
        <time>2012-05-26T08:24:34Z</time>
      </trkpt>
      <trkpt lat="45.5182" lon="6.04444">
        <ele>1129.2055664</ele>
        <time>2012-05-26T08:24:38Z</time>
      </trkpt>
      <trkpt lat="45.51822" lon="6.04442">
        <ele>1128.7250977</ele>
        <time>2012-05-26T08:24:39Z</time>
      </trkpt>
      <trkpt lat="45.51836" lon="6.04451">
        <ele>1124.8798828</ele>
        <time>2012-05-26T08:24:44Z</time>
      </trkpt>
      <trkpt lat="45.51838" lon="6.04455">
        <ele>1122.9572754</ele>
        <time>2012-05-26T08:24:45Z</time>
      </trkpt>
      <trkpt lat="45.5184" lon="6.04462">
        <ele>1119.1120605</ele>
        <time>2012-05-26T08:24:47Z</time>
      </trkpt>
      <trkpt lat="45.51845" lon="6.04471">
        <ele>1114.7858887</ele>
        <time>2012-05-26T08:24:50Z</time>
      </trkpt>
      <trkpt lat="45.51846" lon="6.04474">
        <ele>1114.7858887</ele>
        <time>2012-05-26T08:24:51Z</time>
      </trkpt>
      <trkpt lat="45.51856" lon="6.04489">
        <ele>1114.7858887</ele>
        <time>2012-05-26T08:24:56Z</time>
      </trkpt>
      <trkpt lat="45.51857" lon="6.04492">
        <ele>1114.3051758</ele>
        <time>2012-05-26T08:24:57Z</time>
      </trkpt>
      <trkpt lat="45.51861" lon="6.04495">
        <ele>1112.8632813</ele>
        <time>2012-05-26T08:24:59Z</time>
      </trkpt>
      <trkpt lat="45.5187" lon="6.04507">
        <ele>1110.4599609</ele>
        <time>2012-05-26T08:25:04Z</time>
      </trkpt>
      <trkpt lat="45.5188" lon="6.04514">
        <ele>1115.2666016</ele>
        <time>2012-05-26T08:25:09Z</time>
      </trkpt>
      <trkpt lat="45.5188" lon="6.04515">
        <ele>1116.2280273</ele>
        <time>2012-05-26T08:25:10Z</time>
      </trkpt>
      <trkpt lat="45.51885" lon="6.04519">
        <ele>1117.1894531</ele>
        <time>2012-05-26T08:25:13Z</time>
      </trkpt>
      <trkpt lat="45.51889" lon="6.0452">
        <ele>1116.7087402</ele>
        <time>2012-05-26T08:25:19Z</time>
      </trkpt>
      <trkpt lat="45.51894" lon="6.04521">
        <ele>1118.6313477</ele>
        <time>2012-05-26T08:25:21Z</time>
      </trkpt>
      <trkpt lat="45.51896" lon="6.04526">
        <ele>1116.2280273</ele>
        <time>2012-05-26T08:25:25Z</time>
      </trkpt>
      <trkpt lat="45.51894" lon="6.04522">
        <ele>1110.9406738</ele>
        <time>2012-05-26T08:25:28Z</time>
      </trkpt>
      <trkpt lat="45.51894" lon="6.04521">
        <ele>1109.979248</ele>
        <time>2012-05-26T08:25:30Z</time>
      </trkpt>
      <trkpt lat="45.51893" lon="6.04517">
        <ele>1107.5761719</ele>
        <time>2012-05-26T08:25:32Z</time>
      </trkpt>
      <trkpt lat="45.51895" lon="6.04514">
        <ele>1106.1340332</ele>
        <time>2012-05-26T08:25:34Z</time>
      </trkpt>
      <trkpt lat="45.51904" lon="6.04517">
        <ele>1101.3276367</ele>
        <time>2012-05-26T08:25:42Z</time>
      </trkpt>
      <trkpt lat="45.51906" lon="6.04518">
        <ele>1099.885498</ele>
        <time>2012-05-26T08:25:45Z</time>
      </trkpt>
      <trkpt lat="45.51916" lon="6.0452">
        <ele>1095.0788574</ele>
        <time>2012-05-26T08:25:51Z</time>
      </trkpt>
      <trkpt lat="45.51924" lon="6.04517">
        <ele>1090.2724609</ele>
        <time>2012-05-26T08:25:56Z</time>
      </trkpt>
      <trkpt lat="45.51926" lon="6.04517">
        <ele>1088.8305664</ele>
        <time>2012-05-26T08:25:57Z</time>
      </trkpt>
      <trkpt lat="45.51935" lon="6.04529">
        <ele>1084.5046387</ele>
        <time>2012-05-26T08:26:03Z</time>
      </trkpt>
      <trkpt lat="45.51937" lon="6.04535">
        <ele>1084.0239258</ele>
        <time>2012-05-26T08:26:05Z</time>
      </trkpt>
      <trkpt lat="45.51939" lon="6.04542">
        <ele>1083.5429688</ele>
        <time>2012-05-26T08:26:07Z</time>
      </trkpt>
      <trkpt lat="45.51949" lon="6.04551">
        <ele>1081.6203613</ele>
        <time>2012-05-26T08:26:12Z</time>
      </trkpt>
      <trkpt lat="45.51952" lon="6.04554">
        <ele>1080.6591797</ele>
        <time>2012-05-26T08:26:14Z</time>
      </trkpt>
      <trkpt lat="45.51955" lon="6.04558">
        <ele>1079.6977539</ele>
        <time>2012-05-26T08:26:16Z</time>
      </trkpt>
      <trkpt lat="45.51957" lon="6.0456">
        <ele>1077.2946777</ele>
        <time>2012-05-26T08:26:19Z</time>
      </trkpt>
      <trkpt lat="45.51958" lon="6.04556">
        <ele>1074.8913574</ele>
        <time>2012-05-26T08:26:21Z</time>
      </trkpt>
      <trkpt lat="45.51959" lon="6.04553">
        <ele>1074.4106445</ele>
        <time>2012-05-26T08:26:22Z</time>
      </trkpt>
      <trkpt lat="45.51962" lon="6.04552">
        <ele>1073.4494629</ele>
        <time>2012-05-26T08:26:23Z</time>
      </trkpt>
      <trkpt lat="45.51966" lon="6.0456">
        <ele>1067.6811523</ele>
        <time>2012-05-26T08:26:27Z</time>
      </trkpt>
      <trkpt lat="45.51966" lon="6.04566">
        <ele>1064.3166504</ele>
        <time>2012-05-26T08:26:30Z</time>
      </trkpt>
      <trkpt lat="45.5197" lon="6.04572">
        <ele>1064.7973633</ele>
        <time>2012-05-26T08:26:33Z</time>
      </trkpt>
      <trkpt lat="45.5197" lon="6.04573">
        <ele>1065.2780762</ele>
        <time>2012-05-26T08:26:35Z</time>
      </trkpt>
      <trkpt lat="45.51974" lon="6.04581">
        <ele>1068.1621094</ele>
        <time>2012-05-26T08:26:40Z</time>
      </trkpt>
      <trkpt lat="45.51976" lon="6.04586">
        <ele>1067.2006836</ele>
        <time>2012-05-26T08:26:42Z</time>
      </trkpt>
      <trkpt lat="45.51986" lon="6.04599">
        <ele>1071.0461426</ele>
        <time>2012-05-26T08:26:46Z</time>
      </trkpt>
      <trkpt lat="45.51992" lon="6.04607">
        <ele>1072.0073242</ele>
        <time>2012-05-26T08:26:48Z</time>
      </trkpt>
      <trkpt lat="45.52004" lon="6.04624">
        <ele>1070.5654297</ele>
        <time>2012-05-26T08:26:54Z</time>
      </trkpt>
      <trkpt lat="45.52007" lon="6.04638">
        <ele>1065.7587891</ele>
        <time>2012-05-26T08:26:58Z</time>
      </trkpt>
      <trkpt lat="45.5201" lon="6.0465">
        <ele>1061.9135742</ele>
        <time>2012-05-26T08:27:01Z</time>
      </trkpt>
      <trkpt lat="45.5201" lon="6.04653">
        <ele>1060.4714355</ele>
        <time>2012-05-26T08:27:02Z</time>
      </trkpt>
      <trkpt lat="45.52014" lon="6.04659">
        <ele>1058.0683594</ele>
        <time>2012-05-26T08:27:05Z</time>
      </trkpt>
      <trkpt lat="45.52024" lon="6.04674">
        <ele>1057.1069336</ele>
        <time>2012-05-26T08:27:10Z</time>
      </trkpt>
      <trkpt lat="45.52026" lon="6.04677">
        <ele>1055.6650391</ele>
        <time>2012-05-26T08:27:12Z</time>
      </trkpt>
      <trkpt lat="45.52035" lon="6.04694">
        <ele>1051.8195801</ele>
        <time>2012-05-26T08:27:17Z</time>
      </trkpt>
      <trkpt lat="45.5204" lon="6.04703">
        <ele>1048.454834</ele>
        <time>2012-05-26T08:27:20Z</time>
      </trkpt>
      <trkpt lat="45.52048" lon="6.04706">
        <ele>1046.0517578</ele>
        <time>2012-05-26T08:27:24Z</time>
      </trkpt>
      <trkpt lat="45.5205" lon="6.04707">
        <ele>1045.5710449</ele>
        <time>2012-05-26T08:27:25Z</time>
      </trkpt>
      <trkpt lat="45.52052" lon="6.04708">
        <ele>1044.1291504</ele>
        <time>2012-05-26T08:27:26Z</time>
      </trkpt>
      <trkpt lat="45.52055" lon="6.04719">
        <ele>1040.2839355</ele>
        <time>2012-05-26T08:27:30Z</time>
      </trkpt>
      <trkpt lat="45.52061" lon="6.04724">
        <ele>1041.2451172</ele>
        <time>2012-05-26T08:27:33Z</time>
      </trkpt>
      <trkpt lat="45.52066" lon="6.04727">
        <ele>1039.8032227</ele>
        <time>2012-05-26T08:27:36Z</time>
      </trkpt>
      <trkpt lat="45.52079" lon="6.04744">
        <ele>1025.8640137</ele>
        <time>2012-05-26T08:27:43Z</time>
      </trkpt>
      <trkpt lat="45.52082" lon="6.04749">
        <ele>1023.4609375</ele>
        <time>2012-05-26T08:27:45Z</time>
      </trkpt>
      <trkpt lat="45.52084" lon="6.04757">
        <ele>1020.5769043</ele>
        <time>2012-05-26T08:27:48Z</time>
      </trkpt>
      <trkpt lat="45.52085" lon="6.04758">
        <ele>1019.1347656</ele>
        <time>2012-05-26T08:27:49Z</time>
      </trkpt>
      <trkpt lat="45.52085" lon="6.04759">
        <ele>1018.6540527</ele>
        <time>2012-05-26T08:27:50Z</time>
      </trkpt>
      <trkpt lat="45.52089" lon="6.04769">
        <ele>1014.328125</ele>
        <time>2012-05-26T08:27:54Z</time>
      </trkpt>
      <trkpt lat="45.52094" lon="6.04773">
        <ele>1013.3669434</ele>
        <time>2012-05-26T08:27:56Z</time>
      </trkpt>
      <trkpt lat="45.52102" lon="6.0478">
        <ele>1010.4829102</ele>
        <time>2012-05-26T08:28:00Z</time>
      </trkpt>
      <trkpt lat="45.52117" lon="6.04781">
        <ele>1009.5217285</ele>
        <time>2012-05-26T08:28:05Z</time>
      </trkpt>
      <trkpt lat="45.52122" lon="6.04785">
        <ele>1008.079834</ele>
        <time>2012-05-26T08:28:07Z</time>
      </trkpt>
      <trkpt lat="45.52124" lon="6.04788">
        <ele>1004.7150879</ele>
        <time>2012-05-26T08:28:08Z</time>
      </trkpt>
      <trkpt lat="45.5213" lon="6.04799">
        <ele>997.9858398</ele>
        <time>2012-05-26T08:28:12Z</time>
      </trkpt>
      <trkpt lat="45.52133" lon="6.04807">
        <ele>997.505127</ele>
        <time>2012-05-26T08:28:14Z</time>
      </trkpt>
      <trkpt lat="45.52135" lon="6.04811">
        <ele>996.5439453</ele>
        <time>2012-05-26T08:28:15Z</time>
      </trkpt>
      <trkpt lat="45.52152" lon="6.04816">
        <ele>997.505127</ele>
        <time>2012-05-26T08:28:19Z</time>
      </trkpt>
      <trkpt lat="45.52156" lon="6.04817">
        <ele>997.0244141</ele>
        <time>2012-05-26T08:28:20Z</time>
      </trkpt>
      <trkpt lat="45.5216" lon="6.04818">
        <ele>996.0632324</ele>
        <time>2012-05-26T08:28:21Z</time>
      </trkpt>
      <trkpt lat="45.52174" lon="6.04818">
        <ele>997.505127</ele>
        <time>2012-05-26T08:28:24Z</time>
      </trkpt>
      <trkpt lat="45.52188" lon="6.04821">
        <ele>1001.3503418</ele>
        <time>2012-05-26T08:28:27Z</time>
      </trkpt>
      <trkpt lat="45.52195" lon="6.04821">
        <ele>1000.8696289</ele>
        <time>2012-05-26T08:28:29Z</time>
      </trkpt>
      <trkpt lat="45.52198" lon="6.04821">
        <ele>999.9084473</ele>
        <time>2012-05-26T08:28:30Z</time>
      </trkpt>
      <trkpt lat="45.52207" lon="6.04816">
        <ele>1002.7922363</ele>
        <time>2012-05-26T08:28:32Z</time>
      </trkpt>
      <trkpt lat="45.52215" lon="6.04818">
        <ele>997.9858398</ele>
        <time>2012-05-26T08:28:35Z</time>
      </trkpt>
      <trkpt lat="45.52218" lon="6.04818">
        <ele>998.4663086</ele>
        <time>2012-05-26T08:28:36Z</time>
      </trkpt>
      <trkpt lat="45.5222" lon="6.04822">
        <ele>997.0244141</ele>
        <time>2012-05-26T08:28:37Z</time>
      </trkpt>
      <trkpt lat="45.52221" lon="6.04829">
        <ele>993.1791992</ele>
        <time>2012-05-26T08:28:39Z</time>
      </trkpt>
      <trkpt lat="45.52221" lon="6.04836">
        <ele>992.6987305</ele>
        <time>2012-05-26T08:28:41Z</time>
      </trkpt>
      <trkpt lat="45.52223" lon="6.04845">
        <ele>990.7758789</ele>
        <time>2012-05-26T08:28:44Z</time>
      </trkpt>
      <trkpt lat="45.52224" lon="6.04849">
        <ele>990.7758789</ele>
        <time>2012-05-26T08:28:45Z</time>
      </trkpt>
      <trkpt lat="45.52225" lon="6.0486">
        <ele>989.8146973</ele>
        <time>2012-05-26T08:28:49Z</time>
      </trkpt>
      <trkpt lat="45.52228" lon="6.04869">
        <ele>991.7373047</ele>
        <time>2012-05-26T08:28:53Z</time>
      </trkpt>
      <trkpt lat="45.5223" lon="6.04882">
        <ele>993.6599121</ele>
        <time>2012-05-26T08:28:58Z</time>
      </trkpt>
      <trkpt lat="45.52232" lon="6.04888">
        <ele>994.6210938</ele>
        <time>2012-05-26T08:29:00Z</time>
      </trkpt>
      <trkpt lat="45.52234" lon="6.04896">
        <ele>995.5825195</ele>
        <time>2012-05-26T08:29:03Z</time>
      </trkpt>
      <trkpt lat="45.52233" lon="6.04898">
        <ele>994.140625</ele>
        <time>2012-05-26T08:29:04Z</time>
      </trkpt>
      <trkpt lat="45.52233" lon="6.04901">
        <ele>995.1018066</ele>
        <time>2012-05-26T08:29:05Z</time>
      </trkpt>
      <trkpt lat="45.52231" lon="6.04909">
        <ele>992.6987305</ele>
        <time>2012-05-26T08:29:09Z</time>
      </trkpt>
      <trkpt lat="45.52232" lon="6.04912">
        <ele>994.140625</ele>
        <time>2012-05-26T08:29:10Z</time>
      </trkpt>
      <trkpt lat="45.52235" lon="6.04924">
        <ele>997.0244141</ele>
        <time>2012-05-26T08:29:15Z</time>
      </trkpt>
      <trkpt lat="45.52241" lon="6.04938">
        <ele>1002.3115234</ele>
        <time>2012-05-26T08:29:23Z</time>
      </trkpt>
      <trkpt lat="45.52243" lon="6.04942">
        <ele>1003.2729492</ele>
        <time>2012-05-26T08:29:26Z</time>
      </trkpt>
      <trkpt lat="45.52245" lon="6.04956">
        <ele>1005.1958008</ele>
        <time>2012-05-26T08:29:34Z</time>
      </trkpt>
      <trkpt lat="45.52248" lon="6.04968">
        <ele>1007.1184082</ele>
        <time>2012-05-26T08:29:41Z</time>
      </trkpt>
      <trkpt lat="45.52252" lon="6.04984">
        <ele>1008.079834</ele>
        <time>2012-05-26T08:29:47Z</time>
      </trkpt>
      <trkpt lat="45.52257" lon="6.05006">
        <ele>1008.5603027</ele>
        <time>2012-05-26T08:29:53Z</time>
      </trkpt>
      <trkpt lat="45.52257" lon="6.0501">
        <ele>1008.5603027</ele>
        <time>2012-05-26T08:29:54Z</time>
      </trkpt>
      <trkpt lat="45.52257" lon="6.05014">
        <ele>1008.5603027</ele>
        <time>2012-05-26T08:29:55Z</time>
      </trkpt>
      <trkpt lat="45.52261" lon="6.05038">
        <ele>1006.6376953</ele>
        <time>2012-05-26T08:30:00Z</time>
      </trkpt>
      <trkpt lat="45.52266" lon="6.05066">
        <ele>1005.1958008</ele>
        <time>2012-05-26T08:30:06Z</time>
      </trkpt>
      <trkpt lat="45.52268" lon="6.05088">
        <ele>1003.2729492</ele>
        <time>2012-05-26T08:30:11Z</time>
      </trkpt>
      <trkpt lat="45.52271" lon="6.05111">
        <ele>1000.3891602</ele>
        <time>2012-05-26T08:30:16Z</time>
      </trkpt>
      <trkpt lat="45.52275" lon="6.0513">
        <ele>999.4277344</ele>
        <time>2012-05-26T08:30:20Z</time>
      </trkpt>
      <trkpt lat="45.52278" lon="6.05155">
        <ele>996.5439453</ele>
        <time>2012-05-26T08:30:25Z</time>
      </trkpt>
      <trkpt lat="45.52279" lon="6.0516">
        <ele>996.5439453</ele>
        <time>2012-05-26T08:30:26Z</time>
      </trkpt>
      <trkpt lat="45.52282" lon="6.05181">
        <ele>995.1018066</ele>
        <time>2012-05-26T08:30:31Z</time>
      </trkpt>
      <trkpt lat="45.52285" lon="6.05204">
        <ele>993.1791992</ele>
        <time>2012-05-26T08:30:36Z</time>
      </trkpt>
      <trkpt lat="45.5229" lon="6.0523">
        <ele>991.7373047</ele>
        <time>2012-05-26T08:30:41Z</time>
      </trkpt>
      <trkpt lat="45.5229" lon="6.0524">
        <ele>992.2180176</ele>
        <time>2012-05-26T08:30:43Z</time>
      </trkpt>
      <trkpt lat="45.5229" lon="6.05264">
        <ele>991.7373047</ele>
        <time>2012-05-26T08:30:48Z</time>
      </trkpt>
      <trkpt lat="45.52291" lon="6.05282">
        <ele>991.7373047</ele>
        <time>2012-05-26T08:30:52Z</time>
      </trkpt>
      <trkpt lat="45.52291" lon="6.05291">
        <ele>992.2180176</ele>
        <time>2012-05-26T08:30:54Z</time>
      </trkpt>
      <trkpt lat="45.52291" lon="6.05295">
        <ele>992.2180176</ele>
        <time>2012-05-26T08:30:55Z</time>
      </trkpt>
      <trkpt lat="45.52296" lon="6.05317">
        <ele>992.6987305</ele>
        <time>2012-05-26T08:31:00Z</time>
      </trkpt>
      <trkpt lat="45.52301" lon="6.05338">
        <ele>993.1791992</ele>
        <time>2012-05-26T08:31:05Z</time>
      </trkpt>
      <trkpt lat="45.52306" lon="6.05358">
        <ele>994.140625</ele>
        <time>2012-05-26T08:31:10Z</time>
      </trkpt>
      <trkpt lat="45.52309" lon="6.05378">
        <ele>997.0244141</ele>
        <time>2012-05-26T08:31:15Z</time>
      </trkpt>
      <trkpt lat="45.52308" lon="6.0539">
        <ele>998.9470215</ele>
        <time>2012-05-26T08:31:18Z</time>
      </trkpt>
      <trkpt lat="45.52308" lon="6.05395">
        <ele>999.4277344</ele>
        <time>2012-05-26T08:31:19Z</time>
      </trkpt>
      <trkpt lat="45.52309" lon="6.05407">
        <ele>1001.3503418</ele>
        <time>2012-05-26T08:31:22Z</time>
      </trkpt>
      <trkpt lat="45.52314" lon="6.05432">
        <ele>999.9084473</ele>
        <time>2012-05-26T08:31:28Z</time>
      </trkpt>
      <trkpt lat="45.52317" lon="6.05457">
        <ele>998.4663086</ele>
        <time>2012-05-26T08:31:33Z</time>
      </trkpt>
      <trkpt lat="45.5232" lon="6.05478">
        <ele>995.5825195</ele>
        <time>2012-05-26T08:31:37Z</time>
      </trkpt>
      <trkpt lat="45.52323" lon="6.05508">
        <ele>995.5825195</ele>
        <time>2012-05-26T08:31:43Z</time>
      </trkpt>
      <trkpt lat="45.52325" lon="6.05518">
        <ele>996.5439453</ele>
        <time>2012-05-26T08:31:45Z</time>
      </trkpt>
      <trkpt lat="45.52326" lon="6.05522">
        <ele>996.5439453</ele>
        <time>2012-05-26T08:31:46Z</time>
      </trkpt>
      <trkpt lat="45.52329" lon="6.05529">
        <ele>996.5439453</ele>
        <time>2012-05-26T08:31:48Z</time>
      </trkpt>
      <trkpt lat="45.52329" lon="6.05533">
        <ele>996.5439453</ele>
        <time>2012-05-26T08:31:49Z</time>
      </trkpt>
      <trkpt lat="45.52332" lon="6.05558">
        <ele>996.5439453</ele>
        <time>2012-05-26T08:31:54Z</time>
      </trkpt>
      <trkpt lat="45.52333" lon="6.05564">
        <ele>997.0244141</ele>
        <time>2012-05-26T08:31:55Z</time>
      </trkpt>
      <trkpt lat="45.52336" lon="6.05593">
        <ele>994.6210938</ele>
        <time>2012-05-26T08:32:01Z</time>
      </trkpt>
      <trkpt lat="45.52338" lon="6.05598">
        <ele>994.6210938</ele>
        <time>2012-05-26T08:32:02Z</time>
      </trkpt>
      <trkpt lat="45.5234" lon="6.05627">
        <ele>993.6599121</ele>
        <time>2012-05-26T08:32:08Z</time>
      </trkpt>
      <trkpt lat="45.52341" lon="6.05631">
        <ele>993.1791992</ele>
        <time>2012-05-26T08:32:09Z</time>
      </trkpt>
      <trkpt lat="45.5235" lon="6.05652">
        <ele>989.3339844</ele>
        <time>2012-05-26T08:32:13Z</time>
      </trkpt>
      <trkpt lat="45.52356" lon="6.05673">
        <ele>981.6433105</ele>
        <time>2012-05-26T08:32:18Z</time>
      </trkpt>
      <trkpt lat="45.52363" lon="6.05692">
        <ele>975.8754883</ele>
        <time>2012-05-26T08:32:23Z</time>
      </trkpt>
      <trkpt lat="45.52375" lon="6.05702">
        <ele>973.9528809</ele>
        <time>2012-05-26T08:32:27Z</time>
      </trkpt>
      <trkpt lat="45.52382" lon="6.05707">
        <ele>972.0302734</ele>
        <time>2012-05-26T08:32:29Z</time>
      </trkpt>
      <trkpt lat="45.52396" lon="6.05724">
        <ele>965.3010254</ele>
        <time>2012-05-26T08:32:35Z</time>
      </trkpt>
      <trkpt lat="45.52399" lon="6.05736">
        <ele>962.4169922</ele>
        <time>2012-05-26T08:32:38Z</time>
      </trkpt>
      <trkpt lat="45.52401" lon="6.05746">
        <ele>961.4558105</ele>
        <time>2012-05-26T08:32:40Z</time>
      </trkpt>
      <trkpt lat="45.52407" lon="6.0577">
        <ele>956.6491699</ele>
        <time>2012-05-26T08:32:45Z</time>
      </trkpt>
      <trkpt lat="45.52417" lon="6.05796">
        <ele>957.6105957</ele>
        <time>2012-05-26T08:32:50Z</time>
      </trkpt>
      <trkpt lat="45.52426" lon="6.05818">
        <ele>960.0136719</ele>
        <time>2012-05-26T08:32:55Z</time>
      </trkpt>
      <trkpt lat="45.52428" lon="6.0582">
        <ele>959.0524902</ele>
        <time>2012-05-26T08:32:56Z</time>
      </trkpt>
      <trkpt lat="45.52435" lon="6.05801">
        <ele>951.3618164</ele>
        <time>2012-05-26T08:33:00Z</time>
      </trkpt>
      <trkpt lat="45.52438" lon="6.05774">
        <ele>947.9973145</ele>
        <time>2012-05-26T08:33:05Z</time>
      </trkpt>
      <trkpt lat="45.52445" lon="6.05749">
        <ele>946.5554199</ele>
        <time>2012-05-26T08:33:10Z</time>
      </trkpt>
      <trkpt lat="45.52457" lon="6.05738">
        <ele>946.074707</ele>
        <time>2012-05-26T08:33:14Z</time>
      </trkpt>
      <trkpt lat="45.52461" lon="6.05737">
        <ele>946.074707</ele>
        <time>2012-05-26T08:33:15Z</time>
      </trkpt>
      <trkpt lat="45.52478" lon="6.05734">
        <ele>945.5939941</ele>
        <time>2012-05-26T08:33:20Z</time>
      </trkpt>
      <trkpt lat="45.52498" lon="6.05723">
        <ele>948.4777832</ele>
        <time>2012-05-26T08:33:26Z</time>
      </trkpt>
      <trkpt lat="45.52513" lon="6.05716">
        <ele>946.5554199</ele>
        <time>2012-05-26T08:33:31Z</time>
      </trkpt>
      <trkpt lat="45.52526" lon="6.05708">
        <ele>944.6325684</ele>
        <time>2012-05-26T08:33:36Z</time>
      </trkpt>
      <trkpt lat="45.52538" lon="6.05703">
        <ele>942.2294922</ele>
        <time>2012-05-26T08:33:40Z</time>
      </trkpt>
      <trkpt lat="45.52545" lon="6.057">
        <ele>943.6713867</ele>
        <time>2012-05-26T08:33:43Z</time>
      </trkpt>
      <trkpt lat="45.52548" lon="6.05698">
        <ele>944.1520996</ele>
        <time>2012-05-26T08:33:44Z</time>
      </trkpt>
      <trkpt lat="45.52551" lon="6.05698">
        <ele>945.1132813</ele>
        <time>2012-05-26T08:33:45Z</time>
      </trkpt>
      <trkpt lat="45.52554" lon="6.05696">
        <ele>945.5939941</ele>
        <time>2012-05-26T08:33:46Z</time>
      </trkpt>
      <trkpt lat="45.5257" lon="6.05688">
        <ele>945.1132813</ele>
        <time>2012-05-26T08:33:52Z</time>
      </trkpt>
      <trkpt lat="45.52587" lon="6.05679">
        <ele>942.2294922</ele>
        <time>2012-05-26T08:33:58Z</time>
      </trkpt>
      <trkpt lat="45.5259" lon="6.05677">
        <ele>942.7102051</ele>
        <time>2012-05-26T08:33:59Z</time>
      </trkpt>
      <trkpt lat="45.52593" lon="6.05675">
        <ele>942.2294922</ele>
        <time>2012-05-26T08:34:00Z</time>
      </trkpt>
      <trkpt lat="45.52597" lon="6.05674">
        <ele>940.7873535</ele>
        <time>2012-05-26T08:34:01Z</time>
      </trkpt>
      <trkpt lat="45.526" lon="6.05672">
        <ele>940.3068848</ele>
        <time>2012-05-26T08:34:02Z</time>
      </trkpt>
      <trkpt lat="45.52609" lon="6.0567">
        <ele>939.8259277</ele>
        <time>2012-05-26T08:34:05Z</time>
      </trkpt>
      <trkpt lat="45.52613" lon="6.05669">
        <ele>939.3452148</ele>
        <time>2012-05-26T08:34:06Z</time>
      </trkpt>
      <trkpt lat="45.52633" lon="6.05661">
        <ele>935.5</ele>
        <time>2012-05-26T08:34:12Z</time>
      </trkpt>
      <trkpt lat="45.52637" lon="6.05659">
        <ele>934.5388184</ele>
        <time>2012-05-26T08:34:13Z</time>
      </trkpt>
      <trkpt lat="45.52653" lon="6.05647">
        <ele>932.135498</ele>
        <time>2012-05-26T08:34:18Z</time>
      </trkpt>
      <trkpt lat="45.52663" lon="6.05635">
        <ele>930.6936035</ele>
        <time>2012-05-26T08:34:22Z</time>
      </trkpt>
      <trkpt lat="45.52677" lon="6.05619">
        <ele>927.8095703</ele>
        <time>2012-05-26T08:34:27Z</time>
      </trkpt>
      <trkpt lat="45.52686" lon="6.05606">
        <ele>923.4836426</ele>
        <time>2012-05-26T08:34:31Z</time>
      </trkpt>
      <trkpt lat="45.52692" lon="6.05599">
        <ele>921.0803223</ele>
        <time>2012-05-26T08:34:33Z</time>
      </trkpt>
      <trkpt lat="45.52695" lon="6.05596">
        <ele>920.5996094</ele>
        <time>2012-05-26T08:34:34Z</time>
      </trkpt>
      <trkpt lat="45.52698" lon="6.05594">
        <ele>919.6384277</ele>
        <time>2012-05-26T08:34:35Z</time>
      </trkpt>
      <trkpt lat="45.52706" lon="6.05585">
        <ele>922.5222168</ele>
        <time>2012-05-26T08:34:38Z</time>
      </trkpt>
      <trkpt lat="45.52708" lon="6.05582">
        <ele>923.9641113</ele>
        <time>2012-05-26T08:34:39Z</time>
      </trkpt>
      <trkpt lat="45.5272" lon="6.05572">
        <ele>923.9641113</ele>
        <time>2012-05-26T08:34:43Z</time>
      </trkpt>
      <trkpt lat="45.52735" lon="6.05558">
        <ele>921.560791</ele>
        <time>2012-05-26T08:34:48Z</time>
      </trkpt>
      <trkpt lat="45.52746" lon="6.05539">
        <ele>916.7543945</ele>
        <time>2012-05-26T08:34:53Z</time>
      </trkpt>
      <trkpt lat="45.52747" lon="6.05514">
        <ele>914.8317871</ele>
        <time>2012-05-26T08:34:58Z</time>
      </trkpt>
      <trkpt lat="45.52747" lon="6.05508">
        <ele>914.8317871</ele>
        <time>2012-05-26T08:34:59Z</time>
      </trkpt>
      <trkpt lat="45.52746" lon="6.05503">
        <ele>914.3510742</ele>
        <time>2012-05-26T08:35:00Z</time>
      </trkpt>
      <trkpt lat="45.52744" lon="6.05481">
        <ele>910.9865723</ele>
        <time>2012-05-26T08:35:04Z</time>
      </trkpt>
      <trkpt lat="45.52744" lon="6.05476">
        <ele>910.5058594</ele>
        <time>2012-05-26T08:35:05Z</time>
      </trkpt>
      <trkpt lat="45.52744" lon="6.05471">
        <ele>909.5446777</ele>
        <time>2012-05-26T08:35:06Z</time>
      </trkpt>
      <trkpt lat="45.52742" lon="6.05442">
        <ele>906.1796875</ele>
        <time>2012-05-26T08:35:12Z</time>
      </trkpt>
      <trkpt lat="45.52741" lon="6.05428">
        <ele>904.2573242</ele>
        <time>2012-05-26T08:35:15Z</time>
      </trkpt>
      <trkpt lat="45.52742" lon="6.05423">
        <ele>904.2573242</ele>
        <time>2012-05-26T08:35:16Z</time>
      </trkpt>
      <trkpt lat="45.52743" lon="6.05419">
        <ele>903.7766113</ele>
        <time>2012-05-26T08:35:17Z</time>
      </trkpt>
      <trkpt lat="45.52751" lon="6.05408">
        <ele>903.2958984</ele>
        <time>2012-05-26T08:35:20Z</time>
      </trkpt>
      <trkpt lat="45.52753" lon="6.05405">
        <ele>902.8151855</ele>
        <time>2012-05-26T08:35:21Z</time>
      </trkpt>
      <trkpt lat="45.52769" lon="6.05398">
        <ele>903.7766113</ele>
        <time>2012-05-26T08:35:26Z</time>
      </trkpt>
      <trkpt lat="45.52782" lon="6.05387">
        <ele>906.6604004</ele>
        <time>2012-05-26T08:35:31Z</time>
      </trkpt>
      <trkpt lat="45.52784" lon="6.05385">
        <ele>906.6604004</ele>
        <time>2012-05-26T08:35:32Z</time>
      </trkpt>
      <trkpt lat="45.52794" lon="6.05368">
        <ele>907.1411133</ele>
        <time>2012-05-26T08:35:37Z</time>
      </trkpt>
      <trkpt lat="45.52796" lon="6.05364">
        <ele>907.6218262</ele>
        <time>2012-05-26T08:35:38Z</time>
      </trkpt>
      <trkpt lat="45.52806" lon="6.05342">
        <ele>908.583252</ele>
        <time>2012-05-26T08:35:44Z</time>
      </trkpt>
      <trkpt lat="45.52811" lon="6.05332">
        <ele>908.583252</ele>
        <time>2012-05-26T08:35:47Z</time>
      </trkpt>
      <trkpt lat="45.52812" lon="6.05328">
        <ele>909.0639648</ele>
        <time>2012-05-26T08:35:48Z</time>
      </trkpt>
      <trkpt lat="45.52821" lon="6.05311">
        <ele>908.583252</ele>
        <time>2012-05-26T08:35:53Z</time>
      </trkpt>
      <trkpt lat="45.52828" lon="6.05301">
        <ele>907.6218262</ele>
        <time>2012-05-26T08:35:57Z</time>
      </trkpt>
      <trkpt lat="45.52837" lon="6.05294">
        <ele>907.1411133</ele>
        <time>2012-05-26T08:36:01Z</time>
      </trkpt>
      <trkpt lat="45.5285" lon="6.05285">
        <ele>907.6218262</ele>
        <time>2012-05-26T08:36:06Z</time>
      </trkpt>
      <trkpt lat="45.52861" lon="6.05273">
        <ele>907.1411133</ele>
        <time>2012-05-26T08:36:10Z</time>
      </trkpt>
      <trkpt lat="45.52868" lon="6.0526">
        <ele>905.6992188</ele>
        <time>2012-05-26T08:36:14Z</time>
      </trkpt>
      <trkpt lat="45.5288" lon="6.05247">
        <ele>902.8151855</ele>
        <time>2012-05-26T08:36:19Z</time>
      </trkpt>
      <trkpt lat="45.52893" lon="6.05231">
        <ele>898.0087891</ele>
        <time>2012-05-26T08:36:24Z</time>
      </trkpt>
      <trkpt lat="45.52903" lon="6.05211">
        <ele>893.2021484</ele>
        <time>2012-05-26T08:36:29Z</time>
      </trkpt>
      <trkpt lat="45.52915" lon="6.05188">
        <ele>888.8762207</ele>
        <time>2012-05-26T08:36:35Z</time>
      </trkpt>
      <trkpt lat="45.52925" lon="6.0517">
        <ele>885.9921875</ele>
        <time>2012-05-26T08:36:40Z</time>
      </trkpt>
      <trkpt lat="45.5293" lon="6.05162">
        <ele>885.0310059</ele>
        <time>2012-05-26T08:36:42Z</time>
      </trkpt>
      <trkpt lat="45.52934" lon="6.05159">
        <ele>884.550293</ele>
        <time>2012-05-26T08:36:43Z</time>
      </trkpt>
      <trkpt lat="45.5295" lon="6.05144">
        <ele>883.1081543</ele>
        <time>2012-05-26T08:36:48Z</time>
      </trkpt>
      <trkpt lat="45.5296" lon="6.05129">
        <ele>882.1469727</ele>
        <time>2012-05-26T08:36:52Z</time>
      </trkpt>
      <trkpt lat="45.52961" lon="6.05124">
        <ele>882.6276855</ele>
        <time>2012-05-26T08:36:53Z</time>
      </trkpt>
      <trkpt lat="45.52976" lon="6.05109">
        <ele>879.7436523</ele>
        <time>2012-05-26T08:36:58Z</time>
      </trkpt>
      <trkpt lat="45.5298" lon="6.05109">
        <ele>880.2243652</ele>
        <time>2012-05-26T08:36:59Z</time>
      </trkpt>
      <trkpt lat="45.52988" lon="6.0512">
        <ele>885.0310059</ele>
        <time>2012-05-26T08:37:03Z</time>
      </trkpt>
      <trkpt lat="45.52989" lon="6.05124">
        <ele>885.9921875</ele>
        <time>2012-05-26T08:37:04Z</time>
      </trkpt>
      <trkpt lat="45.52992" lon="6.05158">
        <ele>889.3566895</ele>
        <time>2012-05-26T08:37:11Z</time>
      </trkpt>
      <trkpt lat="45.52995" lon="6.05182">
        <ele>889.3566895</ele>
        <time>2012-05-26T08:37:16Z</time>
      </trkpt>
      <trkpt lat="45.52996" lon="6.05191">
        <ele>890.3181152</ele>
        <time>2012-05-26T08:37:18Z</time>
      </trkpt>
      <trkpt lat="45.52996" lon="6.05196">
        <ele>890.798584</ele>
        <time>2012-05-26T08:37:19Z</time>
      </trkpt>
      <trkpt lat="45.52997" lon="6.05219">
        <ele>890.3181152</ele>
        <time>2012-05-26T08:37:24Z</time>
      </trkpt>
      <trkpt lat="45.52999" lon="6.05233">
        <ele>889.8374023</ele>
        <time>2012-05-26T08:37:27Z</time>
      </trkpt>
      <trkpt lat="45.52999" lon="6.05238">
        <ele>889.3566895</ele>
        <time>2012-05-26T08:37:28Z</time>
      </trkpt>
      <trkpt lat="45.53003" lon="6.05265">
        <ele>889.3566895</ele>
        <time>2012-05-26T08:37:34Z</time>
      </trkpt>
      <trkpt lat="45.53009" lon="6.05287">
        <ele>888.3955078</ele>
        <time>2012-05-26T08:37:39Z</time>
      </trkpt>
      <trkpt lat="45.53011" lon="6.05291">
        <ele>887.9147949</ele>
        <time>2012-05-26T08:37:40Z</time>
      </trkpt>
      <trkpt lat="45.53022" lon="6.05311">
        <ele>888.3955078</ele>
        <time>2012-05-26T08:37:46Z</time>
      </trkpt>
      <trkpt lat="45.53024" lon="6.05313">
        <ele>887.9147949</ele>
        <time>2012-05-26T08:37:47Z</time>
      </trkpt>
      <trkpt lat="45.53035" lon="6.05312">
        <ele>886.4729004</ele>
        <time>2012-05-26T08:37:53Z</time>
      </trkpt>
      <trkpt lat="45.53048" lon="6.05309">
        <ele>885.5114746</ele>
        <time>2012-05-26T08:37:57Z</time>
      </trkpt>
      <trkpt lat="45.53058" lon="6.0531">
        <ele>884.550293</ele>
        <time>2012-05-26T08:38:00Z</time>
      </trkpt>
      <trkpt lat="45.53061" lon="6.05311">
        <ele>884.550293</ele>
        <time>2012-05-26T08:38:01Z</time>
      </trkpt>
      <trkpt lat="45.53065" lon="6.05313">
        <ele>884.0695801</ele>
        <time>2012-05-26T08:38:02Z</time>
      </trkpt>
      <trkpt lat="45.53084" lon="6.05322">
        <ele>882.6276855</ele>
        <time>2012-05-26T08:38:08Z</time>
      </trkpt>
      <trkpt lat="45.53102" lon="6.05328">
        <ele>881.6662598</ele>
        <time>2012-05-26T08:38:14Z</time>
      </trkpt>
      <trkpt lat="45.53113" lon="6.05332">
        <ele>882.1469727</ele>
        <time>2012-05-26T08:38:19Z</time>
      </trkpt>
      <trkpt lat="45.53129" lon="6.05339">
        <ele>884.0695801</ele>
        <time>2012-05-26T08:38:25Z</time>
      </trkpt>
      <trkpt lat="45.53144" lon="6.05349">
        <ele>885.5114746</ele>
        <time>2012-05-26T08:38:31Z</time>
      </trkpt>
      <trkpt lat="45.53154" lon="6.05357">
        <ele>885.9921875</ele>
        <time>2012-05-26T08:38:35Z</time>
      </trkpt>
      <trkpt lat="45.53157" lon="6.05358">
        <ele>886.4729004</ele>
        <time>2012-05-26T08:38:36Z</time>
      </trkpt>
      <trkpt lat="45.53167" lon="6.05365">
        <ele>887.434082</ele>
        <time>2012-05-26T08:38:40Z</time>
      </trkpt>
      <trkpt lat="45.53181" lon="6.05374">
        <ele>889.3566895</ele>
        <time>2012-05-26T08:38:45Z</time>
      </trkpt>
      <trkpt lat="45.53198" lon="6.05387">
        <ele>890.798584</ele>
        <time>2012-05-26T08:38:51Z</time>
      </trkpt>
      <trkpt lat="45.53221" lon="6.05405">
        <ele>891.7600098</ele>
        <time>2012-05-26T08:39:00Z</time>
      </trkpt>
      <trkpt lat="45.53237" lon="6.05421">
        <ele>890.798584</ele>
        <time>2012-05-26T08:39:06Z</time>
      </trkpt>
      <trkpt lat="45.53239" lon="6.05423">
        <ele>891.2792969</ele>
        <time>2012-05-26T08:39:07Z</time>
      </trkpt>
      <trkpt lat="45.5325" lon="6.05438">
        <ele>890.798584</ele>
        <time>2012-05-26T08:39:12Z</time>
      </trkpt>
      <trkpt lat="45.53261" lon="6.05456">
        <ele>888.3955078</ele>
        <time>2012-05-26T08:39:17Z</time>
      </trkpt>
      <trkpt lat="45.53263" lon="6.0546">
        <ele>887.9147949</ele>
        <time>2012-05-26T08:39:18Z</time>
      </trkpt>
      <trkpt lat="45.53274" lon="6.05482">
        <ele>886.4729004</ele>
        <time>2012-05-26T08:39:24Z</time>
      </trkpt>
      <trkpt lat="45.5328" lon="6.05487">
        <ele>885.0310059</ele>
        <time>2012-05-26T08:39:26Z</time>
      </trkpt>
      <trkpt lat="45.53287" lon="6.05488">
        <ele>884.0695801</ele>
        <time>2012-05-26T08:39:28Z</time>
      </trkpt>
      <trkpt lat="45.53291" lon="6.05488">
        <ele>883.5888672</ele>
        <time>2012-05-26T08:39:29Z</time>
      </trkpt>
      <trkpt lat="45.53305" lon="6.05486">
        <ele>887.434082</ele>
        <time>2012-05-26T08:39:34Z</time>
      </trkpt>
      <trkpt lat="45.53308" lon="6.05486">
        <ele>887.9147949</ele>
        <time>2012-05-26T08:39:35Z</time>
      </trkpt>
      <trkpt lat="45.53322" lon="6.05502">
        <ele>885.9921875</ele>
        <time>2012-05-26T08:39:40Z</time>
      </trkpt>
      <trkpt lat="45.53326" lon="6.0551">
        <ele>884.0695801</ele>
        <time>2012-05-26T08:39:42Z</time>
      </trkpt>
      <trkpt lat="45.53327" lon="6.05514">
        <ele>883.1081543</ele>
        <time>2012-05-26T08:39:43Z</time>
      </trkpt>
      <trkpt lat="45.53326" lon="6.05527">
        <ele>880.7050781</ele>
        <time>2012-05-26T08:39:47Z</time>
      </trkpt>
      <trkpt lat="45.53324" lon="6.05547">
        <ele>880.7050781</ele>
        <time>2012-05-26T08:39:52Z</time>
      </trkpt>
      <trkpt lat="45.53326" lon="6.05555">
        <ele>881.6662598</ele>
        <time>2012-05-26T08:39:54Z</time>
      </trkpt>
      <trkpt lat="45.53328" lon="6.0556">
        <ele>880.2243652</ele>
        <time>2012-05-26T08:39:56Z</time>
      </trkpt>
      <trkpt lat="45.53327" lon="6.05571">
        <ele>880.2243652</ele>
        <time>2012-05-26T08:40:01Z</time>
      </trkpt>
      <trkpt lat="45.53326" lon="6.05573">
        <ele>880.7050781</ele>
        <time>2012-05-26T08:40:02Z</time>
      </trkpt>
      <trkpt lat="45.53321" lon="6.0558">
        <ele>886.4729004</ele>
        <time>2012-05-26T08:40:06Z</time>
      </trkpt>
      <trkpt lat="45.53316" lon="6.05584">
        <ele>887.434082</ele>
        <time>2012-05-26T08:40:09Z</time>
      </trkpt>
      <trkpt lat="45.53315" lon="6.05589">
        <ele>886.4729004</ele>
        <time>2012-05-26T08:40:15Z</time>
      </trkpt>
      <trkpt lat="45.53313" lon="6.05591">
        <ele>889.3566895</ele>
        <time>2012-05-26T08:40:19Z</time>
      </trkpt>
      <trkpt lat="45.53312" lon="6.0559">
        <ele>889.3566895</ele>
        <time>2012-05-26T08:40:20Z</time>
      </trkpt>
      <trkpt lat="45.53309" lon="6.05587">
        <ele>889.8374023</ele>
        <time>2012-05-26T08:40:22Z</time>
      </trkpt>
      <trkpt lat="45.53302" lon="6.05578">
        <ele>887.434082</ele>
        <time>2012-05-26T08:40:26Z</time>
      </trkpt>
      <trkpt lat="45.53296" lon="6.05574">
        <ele>885.5114746</ele>
        <time>2012-05-26T08:40:29Z</time>
      </trkpt>
      <trkpt lat="45.53291" lon="6.05576">
        <ele>886.4729004</ele>
        <time>2012-05-26T08:40:31Z</time>
      </trkpt>
      <trkpt lat="45.53276" lon="6.05584">
        <ele>890.798584</ele>
        <time>2012-05-26T08:40:37Z</time>
      </trkpt>
      <trkpt lat="45.53261" lon="6.05598">
        <ele>890.798584</ele>
        <time>2012-05-26T08:40:43Z</time>
      </trkpt>
      <trkpt lat="45.53245" lon="6.05613">
        <ele>889.3566895</ele>
        <time>2012-05-26T08:40:50Z</time>
      </trkpt>
      <trkpt lat="45.5323" lon="6.05623">
        <ele>886.9533691</ele>
        <time>2012-05-26T08:40:56Z</time>
      </trkpt>
      <trkpt lat="45.53215" lon="6.05632">
        <ele>885.9921875</ele>
        <time>2012-05-26T08:41:01Z</time>
      </trkpt>
      <trkpt lat="45.53198" lon="6.05641">
        <ele>884.550293</ele>
        <time>2012-05-26T08:41:07Z</time>
      </trkpt>
      <trkpt lat="45.53187" lon="6.05647">
        <ele>884.0695801</ele>
        <time>2012-05-26T08:41:11Z</time>
      </trkpt>
      <trkpt lat="45.53184" lon="6.05648">
        <ele>884.0695801</ele>
        <time>2012-05-26T08:41:12Z</time>
      </trkpt>
      <trkpt lat="45.5317" lon="6.05657">
        <ele>883.5888672</ele>
        <time>2012-05-26T08:41:17Z</time>
      </trkpt>
      <trkpt lat="45.53152" lon="6.0567">
        <ele>882.6276855</ele>
        <time>2012-05-26T08:41:24Z</time>
      </trkpt>
      <trkpt lat="45.53137" lon="6.05683">
        <ele>880.2243652</ele>
        <time>2012-05-26T08:41:30Z</time>
      </trkpt>
      <trkpt lat="45.53121" lon="6.05699">
        <ele>878.7824707</ele>
        <time>2012-05-26T08:41:37Z</time>
      </trkpt>
      <trkpt lat="45.53102" lon="6.0572">
        <ele>877.8210449</ele>
        <time>2012-05-26T08:41:45Z</time>
      </trkpt>
      <trkpt lat="45.5309" lon="6.05733">
        <ele>875.4174805</ele>
        <time>2012-05-26T08:41:51Z</time>
      </trkpt>
      <trkpt lat="45.53079" lon="6.05746">
        <ele>874.4562988</ele>
        <time>2012-05-26T08:41:56Z</time>
      </trkpt>
      <trkpt lat="45.53066" lon="6.05761">
        <ele>873.9755859</ele>
        <time>2012-05-26T08:42:02Z</time>
      </trkpt>
      <trkpt lat="45.53057" lon="6.05779">
        <ele>873.0144043</ele>
        <time>2012-05-26T08:42:08Z</time>
      </trkpt>
      <trkpt lat="45.5305" lon="6.05795">
        <ele>873.0144043</ele>
        <time>2012-05-26T08:42:13Z</time>
      </trkpt>
      <trkpt lat="45.5304" lon="6.0582">
        <ele>873.0144043</ele>
        <time>2012-05-26T08:42:20Z</time>
      </trkpt>
      <trkpt lat="45.53027" lon="6.05847">
        <ele>873.4951172</ele>
        <time>2012-05-26T08:42:28Z</time>
      </trkpt>
      <trkpt lat="45.53019" lon="6.05864">
        <ele>874.4562988</ele>
        <time>2012-05-26T08:42:33Z</time>
      </trkpt>
      <trkpt lat="45.53012" lon="6.0588">
        <ele>875.4174805</ele>
        <time>2012-05-26T08:42:38Z</time>
      </trkpt>
      <trkpt lat="45.53004" lon="6.05898">
        <ele>874.9370117</ele>
        <time>2012-05-26T08:42:44Z</time>
      </trkpt>
      <trkpt lat="45.53001" lon="6.05907">
        <ele>874.9370117</ele>
        <time>2012-05-26T08:42:47Z</time>
      </trkpt>
      <trkpt lat="45.52999" lon="6.0591">
        <ele>874.4562988</ele>
        <time>2012-05-26T08:42:48Z</time>
      </trkpt>
      <trkpt lat="45.52995" lon="6.05922">
        <ele>874.9370117</ele>
        <time>2012-05-26T08:42:52Z</time>
      </trkpt>
      <trkpt lat="45.52986" lon="6.05944">
        <ele>875.8981934</ele>
        <time>2012-05-26T08:42:59Z</time>
      </trkpt>
      <trkpt lat="45.52976" lon="6.05962">
        <ele>876.8598633</ele>
        <time>2012-05-26T08:43:05Z</time>
      </trkpt>
      <trkpt lat="45.52969" lon="6.05977">
        <ele>876.8598633</ele>
        <time>2012-05-26T08:43:10Z</time>
      </trkpt>
      <trkpt lat="45.52958" lon="6.05996">
        <ele>877.8210449</ele>
        <time>2012-05-26T08:43:17Z</time>
      </trkpt>
      <trkpt lat="45.52952" lon="6.06008">
        <ele>877.8210449</ele>
        <time>2012-05-26T08:43:22Z</time>
      </trkpt>
      <trkpt lat="45.52945" lon="6.06021">
        <ele>879.2629395</ele>
        <time>2012-05-26T08:43:27Z</time>
      </trkpt>
      <trkpt lat="45.5294" lon="6.06032">
        <ele>880.2243652</ele>
        <time>2012-05-26T08:43:31Z</time>
      </trkpt>
      <trkpt lat="45.52935" lon="6.06041">
        <ele>881.6662598</ele>
        <time>2012-05-26T08:43:35Z</time>
      </trkpt>
      <trkpt lat="45.52925" lon="6.06056">
        <ele>884.0695801</ele>
        <time>2012-05-26T08:43:41Z</time>
      </trkpt>
      <trkpt lat="45.52915" lon="6.06066">
        <ele>883.5888672</ele>
        <time>2012-05-26T08:43:46Z</time>
      </trkpt>
      <trkpt lat="45.52903" lon="6.06078">
        <ele>883.5888672</ele>
        <time>2012-05-26T08:43:53Z</time>
      </trkpt>
      <trkpt lat="45.52893" lon="6.06088">
        <ele>884.550293</ele>
        <time>2012-05-26T08:43:58Z</time>
      </trkpt>
      <trkpt lat="45.52884" lon="6.06097">
        <ele>885.5114746</ele>
        <time>2012-05-26T08:44:03Z</time>
      </trkpt>
      <trkpt lat="45.52874" lon="6.06105">
        <ele>886.9533691</ele>
        <time>2012-05-26T08:44:08Z</time>
      </trkpt>
      <trkpt lat="45.52863" lon="6.06114">
        <ele>887.434082</ele>
        <time>2012-05-26T08:44:14Z</time>
      </trkpt>
      <trkpt lat="45.52851" lon="6.06127">
        <ele>887.9147949</ele>
        <time>2012-05-26T08:44:20Z</time>
      </trkpt>
      <trkpt lat="45.52838" lon="6.06141">
        <ele>887.9147949</ele>
        <time>2012-05-26T08:44:26Z</time>
      </trkpt>
      <trkpt lat="45.52825" lon="6.06152">
        <ele>886.4729004</ele>
        <time>2012-05-26T08:44:32Z</time>
      </trkpt>
      <trkpt lat="45.52814" lon="6.06165">
        <ele>886.4729004</ele>
        <time>2012-05-26T08:44:38Z</time>
      </trkpt>
      <trkpt lat="45.5281" lon="6.06175">
        <ele>885.9921875</ele>
        <time>2012-05-26T08:44:43Z</time>
      </trkpt>
      <trkpt lat="45.52809" lon="6.06188">
        <ele>883.5888672</ele>
        <time>2012-05-26T08:44:51Z</time>
      </trkpt>
      <trkpt lat="45.5281" lon="6.06197">
        <ele>881.185791</ele>
        <time>2012-05-26T08:44:56Z</time>
      </trkpt>
      <trkpt lat="45.52811" lon="6.06201">
        <ele>882.1469727</ele>
        <time>2012-05-26T08:44:58Z</time>
      </trkpt>
      <trkpt lat="45.5281" lon="6.06213">
        <ele>887.9147949</ele>
        <time>2012-05-26T08:45:06Z</time>
      </trkpt>
      <trkpt lat="45.52808" lon="6.06213">
        <ele>889.3566895</ele>
        <time>2012-05-26T08:45:08Z</time>
      </trkpt>
      <trkpt lat="45.52807" lon="6.06213">
        <ele>890.3181152</ele>
        <time>2012-05-26T08:45:10Z</time>
      </trkpt>
      <trkpt lat="45.52806" lon="6.06213">
        <ele>890.798584</ele>
        <time>2012-05-26T08:45:11Z</time>
      </trkpt>
      <trkpt lat="45.52801" lon="6.06217">
        <ele>895.1247559</ele>
        <time>2012-05-26T08:45:17Z</time>
      </trkpt>
      <trkpt lat="45.52794" lon="6.0622">
        <ele>895.6054688</ele>
        <time>2012-05-26T08:45:23Z</time>
      </trkpt>
      <trkpt lat="45.52787" lon="6.06224">
        <ele>897.5280762</ele>
        <time>2012-05-26T08:45:28Z</time>
      </trkpt>
      <trkpt lat="45.52781" lon="6.06226">
        <ele>895.6054688</ele>
        <time>2012-05-26T08:45:35Z</time>
      </trkpt>
      <trkpt lat="45.52778" lon="6.06227">
        <ele>896.5668945</ele>
        <time>2012-05-26T08:45:38Z</time>
      </trkpt>
      <trkpt lat="45.52773" lon="6.06229">
        <ele>896.0861816</ele>
        <time>2012-05-26T08:45:47Z</time>
      </trkpt>
      <trkpt lat="45.52771" lon="6.0623">
        <ele>894.644043</ele>
        <time>2012-05-26T08:45:50Z</time>
      </trkpt>
      <trkpt lat="45.52771" lon="6.06232">
        <ele>896.0861816</ele>
        <time>2012-05-26T08:45:56Z</time>
      </trkpt>
      <trkpt lat="45.52776" lon="6.06235">
        <ele>896.0861816</ele>
        <time>2012-05-26T08:46:00Z</time>
      </trkpt>
      <trkpt lat="45.52777" lon="6.06234">
        <ele>900.8925781</ele>
        <time>2012-05-26T08:46:04Z</time>
      </trkpt>
      <trkpt lat="45.5278" lon="6.06235">
        <ele>904.2573242</ele>
        <time>2012-05-26T08:46:09Z</time>
      </trkpt>
      <trkpt lat="45.52781" lon="6.06236">
        <ele>905.2185059</ele>
        <time>2012-05-26T08:46:10Z</time>
      </trkpt>
      <trkpt lat="45.52784" lon="6.06238">
        <ele>906.6604004</ele>
        <time>2012-05-26T08:46:14Z</time>
      </trkpt>
      <trkpt lat="45.52784" lon="6.06239">
        <ele>905.6992188</ele>
        <time>2012-05-26T08:46:15Z</time>
      </trkpt>
      <trkpt lat="45.52787" lon="6.06246">
        <ele>907.1411133</ele>
        <time>2012-05-26T08:46:20Z</time>
      </trkpt>
      <trkpt lat="45.52789" lon="6.06251">
        <ele>906.6604004</ele>
        <time>2012-05-26T08:46:25Z</time>
      </trkpt>
      <trkpt lat="45.5279" lon="6.06253">
        <ele>905.2185059</ele>
        <time>2012-05-26T08:46:26Z</time>
      </trkpt>
      <trkpt lat="45.52791" lon="6.06257">
        <ele>903.7766113</ele>
        <time>2012-05-26T08:46:30Z</time>
      </trkpt>
      <trkpt lat="45.52792" lon="6.06266">
        <ele>905.6992188</ele>
        <time>2012-05-26T08:46:37Z</time>
      </trkpt>
      <trkpt lat="45.52792" lon="6.06272">
        <ele>908.1027832</ele>
        <time>2012-05-26T08:46:44Z</time>
      </trkpt>
      <trkpt lat="45.52792" lon="6.06274">
        <ele>907.6218262</ele>
        <time>2012-05-26T08:46:45Z</time>
      </trkpt>
      <trkpt lat="45.52793" lon="6.06281">
        <ele>910.9865723</ele>
        <time>2012-05-26T08:46:52Z</time>
      </trkpt>
      <trkpt lat="45.52793" lon="6.06283">
        <ele>910.0251465</ele>
        <time>2012-05-26T08:46:53Z</time>
      </trkpt>
      <trkpt lat="45.52793" lon="6.06288">
        <ele>910.5058594</ele>
        <time>2012-05-26T08:46:57Z</time>
      </trkpt>
      <trkpt lat="45.52793" lon="6.06291">
        <ele>910.0251465</ele>
        <time>2012-05-26T08:46:59Z</time>
      </trkpt>
      <trkpt lat="45.52793" lon="6.06295">
        <ele>907.6218262</ele>
        <time>2012-05-26T08:47:03Z</time>
      </trkpt>
      <trkpt lat="45.52793" lon="6.06304">
        <ele>910.9865723</ele>
        <time>2012-05-26T08:47:10Z</time>
      </trkpt>
      <trkpt lat="45.52794" lon="6.06305">
        <ele>912.9091797</ele>
        <time>2012-05-26T08:47:11Z</time>
      </trkpt>
      <trkpt lat="45.52797" lon="6.06309">
        <ele>916.7543945</ele>
        <time>2012-05-26T08:47:17Z</time>
      </trkpt>
      <trkpt lat="45.52798" lon="6.0631">
        <ele>918.1962891</ele>
        <time>2012-05-26T08:47:19Z</time>
      </trkpt>
      <trkpt lat="45.528" lon="6.06314">
        <ele>921.0803223</ele>
        <time>2012-05-26T08:47:23Z</time>
      </trkpt>
      <trkpt lat="45.528" lon="6.06316">
        <ele>924.4450684</ele>
        <time>2012-05-26T08:47:26Z</time>
      </trkpt>
      <trkpt lat="45.52802" lon="6.06317">
        <ele>926.3676758</ele>
        <time>2012-05-26T08:47:29Z</time>
      </trkpt>
      <trkpt lat="45.52808" lon="6.06319">
        <ele>923.9641113</ele>
        <time>2012-05-26T08:47:33Z</time>
      </trkpt>
      <trkpt lat="45.52814" lon="6.06322">
        <ele>923.9641113</ele>
        <time>2012-05-26T08:47:38Z</time>
      </trkpt>
      <trkpt lat="45.52819" lon="6.06326">
        <ele>923.0029297</ele>
        <time>2012-05-26T08:47:43Z</time>
      </trkpt>
      <trkpt lat="45.52823" lon="6.06329">
        <ele>924.4450684</ele>
        <time>2012-05-26T08:47:48Z</time>
      </trkpt>
      <trkpt lat="45.52824" lon="6.06332">
        <ele>923.0029297</ele>
        <time>2012-05-26T08:47:50Z</time>
      </trkpt>
      <trkpt lat="45.52828" lon="6.06339">
        <ele>923.0029297</ele>
        <time>2012-05-26T08:47:56Z</time>
      </trkpt>
      <trkpt lat="45.52828" lon="6.06342">
        <ele>922.5222168</ele>
        <time>2012-05-26T08:47:58Z</time>
      </trkpt>
      <trkpt lat="45.52829" lon="6.06344">
        <ele>922.0415039</ele>
        <time>2012-05-26T08:48:00Z</time>
      </trkpt>
      <trkpt lat="45.5283" lon="6.06346">
        <ele>921.560791</ele>
        <time>2012-05-26T08:48:02Z</time>
      </trkpt>
      <trkpt lat="45.52832" lon="6.06351">
        <ele>920.5996094</ele>
        <time>2012-05-26T08:48:07Z</time>
      </trkpt>
      <trkpt lat="45.52834" lon="6.06358">
        <ele>925.40625</ele>
        <time>2012-05-26T08:48:14Z</time>
      </trkpt>
      <trkpt lat="45.52836" lon="6.06367">
        <ele>929.2514648</ele>
        <time>2012-05-26T08:48:21Z</time>
      </trkpt>
      <trkpt lat="45.52835" lon="6.06369">
        <ele>929.2514648</ele>
        <time>2012-05-26T08:48:22Z</time>
      </trkpt>
      <trkpt lat="45.52835" lon="6.06371">
        <ele>932.135498</ele>
        <time>2012-05-26T08:48:24Z</time>
      </trkpt>
      <trkpt lat="45.52836" lon="6.06372">
        <ele>931.1743164</ele>
        <time>2012-05-26T08:48:25Z</time>
      </trkpt>
      <trkpt lat="45.52837" lon="6.06373">
        <ele>932.6162109</ele>
        <time>2012-05-26T08:48:26Z</time>
      </trkpt>
      <trkpt lat="45.5284" lon="6.06376">
        <ele>932.135498</ele>
        <time>2012-05-26T08:48:30Z</time>
      </trkpt>
      <trkpt lat="45.52842" lon="6.06378">
        <ele>932.135498</ele>
        <time>2012-05-26T08:48:32Z</time>
      </trkpt>
      <trkpt lat="45.52846" lon="6.06379">
        <ele>931.6547852</ele>
        <time>2012-05-26T08:48:34Z</time>
      </trkpt>
      <trkpt lat="45.52847" lon="6.0638">
        <ele>931.6547852</ele>
        <time>2012-05-26T08:48:35Z</time>
      </trkpt>
      <trkpt lat="45.52851" lon="6.06382">
        <ele>931.1743164</ele>
        <time>2012-05-26T08:48:38Z</time>
      </trkpt>
      <trkpt lat="45.52855" lon="6.06391">
        <ele>935.0195313</ele>
        <time>2012-05-26T08:48:44Z</time>
      </trkpt>
      <trkpt lat="45.5286" lon="6.06397">
        <ele>939.3452148</ele>
        <time>2012-05-26T08:48:49Z</time>
      </trkpt>
      <trkpt lat="45.52862" lon="6.064">
        <ele>940.7873535</ele>
        <time>2012-05-26T08:48:52Z</time>
      </trkpt>
      <trkpt lat="45.52863" lon="6.06402">
        <ele>941.2680664</ele>
        <time>2012-05-26T08:48:54Z</time>
      </trkpt>
      <trkpt lat="45.52868" lon="6.06406">
        <ele>944.1520996</ele>
        <time>2012-05-26T08:49:00Z</time>
      </trkpt>
      <trkpt lat="45.52873" lon="6.0641">
        <ele>946.074707</ele>
        <time>2012-05-26T08:49:07Z</time>
      </trkpt>
      <trkpt lat="45.52875" lon="6.06412">
        <ele>946.074707</ele>
        <time>2012-05-26T08:49:09Z</time>
      </trkpt>
      <trkpt lat="45.5288" lon="6.06415">
        <ele>942.7102051</ele>
        <time>2012-05-26T08:49:13Z</time>
      </trkpt>
      <trkpt lat="45.52883" lon="6.06422">
        <ele>941.2680664</ele>
        <time>2012-05-26T08:49:19Z</time>
      </trkpt>
      <trkpt lat="45.52885" lon="6.06427">
        <ele>938.8647461</ele>
        <time>2012-05-26T08:49:24Z</time>
      </trkpt>
      <trkpt lat="45.52888" lon="6.0643">
        <ele>938.8647461</ele>
        <time>2012-05-26T08:49:27Z</time>
      </trkpt>
      <trkpt lat="45.52894" lon="6.06434">
        <ele>940.3068848</ele>
        <time>2012-05-26T08:49:34Z</time>
      </trkpt>
      <trkpt lat="45.529" lon="6.06434">
        <ele>943.6713867</ele>
        <time>2012-05-26T08:49:39Z</time>
      </trkpt>
      <trkpt lat="45.52907" lon="6.06437">
        <ele>950.8811035</ele>
        <time>2012-05-26T08:49:49Z</time>
      </trkpt>
      <trkpt lat="45.52908" lon="6.0644">
        <ele>952.8037109</ele>
        <time>2012-05-26T08:49:52Z</time>
      </trkpt>
      <trkpt lat="45.5291" lon="6.06438">
        <ele>953.2844238</ele>
        <time>2012-05-26T08:49:58Z</time>
      </trkpt>
      <trkpt lat="45.52911" lon="6.06438">
        <ele>952.8037109</ele>
        <time>2012-05-26T08:49:59Z</time>
      </trkpt>
      <trkpt lat="45.52915" lon="6.0644">
        <ele>954.2458496</ele>
        <time>2012-05-26T08:50:04Z</time>
      </trkpt>
      <trkpt lat="45.5292" lon="6.06444">
        <ele>952.8037109</ele>
        <time>2012-05-26T08:50:12Z</time>
      </trkpt>
      <trkpt lat="45.52923" lon="6.06449">
        <ele>952.322998</ele>
        <time>2012-05-26T08:50:19Z</time>
      </trkpt>
      <trkpt lat="45.52925" lon="6.06453">
        <ele>950.8811035</ele>
        <time>2012-05-26T08:50:25Z</time>
      </trkpt>
      <trkpt lat="45.52927" lon="6.06456">
        <ele>951.3618164</ele>
        <time>2012-05-26T08:50:31Z</time>
      </trkpt>
      <trkpt lat="45.52927" lon="6.06457">
        <ele>951.8425293</ele>
        <time>2012-05-26T08:50:32Z</time>
      </trkpt>
      <trkpt lat="45.5293" lon="6.06458">
        <ele>953.2844238</ele>
        <time>2012-05-26T08:50:35Z</time>
      </trkpt>
      <trkpt lat="45.52931" lon="6.0646">
        <ele>953.7651367</ele>
        <time>2012-05-26T08:50:37Z</time>
      </trkpt>
      <trkpt lat="45.52933" lon="6.06464">
        <ele>953.7651367</ele>
        <time>2012-05-26T08:50:43Z</time>
      </trkpt>
      <trkpt lat="45.52933" lon="6.06471">
        <ele>952.8037109</ele>
        <time>2012-05-26T08:50:51Z</time>
      </trkpt>
      <trkpt lat="45.52935" lon="6.06477">
        <ele>960.0136719</ele>
        <time>2012-05-26T08:50:57Z</time>
      </trkpt>
      <trkpt lat="45.52934" lon="6.06481">
        <ele>960.4943848</ele>
        <time>2012-05-26T08:51:00Z</time>
      </trkpt>
      <trkpt lat="45.52933" lon="6.06487">
        <ele>963.378418</ele>
        <time>2012-05-26T08:51:05Z</time>
      </trkpt>
      <trkpt lat="45.52931" lon="6.06493">
        <ele>966.262207</ele>
        <time>2012-05-26T08:51:08Z</time>
      </trkpt>
      <trkpt lat="45.52927" lon="6.06502">
        <ele>972.5109863</ele>
        <time>2012-05-26T08:51:16Z</time>
      </trkpt>
      <trkpt lat="45.52923" lon="6.06508">
        <ele>975.3947754</ele>
        <time>2012-05-26T08:51:24Z</time>
      </trkpt>
      <trkpt lat="45.52921" lon="6.06511">
        <ele>974.4335938</ele>
        <time>2012-05-26T08:51:29Z</time>
      </trkpt>
      <trkpt lat="45.52921" lon="6.06514">
        <ele>975.8754883</ele>
        <time>2012-05-26T08:51:32Z</time>
      </trkpt>
      <trkpt lat="45.52915" lon="6.06521">
        <ele>972.9916992</ele>
        <time>2012-05-26T08:51:39Z</time>
      </trkpt>
      <trkpt lat="45.5291" lon="6.06525">
        <ele>973.9528809</ele>
        <time>2012-05-26T08:51:43Z</time>
      </trkpt>
      <trkpt lat="45.52907" lon="6.0653">
        <ele>976.3562012</ele>
        <time>2012-05-26T08:51:50Z</time>
      </trkpt>
      <trkpt lat="45.52907" lon="6.06531">
        <ele>977.317627</ele>
        <time>2012-05-26T08:51:51Z</time>
      </trkpt>
      <trkpt lat="45.52908" lon="6.06542">
        <ele>977.7980957</ele>
        <time>2012-05-26T08:51:59Z</time>
      </trkpt>
      <trkpt lat="45.52908" lon="6.06543">
        <ele>978.2788086</ele>
        <time>2012-05-26T08:52:00Z</time>
      </trkpt>
      <trkpt lat="45.52908" lon="6.06549">
        <ele>979.7207031</ele>
        <time>2012-05-26T08:52:04Z</time>
      </trkpt>
      <trkpt lat="45.52907" lon="6.06555">
        <ele>982.6047363</ele>
        <time>2012-05-26T08:52:08Z</time>
      </trkpt>
      <trkpt lat="45.52907" lon="6.06557">
        <ele>982.1240234</ele>
        <time>2012-05-26T08:52:10Z</time>
      </trkpt>
      <trkpt lat="45.52907" lon="6.06558">
        <ele>982.1240234</ele>
        <time>2012-05-26T08:52:11Z</time>
      </trkpt>
      <trkpt lat="45.5291" lon="6.06563">
        <ele>983.0852051</ele>
        <time>2012-05-26T08:52:17Z</time>
      </trkpt>
      <trkpt lat="45.52911" lon="6.06564">
        <ele>982.6047363</ele>
        <time>2012-05-26T08:52:18Z</time>
      </trkpt>
      <trkpt lat="45.52912" lon="6.06569">
        <ele>981.6433105</ele>
        <time>2012-05-26T08:52:24Z</time>
      </trkpt>
      <trkpt lat="45.52912" lon="6.06577">
        <ele>984.5273438</ele>
        <time>2012-05-26T08:52:30Z</time>
      </trkpt>
      <trkpt lat="45.52912" lon="6.06578">
        <ele>985.4885254</ele>
        <time>2012-05-26T08:52:31Z</time>
      </trkpt>
      <trkpt lat="45.52916" lon="6.06585">
        <ele>988.3728027</ele>
        <time>2012-05-26T08:52:38Z</time>
      </trkpt>
      <trkpt lat="45.52918" lon="6.06587">
        <ele>989.3339844</ele>
        <time>2012-05-26T08:52:40Z</time>
      </trkpt>
      <trkpt lat="45.52919" lon="6.06589">
        <ele>990.7758789</ele>
        <time>2012-05-26T08:52:42Z</time>
      </trkpt>
      <trkpt lat="45.5292" lon="6.06594">
        <ele>993.1791992</ele>
        <time>2012-05-26T08:52:47Z</time>
      </trkpt>
      <trkpt lat="45.52921" lon="6.06596">
        <ele>993.1791992</ele>
        <time>2012-05-26T08:52:49Z</time>
      </trkpt>
      <trkpt lat="45.52921" lon="6.06598">
        <ele>992.2180176</ele>
        <time>2012-05-26T08:52:51Z</time>
      </trkpt>
      <trkpt lat="45.52925" lon="6.06602">
        <ele>989.3339844</ele>
        <time>2012-05-26T08:52:59Z</time>
      </trkpt>
      <trkpt lat="45.5293" lon="6.06608">
        <ele>986.9304199</ele>
        <time>2012-05-26T08:53:05Z</time>
      </trkpt>
      <trkpt lat="45.52935" lon="6.06609">
        <ele>988.3728027</ele>
        <time>2012-05-26T08:53:10Z</time>
      </trkpt>
      <trkpt lat="45.52941" lon="6.06614">
        <ele>992.2180176</ele>
        <time>2012-05-26T08:53:17Z</time>
      </trkpt>
      <trkpt lat="45.52946" lon="6.06617">
        <ele>994.6210938</ele>
        <time>2012-05-26T08:53:22Z</time>
      </trkpt>
      <trkpt lat="45.52948" lon="6.06619">
        <ele>996.5439453</ele>
        <time>2012-05-26T08:53:26Z</time>
      </trkpt>
      <trkpt lat="45.52952" lon="6.06622">
        <ele>999.9084473</ele>
        <time>2012-05-26T08:53:31Z</time>
      </trkpt>
      <trkpt lat="45.52953" lon="6.06625">
        <ele>998.9470215</ele>
        <time>2012-05-26T08:53:35Z</time>
      </trkpt>
      <trkpt lat="45.52964" lon="6.06629">
        <ele>1000.3891602</ele>
        <time>2012-05-26T08:53:44Z</time>
      </trkpt>
      <trkpt lat="45.52968" lon="6.06636">
        <ele>997.505127</ele>
        <time>2012-05-26T08:53:49Z</time>
      </trkpt>
      <trkpt lat="45.52969" lon="6.06637">
        <ele>997.505127</ele>
        <time>2012-05-26T08:53:50Z</time>
      </trkpt>
      <trkpt lat="45.52971" lon="6.0664">
        <ele>997.0244141</ele>
        <time>2012-05-26T08:53:54Z</time>
      </trkpt>
      <trkpt lat="45.5298" lon="6.06643">
        <ele>999.9084473</ele>
        <time>2012-05-26T08:54:03Z</time>
      </trkpt>
      <trkpt lat="45.52984" lon="6.06644">
        <ele>998.9470215</ele>
        <time>2012-05-26T08:54:06Z</time>
      </trkpt>
      <trkpt lat="45.52987" lon="6.06645">
        <ele>998.9470215</ele>
        <time>2012-05-26T08:54:08Z</time>
      </trkpt>
      <trkpt lat="45.52989" lon="6.06648">
        <ele>1009.5217285</ele>
        <time>2012-05-26T08:54:15Z</time>
      </trkpt>
      <trkpt lat="45.52993" lon="6.06652">
        <ele>1010.4829102</ele>
        <time>2012-05-26T08:54:21Z</time>
      </trkpt>
      <trkpt lat="45.52998" lon="6.06654">
        <ele>1012.4055176</ele>
        <time>2012-05-26T08:54:27Z</time>
      </trkpt>
      <trkpt lat="45.53003" lon="6.06657">
        <ele>1013.3669434</ele>
        <time>2012-05-26T08:54:32Z</time>
      </trkpt>
      <trkpt lat="45.53009" lon="6.06665">
        <ele>1010.963623</ele>
        <time>2012-05-26T08:54:38Z</time>
      </trkpt>
      <trkpt lat="45.53013" lon="6.06668">
        <ele>1011.4443359</ele>
        <time>2012-05-26T08:54:40Z</time>
      </trkpt>
      <trkpt lat="45.53019" lon="6.06679">
        <ele>1010.4829102</ele>
        <time>2012-05-26T08:54:46Z</time>
      </trkpt>
      <trkpt lat="45.53026" lon="6.06687">
        <ele>1009.0410156</ele>
        <time>2012-05-26T08:54:53Z</time>
      </trkpt>
      <trkpt lat="45.53026" lon="6.06688">
        <ele>1009.5217285</ele>
        <time>2012-05-26T08:54:54Z</time>
      </trkpt>
      <trkpt lat="45.53028" lon="6.06694">
        <ele>1009.0410156</ele>
        <time>2012-05-26T08:54:58Z</time>
      </trkpt>
      <trkpt lat="45.5303" lon="6.06701">
        <ele>1009.0410156</ele>
        <time>2012-05-26T08:55:02Z</time>
      </trkpt>
      <trkpt lat="45.5303" lon="6.06704">
        <ele>1009.0410156</ele>
        <time>2012-05-26T08:55:04Z</time>
      </trkpt>
      <trkpt lat="45.53031" lon="6.06712">
        <ele>1005.6765137</ele>
        <time>2012-05-26T08:55:09Z</time>
      </trkpt>
      <trkpt lat="45.53032" lon="6.06713">
        <ele>1005.6765137</ele>
        <time>2012-05-26T08:55:10Z</time>
      </trkpt>
      <trkpt lat="45.53033" lon="6.06723">
        <ele>1008.079834</ele>
        <time>2012-05-26T08:55:16Z</time>
      </trkpt>
      <trkpt lat="45.53034" lon="6.06726">
        <ele>1009.5217285</ele>
        <time>2012-05-26T08:55:17Z</time>
      </trkpt>
      <trkpt lat="45.53038" lon="6.06732">
        <ele>1009.5217285</ele>
        <time>2012-05-26T08:55:20Z</time>
      </trkpt>
      <trkpt lat="45.53045" lon="6.06745">
        <ele>1017.2121582</ele>
        <time>2012-05-26T08:55:26Z</time>
      </trkpt>
      <trkpt lat="45.53047" lon="6.06747">
        <ele>1018.1733398</ele>
        <time>2012-05-26T08:55:28Z</time>
      </trkpt>
      <trkpt lat="45.5305" lon="6.06753">
        <ele>1017.2121582</ele>
        <time>2012-05-26T08:55:32Z</time>
      </trkpt>
      <trkpt lat="45.53052" lon="6.06756">
        <ele>1018.6540527</ele>
        <time>2012-05-26T08:55:34Z</time>
      </trkpt>
      <trkpt lat="45.53062" lon="6.06764">
        <ele>1022.4995117</ele>
        <time>2012-05-26T08:55:41Z</time>
      </trkpt>
      <trkpt lat="45.53069" lon="6.06768">
        <ele>1025.8640137</ele>
        <time>2012-05-26T08:55:44Z</time>
      </trkpt>
      <trkpt lat="45.53079" lon="6.06774">
        <ele>1027.3061523</ele>
        <time>2012-05-26T08:55:50Z</time>
      </trkpt>
      <trkpt lat="45.53085" lon="6.06779">
        <ele>1027.7866211</ele>
        <time>2012-05-26T08:55:56Z</time>
      </trkpt>
      <trkpt lat="45.53092" lon="6.06783">
        <ele>1026.3447266</ele>
        <time>2012-05-26T08:56:01Z</time>
      </trkpt>
      <trkpt lat="45.53097" lon="6.06786">
        <ele>1024.4221191</ele>
        <time>2012-05-26T08:56:06Z</time>
      </trkpt>
      <trkpt lat="45.53099" lon="6.06789">
        <ele>1024.4221191</ele>
        <time>2012-05-26T08:56:09Z</time>
      </trkpt>
      <trkpt lat="45.53104" lon="6.06793">
        <ele>1026.8254395</ele>
        <time>2012-05-26T08:56:14Z</time>
      </trkpt>
      <trkpt lat="45.53106" lon="6.06795">
        <ele>1027.3061523</ele>
        <time>2012-05-26T08:56:17Z</time>
      </trkpt>
      <trkpt lat="45.5311" lon="6.06796">
        <ele>1028.7480469</ele>
        <time>2012-05-26T08:56:20Z</time>
      </trkpt>
      <trkpt lat="45.53114" lon="6.06796">
        <ele>1028.7480469</ele>
        <time>2012-05-26T08:56:25Z</time>
      </trkpt>
      <trkpt lat="45.53119" lon="6.06799">
        <ele>1027.3061523</ele>
        <time>2012-05-26T08:56:29Z</time>
      </trkpt>
      <trkpt lat="45.5312" lon="6.06802">
        <ele>1026.3447266</ele>
        <time>2012-05-26T08:56:32Z</time>
      </trkpt>
      <trkpt lat="45.53127" lon="6.06805">
        <ele>1026.3447266</ele>
        <time>2012-05-26T08:56:38Z</time>
      </trkpt>
      <trkpt lat="45.53129" lon="6.06805">
        <ele>1026.8254395</ele>
        <time>2012-05-26T08:56:39Z</time>
      </trkpt>
      <trkpt lat="45.53134" lon="6.06807">
        <ele>1028.7480469</ele>
        <time>2012-05-26T08:56:43Z</time>
      </trkpt>
      <trkpt lat="45.53137" lon="6.06807">
        <ele>1029.7092285</ele>
        <time>2012-05-26T08:56:45Z</time>
      </trkpt>
      <trkpt lat="45.53139" lon="6.06807">
        <ele>1033.0737305</ele>
        <time>2012-05-26T08:56:50Z</time>
      </trkpt>
      <trkpt lat="45.53145" lon="6.06806">
        <ele>1036.4387207</ele>
        <time>2012-05-26T08:56:55Z</time>
      </trkpt>
      <trkpt lat="45.53152" lon="6.06801">
        <ele>1034.5158691</ele>
        <time>2012-05-26T08:57:02Z</time>
      </trkpt>
      <trkpt lat="45.53153" lon="6.06797">
        <ele>1034.5158691</ele>
        <time>2012-05-26T08:57:05Z</time>
      </trkpt>
      <trkpt lat="45.53155" lon="6.06794">
        <ele>1035.4770508</ele>
        <time>2012-05-26T08:57:08Z</time>
      </trkpt>
      <trkpt lat="45.53158" lon="6.0679">
        <ele>1035.4770508</ele>
        <time>2012-05-26T08:57:13Z</time>
      </trkpt>
      <trkpt lat="45.53166" lon="6.06788">
        <ele>1034.0351563</ele>
        <time>2012-05-26T08:57:21Z</time>
      </trkpt>
      <trkpt lat="45.53172" lon="6.06785">
        <ele>1034.5158691</ele>
        <time>2012-05-26T08:57:28Z</time>
      </trkpt>
      <trkpt lat="45.53174" lon="6.06782">
        <ele>1041.7258301</ele>
        <time>2012-05-26T08:57:36Z</time>
      </trkpt>
      <trkpt lat="45.53173" lon="6.06781">
        <ele>1042.206543</ele>
        <time>2012-05-26T08:57:37Z</time>
      </trkpt>
      <trkpt lat="45.53169" lon="6.06782">
        <ele>1044.1291504</ele>
        <time>2012-05-26T08:57:42Z</time>
      </trkpt>
      <trkpt lat="45.53162" lon="6.0678">
        <ele>1046.0517578</ele>
        <time>2012-05-26T08:57:48Z</time>
      </trkpt>
      <trkpt lat="45.53161" lon="6.06778">
        <ele>1047.0129395</ele>
        <time>2012-05-26T08:57:49Z</time>
      </trkpt>
      <trkpt lat="45.53157" lon="6.06769">
        <ele>1047.4936523</ele>
        <time>2012-05-26T08:57:54Z</time>
      </trkpt>
      <trkpt lat="45.53154" lon="6.06761">
        <ele>1047.9743652</ele>
        <time>2012-05-26T08:57:59Z</time>
      </trkpt>
      <trkpt lat="45.53149" lon="6.06745">
        <ele>1050.3776855</ele>
        <time>2012-05-26T08:58:06Z</time>
      </trkpt>
      <trkpt lat="45.53146" lon="6.06721">
        <ele>1054.2231445</ele>
        <time>2012-05-26T08:58:13Z</time>
      </trkpt>
      <trkpt lat="45.53147" lon="6.06714">
        <ele>1054.2231445</ele>
        <time>2012-05-26T08:58:15Z</time>
      </trkpt>
      <trkpt lat="45.53147" lon="6.0671">
        <ele>1054.2231445</ele>
        <time>2012-05-26T08:58:16Z</time>
      </trkpt>
      <trkpt lat="45.53149" lon="6.06692">
        <ele>1055.1843262</ele>
        <time>2012-05-26T08:58:21Z</time>
      </trkpt>
      <trkpt lat="45.53153" lon="6.06673">
        <ele>1055.6650391</ele>
        <time>2012-05-26T08:58:26Z</time>
      </trkpt>
      <trkpt lat="45.53156" lon="6.06654">
        <ele>1055.6650391</ele>
        <time>2012-05-26T08:58:31Z</time>
      </trkpt>
      <trkpt lat="45.53162" lon="6.06635">
        <ele>1053.2617188</ele>
        <time>2012-05-26T08:58:37Z</time>
      </trkpt>
      <trkpt lat="45.53169" lon="6.06615">
        <ele>1051.3388672</ele>
        <time>2012-05-26T08:58:43Z</time>
      </trkpt>
      <trkpt lat="45.53178" lon="6.06597">
        <ele>1048.454834</ele>
        <time>2012-05-26T08:58:49Z</time>
      </trkpt>
      <trkpt lat="45.53182" lon="6.06588">
        <ele>1046.5324707</ele>
        <time>2012-05-26T08:58:52Z</time>
      </trkpt>
      <trkpt lat="45.53184" lon="6.06586">
        <ele>1045.090332</ele>
        <time>2012-05-26T08:58:53Z</time>
      </trkpt>
      <trkpt lat="45.5319" lon="6.06573">
        <ele>1042.206543</ele>
        <time>2012-05-26T08:58:58Z</time>
      </trkpt>
      <trkpt lat="45.53198" lon="6.06557">
        <ele>1038.842041</ele>
        <time>2012-05-26T08:59:03Z</time>
      </trkpt>
      <trkpt lat="45.53205" lon="6.06542">
        <ele>1034.5158691</ele>
        <time>2012-05-26T08:59:08Z</time>
      </trkpt>
      <trkpt lat="45.53214" lon="6.06517">
        <ele>1035.4770508</ele>
        <time>2012-05-26T08:59:15Z</time>
      </trkpt>
      <trkpt lat="45.53217" lon="6.06491">
        <ele>1041.7258301</ele>
        <time>2012-05-26T08:59:21Z</time>
      </trkpt>
      <trkpt lat="45.53223" lon="6.06471">
        <ele>1041.2451172</ele>
        <time>2012-05-26T08:59:27Z</time>
      </trkpt>
      <trkpt lat="45.53232" lon="6.06453">
        <ele>1041.2451172</ele>
        <time>2012-05-26T08:59:34Z</time>
      </trkpt>
      <trkpt lat="45.5324" lon="6.06433">
        <ele>1046.0517578</ele>
        <time>2012-05-26T08:59:40Z</time>
      </trkpt>
      <trkpt lat="45.53244" lon="6.06421">
        <ele>1045.090332</ele>
        <time>2012-05-26T08:59:44Z</time>
      </trkpt>
      <trkpt lat="45.53244" lon="6.06418">
        <ele>1045.5710449</ele>
        <time>2012-05-26T08:59:45Z</time>
      </trkpt>
      <trkpt lat="45.53239" lon="6.06397">
        <ele>1048.9355469</ele>
        <time>2012-05-26T08:59:50Z</time>
      </trkpt>
      <trkpt lat="45.53234" lon="6.06375">
        <ele>1049.4162598</ele>
        <time>2012-05-26T08:59:56Z</time>
      </trkpt>
      <trkpt lat="45.53228" lon="6.06356">
        <ele>1049.4162598</ele>
        <time>2012-05-26T09:00:01Z</time>
      </trkpt>
      <trkpt lat="45.53227" lon="6.06352">
        <ele>1049.4162598</ele>
        <time>2012-05-26T09:00:02Z</time>
      </trkpt>
      <trkpt lat="45.53226" lon="6.06348">
        <ele>1049.8969727</ele>
        <time>2012-05-26T09:00:03Z</time>
      </trkpt>
      <trkpt lat="45.53225" lon="6.06325">
        <ele>1047.0129395</ele>
        <time>2012-05-26T09:00:08Z</time>
      </trkpt>
      <trkpt lat="45.53222" lon="6.06309">
        <ele>1044.6096191</ele>
        <time>2012-05-26T09:00:11Z</time>
      </trkpt>
      <trkpt lat="45.53221" lon="6.06303">
        <ele>1044.1291504</ele>
        <time>2012-05-26T09:00:12Z</time>
      </trkpt>
      <trkpt lat="45.53221" lon="6.06298">
        <ele>1043.6484375</ele>
        <time>2012-05-26T09:00:13Z</time>
      </trkpt>
      <trkpt lat="45.53216" lon="6.06267">
        <ele>1040.7644043</ele>
        <time>2012-05-26T09:00:19Z</time>
      </trkpt>
      <trkpt lat="45.53215" lon="6.06262">
        <ele>1040.2839355</ele>
        <time>2012-05-26T09:00:20Z</time>
      </trkpt>
      <trkpt lat="45.53216" lon="6.06257">
        <ele>1039.3225098</ele>
        <time>2012-05-26T09:00:21Z</time>
      </trkpt>
      <trkpt lat="45.53216" lon="6.06253">
        <ele>1038.842041</ele>
        <time>2012-05-26T09:00:22Z</time>
      </trkpt>
      <trkpt lat="45.53216" lon="6.06248">
        <ele>1038.3613281</ele>
        <time>2012-05-26T09:00:23Z</time>
      </trkpt>
      <trkpt lat="45.53217" lon="6.06221">
        <ele>1035.4770508</ele>
        <time>2012-05-26T09:00:29Z</time>
      </trkpt>
      <trkpt lat="45.53216" lon="6.06217">
        <ele>1034.996582</ele>
        <time>2012-05-26T09:00:30Z</time>
      </trkpt>
      <trkpt lat="45.53218" lon="6.06195">
        <ele>1032.1125488</ele>
        <time>2012-05-26T09:00:35Z</time>
      </trkpt>
      <trkpt lat="45.53224" lon="6.06173">
        <ele>1032.5932617</ele>
        <time>2012-05-26T09:00:40Z</time>
      </trkpt>
      <trkpt lat="45.53233" lon="6.0616">
        <ele>1032.1125488</ele>
        <time>2012-05-26T09:00:44Z</time>
      </trkpt>
      <trkpt lat="45.53245" lon="6.06141">
        <ele>1032.5932617</ele>
        <time>2012-05-26T09:00:50Z</time>
      </trkpt>
      <trkpt lat="45.5325" lon="6.06129">
        <ele>1035.9577637</ele>
        <time>2012-05-26T09:00:53Z</time>
      </trkpt>
      <trkpt lat="45.53263" lon="6.06118">
        <ele>1037.8806152</ele>
        <time>2012-05-26T09:00:58Z</time>
      </trkpt>
      <trkpt lat="45.53283" lon="6.06121">
        <ele>1034.996582</ele>
        <time>2012-05-26T09:01:04Z</time>
      </trkpt>
      <trkpt lat="45.53293" lon="6.0613">
        <ele>1032.5932617</ele>
        <time>2012-05-26T09:01:07Z</time>
      </trkpt>
      <trkpt lat="45.53296" lon="6.06133">
        <ele>1032.1125488</ele>
        <time>2012-05-26T09:01:08Z</time>
      </trkpt>
      <trkpt lat="45.53307" lon="6.06151">
        <ele>1030.6706543</ele>
        <time>2012-05-26T09:01:13Z</time>
      </trkpt>
      <trkpt lat="45.53311" lon="6.06158">
        <ele>1029.7092285</ele>
        <time>2012-05-26T09:01:15Z</time>
      </trkpt>
      <trkpt lat="45.53313" lon="6.06162">
        <ele>1029.2285156</ele>
        <time>2012-05-26T09:01:16Z</time>
      </trkpt>
      <trkpt lat="45.53314" lon="6.06166">
        <ele>1028.267334</ele>
        <time>2012-05-26T09:01:17Z</time>
      </trkpt>
      <trkpt lat="45.53323" lon="6.06181">
        <ele>1026.8254395</ele>
        <time>2012-05-26T09:01:22Z</time>
      </trkpt>
      <trkpt lat="45.53333" lon="6.06198">
        <ele>1025.8640137</ele>
        <time>2012-05-26T09:01:27Z</time>
      </trkpt>
      <trkpt lat="45.53343" lon="6.06213">
        <ele>1022.4995117</ele>
        <time>2012-05-26T09:01:31Z</time>
      </trkpt>
      <trkpt lat="45.53346" lon="6.06216">
        <ele>1022.4995117</ele>
        <time>2012-05-26T09:01:32Z</time>
      </trkpt>
      <trkpt lat="45.53364" lon="6.06224">
        <ele>1022.9802246</ele>
        <time>2012-05-26T09:01:37Z</time>
      </trkpt>
      <trkpt lat="45.53372" lon="6.06226">
        <ele>1022.0187988</ele>
        <time>2012-05-26T09:01:39Z</time>
      </trkpt>
      <trkpt lat="45.53375" lon="6.06229">
        <ele>1022.0187988</ele>
        <time>2012-05-26T09:01:40Z</time>
      </trkpt>
      <trkpt lat="45.53386" lon="6.06247">
        <ele>1022.0187988</ele>
        <time>2012-05-26T09:01:45Z</time>
      </trkpt>
      <trkpt lat="45.53393" lon="6.06265">
        <ele>1020.5769043</ele>
        <time>2012-05-26T09:01:49Z</time>
      </trkpt>
      <trkpt lat="45.53396" lon="6.06274">
        <ele>1019.6154785</ele>
        <time>2012-05-26T09:01:51Z</time>
      </trkpt>
      <trkpt lat="45.53399" lon="6.06281">
        <ele>1019.6154785</ele>
        <time>2012-05-26T09:01:53Z</time>
      </trkpt>
      <trkpt lat="45.53403" lon="6.06287">
        <ele>1020.0961914</ele>
        <time>2012-05-26T09:01:55Z</time>
      </trkpt>
      <trkpt lat="45.5341" lon="6.06301">
        <ele>1022.4995117</ele>
        <time>2012-05-26T09:01:59Z</time>
      </trkpt>
      <trkpt lat="45.53412" lon="6.06306">
        <ele>1025.3833008</ele>
        <time>2012-05-26T09:02:00Z</time>
      </trkpt>
      <trkpt lat="45.53415" lon="6.06312">
        <ele>1027.7866211</ele>
        <time>2012-05-26T09:02:02Z</time>
      </trkpt>
      <trkpt lat="45.53416" lon="6.06316">
        <ele>1024.902832</ele>
        <time>2012-05-26T09:02:03Z</time>
      </trkpt>
      <trkpt lat="45.53424" lon="6.06326">
        <ele>1023.9414063</ele>
        <time>2012-05-26T09:02:07Z</time>
      </trkpt>
      <trkpt lat="45.5343" lon="6.06337">
        <ele>1020.5769043</ele>
        <time>2012-05-26T09:02:10Z</time>
      </trkpt>
      <trkpt lat="45.53437" lon="6.06343">
        <ele>1019.6154785</ele>
        <time>2012-05-26T09:02:12Z</time>
      </trkpt>
      <trkpt lat="45.53445" lon="6.06346">
        <ele>1019.1347656</ele>
        <time>2012-05-26T09:02:15Z</time>
      </trkpt>
      <trkpt lat="45.53447" lon="6.06346">
        <ele>1018.1733398</ele>
        <time>2012-05-26T09:02:16Z</time>
      </trkpt>
      <trkpt lat="45.5345" lon="6.06347">
        <ele>1018.1733398</ele>
        <time>2012-05-26T09:02:17Z</time>
      </trkpt>
      <trkpt lat="45.53468" lon="6.0635">
        <ele>1020.5769043</ele>
        <time>2012-05-26T09:02:23Z</time>
      </trkpt>
      <trkpt lat="45.5348" lon="6.06355">
        <ele>1020.0961914</ele>
        <time>2012-05-26T09:02:27Z</time>
      </trkpt>
      <trkpt lat="45.53497" lon="6.06362">
        <ele>1019.6154785</ele>
        <time>2012-05-26T09:02:33Z</time>
      </trkpt>
      <trkpt lat="45.5351" lon="6.06363">
        <ele>1016.2507324</ele>
        <time>2012-05-26T09:02:38Z</time>
      </trkpt>
      <trkpt lat="45.53513" lon="6.06358">
        <ele>1012.8862305</ele>
        <time>2012-05-26T09:02:40Z</time>
      </trkpt>
      <trkpt lat="45.53516" lon="6.0635">
        <ele>1011.4443359</ele>
        <time>2012-05-26T09:02:42Z</time>
      </trkpt>
      <trkpt lat="45.53523" lon="6.06325">
        <ele>1007.5991211</ele>
        <time>2012-05-26T09:02:48Z</time>
      </trkpt>
      <trkpt lat="45.53526" lon="6.06322">
        <ele>1007.1184082</ele>
        <time>2012-05-26T09:02:49Z</time>
      </trkpt>
      <trkpt lat="45.53535" lon="6.06309">
        <ele>1004.7150879</ele>
        <time>2012-05-26T09:02:53Z</time>
      </trkpt>
      <trkpt lat="45.53546" lon="6.06304">
        <ele>1000.3891602</ele>
        <time>2012-05-26T09:02:56Z</time>
      </trkpt>
      <trkpt lat="45.5356" lon="6.06304">
        <ele>996.0632324</ele>
        <time>2012-05-26T09:03:00Z</time>
      </trkpt>
      <trkpt lat="45.53563" lon="6.06306">
        <ele>995.1018066</ele>
        <time>2012-05-26T09:03:01Z</time>
      </trkpt>
      <trkpt lat="45.53575" lon="6.06318">
        <ele>991.7373047</ele>
        <time>2012-05-26T09:03:05Z</time>
      </trkpt>
      <trkpt lat="45.53577" lon="6.0632">
        <ele>990.7758789</ele>
        <time>2012-05-26T09:03:06Z</time>
      </trkpt>
      <trkpt lat="45.5359" lon="6.06335">
        <ele>988.3728027</ele>
        <time>2012-05-26T09:03:11Z</time>
      </trkpt>
      <trkpt lat="45.536" lon="6.06342">
        <ele>986.9304199</ele>
        <time>2012-05-26T09:03:15Z</time>
      </trkpt>
      <trkpt lat="45.53606" lon="6.06343">
        <ele>987.4111328</ele>
        <time>2012-05-26T09:03:17Z</time>
      </trkpt>
      <trkpt lat="45.53609" lon="6.06344">
        <ele>987.8918457</ele>
        <time>2012-05-26T09:03:18Z</time>
      </trkpt>
      <trkpt lat="45.53623" lon="6.06348">
        <ele>987.8918457</ele>
        <time>2012-05-26T09:03:22Z</time>
      </trkpt>
      <trkpt lat="45.53632" lon="6.06356">
        <ele>986.9304199</ele>
        <time>2012-05-26T09:03:26Z</time>
      </trkpt>
      <trkpt lat="45.53639" lon="6.06364">
        <ele>985.9692383</ele>
        <time>2012-05-26T09:03:29Z</time>
      </trkpt>
      <trkpt lat="45.53645" lon="6.06372">
        <ele>987.4111328</ele>
        <time>2012-05-26T09:03:32Z</time>
      </trkpt>
      <trkpt lat="45.53659" lon="6.06386">
        <ele>985.0080566</ele>
        <time>2012-05-26T09:03:38Z</time>
      </trkpt>
      <trkpt lat="45.53668" lon="6.06401">
        <ele>983.565918</ele>
        <time>2012-05-26T09:03:43Z</time>
      </trkpt>
      <trkpt lat="45.53669" lon="6.06404">
        <ele>982.6047363</ele>
        <time>2012-05-26T09:03:44Z</time>
      </trkpt>
      <trkpt lat="45.53684" lon="6.06419">
        <ele>979.7207031</ele>
        <time>2012-05-26T09:03:49Z</time>
      </trkpt>
      <trkpt lat="45.53686" lon="6.06422">
        <ele>979.2399902</ele>
        <time>2012-05-26T09:03:50Z</time>
      </trkpt>
      <trkpt lat="45.53699" lon="6.0644">
        <ele>976.8369141</ele>
        <time>2012-05-26T09:03:56Z</time>
      </trkpt>
      <trkpt lat="45.53702" lon="6.06446">
        <ele>976.8369141</ele>
        <time>2012-05-26T09:03:58Z</time>
      </trkpt>
      <trkpt lat="45.53707" lon="6.06452">
        <ele>976.3562012</ele>
        <time>2012-05-26T09:04:00Z</time>
      </trkpt>
      <trkpt lat="45.53718" lon="6.06464">
        <ele>975.3947754</ele>
        <time>2012-05-26T09:04:05Z</time>
      </trkpt>
      <trkpt lat="45.53726" lon="6.06477">
        <ele>976.3562012</ele>
        <time>2012-05-26T09:04:09Z</time>
      </trkpt>
      <trkpt lat="45.53727" lon="6.06481">
        <ele>976.3562012</ele>
        <time>2012-05-26T09:04:10Z</time>
      </trkpt>
      <trkpt lat="45.53729" lon="6.06484">
        <ele>976.8369141</ele>
        <time>2012-05-26T09:04:11Z</time>
      </trkpt>
      <trkpt lat="45.53736" lon="6.06501">
        <ele>982.6047363</ele>
        <time>2012-05-26T09:04:17Z</time>
      </trkpt>
      <trkpt lat="45.53739" lon="6.06503">
        <ele>981.6433105</ele>
        <time>2012-05-26T09:04:19Z</time>
      </trkpt>
      <trkpt lat="45.5374" lon="6.06504">
        <ele>981.1628418</ele>
        <time>2012-05-26T09:04:20Z</time>
      </trkpt>
      <trkpt lat="45.53741" lon="6.06505">
        <ele>981.1628418</ele>
        <time>2012-05-26T09:04:21Z</time>
      </trkpt>
      <trkpt lat="45.53752" lon="6.06512">
        <ele>980.6821289</ele>
        <time>2012-05-26T09:04:27Z</time>
      </trkpt>
      <trkpt lat="45.53763" lon="6.06514">
        <ele>980.201416</ele>
        <time>2012-05-26T09:04:31Z</time>
      </trkpt>
      <trkpt lat="45.53765" lon="6.06514">
        <ele>981.1628418</ele>
        <time>2012-05-26T09:04:32Z</time>
      </trkpt>
      <trkpt lat="45.53774" lon="6.06516">
        <ele>982.1240234</ele>
        <time>2012-05-26T09:04:36Z</time>
      </trkpt>
      <trkpt lat="45.53776" lon="6.06517">
        <ele>981.6433105</ele>
        <time>2012-05-26T09:04:38Z</time>
      </trkpt>
      <trkpt lat="45.53781" lon="6.0652">
        <ele>981.6433105</ele>
        <time>2012-05-26T09:04:42Z</time>
      </trkpt>
      <trkpt lat="45.53786" lon="6.06522">
        <ele>976.8369141</ele>
        <time>2012-05-26T09:04:47Z</time>
      </trkpt>
      <trkpt lat="45.53801" lon="6.06531">
        <ele>979.7207031</ele>
        <time>2012-05-26T09:04:54Z</time>
      </trkpt>
      <trkpt lat="45.53813" lon="6.0654">
        <ele>980.201416</ele>
        <time>2012-05-26T09:04:59Z</time>
      </trkpt>
      <trkpt lat="45.53824" lon="6.06548">
        <ele>979.2399902</ele>
        <time>2012-05-26T09:05:03Z</time>
      </trkpt>
      <trkpt lat="45.53832" lon="6.06555">
        <ele>977.317627</ele>
        <time>2012-05-26T09:05:06Z</time>
      </trkpt>
      <trkpt lat="45.53833" lon="6.06578">
        <ele>979.7207031</ele>
        <time>2012-05-26T09:05:12Z</time>
      </trkpt>
      <trkpt lat="45.53839" lon="6.06594">
        <ele>986.9304199</ele>
        <time>2012-05-26T09:05:16Z</time>
      </trkpt>
      <trkpt lat="45.53847" lon="6.06609">
        <ele>992.2180176</ele>
        <time>2012-05-26T09:05:21Z</time>
      </trkpt>
      <trkpt lat="45.53853" lon="6.06631">
        <ele>995.1018066</ele>
        <time>2012-05-26T09:05:27Z</time>
      </trkpt>
      <trkpt lat="45.53856" lon="6.06639">
        <ele>996.0632324</ele>
        <time>2012-05-26T09:05:29Z</time>
      </trkpt>
      <trkpt lat="45.53859" lon="6.06643">
        <ele>995.5825195</ele>
        <time>2012-05-26T09:05:30Z</time>
      </trkpt>
      <trkpt lat="45.53862" lon="6.06647">
        <ele>994.6210938</ele>
        <time>2012-05-26T09:05:31Z</time>
      </trkpt>
      <trkpt lat="45.53874" lon="6.06668">
        <ele>993.1791992</ele>
        <time>2012-05-26T09:05:37Z</time>
      </trkpt>
      <trkpt lat="45.53879" lon="6.0668">
        <ele>992.6987305</ele>
        <time>2012-05-26T09:05:41Z</time>
      </trkpt>
      <trkpt lat="45.5389" lon="6.06688">
        <ele>989.8146973</ele>
        <time>2012-05-26T09:05:47Z</time>
      </trkpt>
      <trkpt lat="45.53897" lon="6.06691">
        <ele>988.3728027</ele>
        <time>2012-05-26T09:05:50Z</time>
      </trkpt>
      <trkpt lat="45.53899" lon="6.06693">
        <ele>987.8918457</ele>
        <time>2012-05-26T09:05:51Z</time>
      </trkpt>
      <trkpt lat="45.53908" lon="6.06698">
        <ele>987.4111328</ele>
        <time>2012-05-26T09:05:54Z</time>
      </trkpt>
      <trkpt lat="45.53922" lon="6.06715">
        <ele>990.2954102</ele>
        <time>2012-05-26T09:06:00Z</time>
      </trkpt>
      <trkpt lat="45.53929" lon="6.06724">
        <ele>992.2180176</ele>
        <time>2012-05-26T09:06:04Z</time>
      </trkpt>
      <trkpt lat="45.53935" lon="6.06741">
        <ele>987.8918457</ele>
        <time>2012-05-26T09:06:10Z</time>
      </trkpt>
      <trkpt lat="45.5394" lon="6.0675">
        <ele>986.9304199</ele>
        <time>2012-05-26T09:06:13Z</time>
      </trkpt>
      <trkpt lat="45.53952" lon="6.06767">
        <ele>985.0080566</ele>
        <time>2012-05-26T09:06:19Z</time>
      </trkpt>
      <trkpt lat="45.53961" lon="6.0678">
        <ele>980.6821289</ele>
        <time>2012-05-26T09:06:24Z</time>
      </trkpt>
      <trkpt lat="45.53969" lon="6.06797">
        <ele>976.8369141</ele>
        <time>2012-05-26T09:06:30Z</time>
      </trkpt>
      <trkpt lat="45.53979" lon="6.06814">
        <ele>973.9528809</ele>
        <time>2012-05-26T09:06:36Z</time>
      </trkpt>
      <trkpt lat="45.5398" lon="6.06817">
        <ele>975.3947754</ele>
        <time>2012-05-26T09:06:37Z</time>
      </trkpt>
      <trkpt lat="45.53987" lon="6.06833">
        <ele>978.2788086</ele>
        <time>2012-05-26T09:06:42Z</time>
      </trkpt>
      <trkpt lat="45.53996" lon="6.06849">
        <ele>978.7595215</ele>
        <time>2012-05-26T09:06:48Z</time>
      </trkpt>
      <trkpt lat="45.54001" lon="6.06857">
        <ele>979.2399902</ele>
        <time>2012-05-26T09:06:51Z</time>
      </trkpt>
      <trkpt lat="45.54015" lon="6.06872">
        <ele>982.6047363</ele>
        <time>2012-05-26T09:06:58Z</time>
      </trkpt>
      <trkpt lat="45.54022" lon="6.0688">
        <ele>983.0852051</ele>
        <time>2012-05-26T09:07:01Z</time>
      </trkpt>
      <trkpt lat="45.54023" lon="6.06883">
        <ele>983.0852051</ele>
        <time>2012-05-26T09:07:02Z</time>
      </trkpt>
      <trkpt lat="45.54029" lon="6.0689">
        <ele>979.2399902</ele>
        <time>2012-05-26T09:07:05Z</time>
      </trkpt>
      <trkpt lat="45.54034" lon="6.06905">
        <ele>981.6433105</ele>
        <time>2012-05-26T09:07:10Z</time>
      </trkpt>
      <trkpt lat="45.54036" lon="6.06907">
        <ele>982.6047363</ele>
        <time>2012-05-26T09:07:11Z</time>
      </trkpt>
      <trkpt lat="45.54049" lon="6.0692">
        <ele>989.3339844</ele>
        <time>2012-05-26T09:07:18Z</time>
      </trkpt>
      <trkpt lat="45.54059" lon="6.06926">
        <ele>991.2565918</ele>
        <time>2012-05-26T09:07:23Z</time>
      </trkpt>
      <trkpt lat="45.54065" lon="6.06931">
        <ele>992.2180176</ele>
        <time>2012-05-26T09:07:26Z</time>
      </trkpt>
      <trkpt lat="45.54068" lon="6.06936">
        <ele>991.7373047</ele>
        <time>2012-05-26T09:07:28Z</time>
      </trkpt>
      <trkpt lat="45.5407" lon="6.06938">
        <ele>988.3728027</ele>
        <time>2012-05-26T09:07:29Z</time>
      </trkpt>
      <trkpt lat="45.54072" lon="6.06939">
        <ele>989.8146973</ele>
        <time>2012-05-26T09:07:30Z</time>
      </trkpt>
      <trkpt lat="45.54077" lon="6.06944">
        <ele>991.2565918</ele>
        <time>2012-05-26T09:07:34Z</time>
      </trkpt>
      <trkpt lat="45.54083" lon="6.06954">
        <ele>991.2565918</ele>
        <time>2012-05-26T09:07:40Z</time>
      </trkpt>
      <trkpt lat="45.54088" lon="6.06961">
        <ele>991.7373047</ele>
        <time>2012-05-26T09:07:44Z</time>
      </trkpt>
      <trkpt lat="45.54089" lon="6.06963">
        <ele>990.7758789</ele>
        <time>2012-05-26T09:07:45Z</time>
      </trkpt>
      <trkpt lat="45.54094" lon="6.0698">
        <ele>988.3728027</ele>
        <time>2012-05-26T09:07:54Z</time>
      </trkpt>
      <trkpt lat="45.541" lon="6.06993">
        <ele>984.0466309</ele>
        <time>2012-05-26T09:07:59Z</time>
      </trkpt>
      <trkpt lat="45.54106" lon="6.07005">
        <ele>985.0080566</ele>
        <time>2012-05-26T09:08:04Z</time>
      </trkpt>
      <trkpt lat="45.54113" lon="6.07016">
        <ele>985.0080566</ele>
        <time>2012-05-26T09:08:09Z</time>
      </trkpt>
      <trkpt lat="45.54121" lon="6.07028">
        <ele>985.4885254</ele>
        <time>2012-05-26T09:08:14Z</time>
      </trkpt>
      <trkpt lat="45.54128" lon="6.07039">
        <ele>985.4885254</ele>
        <time>2012-05-26T09:08:19Z</time>
      </trkpt>
      <trkpt lat="45.54136" lon="6.0705">
        <ele>988.3728027</ele>
        <time>2012-05-26T09:08:24Z</time>
      </trkpt>
      <trkpt lat="45.54142" lon="6.07056">
        <ele>989.3339844</ele>
        <time>2012-05-26T09:08:27Z</time>
      </trkpt>
      <trkpt lat="45.54143" lon="6.07059">
        <ele>989.8146973</ele>
        <time>2012-05-26T09:08:31Z</time>
      </trkpt>
      <trkpt lat="45.54137" lon="6.07045">
        <ele>985.9692383</ele>
        <time>2012-05-26T09:08:36Z</time>
      </trkpt>
      <trkpt lat="45.54124" lon="6.07027">
        <ele>981.6433105</ele>
        <time>2012-05-26T09:08:42Z</time>
      </trkpt>
      <trkpt lat="45.54111" lon="6.07009">
        <ele>978.7595215</ele>
        <time>2012-05-26T09:08:47Z</time>
      </trkpt>
      <trkpt lat="45.54102" lon="6.06994">
        <ele>978.2788086</ele>
        <time>2012-05-26T09:08:51Z</time>
      </trkpt>
      <trkpt lat="45.54092" lon="6.06979">
        <ele>977.7980957</ele>
        <time>2012-05-26T09:08:55Z</time>
      </trkpt>
      <trkpt lat="45.54084" lon="6.06963">
        <ele>977.317627</ele>
        <time>2012-05-26T09:08:59Z</time>
      </trkpt>
      <trkpt lat="45.54075" lon="6.06952">
        <ele>978.7595215</ele>
        <time>2012-05-26T09:09:03Z</time>
      </trkpt>
      <trkpt lat="45.54064" lon="6.06941">
        <ele>981.6433105</ele>
        <time>2012-05-26T09:09:08Z</time>
      </trkpt>
      <trkpt lat="45.54066" lon="6.06921">
        <ele>978.7595215</ele>
        <time>2012-05-26T09:09:13Z</time>
      </trkpt>
      <trkpt lat="45.54073" lon="6.0692">
        <ele>977.7980957</ele>
        <time>2012-05-26T09:09:16Z</time>
      </trkpt>
      <trkpt lat="45.54076" lon="6.06921">
        <ele>977.317627</ele>
        <time>2012-05-26T09:09:17Z</time>
      </trkpt>
      <trkpt lat="45.54084" lon="6.06926">
        <ele>974.9143066</ele>
        <time>2012-05-26T09:09:19Z</time>
      </trkpt>
      <trkpt lat="45.54109" lon="6.06943">
        <ele>975.3947754</ele>
        <time>2012-05-26T09:09:26Z</time>
      </trkpt>
      <trkpt lat="45.5412" lon="6.06946">
        <ele>975.8754883</ele>
        <time>2012-05-26T09:09:28Z</time>
      </trkpt>
      <trkpt lat="45.54131" lon="6.06952">
        <ele>974.9143066</ele>
        <time>2012-05-26T09:09:31Z</time>
      </trkpt>
      <trkpt lat="45.54135" lon="6.06954">
        <ele>976.3562012</ele>
        <time>2012-05-26T09:09:32Z</time>
      </trkpt>
      <trkpt lat="45.5414" lon="6.06961">
        <ele>976.8369141</ele>
        <time>2012-05-26T09:09:35Z</time>
      </trkpt>
      <trkpt lat="45.54155" lon="6.06973">
        <ele>972.0302734</ele>
        <time>2012-05-26T09:09:41Z</time>
      </trkpt>
      <trkpt lat="45.54166" lon="6.06978">
        <ele>968.6655273</ele>
        <time>2012-05-26T09:09:46Z</time>
      </trkpt>
      <trkpt lat="45.54178" lon="6.06981">
        <ele>966.7429199</ele>
        <time>2012-05-26T09:09:50Z</time>
      </trkpt>
      <trkpt lat="45.54189" lon="6.06982">
        <ele>966.262207</ele>
        <time>2012-05-26T09:09:54Z</time>
      </trkpt>
      <trkpt lat="45.54203" lon="6.06986">
        <ele>962.8977051</ele>
        <time>2012-05-26T09:09:59Z</time>
      </trkpt>
      <trkpt lat="45.54214" lon="6.06989">
        <ele>959.0524902</ele>
        <time>2012-05-26T09:10:03Z</time>
      </trkpt>
      <trkpt lat="45.54223" lon="6.06984">
        <ele>953.7651367</ele>
        <time>2012-05-26T09:10:08Z</time>
      </trkpt>
      <trkpt lat="45.54231" lon="6.06981">
        <ele>951.3618164</ele>
        <time>2012-05-26T09:10:12Z</time>
      </trkpt>
      <trkpt lat="45.5424" lon="6.06979">
        <ele>944.6325684</ele>
        <time>2012-05-26T09:10:17Z</time>
      </trkpt>
      <trkpt lat="45.54253" lon="6.06978">
        <ele>937.9033203</ele>
        <time>2012-05-26T09:10:22Z</time>
      </trkpt>
      <trkpt lat="45.54257" lon="6.06978">
        <ele>934.0581055</ele>
        <time>2012-05-26T09:10:24Z</time>
      </trkpt>
      <trkpt lat="45.54259" lon="6.06978">
        <ele>933.0966797</ele>
        <time>2012-05-26T09:10:25Z</time>
      </trkpt>
      <trkpt lat="45.54274" lon="6.06979">
        <ele>926.8483887</ele>
        <time>2012-05-26T09:10:31Z</time>
      </trkpt>
      <trkpt lat="45.5428" lon="6.06979">
        <ele>923.4836426</ele>
        <time>2012-05-26T09:10:35Z</time>
      </trkpt>
      <trkpt lat="45.54291" lon="6.06976">
        <ele>922.5222168</ele>
        <time>2012-05-26T09:10:40Z</time>
      </trkpt>
      <trkpt lat="45.54305" lon="6.06975">
        <ele>918.677002</ele>
        <time>2012-05-26T09:10:46Z</time>
      </trkpt>
      <trkpt lat="45.54314" lon="6.0697">
        <ele>918.677002</ele>
        <time>2012-05-26T09:10:51Z</time>
      </trkpt>
      <trkpt lat="45.54328" lon="6.06967">
        <ele>917.2351074</ele>
        <time>2012-05-26T09:10:56Z</time>
      </trkpt>
      <trkpt lat="45.54339" lon="6.06962">
        <ele>914.8317871</ele>
        <time>2012-05-26T09:11:00Z</time>
      </trkpt>
      <trkpt lat="45.5435" lon="6.06955">
        <ele>913.3898926</ele>
        <time>2012-05-26T09:11:05Z</time>
      </trkpt>
      <trkpt lat="45.54361" lon="6.06948">
        <ele>910.5058594</ele>
        <time>2012-05-26T09:11:09Z</time>
      </trkpt>
      <trkpt lat="45.54373" lon="6.06946">
        <ele>908.1027832</ele>
        <time>2012-05-26T09:11:13Z</time>
      </trkpt>
      <trkpt lat="45.54387" lon="6.06945">
        <ele>906.6604004</ele>
        <time>2012-05-26T09:11:18Z</time>
      </trkpt>
      <trkpt lat="45.5439" lon="6.06945">
        <ele>906.1796875</ele>
        <time>2012-05-26T09:11:19Z</time>
      </trkpt>
      <trkpt lat="45.54407" lon="6.06943">
        <ele>904.737793</ele>
        <time>2012-05-26T09:11:25Z</time>
      </trkpt>
      <trkpt lat="45.54419" lon="6.06937">
        <ele>902.3344727</ele>
        <time>2012-05-26T09:11:30Z</time>
      </trkpt>
      <trkpt lat="45.54421" lon="6.06935">
        <ele>901.8540039</ele>
        <time>2012-05-26T09:11:31Z</time>
      </trkpt>
      <trkpt lat="45.54428" lon="6.06931">
        <ele>901.8540039</ele>
        <time>2012-05-26T09:11:35Z</time>
      </trkpt>
      <trkpt lat="45.5443" lon="6.0693">
        <ele>900.8925781</ele>
        <time>2012-05-26T09:11:36Z</time>
      </trkpt>
      <trkpt lat="45.54431" lon="6.0693">
        <ele>900.4121094</ele>
        <time>2012-05-26T09:11:37Z</time>
      </trkpt>
      <trkpt lat="45.54438" lon="6.06925">
        <ele>896.0861816</ele>
        <time>2012-05-26T09:11:42Z</time>
      </trkpt>
      <trkpt lat="45.54439" lon="6.06923">
        <ele>896.5668945</ele>
        <time>2012-05-26T09:11:43Z</time>
      </trkpt>
      <trkpt lat="45.54453" lon="6.06922">
        <ele>892.2409668</ele>
        <time>2012-05-26T09:11:48Z</time>
      </trkpt>
      <trkpt lat="45.54464" lon="6.06933">
        <ele>889.8374023</ele>
        <time>2012-05-26T09:11:53Z</time>
      </trkpt>
      <trkpt lat="45.54468" lon="6.06941">
        <ele>889.8374023</ele>
        <time>2012-05-26T09:11:58Z</time>
      </trkpt>
      <trkpt lat="45.54475" lon="6.0695">
        <ele>888.8762207</ele>
        <time>2012-05-26T09:12:04Z</time>
      </trkpt>
      <trkpt lat="45.54477" lon="6.06953">
        <ele>888.8762207</ele>
        <time>2012-05-26T09:12:06Z</time>
      </trkpt>
      <trkpt lat="45.5448" lon="6.06959">
        <ele>888.8762207</ele>
        <time>2012-05-26T09:12:10Z</time>
      </trkpt>
      <trkpt lat="45.54486" lon="6.06968">
        <ele>889.8374023</ele>
        <time>2012-05-26T09:12:17Z</time>
      </trkpt>
      <trkpt lat="45.54491" lon="6.0698">
        <ele>891.7600098</ele>
        <time>2012-05-26T09:12:24Z</time>
      </trkpt>
      <trkpt lat="45.54495" lon="6.06984">
        <ele>892.2409668</ele>
        <time>2012-05-26T09:12:27Z</time>
      </trkpt>
      <trkpt lat="45.54503" lon="6.06994">
        <ele>891.2792969</ele>
        <time>2012-05-26T09:12:35Z</time>
      </trkpt>
      <trkpt lat="45.54511" lon="6.07005">
        <ele>890.798584</ele>
        <time>2012-05-26T09:12:43Z</time>
      </trkpt>
      <trkpt lat="45.54517" lon="6.07011">
        <ele>891.2792969</ele>
        <time>2012-05-26T09:12:48Z</time>
      </trkpt>
      <trkpt lat="45.54524" lon="6.07019">
        <ele>895.6054688</ele>
        <time>2012-05-26T09:12:55Z</time>
      </trkpt>
      <trkpt lat="45.54536" lon="6.07024">
        <ele>900.4121094</ele>
        <time>2012-05-26T09:13:03Z</time>
      </trkpt>
      <trkpt lat="45.54542" lon="6.07033">
        <ele>901.8540039</ele>
        <time>2012-05-26T09:13:10Z</time>
      </trkpt>
      <trkpt lat="45.54548" lon="6.07036">
        <ele>901.8540039</ele>
        <time>2012-05-26T09:13:14Z</time>
      </trkpt>
      <trkpt lat="45.54554" lon="6.07043">
        <ele>901.373291</ele>
        <time>2012-05-26T09:13:20Z</time>
      </trkpt>
      <trkpt lat="45.54558" lon="6.07049">
        <ele>901.8540039</ele>
        <time>2012-05-26T09:13:25Z</time>
      </trkpt>
      <trkpt lat="45.54565" lon="6.07056">
        <ele>899.4506836</ele>
        <time>2012-05-26T09:13:31Z</time>
      </trkpt>
      <trkpt lat="45.54571" lon="6.07064">
        <ele>901.373291</ele>
        <time>2012-05-26T09:13:38Z</time>
      </trkpt>
      <trkpt lat="45.54575" lon="6.07074">
        <ele>905.2185059</ele>
        <time>2012-05-26T09:13:45Z</time>
      </trkpt>
      <trkpt lat="45.54581" lon="6.07083">
        <ele>910.0251465</ele>
        <time>2012-05-26T09:13:51Z</time>
      </trkpt>
      <trkpt lat="45.54585" lon="6.07093">
        <ele>908.583252</ele>
        <time>2012-05-26T09:13:57Z</time>
      </trkpt>
      <trkpt lat="45.54589" lon="6.07097">
        <ele>908.1027832</ele>
        <time>2012-05-26T09:14:00Z</time>
      </trkpt>
      <trkpt lat="45.54594" lon="6.07106">
        <ele>908.1027832</ele>
        <time>2012-05-26T09:14:06Z</time>
      </trkpt>
      <trkpt lat="45.54599" lon="6.07114">
        <ele>910.0251465</ele>
        <time>2012-05-26T09:14:12Z</time>
      </trkpt>
      <trkpt lat="45.54603" lon="6.0712">
        <ele>911.4672852</ele>
        <time>2012-05-26T09:14:16Z</time>
      </trkpt>
      <trkpt lat="45.5461" lon="6.07129">
        <ele>916.2736816</ele>
        <time>2012-05-26T09:14:23Z</time>
      </trkpt>
      <trkpt lat="45.5462" lon="6.07137">
        <ele>916.2736816</ele>
        <time>2012-05-26T09:14:30Z</time>
      </trkpt>
      <trkpt lat="45.5463" lon="6.07145">
        <ele>912.9091797</ele>
        <time>2012-05-26T09:14:37Z</time>
      </trkpt>
      <trkpt lat="45.54638" lon="6.07156">
        <ele>914.8317871</ele>
        <time>2012-05-26T09:14:44Z</time>
      </trkpt>
      <trkpt lat="45.54639" lon="6.07157">
        <ele>915.7932129</ele>
        <time>2012-05-26T09:14:45Z</time>
      </trkpt>
      <trkpt lat="45.54648" lon="6.07171">
        <ele>914.8317871</ele>
        <time>2012-05-26T09:14:54Z</time>
      </trkpt>
      <trkpt lat="45.54653" lon="6.0718">
        <ele>916.7543945</ele>
        <time>2012-05-26T09:15:00Z</time>
      </trkpt>
      <trkpt lat="45.54654" lon="6.07182">
        <ele>917.2351074</ele>
        <time>2012-05-26T09:15:01Z</time>
      </trkpt>
      <trkpt lat="45.5466" lon="6.07191">
        <ele>919.6384277</ele>
        <time>2012-05-26T09:15:07Z</time>
      </trkpt>
      <trkpt lat="45.54664" lon="6.07198">
        <ele>922.5222168</ele>
        <time>2012-05-26T09:15:12Z</time>
      </trkpt>
      <trkpt lat="45.54673" lon="6.07207">
        <ele>927.3291016</ele>
        <time>2012-05-26T09:15:19Z</time>
      </trkpt>
      <trkpt lat="45.54678" lon="6.07217">
        <ele>928.7709961</ele>
        <time>2012-05-26T09:15:25Z</time>
      </trkpt>
      <trkpt lat="45.54683" lon="6.07223">
        <ele>927.3291016</ele>
        <time>2012-05-26T09:15:30Z</time>
      </trkpt>
      <trkpt lat="45.54684" lon="6.07227">
        <ele>927.8095703</ele>
        <time>2012-05-26T09:15:32Z</time>
      </trkpt>
      <trkpt lat="45.54687" lon="6.07233">
        <ele>928.2902832</ele>
        <time>2012-05-26T09:15:36Z</time>
      </trkpt>
      <trkpt lat="45.54695" lon="6.07245">
        <ele>924.9257813</ele>
        <time>2012-05-26T09:15:44Z</time>
      </trkpt>
      <trkpt lat="45.54696" lon="6.07245">
        <ele>925.40625</ele>
        <time>2012-05-26T09:15:45Z</time>
      </trkpt>
      <trkpt lat="45.54705" lon="6.07254">
        <ele>930.2128906</ele>
        <time>2012-05-26T09:15:52Z</time>
      </trkpt>
      <trkpt lat="45.54708" lon="6.07261">
        <ele>930.6936035</ele>
        <time>2012-05-26T09:15:57Z</time>
      </trkpt>
      <trkpt lat="45.54711" lon="6.07267">
        <ele>930.2128906</ele>
        <time>2012-05-26T09:16:01Z</time>
      </trkpt>
      <trkpt lat="45.54713" lon="6.07272">
        <ele>931.1743164</ele>
        <time>2012-05-26T09:16:04Z</time>
      </trkpt>
      <trkpt lat="45.54718" lon="6.0728">
        <ele>935.0195313</ele>
        <time>2012-05-26T09:16:09Z</time>
      </trkpt>
      <trkpt lat="45.54724" lon="6.07289">
        <ele>939.3452148</ele>
        <time>2012-05-26T09:16:15Z</time>
      </trkpt>
      <trkpt lat="45.54735" lon="6.07301">
        <ele>941.2680664</ele>
        <time>2012-05-26T09:16:23Z</time>
      </trkpt>
      <trkpt lat="45.54741" lon="6.07308">
        <ele>943.1906738</ele>
        <time>2012-05-26T09:16:28Z</time>
      </trkpt>
      <trkpt lat="45.54748" lon="6.07315">
        <ele>946.5554199</ele>
        <time>2012-05-26T09:16:33Z</time>
      </trkpt>
      <trkpt lat="45.54751" lon="6.07318">
        <ele>947.5166016</ele>
        <time>2012-05-26T09:16:35Z</time>
      </trkpt>
      <trkpt lat="45.54756" lon="6.07326">
        <ele>950.4006348</ele>
        <time>2012-05-26T09:16:40Z</time>
      </trkpt>
      <trkpt lat="45.54758" lon="6.07341">
        <ele>952.8037109</ele>
        <time>2012-05-26T09:16:47Z</time>
      </trkpt>
      <trkpt lat="45.54759" lon="6.07342">
        <ele>952.8037109</ele>
        <time>2012-05-26T09:16:48Z</time>
      </trkpt>
      <trkpt lat="45.54759" lon="6.07345">
        <ele>951.8425293</ele>
        <time>2012-05-26T09:16:50Z</time>
      </trkpt>
      <trkpt lat="45.5476" lon="6.07347">
        <ele>951.3618164</ele>
        <time>2012-05-26T09:16:51Z</time>
      </trkpt>
      <trkpt lat="45.54765" lon="6.0736">
        <ele>950.4006348</ele>
        <time>2012-05-26T09:16:59Z</time>
      </trkpt>
      <trkpt lat="45.54768" lon="6.07364">
        <ele>948.9584961</ele>
        <time>2012-05-26T09:17:02Z</time>
      </trkpt>
      <trkpt lat="45.54772" lon="6.07376">
        <ele>944.1520996</ele>
        <time>2012-05-26T09:17:09Z</time>
      </trkpt>
      <trkpt lat="45.54777" lon="6.0739">
        <ele>945.1132813</ele>
        <time>2012-05-26T09:17:15Z</time>
      </trkpt>
      <trkpt lat="45.54782" lon="6.07403">
        <ele>942.7102051</ele>
        <time>2012-05-26T09:17:20Z</time>
      </trkpt>
      <trkpt lat="45.54787" lon="6.07415">
        <ele>943.6713867</ele>
        <time>2012-05-26T09:17:27Z</time>
      </trkpt>
      <trkpt lat="45.54794" lon="6.07419">
        <ele>942.2294922</ele>
        <time>2012-05-26T09:17:31Z</time>
      </trkpt>
      <trkpt lat="45.548" lon="6.07426">
        <ele>945.1132813</ele>
        <time>2012-05-26T09:17:37Z</time>
      </trkpt>
      <trkpt lat="45.54809" lon="6.07431">
        <ele>947.5166016</ele>
        <time>2012-05-26T09:17:42Z</time>
      </trkpt>
      <trkpt lat="45.54813" lon="6.07435">
        <ele>949.439209</ele>
        <time>2012-05-26T09:17:45Z</time>
      </trkpt>
      <trkpt lat="45.54825" lon="6.07443">
        <ele>952.322998</ele>
        <time>2012-05-26T09:17:52Z</time>
      </trkpt>
      <trkpt lat="45.5483" lon="6.07447">
        <ele>951.8425293</ele>
        <time>2012-05-26T09:17:56Z</time>
      </trkpt>
      <trkpt lat="45.54836" lon="6.07452">
        <ele>951.3618164</ele>
        <time>2012-05-26T09:18:01Z</time>
      </trkpt>
      <trkpt lat="45.54845" lon="6.07455">
        <ele>952.8037109</ele>
        <time>2012-05-26T09:18:06Z</time>
      </trkpt>
      <trkpt lat="45.54855" lon="6.0746">
        <ele>953.2844238</ele>
        <time>2012-05-26T09:18:13Z</time>
      </trkpt>
      <trkpt lat="45.54861" lon="6.07462">
        <ele>953.7651367</ele>
        <time>2012-05-26T09:18:16Z</time>
      </trkpt>
      <trkpt lat="45.54864" lon="6.07466">
        <ele>953.2844238</ele>
        <time>2012-05-26T09:18:19Z</time>
      </trkpt>
      <trkpt lat="45.54866" lon="6.07467">
        <ele>954.2458496</ele>
        <time>2012-05-26T09:18:20Z</time>
      </trkpt>
      <trkpt lat="45.54869" lon="6.07471">
        <ele>956.6491699</ele>
        <time>2012-05-26T09:18:23Z</time>
      </trkpt>
      <trkpt lat="45.54879" lon="6.07478">
        <ele>959.5332031</ele>
        <time>2012-05-26T09:18:30Z</time>
      </trkpt>
      <trkpt lat="45.54884" lon="6.07483">
        <ele>959.5332031</ele>
        <time>2012-05-26T09:18:34Z</time>
      </trkpt>
      <trkpt lat="45.54896" lon="6.07493">
        <ele>961.4558105</ele>
        <time>2012-05-26T09:18:40Z</time>
      </trkpt>
      <trkpt lat="45.54909" lon="6.07503">
        <ele>964.3395996</ele>
        <time>2012-05-26T09:18:46Z</time>
      </trkpt>
      <trkpt lat="45.5491" lon="6.0751">
        <ele>962.8977051</ele>
        <time>2012-05-26T09:18:50Z</time>
      </trkpt>
      <trkpt lat="45.54914" lon="6.07518">
        <ele>960.9750977</ele>
        <time>2012-05-26T09:18:55Z</time>
      </trkpt>
      <trkpt lat="45.54919" lon="6.07528">
        <ele>961.9365234</ele>
        <time>2012-05-26T09:19:02Z</time>
      </trkpt>
      <trkpt lat="45.54921" lon="6.07531">
        <ele>961.4558105</ele>
        <time>2012-05-26T09:19:04Z</time>
      </trkpt>
      <trkpt lat="45.54935" lon="6.07538">
        <ele>960.4943848</ele>
        <time>2012-05-26T09:19:10Z</time>
      </trkpt>
      <trkpt lat="45.5494" lon="6.07538">
        <ele>964.3395996</ele>
        <time>2012-05-26T09:19:14Z</time>
      </trkpt>
      <trkpt lat="45.54943" lon="6.07538">
        <ele>963.8588867</ele>
        <time>2012-05-26T09:19:15Z</time>
      </trkpt>
      <trkpt lat="45.54961" lon="6.07547">
        <ele>965.7817383</ele>
        <time>2012-05-26T09:19:23Z</time>
      </trkpt>
      <trkpt lat="45.54963" lon="6.07549">
        <ele>966.262207</ele>
        <time>2012-05-26T09:19:24Z</time>
      </trkpt>
      <trkpt lat="45.54965" lon="6.07551">
        <ele>966.262207</ele>
        <time>2012-05-26T09:19:25Z</time>
      </trkpt>
      <trkpt lat="45.54976" lon="6.07567">
        <ele>964.3395996</ele>
        <time>2012-05-26T09:19:30Z</time>
      </trkpt>
      <trkpt lat="45.54985" lon="6.07593">
        <ele>962.8977051</ele>
        <time>2012-05-26T09:19:36Z</time>
      </trkpt>
      <trkpt lat="45.54988" lon="6.07601">
        <ele>961.9365234</ele>
        <time>2012-05-26T09:19:38Z</time>
      </trkpt>
      <trkpt lat="45.54997" lon="6.0762">
        <ele>960.0136719</ele>
        <time>2012-05-26T09:19:43Z</time>
      </trkpt>
      <trkpt lat="45.55005" lon="6.07624">
        <ele>960.4943848</ele>
        <time>2012-05-26T09:19:47Z</time>
      </trkpt>
      <trkpt lat="45.55007" lon="6.07624">
        <ele>960.4943848</ele>
        <time>2012-05-26T09:19:49Z</time>
      </trkpt>
      <trkpt lat="45.55008" lon="6.07624">
        <ele>960.9750977</ele>
        <time>2012-05-26T09:19:50Z</time>
      </trkpt>
      <trkpt lat="45.5501" lon="6.07624">
        <ele>961.9365234</ele>
        <time>2012-05-26T09:19:51Z</time>
      </trkpt>
      <trkpt lat="45.5502" lon="6.07632">
        <ele>960.9750977</ele>
        <time>2012-05-26T09:20:00Z</time>
      </trkpt>
      <trkpt lat="45.55022" lon="6.07633">
        <ele>962.4169922</ele>
        <time>2012-05-26T09:20:03Z</time>
      </trkpt>
      <trkpt lat="45.55024" lon="6.07633">
        <ele>962.8977051</ele>
        <time>2012-05-26T09:20:06Z</time>
      </trkpt>
      <trkpt lat="45.55029" lon="6.07633">
        <ele>964.3395996</ele>
        <time>2012-05-26T09:20:10Z</time>
      </trkpt>
      <trkpt lat="45.55033" lon="6.07636">
        <ele>966.262207</ele>
        <time>2012-05-26T09:20:15Z</time>
      </trkpt>
      <trkpt lat="45.55035" lon="6.07638">
        <ele>966.262207</ele>
        <time>2012-05-26T09:20:19Z</time>
      </trkpt>
      <trkpt lat="45.5504" lon="6.07646">
        <ele>967.2236328</ele>
        <time>2012-05-26T09:20:26Z</time>
      </trkpt>
      <trkpt lat="45.5504" lon="6.07647">
        <ele>967.7041016</ele>
        <time>2012-05-26T09:20:27Z</time>
      </trkpt>
      <trkpt lat="45.55041" lon="6.07648">
        <ele>967.7041016</ele>
        <time>2012-05-26T09:20:28Z</time>
      </trkpt>
      <trkpt lat="45.55046" lon="6.07649">
        <ele>969.1462402</ele>
        <time>2012-05-26T09:20:35Z</time>
      </trkpt>
      <trkpt lat="45.55051" lon="6.0765">
        <ele>970.1074219</ele>
        <time>2012-05-26T09:20:41Z</time>
      </trkpt>
      <trkpt lat="45.55056" lon="6.0765">
        <ele>971.0688477</ele>
        <time>2012-05-26T09:20:45Z</time>
      </trkpt>
      <trkpt lat="45.55059" lon="6.07651">
        <ele>970.5881348</ele>
        <time>2012-05-26T09:20:50Z</time>
      </trkpt>
      <trkpt lat="45.55063" lon="6.07654">
        <ele>971.0688477</ele>
        <time>2012-05-26T09:20:54Z</time>
      </trkpt>
      <trkpt lat="45.55065" lon="6.07658">
        <ele>972.9916992</ele>
        <time>2012-05-26T09:20:59Z</time>
      </trkpt>
      <trkpt lat="45.55068" lon="6.07666">
        <ele>977.317627</ele>
        <time>2012-05-26T09:21:09Z</time>
      </trkpt>
      <trkpt lat="45.55073" lon="6.07667">
        <ele>977.317627</ele>
        <time>2012-05-26T09:21:17Z</time>
      </trkpt>
      <trkpt lat="45.55076" lon="6.07666">
        <ele>978.2788086</ele>
        <time>2012-05-26T09:21:23Z</time>
      </trkpt>
      <trkpt lat="45.55079" lon="6.07667">
        <ele>980.201416</ele>
        <time>2012-05-26T09:21:29Z</time>
      </trkpt>
      <trkpt lat="45.55081" lon="6.07669">
        <ele>982.6047363</ele>
        <time>2012-05-26T09:21:35Z</time>
      </trkpt>
      <trkpt lat="45.55082" lon="6.07669">
        <ele>984.0466309</ele>
        <time>2012-05-26T09:21:37Z</time>
      </trkpt>
      <trkpt lat="45.55086" lon="6.07668">
        <ele>987.4111328</ele>
        <time>2012-05-26T09:21:44Z</time>
      </trkpt>
      <trkpt lat="45.55087" lon="6.07674">
        <ele>988.3728027</ele>
        <time>2012-05-26T09:21:50Z</time>
      </trkpt>
      <trkpt lat="45.55087" lon="6.07679">
        <ele>989.8146973</ele>
        <time>2012-05-26T09:21:54Z</time>
      </trkpt>
      <trkpt lat="45.5509" lon="6.07692">
        <ele>993.6599121</ele>
        <time>2012-05-26T09:22:03Z</time>
      </trkpt>
      <trkpt lat="45.55092" lon="6.07702">
        <ele>995.5825195</ele>
        <time>2012-05-26T09:22:10Z</time>
      </trkpt>
      <trkpt lat="45.55097" lon="6.07713">
        <ele>994.6210938</ele>
        <time>2012-05-26T09:22:17Z</time>
      </trkpt>
      <trkpt lat="45.551" lon="6.07722">
        <ele>995.1018066</ele>
        <time>2012-05-26T09:22:24Z</time>
      </trkpt>
      <trkpt lat="45.55104" lon="6.0773">
        <ele>994.6210938</ele>
        <time>2012-05-26T09:22:30Z</time>
      </trkpt>
      <trkpt lat="45.55109" lon="6.07739">
        <ele>996.0632324</ele>
        <time>2012-05-26T09:22:37Z</time>
      </trkpt>
      <trkpt lat="45.55118" lon="6.07747">
        <ele>996.0632324</ele>
        <time>2012-05-26T09:22:46Z</time>
      </trkpt>
      <trkpt lat="45.5512" lon="6.0775">
        <ele>996.0632324</ele>
        <time>2012-05-26T09:22:49Z</time>
      </trkpt>
      <trkpt lat="45.55125" lon="6.07759">
        <ele>996.5439453</ele>
        <time>2012-05-26T09:22:57Z</time>
      </trkpt>
      <trkpt lat="45.55132" lon="6.07762">
        <ele>993.6599121</ele>
        <time>2012-05-26T09:23:02Z</time>
      </trkpt>
      <trkpt lat="45.55141" lon="6.07766">
        <ele>991.2565918</ele>
        <time>2012-05-26T09:23:09Z</time>
      </trkpt>
      <trkpt lat="45.55144" lon="6.07768">
        <ele>990.2954102</ele>
        <time>2012-05-26T09:23:12Z</time>
      </trkpt>
      <trkpt lat="45.55149" lon="6.07774">
        <ele>990.7758789</ele>
        <time>2012-05-26T09:23:18Z</time>
      </trkpt>
      <trkpt lat="45.55157" lon="6.07787">
        <ele>992.2180176</ele>
        <time>2012-05-26T09:23:28Z</time>
      </trkpt>
      <trkpt lat="45.55162" lon="6.07797">
        <ele>993.6599121</ele>
        <time>2012-05-26T09:23:35Z</time>
      </trkpt>
      <trkpt lat="45.55167" lon="6.07804">
        <ele>995.5825195</ele>
        <time>2012-05-26T09:23:41Z</time>
      </trkpt>
      <trkpt lat="45.55172" lon="6.07813">
        <ele>998.4663086</ele>
        <time>2012-05-26T09:23:48Z</time>
      </trkpt>
      <trkpt lat="45.55172" lon="6.07814">
        <ele>998.4663086</ele>
        <time>2012-05-26T09:23:49Z</time>
      </trkpt>
      <trkpt lat="45.55176" lon="6.07826">
        <ele>1000.8696289</ele>
        <time>2012-05-26T09:23:57Z</time>
      </trkpt>
      <trkpt lat="45.55179" lon="6.07839">
        <ele>1004.7150879</ele>
        <time>2012-05-26T09:24:01Z</time>
      </trkpt>
      <trkpt lat="45.55187" lon="6.07851">
        <ele>1005.1958008</ele>
        <time>2012-05-26T09:24:06Z</time>
      </trkpt>
      <trkpt lat="45.55191" lon="6.07855">
        <ele>1005.6765137</ele>
        <time>2012-05-26T09:24:09Z</time>
      </trkpt>
      <trkpt lat="45.55188" lon="6.07865">
        <ele>1015.7702637</ele>
        <time>2012-05-26T09:24:15Z</time>
      </trkpt>
      <trkpt lat="45.55181" lon="6.07876">
        <ele>1026.3447266</ele>
        <time>2012-05-26T09:24:21Z</time>
      </trkpt>
      <trkpt lat="45.5518" lon="6.07883">
        <ele>1023.9414063</ele>
        <time>2012-05-26T09:24:25Z</time>
      </trkpt>
      <trkpt lat="45.55177" lon="6.07889">
        <ele>1025.3833008</ele>
        <time>2012-05-26T09:24:29Z</time>
      </trkpt>
      <trkpt lat="45.55175" lon="6.07896">
        <ele>1026.8254395</ele>
        <time>2012-05-26T09:24:34Z</time>
      </trkpt>
      <trkpt lat="45.55173" lon="6.07902">
        <ele>1025.3833008</ele>
        <time>2012-05-26T09:24:38Z</time>
      </trkpt>
      <trkpt lat="45.55173" lon="6.07909">
        <ele>1022.4995117</ele>
        <time>2012-05-26T09:24:42Z</time>
      </trkpt>
      <trkpt lat="45.55177" lon="6.07927">
        <ele>1021.0576172</ele>
        <time>2012-05-26T09:24:52Z</time>
      </trkpt>
      <trkpt lat="45.55179" lon="6.07939">
        <ele>1020.0961914</ele>
        <time>2012-05-26T09:24:58Z</time>
      </trkpt>
      <trkpt lat="45.55177" lon="6.07947">
        <ele>1022.4995117</ele>
        <time>2012-05-26T09:25:01Z</time>
      </trkpt>
      <trkpt lat="45.55169" lon="6.07949">
        <ele>1031.6318359</ele>
        <time>2012-05-26T09:25:06Z</time>
      </trkpt>
      <trkpt lat="45.55169" lon="6.07956">
        <ele>1033.0737305</ele>
        <time>2012-05-26T09:25:11Z</time>
      </trkpt>
      <trkpt lat="45.55167" lon="6.07959">
        <ele>1035.4770508</ele>
        <time>2012-05-26T09:25:14Z</time>
      </trkpt>
      <trkpt lat="45.55166" lon="6.07959">
        <ele>1037.3999023</ele>
        <time>2012-05-26T09:25:16Z</time>
      </trkpt>
      <trkpt lat="45.55166" lon="6.07968">
        <ele>1044.1291504</ele>
        <time>2012-05-26T09:25:22Z</time>
      </trkpt>
      <trkpt lat="45.55166" lon="6.07969">
        <ele>1046.0517578</ele>
        <time>2012-05-26T09:25:23Z</time>
      </trkpt>
      <trkpt lat="45.55162" lon="6.07977">
        <ele>1058.5488281</ele>
        <time>2012-05-26T09:25:29Z</time>
      </trkpt>
      <trkpt lat="45.55158" lon="6.07986">
        <ele>1063.3554688</ele>
        <time>2012-05-26T09:25:35Z</time>
      </trkpt>
      <trkpt lat="45.55155" lon="6.07993">
        <ele>1059.5102539</ele>
        <time>2012-05-26T09:25:40Z</time>
      </trkpt>
      <trkpt lat="45.55151" lon="6.07997">
        <ele>1056.6262207</ele>
        <time>2012-05-26T09:25:44Z</time>
      </trkpt>
      <trkpt lat="45.55149" lon="6.08001">
        <ele>1050.3776855</ele>
        <time>2012-05-26T09:25:48Z</time>
      </trkpt>
      <trkpt lat="45.55144" lon="6.08004">
        <ele>1050.3776855</ele>
        <time>2012-05-26T09:25:53Z</time>
      </trkpt>
      <trkpt lat="45.55136" lon="6.08008">
        <ele>1053.7424316</ele>
        <time>2012-05-26T09:26:00Z</time>
      </trkpt>
      <trkpt lat="45.55131" lon="6.08017">
        <ele>1048.454834</ele>
        <time>2012-05-26T09:26:06Z</time>
      </trkpt>
      <trkpt lat="45.55132" lon="6.08033">
        <ele>1040.2839355</ele>
        <time>2012-05-26T09:26:14Z</time>
      </trkpt>
      <trkpt lat="45.55132" lon="6.08045">
        <ele>1037.8806152</ele>
        <time>2012-05-26T09:26:20Z</time>
      </trkpt>
      <trkpt lat="45.5513" lon="6.08062">
        <ele>1037.8806152</ele>
        <time>2012-05-26T09:26:25Z</time>
      </trkpt>
      <trkpt lat="45.55131" lon="6.08065">
        <ele>1038.3613281</ele>
        <time>2012-05-26T09:26:26Z</time>
      </trkpt>
      <trkpt lat="45.55134" lon="6.08076">
        <ele>1038.842041</ele>
        <time>2012-05-26T09:26:31Z</time>
      </trkpt>
      <trkpt lat="45.55135" lon="6.08079">
        <ele>1037.3999023</ele>
        <time>2012-05-26T09:26:33Z</time>
      </trkpt>
      <trkpt lat="45.55141" lon="6.08085">
        <ele>1033.0737305</ele>
        <time>2012-05-26T09:26:39Z</time>
      </trkpt>
      <trkpt lat="45.55145" lon="6.08089">
        <ele>1031.6318359</ele>
        <time>2012-05-26T09:26:43Z</time>
      </trkpt>
      <trkpt lat="45.55146" lon="6.0809">
        <ele>1031.6318359</ele>
        <time>2012-05-26T09:26:44Z</time>
      </trkpt>
      <trkpt lat="45.55152" lon="6.08099">
        <ele>1033.5544434</ele>
        <time>2012-05-26T09:26:51Z</time>
      </trkpt>
      <trkpt lat="45.55153" lon="6.081">
        <ele>1034.5158691</ele>
        <time>2012-05-26T09:26:52Z</time>
      </trkpt>
      <trkpt lat="45.55156" lon="6.08103">
        <ele>1034.5158691</ele>
        <time>2012-05-26T09:26:55Z</time>
      </trkpt>
      <trkpt lat="45.55164" lon="6.08111">
        <ele>1034.0351563</ele>
        <time>2012-05-26T09:27:03Z</time>
      </trkpt>
      <trkpt lat="45.55165" lon="6.08112">
        <ele>1034.0351563</ele>
        <time>2012-05-26T09:27:04Z</time>
      </trkpt>
      <trkpt lat="45.55166" lon="6.08113">
        <ele>1034.5158691</ele>
        <time>2012-05-26T09:27:05Z</time>
      </trkpt>
      <trkpt lat="45.55168" lon="6.08119">
        <ele>1033.5544434</ele>
        <time>2012-05-26T09:27:09Z</time>
      </trkpt>
      <trkpt lat="45.55169" lon="6.08122">
        <ele>1033.5544434</ele>
        <time>2012-05-26T09:27:11Z</time>
      </trkpt>
      <trkpt lat="45.55167" lon="6.08124">
        <ele>1037.8806152</ele>
        <time>2012-05-26T09:27:14Z</time>
      </trkpt>
      <trkpt lat="45.55166" lon="6.08128">
        <ele>1040.2839355</ele>
        <time>2012-05-26T09:27:17Z</time>
      </trkpt>
      <trkpt lat="45.55166" lon="6.08131">
        <ele>1039.8032227</ele>
        <time>2012-05-26T09:27:19Z</time>
      </trkpt>
      <trkpt lat="45.55164" lon="6.08145">
        <ele>1044.1291504</ele>
        <time>2012-05-26T09:27:24Z</time>
      </trkpt>
      <trkpt lat="45.55165" lon="6.08149">
        <ele>1044.1291504</ele>
        <time>2012-05-26T09:27:26Z</time>
      </trkpt>
      <trkpt lat="45.5517" lon="6.08161">
        <ele>1042.206543</ele>
        <time>2012-05-26T09:27:33Z</time>
      </trkpt>
      <trkpt lat="45.55172" lon="6.08164">
        <ele>1040.7644043</ele>
        <time>2012-05-26T09:27:35Z</time>
      </trkpt>
      <trkpt lat="45.55181" lon="6.0817">
        <ele>1039.3225098</ele>
        <time>2012-05-26T09:27:42Z</time>
      </trkpt>
      <trkpt lat="45.55186" lon="6.08172">
        <ele>1037.8806152</ele>
        <time>2012-05-26T09:27:47Z</time>
      </trkpt>
      <trkpt lat="45.55195" lon="6.08171">
        <ele>1037.3999023</ele>
        <time>2012-05-26T09:27:53Z</time>
      </trkpt>
      <trkpt lat="45.552" lon="6.0817">
        <ele>1036.4387207</ele>
        <time>2012-05-26T09:27:57Z</time>
      </trkpt>
      <trkpt lat="45.55207" lon="6.0817">
        <ele>1036.4387207</ele>
        <time>2012-05-26T09:28:02Z</time>
      </trkpt>
      <trkpt lat="45.55213" lon="6.0817">
        <ele>1038.3613281</ele>
        <time>2012-05-26T09:28:08Z</time>
      </trkpt>
      <trkpt lat="45.55225" lon="6.08173">
        <ele>1037.3999023</ele>
        <time>2012-05-26T09:28:15Z</time>
      </trkpt>
      <trkpt lat="45.55227" lon="6.08175">
        <ele>1036.9191895</ele>
        <time>2012-05-26T09:28:17Z</time>
      </trkpt>
      <trkpt lat="45.55233" lon="6.0818">
        <ele>1036.4387207</ele>
        <time>2012-05-26T09:28:21Z</time>
      </trkpt>
      <trkpt lat="45.55235" lon="6.08184">
        <ele>1036.9191895</ele>
        <time>2012-05-26T09:28:22Z</time>
      </trkpt>
      <trkpt lat="45.55245" lon="6.08203">
        <ele>1031.6318359</ele>
        <time>2012-05-26T09:28:27Z</time>
      </trkpt>
      <trkpt lat="45.55257" lon="6.08214">
        <ele>1025.3833008</ele>
        <time>2012-05-26T09:28:32Z</time>
      </trkpt>
      <trkpt lat="45.55264" lon="6.08225">
        <ele>1023.4609375</ele>
        <time>2012-05-26T09:28:35Z</time>
      </trkpt>
      <trkpt lat="45.55267" lon="6.08228">
        <ele>1022.9802246</ele>
        <time>2012-05-26T09:28:36Z</time>
      </trkpt>
      <trkpt lat="45.55278" lon="6.08238">
        <ele>1011.9250488</ele>
        <time>2012-05-26T09:28:41Z</time>
      </trkpt>
      <trkpt lat="45.55281" lon="6.08241">
        <ele>1012.4055176</ele>
        <time>2012-05-26T09:28:42Z</time>
      </trkpt>
      <trkpt lat="45.55283" lon="6.08243">
        <ele>1011.9250488</ele>
        <time>2012-05-26T09:28:43Z</time>
      </trkpt>
      <trkpt lat="45.55295" lon="6.0825">
        <ele>1009.5217285</ele>
        <time>2012-05-26T09:28:47Z</time>
      </trkpt>
      <trkpt lat="45.55299" lon="6.08253">
        <ele>1006.1569824</ele>
        <time>2012-05-26T09:28:49Z</time>
      </trkpt>
      <trkpt lat="45.55302" lon="6.08257">
        <ele>1002.3115234</ele>
        <time>2012-05-26T09:28:51Z</time>
      </trkpt>
      <trkpt lat="45.55305" lon="6.0827">
        <ele>1000.3891602</ele>
        <time>2012-05-26T09:28:55Z</time>
      </trkpt>
      <trkpt lat="45.55312" lon="6.08285">
        <ele>996.5439453</ele>
        <time>2012-05-26T09:29:00Z</time>
      </trkpt>
      <trkpt lat="45.55319" lon="6.08296">
        <ele>998.9470215</ele>
        <time>2012-05-26T09:29:05Z</time>
      </trkpt>
      <trkpt lat="45.55332" lon="6.083">
        <ele>999.4277344</ele>
        <time>2012-05-26T09:29:10Z</time>
      </trkpt>
      <trkpt lat="45.55336" lon="6.083">
        <ele>1001.8310547</ele>
        <time>2012-05-26T09:29:12Z</time>
      </trkpt>
      <trkpt lat="45.55338" lon="6.08301">
        <ele>1005.6765137</ele>
        <time>2012-05-26T09:29:16Z</time>
      </trkpt>
      <trkpt lat="45.55335" lon="6.083">
        <ele>1017.2121582</ele>
        <time>2012-05-26T09:29:19Z</time>
      </trkpt>
      <trkpt lat="45.55335" lon="6.08301">
        <ele>1017.692627</ele>
        <time>2012-05-26T09:29:20Z</time>
      </trkpt>
      <trkpt lat="45.55336" lon="6.08304">
        <ele>1017.692627</ele>
        <time>2012-05-26T09:29:22Z</time>
      </trkpt>
      <trkpt lat="45.55328" lon="6.08317">
        <ele>1018.6540527</ele>
        <time>2012-05-26T09:29:29Z</time>
      </trkpt>
      <trkpt lat="45.55322" lon="6.08326">
        <ele>1028.267334</ele>
        <time>2012-05-26T09:29:33Z</time>
      </trkpt>
      <trkpt lat="45.55311" lon="6.08333">
        <ele>1051.8195801</ele>
        <time>2012-05-26T09:29:40Z</time>
      </trkpt>
      <trkpt lat="45.55308" lon="6.08335">
        <ele>1054.2231445</ele>
        <time>2012-05-26T09:29:42Z</time>
      </trkpt>
      <trkpt lat="45.55306" lon="6.08334">
        <ele>1056.1455078</ele>
        <time>2012-05-26T09:29:43Z</time>
      </trkpt>
      <trkpt lat="45.55298" lon="6.08338">
        <ele>1064.3166504</ele>
        <time>2012-05-26T09:29:49Z</time>
      </trkpt>
      <trkpt lat="45.55291" lon="6.08352">
        <ele>1059.9907227</ele>
        <time>2012-05-26T09:29:56Z</time>
      </trkpt>
      <trkpt lat="45.55284" lon="6.08356">
        <ele>1056.1455078</ele>
        <time>2012-05-26T09:30:00Z</time>
      </trkpt>
      <trkpt lat="45.55278" lon="6.08366">
        <ele>1051.3388672</ele>
        <time>2012-05-26T09:30:05Z</time>
      </trkpt>
      <trkpt lat="45.55273" lon="6.08369">
        <ele>1050.8581543</ele>
        <time>2012-05-26T09:30:08Z</time>
      </trkpt>
      <trkpt lat="45.55262" lon="6.08382">
        <ele>1048.9355469</ele>
        <time>2012-05-26T09:30:13Z</time>
      </trkpt>
      <trkpt lat="45.55252" lon="6.08392">
        <ele>1042.206543</ele>
        <time>2012-05-26T09:30:18Z</time>
      </trkpt>
      <trkpt lat="45.55248" lon="6.08406">
        <ele>1040.2839355</ele>
        <time>2012-05-26T09:30:23Z</time>
      </trkpt>
      <trkpt lat="45.55249" lon="6.08409">
        <ele>1039.8032227</ele>
        <time>2012-05-26T09:30:24Z</time>
      </trkpt>
      <trkpt lat="45.55259" lon="6.08422">
        <ele>1036.4387207</ele>
        <time>2012-05-26T09:30:31Z</time>
      </trkpt>
      <trkpt lat="45.55263" lon="6.08427">
        <ele>1032.5932617</ele>
        <time>2012-05-26T09:30:34Z</time>
      </trkpt>
      <trkpt lat="45.55268" lon="6.0843">
        <ele>1030.6706543</ele>
        <time>2012-05-26T09:30:37Z</time>
      </trkpt>
      <trkpt lat="45.5527" lon="6.08431">
        <ele>1030.1899414</ele>
        <time>2012-05-26T09:30:39Z</time>
      </trkpt>
      <trkpt lat="45.55272" lon="6.08434">
        <ele>1028.267334</ele>
        <time>2012-05-26T09:30:41Z</time>
      </trkpt>
      <trkpt lat="45.55278" lon="6.08438">
        <ele>1024.902832</ele>
        <time>2012-05-26T09:30:46Z</time>
      </trkpt>
      <trkpt lat="45.55278" lon="6.08442">
        <ele>1025.3833008</ele>
        <time>2012-05-26T09:30:48Z</time>
      </trkpt>
      <trkpt lat="45.55282" lon="6.08449">
        <ele>1022.0187988</ele>
        <time>2012-05-26T09:30:53Z</time>
      </trkpt>
      <trkpt lat="45.55285" lon="6.08453">
        <ele>1023.4609375</ele>
        <time>2012-05-26T09:30:59Z</time>
      </trkpt>
      <trkpt lat="45.55285" lon="6.08454">
        <ele>1023.9414063</ele>
        <time>2012-05-26T09:31:00Z</time>
      </trkpt>
      <trkpt lat="45.55283" lon="6.08465">
        <ele>1040.2839355</ele>
        <time>2012-05-26T09:31:03Z</time>
      </trkpt>
      <trkpt lat="45.55284" lon="6.08469">
        <ele>1047.9743652</ele>
        <time>2012-05-26T09:31:08Z</time>
      </trkpt>
      <trkpt lat="45.55282" lon="6.08473">
        <ele>1051.3388672</ele>
        <time>2012-05-26T09:31:10Z</time>
      </trkpt>
      <trkpt lat="45.55282" lon="6.08475">
        <ele>1054.7036133</ele>
        <time>2012-05-26T09:31:11Z</time>
      </trkpt>
      <trkpt lat="45.55281" lon="6.08478">
        <ele>1058.0683594</ele>
        <time>2012-05-26T09:31:13Z</time>
      </trkpt>
      <trkpt lat="45.55278" lon="6.08483">
        <ele>1059.029541</ele>
        <time>2012-05-26T09:31:18Z</time>
      </trkpt>
      <trkpt lat="45.55278" lon="6.08483">
        <ele>1060.4714355</ele>
        <time>2012-05-26T09:31:19Z</time>
      </trkpt>
      <trkpt lat="45.55273" lon="6.08494">
        <ele>1065.2780762</ele>
        <time>2012-05-26T09:31:27Z</time>
      </trkpt>
      <trkpt lat="45.55271" lon="6.08502">
        <ele>1074.4106445</ele>
        <time>2012-05-26T09:31:34Z</time>
      </trkpt>
      <trkpt lat="45.5527" lon="6.08507">
        <ele>1076.8139648</ele>
        <time>2012-05-26T09:31:39Z</time>
      </trkpt>
      <trkpt lat="45.55271" lon="6.08505">
        <ele>1075.8525391</ele>
        <time>2012-05-26T09:31:40Z</time>
      </trkpt>
      <trkpt lat="45.55269" lon="6.085">
        <ele>1076.8139648</ele>
        <time>2012-05-26T09:31:43Z</time>
      </trkpt>
      <trkpt lat="45.55267" lon="6.08498">
        <ele>1076.8139648</ele>
        <time>2012-05-26T09:31:46Z</time>
      </trkpt>
      <trkpt lat="45.5526" lon="6.08497">
        <ele>1077.2946777</ele>
        <time>2012-05-26T09:31:51Z</time>
      </trkpt>
      <trkpt lat="45.55258" lon="6.08504">
        <ele>1068.6428223</ele>
        <time>2012-05-26T09:31:58Z</time>
      </trkpt>
      <trkpt lat="45.55256" lon="6.08506">
        <ele>1067.2006836</ele>
        <time>2012-05-26T09:32:01Z</time>
      </trkpt>
      <trkpt lat="45.55251" lon="6.08514">
        <ele>1065.2780762</ele>
        <time>2012-05-26T09:32:08Z</time>
      </trkpt>
      <trkpt lat="45.55248" lon="6.08522">
        <ele>1064.3166504</ele>
        <time>2012-05-26T09:32:12Z</time>
      </trkpt>
      <trkpt lat="45.55246" lon="6.0853">
        <ele>1065.2780762</ele>
        <time>2012-05-26T09:32:15Z</time>
      </trkpt>
      <trkpt lat="45.55245" lon="6.08536">
        <ele>1064.7973633</ele>
        <time>2012-05-26T09:32:16Z</time>
      </trkpt>
      <trkpt lat="45.55247" lon="6.08557">
        <ele>1060.9521484</ele>
        <time>2012-05-26T09:32:21Z</time>
      </trkpt>
      <trkpt lat="45.55245" lon="6.08564">
        <ele>1060.9521484</ele>
        <time>2012-05-26T09:32:23Z</time>
      </trkpt>
      <trkpt lat="45.55242" lon="6.08573">
        <ele>1057.5876465</ele>
        <time>2012-05-26T09:32:27Z</time>
      </trkpt>
      <trkpt lat="45.55238" lon="6.08576">
        <ele>1056.6262207</ele>
        <time>2012-05-26T09:32:31Z</time>
      </trkpt>
      <trkpt lat="45.55235" lon="6.08578">
        <ele>1057.1069336</ele>
        <time>2012-05-26T09:32:33Z</time>
      </trkpt>
      <trkpt lat="45.55231" lon="6.08585">
        <ele>1059.5102539</ele>
        <time>2012-05-26T09:32:38Z</time>
      </trkpt>
      <trkpt lat="45.55225" lon="6.0859">
        <ele>1060.4714355</ele>
        <time>2012-05-26T09:32:45Z</time>
      </trkpt>
      <trkpt lat="45.55219" lon="6.08589">
        <ele>1063.8359375</ele>
        <time>2012-05-26T09:32:52Z</time>
      </trkpt>
      <trkpt lat="45.55217" lon="6.08588">
        <ele>1065.2780762</ele>
        <time>2012-05-26T09:32:53Z</time>
      </trkpt>
      <trkpt lat="45.55213" lon="6.0859">
        <ele>1065.2780762</ele>
        <time>2012-05-26T09:32:57Z</time>
      </trkpt>
      <trkpt lat="45.55212" lon="6.08597">
        <ele>1062.8747559</ele>
        <time>2012-05-26T09:33:01Z</time>
      </trkpt>
      <trkpt lat="45.55207" lon="6.08612">
        <ele>1061.4328613</ele>
        <time>2012-05-26T09:33:06Z</time>
      </trkpt>
      <trkpt lat="45.55205" lon="6.08624">
        <ele>1060.4714355</ele>
        <time>2012-05-26T09:33:10Z</time>
      </trkpt>
      <trkpt lat="45.55205" lon="6.08627">
        <ele>1060.4714355</ele>
        <time>2012-05-26T09:33:11Z</time>
      </trkpt>
      <trkpt lat="45.55201" lon="6.08641">
        <ele>1063.3554688</ele>
        <time>2012-05-26T09:33:16Z</time>
      </trkpt>
      <trkpt lat="45.55201" lon="6.08643">
        <ele>1064.3166504</ele>
        <time>2012-05-26T09:33:17Z</time>
      </trkpt>
      <trkpt lat="45.55199" lon="6.08643">
        <ele>1065.2780762</ele>
        <time>2012-05-26T09:33:18Z</time>
      </trkpt>
      <trkpt lat="45.55197" lon="6.08645">
        <ele>1066.7199707</ele>
        <time>2012-05-26T09:33:19Z</time>
      </trkpt>
      <trkpt lat="45.55187" lon="6.0865">
        <ele>1074.4106445</ele>
        <time>2012-05-26T09:33:24Z</time>
      </trkpt>
      <trkpt lat="45.5518" lon="6.08654">
        <ele>1074.4106445</ele>
        <time>2012-05-26T09:33:28Z</time>
      </trkpt>
      <trkpt lat="45.55174" lon="6.08665">
        <ele>1075.3718262</ele>
        <time>2012-05-26T09:33:33Z</time>
      </trkpt>
      <trkpt lat="45.55172" lon="6.08666">
        <ele>1075.3718262</ele>
        <time>2012-05-26T09:33:34Z</time>
      </trkpt>
      <trkpt lat="45.55167" lon="6.08671">
        <ele>1070.5654297</ele>
        <time>2012-05-26T09:33:38Z</time>
      </trkpt>
      <trkpt lat="45.55159" lon="6.08671">
        <ele>1067.6811523</ele>
        <time>2012-05-26T09:33:43Z</time>
      </trkpt>
      <trkpt lat="45.55155" lon="6.08676">
        <ele>1064.3166504</ele>
        <time>2012-05-26T09:33:46Z</time>
      </trkpt>
      <trkpt lat="45.55154" lon="6.08678">
        <ele>1062.8747559</ele>
        <time>2012-05-26T09:33:47Z</time>
      </trkpt>
      <trkpt lat="45.55146" lon="6.08687">
        <ele>1059.9907227</ele>
        <time>2012-05-26T09:33:50Z</time>
      </trkpt>
      <trkpt lat="45.55142" lon="6.08687">
        <ele>1059.9907227</ele>
        <time>2012-05-26T09:33:51Z</time>
      </trkpt>
      <trkpt lat="45.55137" lon="6.08686">
        <ele>1058.0683594</ele>
        <time>2012-05-26T09:33:53Z</time>
      </trkpt>
      <trkpt lat="45.55123" lon="6.0869">
        <ele>1057.5876465</ele>
        <time>2012-05-26T09:33:59Z</time>
      </trkpt>
      <trkpt lat="45.55115" lon="6.08692">
        <ele>1060.4714355</ele>
        <time>2012-05-26T09:34:02Z</time>
      </trkpt>
      <trkpt lat="45.551" lon="6.08694">
        <ele>1065.2780762</ele>
        <time>2012-05-26T09:34:08Z</time>
      </trkpt>
      <trkpt lat="45.55087" lon="6.08682">
        <ele>1067.6811523</ele>
        <time>2012-05-26T09:34:12Z</time>
      </trkpt>
      <trkpt lat="45.55072" lon="6.08676">
        <ele>1070.0847168</ele>
        <time>2012-05-26T09:34:18Z</time>
      </trkpt>
      <trkpt lat="45.55069" lon="6.08679">
        <ele>1067.6811523</ele>
        <time>2012-05-26T09:34:20Z</time>
      </trkpt>
      <trkpt lat="45.5506" lon="6.08685">
        <ele>1063.8359375</ele>
        <time>2012-05-26T09:34:26Z</time>
      </trkpt>
      <trkpt lat="45.55059" lon="6.08686">
        <ele>1063.3554688</ele>
        <time>2012-05-26T09:34:27Z</time>
      </trkpt>
      <trkpt lat="45.55057" lon="6.08687">
        <ele>1062.8747559</ele>
        <time>2012-05-26T09:34:28Z</time>
      </trkpt>
      <trkpt lat="45.55045" lon="6.08688">
        <ele>1062.394043</ele>
        <time>2012-05-26T09:34:33Z</time>
      </trkpt>
      <trkpt lat="45.55043" lon="6.08689">
        <ele>1061.4328613</ele>
        <time>2012-05-26T09:34:34Z</time>
      </trkpt>
      <trkpt lat="45.55035" lon="6.08687">
        <ele>1059.5102539</ele>
        <time>2012-05-26T09:34:37Z</time>
      </trkpt>
      <trkpt lat="45.55033" lon="6.08687">
        <ele>1058.0683594</ele>
        <time>2012-05-26T09:34:38Z</time>
      </trkpt>
      <trkpt lat="45.55025" lon="6.08698">
        <ele>1059.5102539</ele>
        <time>2012-05-26T09:34:44Z</time>
      </trkpt>
      <trkpt lat="45.55022" lon="6.08701">
        <ele>1061.4328613</ele>
        <time>2012-05-26T09:34:46Z</time>
      </trkpt>
      <trkpt lat="45.55014" lon="6.08712">
        <ele>1061.9135742</ele>
        <time>2012-05-26T09:34:53Z</time>
      </trkpt>
      <trkpt lat="45.55013" lon="6.08714">
        <ele>1061.9135742</ele>
        <time>2012-05-26T09:34:54Z</time>
      </trkpt>
      <trkpt lat="45.55005" lon="6.08721">
        <ele>1060.9521484</ele>
        <time>2012-05-26T09:34:59Z</time>
      </trkpt>
      <trkpt lat="45.55003" lon="6.08724">
        <ele>1059.5102539</ele>
        <time>2012-05-26T09:35:01Z</time>
      </trkpt>
      <trkpt lat="45.55" lon="6.08737">
        <ele>1054.2231445</ele>
        <time>2012-05-26T09:35:07Z</time>
      </trkpt>
      <trkpt lat="45.54994" lon="6.0874">
        <ele>1057.1069336</ele>
        <time>2012-05-26T09:35:11Z</time>
      </trkpt>
      <trkpt lat="45.54987" lon="6.08746">
        <ele>1057.5876465</ele>
        <time>2012-05-26T09:35:17Z</time>
      </trkpt>
      <trkpt lat="45.54979" lon="6.08751">
        <ele>1059.9907227</ele>
        <time>2012-05-26T09:35:23Z</time>
      </trkpt>
      <trkpt lat="45.54978" lon="6.08753">
        <ele>1059.9907227</ele>
        <time>2012-05-26T09:35:24Z</time>
      </trkpt>
      <trkpt lat="45.54973" lon="6.0876">
        <ele>1060.9521484</ele>
        <time>2012-05-26T09:35:29Z</time>
      </trkpt>
      <trkpt lat="45.5497" lon="6.0877">
        <ele>1058.5488281</ele>
        <time>2012-05-26T09:35:35Z</time>
      </trkpt>
      <trkpt lat="45.54965" lon="6.0878">
        <ele>1057.5876465</ele>
        <time>2012-05-26T09:35:40Z</time>
      </trkpt>
      <trkpt lat="45.54962" lon="6.08791">
        <ele>1058.5488281</ele>
        <time>2012-05-26T09:35:45Z</time>
      </trkpt>
      <trkpt lat="45.54953" lon="6.08802">
        <ele>1065.2780762</ele>
        <time>2012-05-26T09:35:51Z</time>
      </trkpt>
      <trkpt lat="45.54952" lon="6.08804">
        <ele>1064.7973633</ele>
        <time>2012-05-26T09:35:52Z</time>
      </trkpt>
      <trkpt lat="45.54938" lon="6.08819">
        <ele>1074.4106445</ele>
        <time>2012-05-26T09:35:59Z</time>
      </trkpt>
      <trkpt lat="45.54923" lon="6.08827">
        <ele>1086.9077148</ele>
        <time>2012-05-26T09:36:04Z</time>
      </trkpt>
      <trkpt lat="45.5492" lon="6.08828">
        <ele>1090.2724609</ele>
        <time>2012-05-26T09:36:05Z</time>
      </trkpt>
      <trkpt lat="45.54912" lon="6.08832">
        <ele>1097.0014648</ele>
        <time>2012-05-26T09:36:08Z</time>
      </trkpt>
      <trkpt lat="45.54907" lon="6.08832">
        <ele>1102.7695313</ele>
        <time>2012-05-26T09:36:11Z</time>
      </trkpt>
      <trkpt lat="45.54904" lon="6.08831">
        <ele>1108.5373535</ele>
        <time>2012-05-26T09:36:12Z</time>
      </trkpt>
      <trkpt lat="45.54894" lon="6.0883">
        <ele>1122.9572754</ele>
        <time>2012-05-26T09:36:15Z</time>
      </trkpt>
      <trkpt lat="45.54878" lon="6.08834">
        <ele>1137.857666</ele>
        <time>2012-05-26T09:36:20Z</time>
      </trkpt>
      <trkpt lat="45.54876" lon="6.08835">
        <ele>1139.2995605</ele>
        <time>2012-05-26T09:36:21Z</time>
      </trkpt>
      <trkpt lat="45.54861" lon="6.08833">
        <ele>1153.7194824</ele>
        <time>2012-05-26T09:36:26Z</time>
      </trkpt>
      <trkpt lat="45.54845" lon="6.08834">
        <ele>1172.4650879</ele>
        <time>2012-05-26T09:36:32Z</time>
      </trkpt>
      <trkpt lat="45.54824" lon="6.08832">
        <ele>1196.498291</ele>
        <time>2012-05-26T09:36:37Z</time>
      </trkpt>
      <trkpt lat="45.54811" lon="6.08826">
        <ele>1207.5532227</ele>
        <time>2012-05-26T09:36:41Z</time>
      </trkpt>
      <trkpt lat="45.54802" lon="6.08827">
        <ele>1218.1276855</ele>
        <time>2012-05-26T09:36:46Z</time>
      </trkpt>
      <trkpt lat="45.54793" lon="6.0883">
        <ele>1225.8181152</ele>
        <time>2012-05-26T09:36:51Z</time>
      </trkpt>
      <trkpt lat="45.54782" lon="6.08837">
        <ele>1226.779541</ele>
        <time>2012-05-26T09:36:56Z</time>
      </trkpt>
      <trkpt lat="45.54777" lon="6.08839">
        <ele>1227.2602539</ele>
        <time>2012-05-26T09:36:58Z</time>
      </trkpt>
      <trkpt lat="45.54766" lon="6.08852">
        <ele>1233.5087891</ele>
        <time>2012-05-26T09:37:04Z</time>
      </trkpt>
      <trkpt lat="45.54763" lon="6.08858">
        <ele>1231.5861816</ele>
        <time>2012-05-26T09:37:08Z</time>
      </trkpt>
      <trkpt lat="45.54763" lon="6.08859">
        <ele>1230.625</ele>
        <time>2012-05-26T09:37:09Z</time>
      </trkpt>
      <trkpt lat="45.54762" lon="6.08861">
        <ele>1230.1442871</ele>
        <time>2012-05-26T09:37:10Z</time>
      </trkpt>
      <trkpt lat="45.54757" lon="6.08872">
        <ele>1231.1057129</ele>
        <time>2012-05-26T09:37:16Z</time>
      </trkpt>
      <trkpt lat="45.54757" lon="6.08874">
        <ele>1231.1057129</ele>
        <time>2012-05-26T09:37:17Z</time>
      </trkpt>
      <trkpt lat="45.54757" lon="6.08875">
        <ele>1230.625</ele>
        <time>2012-05-26T09:37:18Z</time>
      </trkpt>
      <trkpt lat="45.54754" lon="6.08888">
        <ele>1225.3374023</ele>
        <time>2012-05-26T09:37:24Z</time>
      </trkpt>
      <trkpt lat="45.54752" lon="6.08893">
        <ele>1226.2988281</ele>
        <time>2012-05-26T09:37:28Z</time>
      </trkpt>
      <trkpt lat="45.54751" lon="6.08897">
        <ele>1226.2988281</ele>
        <time>2012-05-26T09:37:30Z</time>
      </trkpt>
      <trkpt lat="45.54753" lon="6.08904">
        <ele>1222.9343262</ele>
        <time>2012-05-26T09:37:33Z</time>
      </trkpt>
      <trkpt lat="45.54755" lon="6.08918">
        <ele>1218.1276855</ele>
        <time>2012-05-26T09:37:39Z</time>
      </trkpt>
      <trkpt lat="45.54754" lon="6.08918">
        <ele>1219.0891113</ele>
        <time>2012-05-26T09:37:40Z</time>
      </trkpt>
      <trkpt lat="45.54759" lon="6.08929">
        <ele>1212.8405762</ele>
        <time>2012-05-26T09:37:44Z</time>
      </trkpt>
      <trkpt lat="45.54761" lon="6.08943">
        <ele>1209.9562988</ele>
        <time>2012-05-26T09:37:50Z</time>
      </trkpt>
      <trkpt lat="45.54762" lon="6.08951">
        <ele>1209.9562988</ele>
        <time>2012-05-26T09:37:56Z</time>
      </trkpt>
      <trkpt lat="45.54753" lon="6.08956">
        <ele>1223.8955078</ele>
        <time>2012-05-26T09:38:02Z</time>
      </trkpt>
      <trkpt lat="45.54752" lon="6.08957">
        <ele>1222.4536133</ele>
        <time>2012-05-26T09:38:04Z</time>
      </trkpt>
      <trkpt lat="45.54752" lon="6.08958">
        <ele>1223.4150391</ele>
        <time>2012-05-26T09:38:06Z</time>
      </trkpt>
      <trkpt lat="45.54752" lon="6.08959">
        <ele>1223.8955078</ele>
        <time>2012-05-26T09:38:07Z</time>
      </trkpt>
      <trkpt lat="45.54752" lon="6.08965">
        <ele>1222.9343262</ele>
        <time>2012-05-26T09:38:11Z</time>
      </trkpt>
      <trkpt lat="45.54749" lon="6.08973">
        <ele>1227.2602539</ele>
        <time>2012-05-26T09:38:15Z</time>
      </trkpt>
      <trkpt lat="45.54743" lon="6.08979">
        <ele>1229.1828613</ele>
        <time>2012-05-26T09:38:20Z</time>
      </trkpt>
      <trkpt lat="45.54743" lon="6.0898">
        <ele>1229.6635742</ele>
        <time>2012-05-26T09:38:21Z</time>
      </trkpt>
      <trkpt lat="45.54742" lon="6.09002">
        <ele>1227.2602539</ele>
        <time>2012-05-26T09:38:42Z</time>
      </trkpt>
      <trkpt lat="45.54742" lon="6.09004">
        <ele>1226.779541</ele>
        <time>2012-05-26T09:38:43Z</time>
      </trkpt>
      <trkpt lat="45.54741" lon="6.09009">
        <ele>1228.2216797</ele>
        <time>2012-05-26T09:38:46Z</time>
      </trkpt>
      <trkpt lat="45.54738" lon="6.0901">
        <ele>1233.0280762</ele>
        <time>2012-05-26T09:38:48Z</time>
      </trkpt>
      <trkpt lat="45.54734" lon="6.09017">
        <ele>1238.3154297</ele>
        <time>2012-05-26T09:38:54Z</time>
      </trkpt>
      <trkpt lat="45.54732" lon="6.0902">
        <ele>1240.2380371</ele>
        <time>2012-05-26T09:38:57Z</time>
      </trkpt>
      <trkpt lat="45.54731" lon="6.09024">
        <ele>1241.6799316</ele>
        <time>2012-05-26T09:39:04Z</time>
      </trkpt>
      <trkpt lat="45.5473" lon="6.09025">
        <ele>1242.6413574</ele>
        <time>2012-05-26T09:39:06Z</time>
      </trkpt>
      <trkpt lat="45.54739" lon="6.09031">
        <ele>1243.1218262</ele>
        <time>2012-05-26T09:39:30Z</time>
      </trkpt>
      <trkpt lat="45.54739" lon="6.0903">
        <ele>1243.1218262</ele>
        <time>2012-05-26T09:39:31Z</time>
      </trkpt>
      <trkpt lat="45.54742" lon="6.09029">
        <ele>1242.1606445</ele>
        <time>2012-05-26T09:39:35Z</time>
      </trkpt>
      <trkpt lat="45.54744" lon="6.09027">
        <ele>1243.1218262</ele>
        <time>2012-05-26T09:39:40Z</time>
      </trkpt>
      <trkpt lat="45.54734" lon="6.0905">
        <ele>1259.4643555</ele>
        <time>2012-05-26T09:40:10Z</time>
      </trkpt>
      <trkpt lat="45.54736" lon="6.09055">
        <ele>1257.541748</ele>
        <time>2012-05-26T09:40:17Z</time>
      </trkpt>
      <trkpt lat="45.5474" lon="6.09062">
        <ele>1256.0996094</ele>
        <time>2012-05-26T09:40:26Z</time>
      </trkpt>
      <trkpt lat="45.54747" lon="6.09063">
        <ele>1246.4868164</ele>
        <time>2012-05-26T09:40:31Z</time>
      </trkpt>
      <trkpt lat="45.54749" lon="6.09065">
        <ele>1248.4091797</ele>
        <time>2012-05-26T09:40:40Z</time>
      </trkpt>
      <trkpt lat="45.54747" lon="6.09097">
        <ele>1264.751709</ele>
        <time>2012-05-26T09:41:15Z</time>
      </trkpt>
      <trkpt lat="45.54746" lon="6.09103">
        <ele>1269.0776367</ele>
        <time>2012-05-26T09:41:18Z</time>
      </trkpt>
      <trkpt lat="45.54744" lon="6.09109">
        <ele>1273.8840332</ele>
        <time>2012-05-26T09:41:23Z</time>
      </trkpt>
      <trkpt lat="45.54743" lon="6.0911">
        <ele>1274.845459</ele>
        <time>2012-05-26T09:41:24Z</time>
      </trkpt>
      <trkpt lat="45.54745" lon="6.09112">
        <ele>1274.3647461</ele>
        <time>2012-05-26T09:41:26Z</time>
      </trkpt>
      <trkpt lat="45.54747" lon="6.09117">
        <ele>1275.8066406</ele>
        <time>2012-05-26T09:41:31Z</time>
      </trkpt>
      <trkpt lat="45.5475" lon="6.09123">
        <ele>1278.2102051</ele>
        <time>2012-05-26T09:41:39Z</time>
      </trkpt>
      <trkpt lat="45.54749" lon="6.09131">
        <ele>1280.6135254</ele>
        <time>2012-05-26T09:41:45Z</time>
      </trkpt>
      <trkpt lat="45.54753" lon="6.09137">
        <ele>1277.2490234</ele>
        <time>2012-05-26T09:41:50Z</time>
      </trkpt>
      <trkpt lat="45.5476" lon="6.0915">
        <ele>1274.845459</ele>
        <time>2012-05-26T09:41:57Z</time>
      </trkpt>
      <trkpt lat="45.54766" lon="6.09158">
        <ele>1276.7683105</ele>
        <time>2012-05-26T09:42:01Z</time>
      </trkpt>
      <trkpt lat="45.54772" lon="6.09177">
        <ele>1281.574707</ele>
        <time>2012-05-26T09:42:07Z</time>
      </trkpt>
      <trkpt lat="45.54773" lon="6.09188">
        <ele>1284.4587402</ele>
        <time>2012-05-26T09:42:11Z</time>
      </trkpt>
      <trkpt lat="45.54775" lon="6.09194">
        <ele>1286.3813477</ele>
        <time>2012-05-26T09:42:13Z</time>
      </trkpt>
      <trkpt lat="45.54775" lon="6.09196">
        <ele>1287.8232422</ele>
        <time>2012-05-26T09:42:14Z</time>
      </trkpt>
      <trkpt lat="45.54776" lon="6.09206">
        <ele>1288.784668</ele>
        <time>2012-05-26T09:42:17Z</time>
      </trkpt>
      <trkpt lat="45.54778" lon="6.09217">
        <ele>1291.668457</ele>
        <time>2012-05-26T09:42:21Z</time>
      </trkpt>
      <trkpt lat="45.54778" lon="6.09233">
        <ele>1300.3205566</ele>
        <time>2012-05-26T09:42:25Z</time>
      </trkpt>
      <trkpt lat="45.54779" lon="6.09236">
        <ele>1299.3591309</ele>
        <time>2012-05-26T09:42:26Z</time>
      </trkpt>
      <trkpt lat="45.54781" lon="6.09256">
        <ele>1299.3591309</ele>
        <time>2012-05-26T09:42:31Z</time>
      </trkpt>
      <trkpt lat="45.54789" lon="6.09281">
        <ele>1291.1877441</ele>
        <time>2012-05-26T09:42:38Z</time>
      </trkpt>
      <trkpt lat="45.54789" lon="6.09285">
        <ele>1288.784668</ele>
        <time>2012-05-26T09:42:39Z</time>
      </trkpt>
      <trkpt lat="45.5479" lon="6.09288">
        <ele>1284.9394531</ele>
        <time>2012-05-26T09:42:40Z</time>
      </trkpt>
      <trkpt lat="45.54791" lon="6.09291">
        <ele>1281.574707</ele>
        <time>2012-05-26T09:42:41Z</time>
      </trkpt>
      <trkpt lat="45.54792" lon="6.09293">
        <ele>1277.7294922</ele>
        <time>2012-05-26T09:42:42Z</time>
      </trkpt>
      <trkpt lat="45.54797" lon="6.0931">
        <ele>1261.8679199</ele>
        <time>2012-05-26T09:42:48Z</time>
      </trkpt>
      <trkpt lat="45.54798" lon="6.09312">
        <ele>1259.4643555</ele>
        <time>2012-05-26T09:42:49Z</time>
      </trkpt>
      <trkpt lat="45.54802" lon="6.09317">
        <ele>1253.2158203</ele>
        <time>2012-05-26T09:42:51Z</time>
      </trkpt>
      <trkpt lat="45.54819" lon="6.09331">
        <ele>1229.6635742</ele>
        <time>2012-05-26T09:42:56Z</time>
      </trkpt>
      <trkpt lat="45.54831" lon="6.09342">
        <ele>1208.5144043</ele>
        <time>2012-05-26T09:42:59Z</time>
      </trkpt>
      <trkpt lat="45.54848" lon="6.09353">
        <ele>1185.4428711</ele>
        <time>2012-05-26T09:43:04Z</time>
      </trkpt>
      <trkpt lat="45.54888" lon="6.09384">
        <ele>1131.128418</ele>
        <time>2012-05-26T09:43:12Z</time>
      </trkpt>
      <trkpt lat="45.54894" lon="6.09397">
        <ele>1121.5151367</ele>
        <time>2012-05-26T09:43:17Z</time>
      </trkpt>
      <trkpt lat="45.54897" lon="6.094">
        <ele>1118.6313477</ele>
        <time>2012-05-26T09:43:19Z</time>
      </trkpt>
      <trkpt lat="45.549" lon="6.09405">
        <ele>1115.7473145</ele>
        <time>2012-05-26T09:43:21Z</time>
      </trkpt>
      <trkpt lat="45.54908" lon="6.09418">
        <ele>1104.2116699</ele>
        <time>2012-05-26T09:43:26Z</time>
      </trkpt>
      <trkpt lat="45.54912" lon="6.09436">
        <ele>1094.5981445</ele>
        <time>2012-05-26T09:43:31Z</time>
      </trkpt>
      <trkpt lat="45.54916" lon="6.09449">
        <ele>1090.2724609</ele>
        <time>2012-05-26T09:43:35Z</time>
      </trkpt>
      <trkpt lat="45.54922" lon="6.09462">
        <ele>1077.7751465</ele>
        <time>2012-05-26T09:43:39Z</time>
      </trkpt>
      <trkpt lat="45.54923" lon="6.09465">
        <ele>1076.333252</ele>
        <time>2012-05-26T09:43:40Z</time>
      </trkpt>
      <trkpt lat="45.54928" lon="6.09472">
        <ele>1069.604248</ele>
        <time>2012-05-26T09:43:43Z</time>
      </trkpt>
      <trkpt lat="45.54942" lon="6.09491">
        <ele>1057.5876465</ele>
        <time>2012-05-26T09:43:49Z</time>
      </trkpt>
      <trkpt lat="45.54948" lon="6.09498">
        <ele>1047.4936523</ele>
        <time>2012-05-26T09:43:52Z</time>
      </trkpt>
      <trkpt lat="45.54951" lon="6.09504">
        <ele>1044.1291504</ele>
        <time>2012-05-26T09:43:54Z</time>
      </trkpt>
      <trkpt lat="45.54957" lon="6.09516">
        <ele>1030.6706543</ele>
        <time>2012-05-26T09:43:59Z</time>
      </trkpt>
      <trkpt lat="45.54961" lon="6.09532">
        <ele>1022.4995117</ele>
        <time>2012-05-26T09:44:04Z</time>
      </trkpt>
      <trkpt lat="45.54963" lon="6.09546">
        <ele>1015.2895508</ele>
        <time>2012-05-26T09:44:08Z</time>
      </trkpt>
      <trkpt lat="45.54964" lon="6.09554">
        <ele>1012.8862305</ele>
        <time>2012-05-26T09:44:10Z</time>
      </trkpt>
      <trkpt lat="45.54965" lon="6.09576">
        <ele>1009.5217285</ele>
        <time>2012-05-26T09:44:16Z</time>
      </trkpt>
      <trkpt lat="45.54968" lon="6.09585">
        <ele>1004.2346191</ele>
        <time>2012-05-26T09:44:19Z</time>
      </trkpt>
      <trkpt lat="45.5497" lon="6.0959">
        <ele>1000.8696289</ele>
        <time>2012-05-26T09:44:21Z</time>
      </trkpt>
      <trkpt lat="45.54972" lon="6.09612">
        <ele>994.140625</ele>
        <time>2012-05-26T09:44:27Z</time>
      </trkpt>
      <trkpt lat="45.54977" lon="6.09629">
        <ele>992.2180176</ele>
        <time>2012-05-26T09:44:31Z</time>
      </trkpt>
      <trkpt lat="45.54983" lon="6.09636">
        <ele>983.0852051</ele>
        <time>2012-05-26T09:44:33Z</time>
      </trkpt>
      <trkpt lat="45.54984" lon="6.09639">
        <ele>983.0852051</ele>
        <time>2012-05-26T09:44:34Z</time>
      </trkpt>
      <trkpt lat="45.54986" lon="6.09647">
        <ele>981.1628418</ele>
        <time>2012-05-26T09:44:37Z</time>
      </trkpt>
      <trkpt lat="45.54987" lon="6.09649">
        <ele>979.2399902</ele>
        <time>2012-05-26T09:44:38Z</time>
      </trkpt>
      <trkpt lat="45.54993" lon="6.0966">
        <ele>972.9916992</ele>
        <time>2012-05-26T09:44:43Z</time>
      </trkpt>
      <trkpt lat="45.54996" lon="6.09664">
        <ele>968.6655273</ele>
        <time>2012-05-26T09:44:45Z</time>
      </trkpt>
      <trkpt lat="45.55004" lon="6.09673">
        <ele>959.5332031</ele>
        <time>2012-05-26T09:44:48Z</time>
      </trkpt>
      <trkpt lat="45.55012" lon="6.09689">
        <ele>940.7873535</ele>
        <time>2012-05-26T09:44:53Z</time>
      </trkpt>
      <trkpt lat="45.55015" lon="6.09697">
        <ele>931.1743164</ele>
        <time>2012-05-26T09:44:55Z</time>
      </trkpt>
      <trkpt lat="45.55019" lon="6.0972">
        <ele>910.0251465</ele>
        <time>2012-05-26T09:45:01Z</time>
      </trkpt>
      <trkpt lat="45.55019" lon="6.09728">
        <ele>905.2185059</ele>
        <time>2012-05-26T09:45:03Z</time>
      </trkpt>
      <trkpt lat="45.55025" lon="6.09752">
        <ele>893.2021484</ele>
        <time>2012-05-26T09:45:10Z</time>
      </trkpt>
      <trkpt lat="45.55026" lon="6.09755">
        <ele>891.7600098</ele>
        <time>2012-05-26T09:45:11Z</time>
      </trkpt>
      <trkpt lat="45.5503" lon="6.09765">
        <ele>890.798584</ele>
        <time>2012-05-26T09:45:14Z</time>
      </trkpt>
      <trkpt lat="45.55041" lon="6.09781">
        <ele>889.8374023</ele>
        <time>2012-05-26T09:45:19Z</time>
      </trkpt>
      <trkpt lat="45.55056" lon="6.09793">
        <ele>881.185791</ele>
        <time>2012-05-26T09:45:26Z</time>
      </trkpt>
      <trkpt lat="45.55061" lon="6.09801">
        <ele>881.6662598</ele>
        <time>2012-05-26T09:45:29Z</time>
      </trkpt>
      <trkpt lat="45.55063" lon="6.09804">
        <ele>881.6662598</ele>
        <time>2012-05-26T09:45:30Z</time>
      </trkpt>
      <trkpt lat="45.55064" lon="6.09806">
        <ele>881.185791</ele>
        <time>2012-05-26T09:45:31Z</time>
      </trkpt>
      <trkpt lat="45.5507" lon="6.09832">
        <ele>879.7436523</ele>
        <time>2012-05-26T09:45:38Z</time>
      </trkpt>
      <trkpt lat="45.55073" lon="6.09855">
        <ele>876.8598633</ele>
        <time>2012-05-26T09:45:44Z</time>
      </trkpt>
      <trkpt lat="45.55072" lon="6.09869">
        <ele>873.0144043</ele>
        <time>2012-05-26T09:45:49Z</time>
      </trkpt>
      <trkpt lat="45.55073" lon="6.09889">
        <ele>869.6499023</ele>
        <time>2012-05-26T09:45:54Z</time>
      </trkpt>
      <trkpt lat="45.55072" lon="6.09913">
        <ele>867.7270508</ele>
        <time>2012-05-26T09:45:59Z</time>
      </trkpt>
      <trkpt lat="45.55072" lon="6.0992">
        <ele>864.8432617</ele>
        <time>2012-05-26T09:46:01Z</time>
      </trkpt>
      <trkpt lat="45.55065" lon="6.09948">
        <ele>860.517334</ele>
        <time>2012-05-26T09:46:08Z</time>
      </trkpt>
      <trkpt lat="45.55059" lon="6.09969">
        <ele>857.6333008</ele>
        <time>2012-05-26T09:46:13Z</time>
      </trkpt>
      <trkpt lat="45.55059" lon="6.09976">
        <ele>857.6333008</ele>
        <time>2012-05-26T09:46:14Z</time>
      </trkpt>
      <trkpt lat="45.55059" lon="6.09981">
        <ele>856.671875</ele>
        <time>2012-05-26T09:46:15Z</time>
      </trkpt>
      <trkpt lat="45.55057" lon="6.09989">
        <ele>856.671875</ele>
        <time>2012-05-26T09:46:17Z</time>
      </trkpt>
      <trkpt lat="45.55055" lon="6.09999">
        <ele>856.671875</ele>
        <time>2012-05-26T09:46:19Z</time>
      </trkpt>
      <trkpt lat="45.55052" lon="6.10024">
        <ele>854.2687988</ele>
        <time>2012-05-26T09:46:25Z</time>
      </trkpt>
      <trkpt lat="45.55052" lon="6.10033">
        <ele>852.3459473</ele>
        <time>2012-05-26T09:46:27Z</time>
      </trkpt>
      <trkpt lat="45.55048" lon="6.10051">
        <ele>848.9814453</ele>
        <time>2012-05-26T09:46:32Z</time>
      </trkpt>
      <trkpt lat="45.5504" lon="6.10085">
        <ele>863.8818359</ele>
        <time>2012-05-26T09:46:36Z</time>
      </trkpt>
      <trkpt lat="45.55037" lon="6.10102">
        <ele>869.6499023</ele>
        <time>2012-05-26T09:46:38Z</time>
      </trkpt>
      <trkpt lat="45.55033" lon="6.1012">
        <ele>868.6884766</ele>
        <time>2012-05-26T09:46:43Z</time>
      </trkpt>
      <trkpt lat="45.55022" lon="6.10146">
        <ele>873.0144043</ele>
        <time>2012-05-26T09:46:49Z</time>
      </trkpt>
      <trkpt lat="45.5502" lon="6.1017">
        <ele>882.1469727</ele>
        <time>2012-05-26T09:46:54Z</time>
      </trkpt>
      <trkpt lat="45.55021" lon="6.10178">
        <ele>884.550293</ele>
        <time>2012-05-26T09:46:56Z</time>
      </trkpt>
      <trkpt lat="45.55021" lon="6.1018">
        <ele>884.550293</ele>
        <time>2012-05-26T09:46:57Z</time>
      </trkpt>
      <trkpt lat="45.55022" lon="6.10186">
        <ele>886.9533691</ele>
        <time>2012-05-26T09:46:59Z</time>
      </trkpt>
      <trkpt lat="45.55021" lon="6.1019">
        <ele>887.9147949</ele>
        <time>2012-05-26T09:47:00Z</time>
      </trkpt>
      <trkpt lat="45.55022" lon="6.10199">
        <ele>887.434082</ele>
        <time>2012-05-26T09:47:03Z</time>
      </trkpt>
      <trkpt lat="45.55023" lon="6.10203">
        <ele>887.9147949</ele>
        <time>2012-05-26T09:47:04Z</time>
      </trkpt>
      <trkpt lat="45.55024" lon="6.10218">
        <ele>891.2792969</ele>
        <time>2012-05-26T09:47:08Z</time>
      </trkpt>
      <trkpt lat="45.55024" lon="6.10228">
        <ele>894.1635742</ele>
        <time>2012-05-26T09:47:10Z</time>
      </trkpt>
      <trkpt lat="45.55025" lon="6.10233">
        <ele>896.0861816</ele>
        <time>2012-05-26T09:47:11Z</time>
      </trkpt>
      <trkpt lat="45.55025" lon="6.10239">
        <ele>899.4506836</ele>
        <time>2012-05-26T09:47:12Z</time>
      </trkpt>
      <trkpt lat="45.55022" lon="6.10256">
        <ele>912.9091797</ele>
        <time>2012-05-26T09:47:13Z</time>
      </trkpt>
      <trkpt lat="45.55021" lon="6.10279">
        <ele>924.4450684</ele>
        <time>2012-05-26T09:47:16Z</time>
      </trkpt>
      <trkpt lat="45.55025" lon="6.10309">
        <ele>935.0195313</ele>
        <time>2012-05-26T09:47:21Z</time>
      </trkpt>
      <trkpt lat="45.55031" lon="6.10319">
        <ele>937.4226074</ele>
        <time>2012-05-26T09:47:24Z</time>
      </trkpt>
      <trkpt lat="45.55033" lon="6.10323">
        <ele>937.9033203</ele>
        <time>2012-05-26T09:47:25Z</time>
      </trkpt>
      <trkpt lat="45.55037" lon="6.10329">
        <ele>938.3840332</ele>
        <time>2012-05-26T09:47:27Z</time>
      </trkpt>
      <trkpt lat="45.55047" lon="6.10343">
        <ele>935.9807129</ele>
        <time>2012-05-26T09:47:33Z</time>
      </trkpt>
      <trkpt lat="45.5506" lon="6.10347">
        <ele>933.5773926</ele>
        <time>2012-05-26T09:47:38Z</time>
      </trkpt>
      <trkpt lat="45.55074" lon="6.10345">
        <ele>930.2128906</ele>
        <time>2012-05-26T09:47:42Z</time>
      </trkpt>
      <trkpt lat="45.55079" lon="6.10344">
        <ele>929.7321777</ele>
        <time>2012-05-26T09:47:43Z</time>
      </trkpt>
      <trkpt lat="45.55092" lon="6.10339">
        <ele>925.8869629</ele>
        <time>2012-05-26T09:47:48Z</time>
      </trkpt>
      <trkpt lat="45.5511" lon="6.10339">
        <ele>924.4450684</ele>
        <time>2012-05-26T09:47:54Z</time>
      </trkpt>
      <trkpt lat="45.55117" lon="6.10342">
        <ele>923.9641113</ele>
        <time>2012-05-26T09:47:57Z</time>
      </trkpt>
      <trkpt lat="45.55134" lon="6.10351">
        <ele>925.40625</ele>
        <time>2012-05-26T09:48:03Z</time>
      </trkpt>
      <trkpt lat="45.55137" lon="6.10352">
        <ele>924.9257813</ele>
        <time>2012-05-26T09:48:04Z</time>
      </trkpt>
      <trkpt lat="45.55143" lon="6.10356">
        <ele>925.8869629</ele>
        <time>2012-05-26T09:48:06Z</time>
      </trkpt>
      <trkpt lat="45.55146" lon="6.10357">
        <ele>924.9257813</ele>
        <time>2012-05-26T09:48:07Z</time>
      </trkpt>
      <trkpt lat="45.5516" lon="6.10367">
        <ele>922.0415039</ele>
        <time>2012-05-26T09:48:12Z</time>
      </trkpt>
      <trkpt lat="45.55166" lon="6.1037">
        <ele>923.0029297</ele>
        <time>2012-05-26T09:48:14Z</time>
      </trkpt>
      <trkpt lat="45.55169" lon="6.10372">
        <ele>923.4836426</ele>
        <time>2012-05-26T09:48:15Z</time>
      </trkpt>
      <trkpt lat="45.55172" lon="6.10373">
        <ele>923.0029297</ele>
        <time>2012-05-26T09:48:16Z</time>
      </trkpt>
      <trkpt lat="45.55177" lon="6.10372">
        <ele>923.4836426</ele>
        <time>2012-05-26T09:48:18Z</time>
      </trkpt>
      <trkpt lat="45.5518" lon="6.10372">
        <ele>922.0415039</ele>
        <time>2012-05-26T09:48:19Z</time>
      </trkpt>
      <trkpt lat="45.55196" lon="6.10375">
        <ele>919.6384277</ele>
        <time>2012-05-26T09:48:23Z</time>
      </trkpt>
      <trkpt lat="45.552" lon="6.10375">
        <ele>920.1188965</ele>
        <time>2012-05-26T09:48:24Z</time>
      </trkpt>
      <trkpt lat="45.55216" lon="6.10378">
        <ele>917.7155762</ele>
        <time>2012-05-26T09:48:29Z</time>
      </trkpt>
      <trkpt lat="45.55219" lon="6.10379">
        <ele>917.7155762</ele>
        <time>2012-05-26T09:48:30Z</time>
      </trkpt>
      <trkpt lat="45.55225" lon="6.10379">
        <ele>918.677002</ele>
        <time>2012-05-26T09:48:32Z</time>
      </trkpt>
      <trkpt lat="45.55239" lon="6.10384">
        <ele>919.6384277</ele>
        <time>2012-05-26T09:48:37Z</time>
      </trkpt>
      <trkpt lat="45.55245" lon="6.10384">
        <ele>920.1188965</ele>
        <time>2012-05-26T09:48:39Z</time>
      </trkpt>
      <trkpt lat="45.55248" lon="6.10385">
        <ele>920.5996094</ele>
        <time>2012-05-26T09:48:40Z</time>
      </trkpt>
      <trkpt lat="45.55261" lon="6.10388">
        <ele>922.0415039</ele>
        <time>2012-05-26T09:48:44Z</time>
      </trkpt>
      <trkpt lat="45.55264" lon="6.10389">
        <ele>922.5222168</ele>
        <time>2012-05-26T09:48:45Z</time>
      </trkpt>
      <trkpt lat="45.55269" lon="6.10392">
        <ele>921.0803223</ele>
        <time>2012-05-26T09:48:47Z</time>
      </trkpt>
      <trkpt lat="45.55271" lon="6.10393">
        <ele>920.5996094</ele>
        <time>2012-05-26T09:48:48Z</time>
      </trkpt>
      <trkpt lat="45.55276" lon="6.10395">
        <ele>919.6384277</ele>
        <time>2012-05-26T09:48:50Z</time>
      </trkpt>
      <trkpt lat="45.55289" lon="6.10402">
        <ele>916.7543945</ele>
        <time>2012-05-26T09:48:55Z</time>
      </trkpt>
      <trkpt lat="45.55306" lon="6.10411">
        <ele>913.8703613</ele>
        <time>2012-05-26T09:49:01Z</time>
      </trkpt>
      <trkpt lat="45.5532" lon="6.10417">
        <ele>914.3510742</ele>
        <time>2012-05-26T09:49:06Z</time>
      </trkpt>
      <trkpt lat="45.55338" lon="6.10426">
        <ele>914.3510742</ele>
        <time>2012-05-26T09:49:13Z</time>
      </trkpt>
      <trkpt lat="45.55354" lon="6.10432">
        <ele>913.3898926</ele>
        <time>2012-05-26T09:49:19Z</time>
      </trkpt>
      <trkpt lat="45.55373" lon="6.1044">
        <ele>915.7932129</ele>
        <time>2012-05-26T09:49:24Z</time>
      </trkpt>
      <trkpt lat="45.55391" lon="6.10447">
        <ele>916.7543945</ele>
        <time>2012-05-26T09:49:30Z</time>
      </trkpt>
      <trkpt lat="45.55394" lon="6.10448">
        <ele>916.7543945</ele>
        <time>2012-05-26T09:49:31Z</time>
      </trkpt>
      <trkpt lat="45.55412" lon="6.10457">
        <ele>917.7155762</ele>
        <time>2012-05-26T09:49:37Z</time>
      </trkpt>
      <trkpt lat="45.55423" lon="6.10463">
        <ele>917.2351074</ele>
        <time>2012-05-26T09:49:40Z</time>
      </trkpt>
      <trkpt lat="45.55425" lon="6.10464">
        <ele>917.2351074</ele>
        <time>2012-05-26T09:49:41Z</time>
      </trkpt>
      <trkpt lat="45.55435" lon="6.10473">
        <ele>914.3510742</ele>
        <time>2012-05-26T09:49:46Z</time>
      </trkpt>
      <trkpt lat="45.55443" lon="6.10482">
        <ele>912.9091797</ele>
        <time>2012-05-26T09:49:49Z</time>
      </trkpt>
      <trkpt lat="45.55445" lon="6.10486">
        <ele>911.947998</ele>
        <time>2012-05-26T09:49:50Z</time>
      </trkpt>
      <trkpt lat="45.55448" lon="6.1049">
        <ele>910.5058594</ele>
        <time>2012-05-26T09:49:51Z</time>
      </trkpt>
      <trkpt lat="45.55456" lon="6.10506">
        <ele>905.6992188</ele>
        <time>2012-05-26T09:49:55Z</time>
      </trkpt>
      <trkpt lat="45.55464" lon="6.10527">
        <ele>900.8925781</ele>
        <time>2012-05-26T09:50:00Z</time>
      </trkpt>
      <trkpt lat="45.55472" lon="6.10543">
        <ele>898.9699707</ele>
        <time>2012-05-26T09:50:04Z</time>
      </trkpt>
      <trkpt lat="45.55474" lon="6.10546">
        <ele>898.4892578</ele>
        <time>2012-05-26T09:50:05Z</time>
      </trkpt>
      <trkpt lat="45.55476" lon="6.1055">
        <ele>897.5280762</ele>
        <time>2012-05-26T09:50:06Z</time>
      </trkpt>
      <trkpt lat="45.55478" lon="6.10553">
        <ele>896.5668945</ele>
        <time>2012-05-26T09:50:07Z</time>
      </trkpt>
      <trkpt lat="45.55479" lon="6.10557">
        <ele>895.6054688</ele>
        <time>2012-05-26T09:50:08Z</time>
      </trkpt>
      <trkpt lat="45.55489" lon="6.10567">
        <ele>897.0473633</ele>
        <time>2012-05-26T09:50:11Z</time>
      </trkpt>
      <trkpt lat="45.55492" lon="6.1057">
        <ele>896.5668945</ele>
        <time>2012-05-26T09:50:12Z</time>
      </trkpt>
      <trkpt lat="45.55506" lon="6.10587">
        <ele>892.7216797</ele>
        <time>2012-05-26T09:50:18Z</time>
      </trkpt>
      <trkpt lat="45.5552" lon="6.10598">
        <ele>891.2792969</ele>
        <time>2012-05-26T09:50:23Z</time>
      </trkpt>
      <trkpt lat="45.55536" lon="6.10609">
        <ele>892.2409668</ele>
        <time>2012-05-26T09:50:28Z</time>
      </trkpt>
      <trkpt lat="45.55539" lon="6.10611">
        <ele>892.7216797</ele>
        <time>2012-05-26T09:50:29Z</time>
      </trkpt>
      <trkpt lat="45.55544" lon="6.10616">
        <ele>893.2021484</ele>
        <time>2012-05-26T09:50:31Z</time>
      </trkpt>
      <trkpt lat="45.55548" lon="6.10617">
        <ele>894.1635742</ele>
        <time>2012-05-26T09:50:32Z</time>
      </trkpt>
      <trkpt lat="45.55551" lon="6.10621">
        <ele>894.1635742</ele>
        <time>2012-05-26T09:50:34Z</time>
      </trkpt>
      <trkpt lat="45.55563" lon="6.10627">
        <ele>892.7216797</ele>
        <time>2012-05-26T09:50:38Z</time>
      </trkpt>
      <trkpt lat="45.55567" lon="6.10629">
        <ele>892.2409668</ele>
        <time>2012-05-26T09:50:39Z</time>
      </trkpt>
      <trkpt lat="45.5557" lon="6.1063">
        <ele>892.2409668</ele>
        <time>2012-05-26T09:50:40Z</time>
      </trkpt>
      <trkpt lat="45.55574" lon="6.10632">
        <ele>892.7216797</ele>
        <time>2012-05-26T09:50:41Z</time>
      </trkpt>
      <trkpt lat="45.55588" lon="6.1064">
        <ele>891.7600098</ele>
        <time>2012-05-26T09:50:45Z</time>
      </trkpt>
      <trkpt lat="45.55592" lon="6.10643">
        <ele>890.798584</ele>
        <time>2012-05-26T09:50:46Z</time>
      </trkpt>
      <trkpt lat="45.55594" lon="6.10646">
        <ele>889.8374023</ele>
        <time>2012-05-26T09:50:47Z</time>
      </trkpt>
      <trkpt lat="45.55599" lon="6.10665">
        <ele>885.5114746</ele>
        <time>2012-05-26T09:50:52Z</time>
      </trkpt>
      <trkpt lat="45.55599" lon="6.10668">
        <ele>885.0310059</ele>
        <time>2012-05-26T09:50:53Z</time>
      </trkpt>
      <trkpt lat="45.55603" lon="6.10675">
        <ele>884.0695801</ele>
        <time>2012-05-26T09:50:55Z</time>
      </trkpt>
      <trkpt lat="45.55608" lon="6.10681">
        <ele>882.6276855</ele>
        <time>2012-05-26T09:50:57Z</time>
      </trkpt>
      <trkpt lat="45.5561" lon="6.10683">
        <ele>881.185791</ele>
        <time>2012-05-26T09:50:58Z</time>
      </trkpt>
      <trkpt lat="45.55622" lon="6.10698">
        <ele>874.9370117</ele>
        <time>2012-05-26T09:51:03Z</time>
      </trkpt>
      <trkpt lat="45.55636" lon="6.10712">
        <ele>870.611084</ele>
        <time>2012-05-26T09:51:08Z</time>
      </trkpt>
      <trkpt lat="45.55639" lon="6.10715">
        <ele>869.6499023</ele>
        <time>2012-05-26T09:51:09Z</time>
      </trkpt>
      <trkpt lat="45.55651" lon="6.10721">
        <ele>867.7270508</ele>
        <time>2012-05-26T09:51:12Z</time>
      </trkpt>
      <trkpt lat="45.55654" lon="6.10722">
        <ele>867.7270508</ele>
        <time>2012-05-26T09:51:13Z</time>
      </trkpt>
      <trkpt lat="45.55667" lon="6.1073">
        <ele>864.3625488</ele>
        <time>2012-05-26T09:51:18Z</time>
      </trkpt>
      <trkpt lat="45.55673" lon="6.10738">
        <ele>862.4399414</ele>
        <time>2012-05-26T09:51:21Z</time>
      </trkpt>
      <trkpt lat="45.55667" lon="6.10754">
        <ele>857.6333008</ele>
        <time>2012-05-26T09:51:26Z</time>
      </trkpt>
      <trkpt lat="45.55663" lon="6.1076">
        <ele>856.671875</ele>
        <time>2012-05-26T09:51:28Z</time>
      </trkpt>
      <trkpt lat="45.55661" lon="6.10763">
        <ele>856.1911621</ele>
        <time>2012-05-26T09:51:29Z</time>
      </trkpt>
      <trkpt lat="45.55645" lon="6.10787">
        <ele>850.423584</ele>
        <time>2012-05-26T09:51:37Z</time>
      </trkpt>
      <trkpt lat="45.55637" lon="6.10784">
        <ele>848.0202637</ele>
        <time>2012-05-26T09:51:40Z</time>
      </trkpt>
      <trkpt lat="45.55635" lon="6.1078">
        <ele>847.0588379</ele>
        <time>2012-05-26T09:51:41Z</time>
      </trkpt>
      <trkpt lat="45.55634" lon="6.10776">
        <ele>846.5783691</ele>
        <time>2012-05-26T09:51:42Z</time>
      </trkpt>
      <trkpt lat="45.55632" lon="6.10772">
        <ele>846.0976563</ele>
        <time>2012-05-26T09:51:43Z</time>
      </trkpt>
      <trkpt lat="45.55629" lon="6.10767">
        <ele>846.5783691</ele>
        <time>2012-05-26T09:51:45Z</time>
      </trkpt>
      <trkpt lat="45.55617" lon="6.10757">
        <ele>847.0588379</ele>
        <time>2012-05-26T09:51:51Z</time>
      </trkpt>
      <trkpt lat="45.55602" lon="6.10754">
        <ele>848.9814453</ele>
        <time>2012-05-26T09:51:57Z</time>
      </trkpt>
      <trkpt lat="45.55589" lon="6.10748">
        <ele>847.5395508</ele>
        <time>2012-05-26T09:52:02Z</time>
      </trkpt>
      <trkpt lat="45.55587" lon="6.10749">
        <ele>848.9814453</ele>
        <time>2012-05-26T09:52:03Z</time>
      </trkpt>
      <trkpt lat="45.5558" lon="6.10752">
        <ele>854.2687988</ele>
        <time>2012-05-26T09:52:06Z</time>
      </trkpt>
      <trkpt lat="45.55579" lon="6.10752">
        <ele>854.2687988</ele>
        <time>2012-05-26T09:52:07Z</time>
      </trkpt>
      <trkpt lat="45.55574" lon="6.1075">
        <ele>854.2687988</ele>
        <time>2012-05-26T09:52:11Z</time>
      </trkpt>
      <trkpt lat="45.55572" lon="6.1075">
        <ele>855.2299805</ele>
        <time>2012-05-26T09:52:12Z</time>
      </trkpt>
      <trkpt lat="45.55566" lon="6.10744">
        <ele>850.9040527</ele>
        <time>2012-05-26T09:52:18Z</time>
      </trkpt>
      <trkpt lat="45.55554" lon="6.10729">
        <ele>844.6555176</ele>
        <time>2012-05-26T09:52:28Z</time>
      </trkpt>
      <trkpt lat="45.55548" lon="6.10722">
        <ele>840.8100586</ele>
        <time>2012-05-26T09:52:34Z</time>
      </trkpt>
      <trkpt lat="45.55542" lon="6.1072">
        <ele>841.7714844</ele>
        <time>2012-05-26T09:52:39Z</time>
      </trkpt>
      <trkpt lat="45.55534" lon="6.10716">
        <ele>839.848877</ele>
        <time>2012-05-26T09:52:45Z</time>
      </trkpt>
      <trkpt lat="45.55524" lon="6.10712">
        <ele>840.3295898</ele>
        <time>2012-05-26T09:52:52Z</time>
      </trkpt>
      <trkpt lat="45.55521" lon="6.10711">
        <ele>840.3295898</ele>
        <time>2012-05-26T09:52:55Z</time>
      </trkpt>
      <trkpt lat="45.55519" lon="6.10724">
        <ele>846.5783691</ele>
        <time>2012-05-26T09:53:00Z</time>
      </trkpt>
      <trkpt lat="45.5552" lon="6.10728">
        <ele>847.0588379</ele>
        <time>2012-05-26T09:53:01Z</time>
      </trkpt>
      <trkpt lat="45.55523" lon="6.1074">
        <ele>848.9814453</ele>
        <time>2012-05-26T09:53:05Z</time>
      </trkpt>
      <trkpt lat="45.5553" lon="6.10763">
        <ele>850.9040527</ele>
        <time>2012-05-26T09:53:12Z</time>
      </trkpt>
      <trkpt lat="45.55535" lon="6.10782">
        <ele>848.9814453</ele>
        <time>2012-05-26T09:53:17Z</time>
      </trkpt>
      <trkpt lat="45.55536" lon="6.10785">
        <ele>848.5007324</ele>
        <time>2012-05-26T09:53:18Z</time>
      </trkpt>
      <trkpt lat="45.55542" lon="6.10806">
        <ele>845.1362305</ele>
        <time>2012-05-26T09:53:24Z</time>
      </trkpt>
      <trkpt lat="45.55543" lon="6.10822">
        <ele>841.2907715</ele>
        <time>2012-05-26T09:53:29Z</time>
      </trkpt>
      <trkpt lat="45.55544" lon="6.10834">
        <ele>837.9262695</ele>
        <time>2012-05-26T09:53:33Z</time>
      </trkpt>
      <trkpt lat="45.55537" lon="6.10834">
        <ele>833.1196289</ele>
        <time>2012-05-26T09:53:37Z</time>
      </trkpt>
      <trkpt lat="45.55527" lon="6.10821">
        <ele>825.909668</ele>
        <time>2012-05-26T09:53:43Z</time>
      </trkpt>
      <trkpt lat="45.55525" lon="6.10818">
        <ele>823.0258789</ele>
        <time>2012-05-26T09:53:45Z</time>
      </trkpt>
      <trkpt lat="45.5552" lon="6.10807">
        <ele>816.2966309</ele>
        <time>2012-05-26T09:53:50Z</time>
      </trkpt>
      <trkpt lat="45.55518" lon="6.10805">
        <ele>815.3354492</ele>
        <time>2012-05-26T09:53:51Z</time>
      </trkpt>
      <trkpt lat="45.55516" lon="6.10802">
        <ele>813.8933105</ele>
        <time>2012-05-26T09:53:52Z</time>
      </trkpt>
      <trkpt lat="45.55514" lon="6.10799">
        <ele>812.451416</ele>
        <time>2012-05-26T09:53:53Z</time>
      </trkpt>
      <trkpt lat="45.55508" lon="6.10793">
        <ele>808.1254883</ele>
        <time>2012-05-26T09:53:57Z</time>
      </trkpt>
      <trkpt lat="45.55503" lon="6.10792">
        <ele>806.6833496</ele>
        <time>2012-05-26T09:53:59Z</time>
      </trkpt>
      <trkpt lat="45.55493" lon="6.10785">
        <ele>797.5510254</ele>
        <time>2012-05-26T09:54:04Z</time>
      </trkpt>
      <trkpt lat="45.55488" lon="6.10781">
        <ele>794.1862793</ele>
        <time>2012-05-26T09:54:07Z</time>
      </trkpt>
      <trkpt lat="45.55486" lon="6.1078">
        <ele>793.2248535</ele>
        <time>2012-05-26T09:54:08Z</time>
      </trkpt>
      <trkpt lat="45.55478" lon="6.10774">
        <ele>786.4958496</ele>
        <time>2012-05-26T09:54:13Z</time>
      </trkpt>
      <trkpt lat="45.55475" lon="6.10775">
        <ele>787.4570313</ele>
        <time>2012-05-26T09:54:14Z</time>
      </trkpt>
      <trkpt lat="45.55465" lon="6.10776">
        <ele>785.0539551</ele>
        <time>2012-05-26T09:54:18Z</time>
      </trkpt>
      <trkpt lat="45.5546" lon="6.10778">
        <ele>784.5732422</ele>
        <time>2012-05-26T09:54:20Z</time>
      </trkpt>
      <trkpt lat="45.55451" lon="6.10788">
        <ele>783.1311035</ele>
        <time>2012-05-26T09:54:25Z</time>
      </trkpt>
      <trkpt lat="45.55443" lon="6.10793">
        <ele>781.2087402</ele>
        <time>2012-05-26T09:54:28Z</time>
      </trkpt>
      <trkpt lat="45.55429" lon="6.10796">
        <ele>777.3632813</ele>
        <time>2012-05-26T09:54:33Z</time>
      </trkpt>
      <trkpt lat="45.55413" lon="6.10798">
        <ele>771.5952148</ele>
        <time>2012-05-26T09:54:39Z</time>
      </trkpt>
      <trkpt lat="45.55411" lon="6.10799">
        <ele>771.1147461</ele>
        <time>2012-05-26T09:54:40Z</time>
      </trkpt>
      <trkpt lat="45.55408" lon="6.108">
        <ele>770.6340332</ele>
        <time>2012-05-26T09:54:41Z</time>
      </trkpt>
      <trkpt lat="45.55391" lon="6.1081">
        <ele>767.75</ele>
        <time>2012-05-26T09:54:47Z</time>
      </trkpt>
      <trkpt lat="45.55389" lon="6.10811">
        <ele>766.7888184</ele>
        <time>2012-05-26T09:54:48Z</time>
      </trkpt>
      <trkpt lat="45.55388" lon="6.10812">
        <ele>765.8276367</ele>
        <time>2012-05-26T09:54:49Z</time>
      </trkpt>
      <trkpt lat="45.55376" lon="6.10818">
        <ele>762.4626465</ele>
        <time>2012-05-26T09:54:55Z</time>
      </trkpt>
      <trkpt lat="45.55366" lon="6.10825">
        <ele>759.5788574</ele>
        <time>2012-05-26T09:55:00Z</time>
      </trkpt>
      <trkpt lat="45.55354" lon="6.10828">
        <ele>757.1755371</ele>
        <time>2012-05-26T09:55:06Z</time>
      </trkpt>
      <trkpt lat="45.55344" lon="6.10829">
        <ele>753.3303223</ele>
        <time>2012-05-26T09:55:11Z</time>
      </trkpt>
      <trkpt lat="45.55333" lon="6.10835">
        <ele>751.8884277</ele>
        <time>2012-05-26T09:55:16Z</time>
      </trkpt>
      <trkpt lat="45.55329" lon="6.10837">
        <ele>750.4465332</ele>
        <time>2012-05-26T09:55:18Z</time>
      </trkpt>
      <trkpt lat="45.55316" lon="6.10843">
        <ele>749.0043945</ele>
        <time>2012-05-26T09:55:24Z</time>
      </trkpt>
      <trkpt lat="45.55301" lon="6.10844">
        <ele>746.1203613</ele>
        <time>2012-05-26T09:55:30Z</time>
      </trkpt>
      <trkpt lat="45.55286" lon="6.10845">
        <ele>743.717041</ele>
        <time>2012-05-26T09:55:36Z</time>
      </trkpt>
      <trkpt lat="45.55275" lon="6.10848">
        <ele>740.8330078</ele>
        <time>2012-05-26T09:55:41Z</time>
      </trkpt>
      <trkpt lat="45.55269" lon="6.10849">
        <ele>738.4299316</ele>
        <time>2012-05-26T09:55:45Z</time>
      </trkpt>
      <trkpt lat="45.55268" lon="6.10849">
        <ele>737.9492188</ele>
        <time>2012-05-26T09:55:46Z</time>
      </trkpt>
      <trkpt lat="45.5526" lon="6.10849">
        <ele>735.5458984</ele>
        <time>2012-05-26T09:55:50Z</time>
      </trkpt>
      <trkpt lat="45.55256" lon="6.10848">
        <ele>733.623291</ele>
        <time>2012-05-26T09:55:52Z</time>
      </trkpt>
      <trkpt lat="45.5525" lon="6.1085">
        <ele>733.1425781</ele>
        <time>2012-05-26T09:55:54Z</time>
      </trkpt>
      <trkpt lat="45.55247" lon="6.10851">
        <ele>733.623291</ele>
        <time>2012-05-26T09:55:56Z</time>
      </trkpt>
      <trkpt lat="45.55234" lon="6.10852">
        <ele>728.3359375</ele>
        <time>2012-05-26T09:56:03Z</time>
      </trkpt>
      <trkpt lat="45.55227" lon="6.10849">
        <ele>725.4519043</ele>
        <time>2012-05-26T09:56:06Z</time>
      </trkpt>
      <trkpt lat="45.55211" lon="6.10852">
        <ele>723.529541</ele>
        <time>2012-05-26T09:56:13Z</time>
      </trkpt>
      <trkpt lat="45.55197" lon="6.10852">
        <ele>720.1647949</ele>
        <time>2012-05-26T09:56:19Z</time>
      </trkpt>
      <trkpt lat="45.55192" lon="6.10854">
        <ele>720.1647949</ele>
        <time>2012-05-26T09:56:21Z</time>
      </trkpt>
      <trkpt lat="45.55188" lon="6.10855">
        <ele>718.7229004</ele>
        <time>2012-05-26T09:56:23Z</time>
      </trkpt>
      <trkpt lat="45.55179" lon="6.10852">
        <ele>715.8388672</ele>
        <time>2012-05-26T09:56:27Z</time>
      </trkpt>
      <trkpt lat="45.55164" lon="6.10846">
        <ele>710.0708008</ele>
        <time>2012-05-26T09:56:33Z</time>
      </trkpt>
      <trkpt lat="45.55148" lon="6.10842">
        <ele>707.1870117</ele>
        <time>2012-05-26T09:56:40Z</time>
      </trkpt>
      <trkpt lat="45.55141" lon="6.10839">
        <ele>704.3032227</ele>
        <time>2012-05-26T09:56:44Z</time>
      </trkpt>
      <trkpt lat="45.55131" lon="6.10834">
        <ele>702.861084</ele>
        <time>2012-05-26T09:56:49Z</time>
      </trkpt>
      <trkpt lat="45.5512" lon="6.10832">
        <ele>700.4580078</ele>
        <time>2012-05-26T09:56:54Z</time>
      </trkpt>
      <trkpt lat="45.55111" lon="6.10833">
        <ele>704.7836914</ele>
        <time>2012-05-26T09:56:58Z</time>
      </trkpt>
      <trkpt lat="45.55104" lon="6.10829">
        <ele>711.0322266</ele>
        <time>2012-05-26T09:57:02Z</time>
      </trkpt>
      <trkpt lat="45.55098" lon="6.10815">
        <ele>716.800293</ele>
        <time>2012-05-26T09:57:08Z</time>
      </trkpt>
      <trkpt lat="45.55091" lon="6.10806">
        <ele>718.2421875</ele>
        <time>2012-05-26T09:57:12Z</time>
      </trkpt>
      <trkpt lat="45.55078" lon="6.10799">
        <ele>714.3967285</ele>
        <time>2012-05-26T09:57:18Z</time>
      </trkpt>
      <trkpt lat="45.55068" lon="6.10795">
        <ele>705.7451172</ele>
        <time>2012-05-26T09:57:23Z</time>
      </trkpt>
      <trkpt lat="45.55059" lon="6.10793">
        <ele>696.1318359</ele>
        <time>2012-05-26T09:57:27Z</time>
      </trkpt>
      <trkpt lat="45.55047" lon="6.10791">
        <ele>689.4025879</ele>
        <time>2012-05-26T09:57:32Z</time>
      </trkpt>
      <trkpt lat="45.55046" lon="6.1079">
        <ele>687.9606934</ele>
        <time>2012-05-26T09:57:33Z</time>
      </trkpt>
      <trkpt lat="45.55038" lon="6.10793">
        <ele>686.0380859</ele>
        <time>2012-05-26T09:57:37Z</time>
      </trkpt>
      <trkpt lat="45.55037" lon="6.10794">
        <ele>685.0769043</ele>
        <time>2012-05-26T09:57:38Z</time>
      </trkpt>
      <trkpt lat="45.55021" lon="6.10789">
        <ele>679.7893066</ele>
        <time>2012-05-26T09:57:44Z</time>
      </trkpt>
      <trkpt lat="45.5501" lon="6.10787">
        <ele>675.9440918</ele>
        <time>2012-05-26T09:57:49Z</time>
      </trkpt>
      <trkpt lat="45.54999" lon="6.10786">
        <ele>672.5795898</ele>
        <time>2012-05-26T09:57:55Z</time>
      </trkpt>
      <trkpt lat="45.54986" lon="6.10787">
        <ele>668.734375</ele>
        <time>2012-05-26T09:58:01Z</time>
      </trkpt>
      <trkpt lat="45.54975" lon="6.10786">
        <ele>666.8115234</ele>
        <time>2012-05-26T09:58:06Z</time>
      </trkpt>
      <trkpt lat="45.54957" lon="6.1079">
        <ele>668.2536621</ele>
        <time>2012-05-26T09:58:12Z</time>
      </trkpt>
      <trkpt lat="45.54942" lon="6.10796">
        <ele>672.5795898</ele>
        <time>2012-05-26T09:58:17Z</time>
      </trkpt>
      <trkpt lat="45.54939" lon="6.10798">
        <ele>674.5021973</ele>
        <time>2012-05-26T09:58:18Z</time>
      </trkpt>
      <trkpt lat="45.54925" lon="6.108">
        <ele>675.9440918</ele>
        <time>2012-05-26T09:58:23Z</time>
      </trkpt>
      <trkpt lat="45.5491" lon="6.10802">
        <ele>673.0603027</ele>
        <time>2012-05-26T09:58:28Z</time>
      </trkpt>
      <trkpt lat="45.54899" lon="6.108">
        <ele>672.098877</ele>
        <time>2012-05-26T09:58:32Z</time>
      </trkpt>
      <trkpt lat="45.54887" lon="6.10796">
        <ele>671.6181641</ele>
        <time>2012-05-26T09:58:38Z</time>
      </trkpt>
      <trkpt lat="45.54876" lon="6.10795">
        <ele>669.6958008</ele>
        <time>2012-05-26T09:58:44Z</time>
      </trkpt>
      <trkpt lat="45.54864" lon="6.10788">
        <ele>668.2536621</ele>
        <time>2012-05-26T09:58:49Z</time>
      </trkpt>
      <trkpt lat="45.54862" lon="6.10788">
        <ele>667.7727051</ele>
        <time>2012-05-26T09:58:50Z</time>
      </trkpt>
      <trkpt lat="45.54858" lon="6.1079">
        <ele>667.7727051</ele>
        <time>2012-05-26T09:58:52Z</time>
      </trkpt>
      <trkpt lat="45.54848" lon="6.10791">
        <ele>666.8115234</ele>
        <time>2012-05-26T09:58:56Z</time>
      </trkpt>
      <trkpt lat="45.54834" lon="6.10798">
        <ele>666.8115234</ele>
        <time>2012-05-26T09:59:01Z</time>
      </trkpt>
      <trkpt lat="45.54823" lon="6.10801">
        <ele>666.3308105</ele>
        <time>2012-05-26T09:59:05Z</time>
      </trkpt>
      <trkpt lat="45.54809" lon="6.10801">
        <ele>664.888916</ele>
        <time>2012-05-26T09:59:10Z</time>
      </trkpt>
      <trkpt lat="45.54803" lon="6.108">
        <ele>664.888916</ele>
        <time>2012-05-26T09:59:12Z</time>
      </trkpt>
      <trkpt lat="45.54794" lon="6.10798">
        <ele>662.9663086</ele>
        <time>2012-05-26T09:59:16Z</time>
      </trkpt>
      <trkpt lat="45.54784" lon="6.10788">
        <ele>659.1210938</ele>
        <time>2012-05-26T09:59:20Z</time>
      </trkpt>
      <trkpt lat="45.5477" lon="6.10782">
        <ele>660.0822754</ele>
        <time>2012-05-26T09:59:27Z</time>
      </trkpt>
      <trkpt lat="45.54758" lon="6.10772">
        <ele>660.5629883</ele>
        <time>2012-05-26T09:59:33Z</time>
      </trkpt>
      <trkpt lat="45.54753" lon="6.10768">
        <ele>660.5629883</ele>
        <time>2012-05-26T09:59:35Z</time>
      </trkpt>
      <trkpt lat="45.54736" lon="6.10757">
        <ele>659.6018066</ele>
        <time>2012-05-26T09:59:42Z</time>
      </trkpt>
      <trkpt lat="45.54724" lon="6.10745">
        <ele>652.8725586</ele>
        <time>2012-05-26T09:59:47Z</time>
      </trkpt>
      <trkpt lat="45.54714" lon="6.10733">
        <ele>645.6625977</ele>
        <time>2012-05-26T09:59:52Z</time>
      </trkpt>
      <trkpt lat="45.54708" lon="6.10726">
        <ele>644.7011719</ele>
        <time>2012-05-26T09:59:55Z</time>
      </trkpt>
      <trkpt lat="45.54705" lon="6.10722">
        <ele>642.7788086</ele>
        <time>2012-05-26T09:59:57Z</time>
      </trkpt>
      <trkpt lat="45.54698" lon="6.10711">
        <ele>637.0107422</ele>
        <time>2012-05-26T10:00:02Z</time>
      </trkpt>
      <trkpt lat="45.54695" lon="6.10705">
        <ele>633.6459961</ele>
        <time>2012-05-26T10:00:05Z</time>
      </trkpt>
      <trkpt lat="45.54693" lon="6.10701">
        <ele>632.6848145</ele>
        <time>2012-05-26T10:00:07Z</time>
      </trkpt>
      <trkpt lat="45.54692" lon="6.107">
        <ele>632.2041016</ele>
        <time>2012-05-26T10:00:08Z</time>
      </trkpt>
      <trkpt lat="45.54687" lon="6.1069">
        <ele>628.8395996</ele>
        <time>2012-05-26T10:00:13Z</time>
      </trkpt>
      <trkpt lat="45.5468" lon="6.10682">
        <ele>625.9555664</ele>
        <time>2012-05-26T10:00:17Z</time>
      </trkpt>
      <trkpt lat="45.54678" lon="6.1068">
        <ele>626.4362793</ele>
        <time>2012-05-26T10:00:18Z</time>
      </trkpt>
      <trkpt lat="45.54675" lon="6.10675">
        <ele>623.5524902</ele>
        <time>2012-05-26T10:00:20Z</time>
      </trkpt>
      <trkpt lat="45.54669" lon="6.1067">
        <ele>620.668457</ele>
        <time>2012-05-26T10:00:24Z</time>
      </trkpt>
      <trkpt lat="45.54659" lon="6.10655">
        <ele>614.4196777</ele>
        <time>2012-05-26T10:00:31Z</time>
      </trkpt>
      <trkpt lat="45.54656" lon="6.1065">
        <ele>613.9389648</ele>
        <time>2012-05-26T10:00:33Z</time>
      </trkpt>
      <trkpt lat="45.54649" lon="6.10643">
        <ele>613.9389648</ele>
        <time>2012-05-26T10:00:37Z</time>
      </trkpt>
      <trkpt lat="45.54647" lon="6.10641">
        <ele>613.4584961</ele>
        <time>2012-05-26T10:00:38Z</time>
      </trkpt>
      <trkpt lat="45.54634" lon="6.10636">
        <ele>616.3422852</ele>
        <time>2012-05-26T10:00:43Z</time>
      </trkpt>
      <trkpt lat="45.54619" lon="6.10627">
        <ele>610.09375</ele>
        <time>2012-05-26T10:00:51Z</time>
      </trkpt>
      <trkpt lat="45.54614" lon="6.10625">
        <ele>607.6906738</ele>
        <time>2012-05-26T10:00:53Z</time>
      </trkpt>
      <trkpt lat="45.54611" lon="6.10623">
        <ele>606.729248</ele>
        <time>2012-05-26T10:00:54Z</time>
      </trkpt>
      <trkpt lat="45.54607" lon="6.10619">
        <ele>604.8066406</ele>
        <time>2012-05-26T10:00:56Z</time>
      </trkpt>
      <trkpt lat="45.54599" lon="6.10609">
        <ele>602.4030762</ele>
        <time>2012-05-26T10:01:01Z</time>
      </trkpt>
      <trkpt lat="45.54589" lon="6.10595">
        <ele>596.1547852</ele>
        <time>2012-05-26T10:01:07Z</time>
      </trkpt>
      <trkpt lat="45.5458" lon="6.10581">
        <ele>590.3869629</ele>
        <time>2012-05-26T10:01:12Z</time>
      </trkpt>
      <trkpt lat="45.54568" lon="6.10573">
        <ele>585.0996094</ele>
        <time>2012-05-26T10:01:18Z</time>
      </trkpt>
      <trkpt lat="45.54564" lon="6.10571">
        <ele>584.6188965</ele>
        <time>2012-05-26T10:01:20Z</time>
      </trkpt>
      <trkpt lat="45.54552" lon="6.10561">
        <ele>578.3703613</ele>
        <time>2012-05-26T10:01:27Z</time>
      </trkpt>
      <trkpt lat="45.54542" lon="6.10548">
        <ele>571.6408691</ele>
        <time>2012-05-26T10:01:34Z</time>
      </trkpt>
      <trkpt lat="45.54534" lon="6.10531">
        <ele>565.3925781</ele>
        <time>2012-05-26T10:01:40Z</time>
      </trkpt>
      <trkpt lat="45.54526" lon="6.10519">
        <ele>562.0280762</ele>
        <time>2012-05-26T10:01:45Z</time>
      </trkpt>
      <trkpt lat="45.54518" lon="6.10503">
        <ele>555.298584</ele>
        <time>2012-05-26T10:01:51Z</time>
      </trkpt>
      <trkpt lat="45.54512" lon="6.10493">
        <ele>553.3759766</ele>
        <time>2012-05-26T10:01:55Z</time>
      </trkpt>
      <trkpt lat="45.5451" lon="6.1049">
        <ele>552.8952637</ele>
        <time>2012-05-26T10:01:56Z</time>
      </trkpt>
      <trkpt lat="45.54502" lon="6.10476">
        <ele>549.5307617</ele>
        <time>2012-05-26T10:02:01Z</time>
      </trkpt>
      <trkpt lat="45.54494" lon="6.10458">
        <ele>546.1662598</ele>
        <time>2012-05-26T10:02:08Z</time>
      </trkpt>
      <trkpt lat="45.5449" lon="6.10449">
        <ele>541.3594971</ele>
        <time>2012-05-26T10:02:13Z</time>
      </trkpt>
      <trkpt lat="45.54485" lon="6.10439">
        <ele>536.0723877</ele>
        <time>2012-05-26T10:02:18Z</time>
      </trkpt>
      <trkpt lat="45.54485" lon="6.10437">
        <ele>535.5915527</ele>
        <time>2012-05-26T10:02:19Z</time>
      </trkpt>
      <trkpt lat="45.54474" lon="6.10423">
        <ele>530.7851563</ele>
        <time>2012-05-26T10:02:27Z</time>
      </trkpt>
      <trkpt lat="45.54471" lon="6.1042">
        <ele>530.3044434</ele>
        <time>2012-05-26T10:02:29Z</time>
      </trkpt>
      <trkpt lat="45.54462" lon="6.10414">
        <ele>528.3818359</ele>
        <time>2012-05-26T10:02:34Z</time>
      </trkpt>
      <trkpt lat="45.54457" lon="6.10412">
        <ele>527.4204102</ele>
        <time>2012-05-26T10:02:36Z</time>
      </trkpt>
      <trkpt lat="45.54453" lon="6.10408">
        <ele>525.9783936</ele>
        <time>2012-05-26T10:02:39Z</time>
      </trkpt>
      <trkpt lat="45.54452" lon="6.10407">
        <ele>525.4978027</ele>
        <time>2012-05-26T10:02:40Z</time>
      </trkpt>
      <trkpt lat="45.54448" lon="6.10405">
        <ele>525.4978027</ele>
        <time>2012-05-26T10:02:43Z</time>
      </trkpt>
      <trkpt lat="45.54445" lon="6.10404">
        <ele>524.0557861</ele>
        <time>2012-05-26T10:02:46Z</time>
      </trkpt>
      <trkpt lat="45.54444" lon="6.10403">
        <ele>524.0557861</ele>
        <time>2012-05-26T10:02:47Z</time>
      </trkpt>
      <trkpt lat="45.54441" lon="6.10403">
        <ele>523.0946045</ele>
        <time>2012-05-26T10:02:50Z</time>
      </trkpt>
      <trkpt lat="45.5444" lon="6.10403">
        <ele>522.6138916</ele>
        <time>2012-05-26T10:02:51Z</time>
      </trkpt>
      <trkpt lat="45.54432" lon="6.10405">
        <ele>521.6525879</ele>
        <time>2012-05-26T10:02:56Z</time>
      </trkpt>
      <trkpt lat="45.54429" lon="6.10406">
        <ele>522.1331787</ele>
        <time>2012-05-26T10:02:58Z</time>
      </trkpt>
      <trkpt lat="45.54428" lon="6.10406">
        <ele>522.1331787</ele>
        <time>2012-05-26T10:02:59Z</time>
      </trkpt>
      <trkpt lat="45.54426" lon="6.10405">
        <ele>520.6912842</ele>
        <time>2012-05-26T10:03:00Z</time>
      </trkpt>
      <trkpt lat="45.54424" lon="6.10406">
        <ele>520.6912842</ele>
        <time>2012-05-26T10:03:01Z</time>
      </trkpt>
      <trkpt lat="45.54421" lon="6.10406">
        <ele>522.1331787</ele>
        <time>2012-05-26T10:03:03Z</time>
      </trkpt>
      <trkpt lat="45.54417" lon="6.10407">
        <ele>520.6912842</ele>
        <time>2012-05-26T10:03:05Z</time>
      </trkpt>
      <trkpt lat="45.54406" lon="6.10409">
        <ele>517.807251</ele>
        <time>2012-05-26T10:03:09Z</time>
      </trkpt>
      <trkpt lat="45.54404" lon="6.10411">
        <ele>517.807251</ele>
        <time>2012-05-26T10:03:10Z</time>
      </trkpt>
      <trkpt lat="45.54391" lon="6.10421">
        <ele>515.8846436</ele>
        <time>2012-05-26T10:03:17Z</time>
      </trkpt>
      <trkpt lat="45.54387" lon="6.10421">
        <ele>510.59729</ele>
        <time>2012-05-26T10:03:20Z</time>
      </trkpt>
      <trkpt lat="45.54378" lon="6.10425">
        <ele>506.2714844</ele>
        <time>2012-05-26T10:03:25Z</time>
      </trkpt>
      <trkpt lat="45.54372" lon="6.10427">
        <ele>504.8294678</ele>
        <time>2012-05-26T10:03:27Z</time>
      </trkpt>
      <trkpt lat="45.5436" lon="6.1043">
        <ele>498.5809326</ele>
        <time>2012-05-26T10:03:34Z</time>
      </trkpt>
      <trkpt lat="45.54353" lon="6.10431">
        <ele>497.138916</ele>
        <time>2012-05-26T10:03:37Z</time>
      </trkpt>
      <trkpt lat="45.54343" lon="6.10429">
        <ele>494.7355957</ele>
        <time>2012-05-26T10:03:42Z</time>
      </trkpt>
      <trkpt lat="45.54333" lon="6.10421">
        <ele>490.8903809</ele>
        <time>2012-05-26T10:03:47Z</time>
      </trkpt>
      <trkpt lat="45.54322" lon="6.10415">
        <ele>488.0064697</ele>
        <time>2012-05-26T10:03:52Z</time>
      </trkpt>
      <trkpt lat="45.5432" lon="6.10414">
        <ele>487.0450439</ele>
        <time>2012-05-26T10:03:53Z</time>
      </trkpt>
      <trkpt lat="45.54307" lon="6.10414">
        <ele>480.7966309</ele>
        <time>2012-05-26T10:03:59Z</time>
      </trkpt>
      <trkpt lat="45.54297" lon="6.10416">
        <ele>475.9898682</ele>
        <time>2012-05-26T10:04:03Z</time>
      </trkpt>
      <trkpt lat="45.54285" lon="6.10418">
        <ele>470.7026367</ele>
        <time>2012-05-26T10:04:08Z</time>
      </trkpt>
      <trkpt lat="45.5427" lon="6.10419">
        <ele>464.9348145</ele>
        <time>2012-05-26T10:04:14Z</time>
      </trkpt>
      <trkpt lat="45.54258" lon="6.1042">
        <ele>461.5701904</ele>
        <time>2012-05-26T10:04:19Z</time>
      </trkpt>
      <trkpt lat="45.54248" lon="6.1042">
        <ele>458.6861572</ele>
        <time>2012-05-26T10:04:23Z</time>
      </trkpt>
      <trkpt lat="45.54237" lon="6.10425">
        <ele>457.2442627</ele>
        <time>2012-05-26T10:04:28Z</time>
      </trkpt>
      <trkpt lat="45.54225" lon="6.10433">
        <ele>457.7249756</ele>
        <time>2012-05-26T10:04:33Z</time>
      </trkpt>
      <trkpt lat="45.54219" lon="6.10436">
        <ele>454.3602295</ele>
        <time>2012-05-26T10:04:36Z</time>
      </trkpt>
      <trkpt lat="45.54201" lon="6.10443">
        <ele>452.4376221</ele>
        <time>2012-05-26T10:04:44Z</time>
      </trkpt>
      <trkpt lat="45.54185" lon="6.10448">
        <ele>447.6309814</ele>
        <time>2012-05-26T10:04:49Z</time>
      </trkpt>
      <trkpt lat="45.54182" lon="6.1045">
        <ele>447.1502686</ele>
        <time>2012-05-26T10:04:50Z</time>
      </trkpt>
      <trkpt lat="45.54172" lon="6.1045">
        <ele>445.2276611</ele>
        <time>2012-05-26T10:04:53Z</time>
      </trkpt>
      <trkpt lat="45.54169" lon="6.10448">
        <ele>444.7470703</ele>
        <time>2012-05-26T10:04:54Z</time>
      </trkpt>
      <trkpt lat="45.54163" lon="6.10432">
        <ele>443.7857666</ele>
        <time>2012-05-26T10:04:58Z</time>
      </trkpt>
      <trkpt lat="45.54162" lon="6.10427">
        <ele>443.3050537</ele>
        <time>2012-05-26T10:04:59Z</time>
      </trkpt>
      <trkpt lat="45.54152" lon="6.10406">
        <ele>442.3438721</ele>
        <time>2012-05-26T10:05:04Z</time>
      </trkpt>
      <trkpt lat="45.54144" lon="6.10389">
        <ele>441.3824463</ele>
        <time>2012-05-26T10:05:09Z</time>
      </trkpt>
      <trkpt lat="45.54137" lon="6.10376">
        <ele>441.3824463</ele>
        <time>2012-05-26T10:05:13Z</time>
      </trkpt>
      <trkpt lat="45.54136" lon="6.10372">
        <ele>440.9018555</ele>
        <time>2012-05-26T10:05:14Z</time>
      </trkpt>
      <trkpt lat="45.54132" lon="6.10365">
        <ele>440.9018555</ele>
        <time>2012-05-26T10:05:16Z</time>
      </trkpt>
      <trkpt lat="45.5413" lon="6.10361">
        <ele>440.9018555</ele>
        <time>2012-05-26T10:05:17Z</time>
      </trkpt>
      <trkpt lat="45.54121" lon="6.10343">
        <ele>440.4212646</ele>
        <time>2012-05-26T10:05:22Z</time>
      </trkpt>
      <trkpt lat="45.5411" lon="6.1032">
        <ele>436.5759277</ele>
        <time>2012-05-26T10:05:28Z</time>
      </trkpt>
      <trkpt lat="45.54099" lon="6.103">
        <ele>435.614502</ele>
        <time>2012-05-26T10:05:34Z</time>
      </trkpt>
      <trkpt lat="45.54089" lon="6.10284">
        <ele>434.6533203</ele>
        <time>2012-05-26T10:05:39Z</time>
      </trkpt>
      <trkpt lat="45.54086" lon="6.10281">
        <ele>434.6533203</ele>
        <time>2012-05-26T10:05:40Z</time>
      </trkpt>
      <trkpt lat="45.54066" lon="6.10256">
        <ele>432.7307129</ele>
        <time>2012-05-26T10:05:48Z</time>
      </trkpt>
      <trkpt lat="45.54056" lon="6.10243">
        <ele>429.8465576</ele>
        <time>2012-05-26T10:05:52Z</time>
      </trkpt>
      <trkpt lat="45.54054" lon="6.1024">
        <ele>428.885376</ele>
        <time>2012-05-26T10:05:53Z</time>
      </trkpt>
      <trkpt lat="45.54049" lon="6.10234">
        <ele>427.9239502</ele>
        <time>2012-05-26T10:05:55Z</time>
      </trkpt>
      <trkpt lat="45.54036" lon="6.1022">
        <ele>425.0401611</ele>
        <time>2012-05-26T10:06:00Z</time>
      </trkpt>
      <trkpt lat="45.54022" lon="6.10207">
        <ele>421.1948242</ele>
        <time>2012-05-26T10:06:05Z</time>
      </trkpt>
      <trkpt lat="45.54009" lon="6.10192">
        <ele>417.3496094</ele>
        <time>2012-05-26T10:06:10Z</time>
      </trkpt>
      <trkpt lat="45.53992" lon="6.1018">
        <ele>414.946167</ele>
        <time>2012-05-26T10:06:16Z</time>
      </trkpt>
      <trkpt lat="45.53978" lon="6.10172">
        <ele>413.9848633</ele>
        <time>2012-05-26T10:06:21Z</time>
      </trkpt>
      <trkpt lat="45.53964" lon="6.10166">
        <ele>412.5428467</ele>
        <time>2012-05-26T10:06:26Z</time>
      </trkpt>
      <trkpt lat="45.5395" lon="6.10159">
        <ele>412.0622559</ele>
        <time>2012-05-26T10:06:31Z</time>
      </trkpt>
      <trkpt lat="45.53934" lon="6.1016">
        <ele>416.3881836</ele>
        <time>2012-05-26T10:06:36Z</time>
      </trkpt>
      <trkpt lat="45.53923" lon="6.10154">
        <ele>413.9848633</ele>
        <time>2012-05-26T10:06:40Z</time>
      </trkpt>
      <trkpt lat="45.53912" lon="6.10152">
        <ele>413.9848633</ele>
        <time>2012-05-26T10:06:44Z</time>
      </trkpt>
      <trkpt lat="45.53906" lon="6.10156">
        <ele>417.8302002</ele>
        <time>2012-05-26T10:06:46Z</time>
      </trkpt>
      <trkpt lat="45.53891" lon="6.10164">
        <ele>424.5594482</ele>
        <time>2012-05-26T10:06:51Z</time>
      </trkpt>
      <trkpt lat="45.5388" lon="6.10165">
        <ele>425.0401611</ele>
        <time>2012-05-26T10:06:55Z</time>
      </trkpt>
      <trkpt lat="45.53869" lon="6.10166">
        <ele>426.4820557</ele>
        <time>2012-05-26T10:06:59Z</time>
      </trkpt>
      <trkpt lat="45.53858" lon="6.10166">
        <ele>423.5980225</ele>
        <time>2012-05-26T10:07:04Z</time>
      </trkpt>
      <trkpt lat="45.53844" lon="6.10172">
        <ele>424.5594482</ele>
        <time>2012-05-26T10:07:09Z</time>
      </trkpt>
      <trkpt lat="45.53836" lon="6.10173">
        <ele>423.5980225</ele>
        <time>2012-05-26T10:07:12Z</time>
      </trkpt>
      <trkpt lat="45.53825" lon="6.10186">
        <ele>423.5980225</ele>
        <time>2012-05-26T10:07:18Z</time>
      </trkpt>
      <trkpt lat="45.53824" lon="6.10189">
        <ele>424.0787354</ele>
        <time>2012-05-26T10:07:19Z</time>
      </trkpt>
      <trkpt lat="45.53816" lon="6.10198">
        <ele>421.1948242</ele>
        <time>2012-05-26T10:07:25Z</time>
      </trkpt>
      <trkpt lat="45.53815" lon="6.10201">
        <ele>421.1948242</ele>
        <time>2012-05-26T10:07:26Z</time>
      </trkpt>
      <trkpt lat="45.53813" lon="6.10204">
        <ele>421.675415</ele>
        <time>2012-05-26T10:07:27Z</time>
      </trkpt>
      <trkpt lat="45.53806" lon="6.10212">
        <ele>422.1560059</ele>
        <time>2012-05-26T10:07:32Z</time>
      </trkpt>
      <trkpt lat="45.53805" lon="6.10214">
        <ele>423.1174316</ele>
        <time>2012-05-26T10:07:33Z</time>
      </trkpt>
      <trkpt lat="45.538" lon="6.10215">
        <ele>423.1174316</ele>
        <time>2012-05-26T10:07:36Z</time>
      </trkpt>
      <trkpt lat="45.53799" lon="6.10216">
        <ele>422.6367188</ele>
        <time>2012-05-26T10:07:37Z</time>
      </trkpt>
      <trkpt lat="45.53788" lon="6.10217">
        <ele>422.6367188</ele>
        <time>2012-05-26T10:07:44Z</time>
      </trkpt>
      <trkpt lat="45.53778" lon="6.10216">
        <ele>421.675415</ele>
        <time>2012-05-26T10:07:49Z</time>
      </trkpt>
      <trkpt lat="45.53774" lon="6.10216">
        <ele>422.1560059</ele>
        <time>2012-05-26T10:07:51Z</time>
      </trkpt>
      <trkpt lat="45.5376" lon="6.1021">
        <ele>425.520752</ele>
        <time>2012-05-26T10:07:59Z</time>
      </trkpt>
      <trkpt lat="45.5375" lon="6.10204">
        <ele>422.6367188</ele>
        <time>2012-05-26T10:08:06Z</time>
      </trkpt>
      <trkpt lat="45.53743" lon="6.102">
        <ele>424.0787354</ele>
        <time>2012-05-26T10:08:12Z</time>
      </trkpt>
      <trkpt lat="45.53733" lon="6.10194">
        <ele>425.520752</ele>
        <time>2012-05-26T10:08:19Z</time>
      </trkpt>
      <trkpt lat="45.53722" lon="6.10185">
        <ele>424.0787354</ele>
        <time>2012-05-26T10:08:24Z</time>
      </trkpt>
      <trkpt lat="45.53708" lon="6.1018">
        <ele>421.1948242</ele>
        <time>2012-05-26T10:08:29Z</time>
      </trkpt>
      <trkpt lat="45.53697" lon="6.10178">
        <ele>419.7528076</ele>
        <time>2012-05-26T10:08:33Z</time>
      </trkpt>
      <trkpt lat="45.53679" lon="6.10176">
        <ele>416.3881836</ele>
        <time>2012-05-26T10:08:39Z</time>
      </trkpt>
      <trkpt lat="45.53676" lon="6.10175">
        <ele>415.4268799</ele>
        <time>2012-05-26T10:08:40Z</time>
      </trkpt>
      <trkpt lat="45.53669" lon="6.1017">
        <ele>413.5042725</ele>
        <time>2012-05-26T10:08:43Z</time>
      </trkpt>
      <trkpt lat="45.53666" lon="6.10168">
        <ele>413.0235596</ele>
        <time>2012-05-26T10:08:44Z</time>
      </trkpt>
      <trkpt lat="45.53655" lon="6.10155">
        <ele>412.5428467</ele>
        <time>2012-05-26T10:08:49Z</time>
      </trkpt>
      <trkpt lat="45.53644" lon="6.10148">
        <ele>411.581665</ele>
        <time>2012-05-26T10:08:53Z</time>
      </trkpt>
      <trkpt lat="45.53629" lon="6.10143">
        <ele>414.4654541</ele>
        <time>2012-05-26T10:08:59Z</time>
      </trkpt>
      <trkpt lat="45.53612" lon="6.10136">
        <ele>415.9074707</ele>
        <time>2012-05-26T10:09:05Z</time>
      </trkpt>
      <trkpt lat="45.53596" lon="6.10133">
        <ele>421.675415</ele>
        <time>2012-05-26T10:09:11Z</time>
      </trkpt>
      <trkpt lat="45.53583" lon="6.10123">
        <ele>420.7141113</ele>
        <time>2012-05-26T10:09:16Z</time>
      </trkpt>
      <trkpt lat="45.53566" lon="6.10111">
        <ele>416.8688965</ele>
        <time>2012-05-26T10:09:23Z</time>
      </trkpt>
      <trkpt lat="45.53554" lon="6.10103">
        <ele>415.4268799</ele>
        <time>2012-05-26T10:09:28Z</time>
      </trkpt>
      <trkpt lat="45.53535" lon="6.10098">
        <ele>413.9848633</ele>
        <time>2012-05-26T10:09:35Z</time>
      </trkpt>
      <trkpt lat="45.5352" lon="6.10097">
        <ele>411.581665</ele>
        <time>2012-05-26T10:09:41Z</time>
      </trkpt>
      <trkpt lat="45.53518" lon="6.10096">
        <ele>410.6202393</ele>
        <time>2012-05-26T10:09:42Z</time>
      </trkpt>
      <trkpt lat="45.53515" lon="6.10096">
        <ele>409.6590576</ele>
        <time>2012-05-26T10:09:43Z</time>
      </trkpt>
      <trkpt lat="45.53501" lon="6.1009">
        <ele>405.8137207</ele>
        <time>2012-05-26T10:09:48Z</time>
      </trkpt>
      <trkpt lat="45.53489" lon="6.10084">
        <ele>402.4490967</ele>
        <time>2012-05-26T10:09:52Z</time>
      </trkpt>
      <trkpt lat="45.53474" lon="6.10078">
        <ele>405.3330078</ele>
        <time>2012-05-26T10:09:58Z</time>
      </trkpt>
      <trkpt lat="45.5346" lon="6.1007">
        <ele>407.7363281</ele>
        <time>2012-05-26T10:10:04Z</time>
      </trkpt>
      <trkpt lat="45.53459" lon="6.10067">
        <ele>407.2556152</ele>
        <time>2012-05-26T10:10:05Z</time>
      </trkpt>
      <trkpt lat="45.5345" lon="6.10051">
        <ele>404.8522949</ele>
        <time>2012-05-26T10:10:11Z</time>
      </trkpt>
      <trkpt lat="45.53448" lon="6.1005">
        <ele>404.8522949</ele>
        <time>2012-05-26T10:10:12Z</time>
      </trkpt>
      <trkpt lat="45.53441" lon="6.10031">
        <ele>397.1617432</ele>
        <time>2012-05-26T10:10:19Z</time>
      </trkpt>
      <trkpt lat="45.5344" lon="6.10026">
        <ele>394.2779541</ele>
        <time>2012-05-26T10:10:21Z</time>
      </trkpt>
      <trkpt lat="45.53437" lon="6.10015">
        <ele>392.8359375</ele>
        <time>2012-05-26T10:10:27Z</time>
      </trkpt>
      <trkpt lat="45.5343" lon="6.10003">
        <ele>396.2005615</ele>
        <time>2012-05-26T10:10:33Z</time>
      </trkpt>
      <trkpt lat="45.53425" lon="6.09995">
        <ele>395.7198486</ele>
        <time>2012-05-26T10:10:38Z</time>
      </trkpt>
      <trkpt lat="45.53423" lon="6.09986">
        <ele>393.3165283</ele>
        <time>2012-05-26T10:10:41Z</time>
      </trkpt>
      <trkpt lat="45.53423" lon="6.09983">
        <ele>389.4711914</ele>
        <time>2012-05-26T10:10:42Z</time>
      </trkpt>
      <trkpt lat="45.53421" lon="6.09977">
        <ele>387.548584</ele>
        <time>2012-05-26T10:10:46Z</time>
      </trkpt>
      <trkpt lat="45.53416" lon="6.0997">
        <ele>389.9519043</ele>
        <time>2012-05-26T10:10:51Z</time>
      </trkpt>
      <trkpt lat="45.53411" lon="6.09956">
        <ele>385.6259766</ele>
        <time>2012-05-26T10:10:57Z</time>
      </trkpt>
      <trkpt lat="45.5341" lon="6.09949">
        <ele>384.184082</ele>
        <time>2012-05-26T10:11:02Z</time>
      </trkpt>
      <trkpt lat="45.53411" lon="6.09948">
        <ele>384.184082</ele>
        <time>2012-05-26T10:11:03Z</time>
      </trkpt>
      <trkpt lat="45.53408" lon="6.09943">
        <ele>388.9906006</ele>
        <time>2012-05-26T10:11:07Z</time>
      </trkpt>
      <trkpt lat="45.53405" lon="6.0993">
        <ele>387.548584</ele>
        <time>2012-05-26T10:11:13Z</time>
      </trkpt>
      <trkpt lat="45.53406" lon="6.09924">
        <ele>391.3937988</ele>
        <time>2012-05-26T10:11:16Z</time>
      </trkpt>
      <trkpt lat="45.53402" lon="6.09918">
        <ele>388.0292969</ele>
        <time>2012-05-26T10:11:20Z</time>
      </trkpt>
      <trkpt lat="45.53398" lon="6.09913">
        <ele>394.2779541</ele>
        <time>2012-05-26T10:11:26Z</time>
      </trkpt>
      <trkpt lat="45.53397" lon="6.09909">
        <ele>394.2779541</ele>
        <time>2012-05-26T10:11:29Z</time>
      </trkpt>
      <trkpt lat="45.53392" lon="6.099">
        <ele>404.8522949</ele>
        <time>2012-05-26T10:11:36Z</time>
      </trkpt>
      <trkpt lat="45.53392" lon="6.09896">
        <ele>406.7749023</ele>
        <time>2012-05-26T10:11:38Z</time>
      </trkpt>
      <trkpt lat="45.53388" lon="6.09886">
        <ele>418.310791</ele>
        <time>2012-05-26T10:11:44Z</time>
      </trkpt>
      <trkpt lat="45.53388" lon="6.09884">
        <ele>417.8302002</ele>
        <time>2012-05-26T10:11:45Z</time>
      </trkpt>
      <trkpt lat="45.53384" lon="6.09875">
        <ele>414.4654541</ele>
        <time>2012-05-26T10:11:51Z</time>
      </trkpt>
      <trkpt lat="45.53385" lon="6.09873">
        <ele>414.4654541</ele>
        <time>2012-05-26T10:11:52Z</time>
      </trkpt>
      <trkpt lat="45.53384" lon="6.09872">
        <ele>413.9848633</ele>
        <time>2012-05-26T10:11:53Z</time>
      </trkpt>
      <trkpt lat="45.53383" lon="6.09867">
        <ele>413.9848633</ele>
        <time>2012-05-26T10:11:56Z</time>
      </trkpt>
      <trkpt lat="45.53383" lon="6.09862">
        <ele>415.9074707</ele>
        <time>2012-05-26T10:11:59Z</time>
      </trkpt>
      <trkpt lat="45.53382" lon="6.09859">
        <ele>415.4268799</ele>
        <time>2012-05-26T10:12:01Z</time>
      </trkpt>
      <trkpt lat="45.53377" lon="6.09854">
        <ele>418.7915039</ele>
        <time>2012-05-26T10:12:04Z</time>
      </trkpt>
      <trkpt lat="45.5337" lon="6.09841">
        <ele>417.3496094</ele>
        <time>2012-05-26T10:12:10Z</time>
      </trkpt>
      <trkpt lat="45.53362" lon="6.09831">
        <ele>420.2333984</ele>
        <time>2012-05-26T10:12:14Z</time>
      </trkpt>
      <trkpt lat="45.5335" lon="6.09818">
        <ele>422.1560059</ele>
        <time>2012-05-26T10:12:21Z</time>
      </trkpt>
      <trkpt lat="45.5334" lon="6.09807">
        <ele>423.1174316</ele>
        <time>2012-05-26T10:12:26Z</time>
      </trkpt>
      <trkpt lat="45.53332" lon="6.09798">
        <ele>426.4820557</ele>
        <time>2012-05-26T10:12:30Z</time>
      </trkpt>
      <trkpt lat="45.53321" lon="6.09786">
        <ele>428.885376</ele>
        <time>2012-05-26T10:12:36Z</time>
      </trkpt>
      <trkpt lat="45.53312" lon="6.09775">
        <ele>432.25</ele>
        <time>2012-05-26T10:12:41Z</time>
      </trkpt>
      <trkpt lat="45.5331" lon="6.09772">
        <ele>433.2113037</ele>
        <time>2012-05-26T10:12:42Z</time>
      </trkpt>
      <trkpt lat="45.53307" lon="6.0977">
        <ele>433.6918945</ele>
        <time>2012-05-26T10:12:43Z</time>
      </trkpt>
      <trkpt lat="45.533" lon="6.09763">
        <ele>434.1726074</ele>
        <time>2012-05-26T10:12:46Z</time>
      </trkpt>
      <trkpt lat="45.5329" lon="6.09757">
        <ele>432.7307129</ele>
        <time>2012-05-26T10:12:51Z</time>
      </trkpt>
      <trkpt lat="45.53288" lon="6.09754">
        <ele>433.6918945</ele>
        <time>2012-05-26T10:12:52Z</time>
      </trkpt>
      <trkpt lat="45.53278" lon="6.09743">
        <ele>431.2885742</ele>
        <time>2012-05-26T10:12:56Z</time>
      </trkpt>
      <trkpt lat="45.53267" lon="6.09732">
        <ele>429.3659668</ele>
        <time>2012-05-26T10:13:00Z</time>
      </trkpt>
      <trkpt lat="45.53254" lon="6.09713">
        <ele>428.4046631</ele>
        <time>2012-05-26T10:13:05Z</time>
      </trkpt>
      <trkpt lat="45.53243" lon="6.09697">
        <ele>427.4433594</ele>
        <time>2012-05-26T10:13:10Z</time>
      </trkpt>
      <trkpt lat="45.53233" lon="6.09684">
        <ele>426.9627686</ele>
        <time>2012-05-26T10:13:14Z</time>
      </trkpt>
      <trkpt lat="45.53227" lon="6.09674">
        <ele>417.8302002</ele>
        <time>2012-05-26T10:13:18Z</time>
      </trkpt>
      <trkpt lat="45.53224" lon="6.09671">
        <ele>416.8688965</ele>
        <time>2012-05-26T10:13:19Z</time>
      </trkpt>
      <trkpt lat="45.53208" lon="6.09655">
        <ele>409.6590576</ele>
        <time>2012-05-26T10:13:25Z</time>
      </trkpt>
      <trkpt lat="45.53196" lon="6.09641">
        <ele>405.8137207</ele>
        <time>2012-05-26T10:13:30Z</time>
      </trkpt>
      <trkpt lat="45.53182" lon="6.0963">
        <ele>404.3717041</ele>
        <time>2012-05-26T10:13:35Z</time>
      </trkpt>
      <trkpt lat="45.53172" lon="6.09618">
        <ele>399.0843506</ele>
        <time>2012-05-26T10:13:40Z</time>
      </trkpt>
      <trkpt lat="45.53163" lon="6.09606">
        <ele>397.1617432</ele>
        <time>2012-05-26T10:13:44Z</time>
      </trkpt>
      <trkpt lat="45.53151" lon="6.09587">
        <ele>396.2005615</ele>
        <time>2012-05-26T10:13:50Z</time>
      </trkpt>
      <trkpt lat="45.53144" lon="6.09579">
        <ele>395.7198486</ele>
        <time>2012-05-26T10:13:53Z</time>
      </trkpt>
      <trkpt lat="45.53142" lon="6.09577">
        <ele>396.2005615</ele>
        <time>2012-05-26T10:13:54Z</time>
      </trkpt>
      <trkpt lat="45.53128" lon="6.09561">
        <ele>394.7585449</ele>
        <time>2012-05-26T10:14:00Z</time>
      </trkpt>
      <trkpt lat="45.53113" lon="6.09549">
        <ele>393.7972412</ele>
        <time>2012-05-26T10:14:06Z</time>
      </trkpt>
      <trkpt lat="45.53098" lon="6.09535">
        <ele>393.7972412</ele>
        <time>2012-05-26T10:14:12Z</time>
      </trkpt>
      <trkpt lat="45.53096" lon="6.09533">
        <ele>393.7972412</ele>
        <time>2012-05-26T10:14:13Z</time>
      </trkpt>
      <trkpt lat="45.5308" lon="6.0951">
        <ele>386.1066895</ele>
        <time>2012-05-26T10:14:20Z</time>
      </trkpt>
      <trkpt lat="45.53066" lon="6.09486">
        <ele>380.3387451</ele>
        <time>2012-05-26T10:14:27Z</time>
      </trkpt>
      <trkpt lat="45.53053" lon="6.09467">
        <ele>377.9354248</ele>
        <time>2012-05-26T10:14:33Z</time>
      </trkpt>
      <trkpt lat="45.53047" lon="6.09457">
        <ele>377.454834</ele>
        <time>2012-05-26T10:14:36Z</time>
      </trkpt>
      <trkpt lat="45.53045" lon="6.09455">
        <ele>376.9742432</ele>
        <time>2012-05-26T10:14:37Z</time>
      </trkpt>
      <trkpt lat="45.53026" lon="6.0943">
        <ele>374.5708008</ele>
        <time>2012-05-26T10:14:45Z</time>
      </trkpt>
      <trkpt lat="45.53016" lon="6.09412">
        <ele>372.6481934</ele>
        <time>2012-05-26T10:14:50Z</time>
      </trkpt>
      <trkpt lat="45.53015" lon="6.09408">
        <ele>371.6868896</ele>
        <time>2012-05-26T10:14:51Z</time>
      </trkpt>
      <trkpt lat="45.53004" lon="6.09394">
        <ele>371.6868896</ele>
        <time>2012-05-26T10:14:56Z</time>
      </trkpt>
      <trkpt lat="45.52992" lon="6.09392">
        <ele>370.244873</ele>
        <time>2012-05-26T10:15:00Z</time>
      </trkpt>
      <trkpt lat="45.52977" lon="6.09388">
        <ele>368.3222656</ele>
        <time>2012-05-26T10:15:05Z</time>
      </trkpt>
      <trkpt lat="45.5296" lon="6.09378">
        <ele>366.880249</ele>
        <time>2012-05-26T10:15:11Z</time>
      </trkpt>
      <trkpt lat="45.52945" lon="6.0937">
        <ele>363.0350342</ele>
        <time>2012-05-26T10:15:16Z</time>
      </trkpt>
      <trkpt lat="45.52936" lon="6.09355">
        <ele>359.6704102</ele>
        <time>2012-05-26T10:15:20Z</time>
      </trkpt>
      <trkpt lat="45.5293" lon="6.09331">
        <ele>352.4605713</ele>
        <time>2012-05-26T10:15:25Z</time>
      </trkpt>
      <trkpt lat="45.52918" lon="6.09313">
        <ele>353.421875</ele>
        <time>2012-05-26T10:15:30Z</time>
      </trkpt>
      <trkpt lat="45.52906" lon="6.09295">
        <ele>355.3444824</ele>
        <time>2012-05-26T10:15:35Z</time>
      </trkpt>
      <trkpt lat="45.52893" lon="6.09272">
        <ele>358.2283936</ele>
        <time>2012-05-26T10:15:41Z</time>
      </trkpt>
      <trkpt lat="45.5288" lon="6.09246">
        <ele>361.1124268</ele>
        <time>2012-05-26T10:15:48Z</time>
      </trkpt>
      <trkpt lat="45.52877" lon="6.0924">
        <ele>361.5931396</ele>
        <time>2012-05-26T10:15:50Z</time>
      </trkpt>
      <trkpt lat="45.52874" lon="6.09236">
        <ele>361.5931396</ele>
        <time>2012-05-26T10:15:51Z</time>
      </trkpt>
      <trkpt lat="45.52872" lon="6.09233">
        <ele>362.0737305</ele>
        <time>2012-05-26T10:15:52Z</time>
      </trkpt>
      <trkpt lat="45.52858" lon="6.09226">
        <ele>361.5931396</ele>
        <time>2012-05-26T10:15:57Z</time>
      </trkpt>
      <trkpt lat="45.52841" lon="6.09215">
        <ele>363.0350342</ele>
        <time>2012-05-26T10:16:03Z</time>
      </trkpt>
      <trkpt lat="45.52829" lon="6.09212">
        <ele>362.0737305</ele>
        <time>2012-05-26T10:16:07Z</time>
      </trkpt>
      <trkpt lat="45.52815" lon="6.09214">
        <ele>361.5931396</ele>
        <time>2012-05-26T10:16:12Z</time>
      </trkpt>
      <trkpt lat="45.52802" lon="6.09219">
        <ele>360.151123</ele>
        <time>2012-05-26T10:16:17Z</time>
      </trkpt>
      <trkpt lat="45.52789" lon="6.09223">
        <ele>360.151123</ele>
        <time>2012-05-26T10:16:22Z</time>
      </trkpt>
      <trkpt lat="45.52784" lon="6.09225">
        <ele>360.6317139</ele>
        <time>2012-05-26T10:16:24Z</time>
      </trkpt>
      <trkpt lat="45.52781" lon="6.09226">
        <ele>360.6317139</ele>
        <time>2012-05-26T10:16:25Z</time>
      </trkpt>
      <trkpt lat="45.52769" lon="6.09231">
        <ele>362.5543213</ele>
        <time>2012-05-26T10:16:30Z</time>
      </trkpt>
      <trkpt lat="45.52759" lon="6.09246">
        <ele>364.4769287</ele>
        <time>2012-05-26T10:16:35Z</time>
      </trkpt>
      <trkpt lat="45.52749" lon="6.09263">
        <ele>365.9189453</ele>
        <time>2012-05-26T10:16:40Z</time>
      </trkpt>
      <trkpt lat="45.52744" lon="6.09279">
        <ele>364.4769287</ele>
        <time>2012-05-26T10:16:44Z</time>
      </trkpt>
      <trkpt lat="45.52735" lon="6.09302">
        <ele>361.5931396</ele>
        <time>2012-05-26T10:16:50Z</time>
      </trkpt>
      <trkpt lat="45.52727" lon="6.09321">
        <ele>358.7089844</ele>
        <time>2012-05-26T10:16:55Z</time>
      </trkpt>
      <trkpt lat="45.52715" lon="6.09336">
        <ele>357.2670898</ele>
        <time>2012-05-26T10:17:00Z</time>
      </trkpt>
      <trkpt lat="45.52705" lon="6.09341">
        <ele>355.8251953</ele>
        <time>2012-05-26T10:17:03Z</time>
      </trkpt>
      <trkpt lat="45.52691" lon="6.09344">
        <ele>354.8637695</ele>
        <time>2012-05-26T10:17:07Z</time>
      </trkpt>
      <trkpt lat="45.52674" lon="6.09337">
        <ele>353.421875</ele>
        <time>2012-05-26T10:17:12Z</time>
      </trkpt>
      <trkpt lat="45.52657" lon="6.09326">
        <ele>352.4605713</ele>
        <time>2012-05-26T10:17:17Z</time>
      </trkpt>
      <trkpt lat="45.52639" lon="6.09315">
        <ele>351.4991455</ele>
        <time>2012-05-26T10:17:23Z</time>
      </trkpt>
      <trkpt lat="45.52626" lon="6.09307">
        <ele>351.4991455</ele>
        <time>2012-05-26T10:17:27Z</time>
      </trkpt>
      <trkpt lat="45.52622" lon="6.09306">
        <ele>351.9798584</ele>
        <time>2012-05-26T10:17:28Z</time>
      </trkpt>
      <trkpt lat="45.52603" lon="6.09302">
        <ele>351.0184326</ele>
        <time>2012-05-26T10:17:33Z</time>
      </trkpt>
      <trkpt lat="45.52584" lon="6.09297">
        <ele>349.5765381</ele>
        <time>2012-05-26T10:17:38Z</time>
      </trkpt>
      <trkpt lat="45.52573" lon="6.09301">
        <ele>348.6152344</ele>
        <time>2012-05-26T10:17:42Z</time>
      </trkpt>
      <trkpt lat="45.5257" lon="6.09303">
        <ele>348.6152344</ele>
        <time>2012-05-26T10:17:43Z</time>
      </trkpt>
      <trkpt lat="45.52567" lon="6.09322">
        <ele>348.1346436</ele>
        <time>2012-05-26T10:17:48Z</time>
      </trkpt>
      <trkpt lat="45.52577" lon="6.09337">
        <ele>346.692627</ele>
        <time>2012-05-26T10:17:52Z</time>
      </trkpt>
      <trkpt lat="45.52597" lon="6.09371">
        <ele>344.2894287</ele>
        <time>2012-05-26T10:18:00Z</time>
      </trkpt>
      <trkpt lat="45.52607" lon="6.09389">
        <ele>342.3666992</ele>
        <time>2012-05-26T10:18:05Z</time>
      </trkpt>
      <trkpt lat="45.5261" lon="6.09389">
        <ele>337.0794678</ele>
        <time>2012-05-26T10:18:10Z</time>
      </trkpt>
      <trkpt lat="45.52612" lon="6.09388">
        <ele>333.7147217</ele>
        <time>2012-05-26T10:18:15Z</time>
      </trkpt>
      <trkpt lat="45.52615" lon="6.09386">
        <ele>332.2728271</ele>
        <time>2012-05-26T10:18:21Z</time>
      </trkpt>
      <trkpt lat="45.52616" lon="6.09386">
        <ele>332.75354</ele>
        <time>2012-05-26T10:18:29Z</time>
      </trkpt>
    </trkseg>
  </trk>
</gpx>